<?xml version="1.0" encoding="UTF-8" standalone="no" ?>
<gpx xmlns="http://www.topografix.com/GPX/1/1" xmlns:xsi="http://www.w3.org/2001/XMLSchema-instance" xsi:schemaLocation="http://www.topografix.com/GPX/1/1 http://www.topografix.com/GPX/1/1/gpx.xsd" version="1.1" creator="VisuGPX - https://www.visugpx.com">
  <metadata>
    <name>20150820 Balme Rosuel</name>
    <desc><![CDATA[Etape 3 du GR5]]></desc>
  </metadata>
  <trk>
    <name><![CDATA[20150820 Balme Rosuel_1]]></name>
    <trkseg>
      <trkpt lat="45.63211" lon="6.66906">
        <ele>2017.5</ele>
        <time>2015-08-20T07:14:46Z</time>
      </trkpt>
      <trkpt lat="45.63211" lon="6.66906">
        <ele>2017.5</ele>
        <time>2015-08-20T07:14:51Z</time>
      </trkpt>
      <trkpt lat="45.63219" lon="6.66908">
        <ele>2017.5</ele>
        <time>2015-08-20T07:15:16Z</time>
      </trkpt>
      <trkpt lat="45.63219" lon="6.66908">
        <ele>2017.5</ele>
        <time>2015-08-20T07:15:21Z</time>
      </trkpt>
      <trkpt lat="45.6322" lon="6.66908">
        <ele>2015.6968</ele>
        <time>2015-08-20T07:15:51Z</time>
      </trkpt>
      <trkpt lat="45.6322" lon="6.66907">
        <ele>2015.6968</ele>
        <time>2015-08-20T07:15:56Z</time>
      </trkpt>
      <trkpt lat="45.6322" lon="6.66907">
        <ele>2015.6968</ele>
        <time>2015-08-20T07:16:06Z</time>
      </trkpt>
      <trkpt lat="45.63218" lon="6.66906">
        <ele>2015.6968</ele>
        <time>2015-08-20T07:16:11Z</time>
      </trkpt>
      <trkpt lat="45.63204" lon="6.66893">
        <ele>2024.737</ele>
        <time>2015-08-20T07:16:21Z</time>
      </trkpt>
      <trkpt lat="45.63201" lon="6.66896">
        <ele>2024.737</ele>
        <time>2015-08-20T07:16:26Z</time>
      </trkpt>
      <trkpt lat="45.63198" lon="6.66914">
        <ele>2035.1113</ele>
        <time>2015-08-20T07:16:36Z</time>
      </trkpt>
      <trkpt lat="45.632" lon="6.66919">
        <ele>2035.1113</ele>
        <time>2015-08-20T07:16:41Z</time>
      </trkpt>
      <trkpt lat="45.63206" lon="6.66924">
        <ele>2045.4058</ele>
        <time>2015-08-20T07:16:51Z</time>
      </trkpt>
      <trkpt lat="45.63208" lon="6.66925">
        <ele>2045.4058</ele>
        <time>2015-08-20T07:16:56Z</time>
      </trkpt>
      <trkpt lat="45.63211" lon="6.66926">
        <ele>2045.4058</ele>
        <time>2015-08-20T07:17:06Z</time>
      </trkpt>
      <trkpt lat="45.63212" lon="6.66927">
        <ele>2045.4058</ele>
        <time>2015-08-20T07:17:11Z</time>
      </trkpt>
      <trkpt lat="45.63212" lon="6.66927">
        <ele>2045.4058</ele>
        <time>2015-08-20T07:17:21Z</time>
      </trkpt>
      <trkpt lat="45.63214" lon="6.66928">
        <ele>2045.4058</ele>
        <time>2015-08-20T07:17:26Z</time>
      </trkpt>
      <trkpt lat="45.63221" lon="6.66932">
        <ele>2055.4006</ele>
        <time>2015-08-20T07:17:36Z</time>
      </trkpt>
      <trkpt lat="45.63221" lon="6.66932">
        <ele>2055.4006</ele>
        <time>2015-08-20T07:17:41Z</time>
      </trkpt>
      <trkpt lat="45.63225" lon="6.66937">
        <ele>2055.4006</ele>
        <time>2015-08-20T07:17:56Z</time>
      </trkpt>
      <trkpt lat="45.63232" lon="6.66943">
        <ele>2064.1606</ele>
        <time>2015-08-20T07:18:06Z</time>
      </trkpt>
      <trkpt lat="45.63237" lon="6.66945">
        <ele>2064.1606</ele>
        <time>2015-08-20T07:18:11Z</time>
      </trkpt>
      <trkpt lat="45.63247" lon="6.66951">
        <ele>2071.2856</ele>
        <time>2015-08-20T07:18:21Z</time>
      </trkpt>
      <trkpt lat="45.63251" lon="6.66954">
        <ele>2071.2856</ele>
        <time>2015-08-20T07:18:26Z</time>
      </trkpt>
      <trkpt lat="45.63268" lon="6.66965">
        <ele>2076.2803</ele>
        <time>2015-08-20T07:18:41Z</time>
      </trkpt>
      <trkpt lat="45.63274" lon="6.66969">
        <ele>2076.2803</ele>
        <time>2015-08-20T07:18:46Z</time>
      </trkpt>
      <trkpt lat="45.6328" lon="6.66977">
        <ele>2079.176</ele>
        <time>2015-08-20T07:18:56Z</time>
      </trkpt>
      <trkpt lat="45.63279" lon="6.66982">
        <ele>2079.176</ele>
        <time>2015-08-20T07:19:01Z</time>
      </trkpt>
      <trkpt lat="45.63279" lon="6.66982">
        <ele>2079.176</ele>
        <time>2015-08-20T07:19:11Z</time>
      </trkpt>
      <trkpt lat="45.63279" lon="6.66983">
        <ele>2079.176</ele>
        <time>2015-08-20T07:20:41Z</time>
      </trkpt>
      <trkpt lat="45.63276" lon="6.66985">
        <ele>2079.176</ele>
        <time>2015-08-20T07:20:46Z</time>
      </trkpt>
      <trkpt lat="45.63273" lon="6.66987">
        <ele>2080.6465</ele>
        <time>2015-08-20T07:20:51Z</time>
      </trkpt>
      <trkpt lat="45.63267" lon="6.66991">
        <ele>2080.6465</ele>
        <time>2015-08-20T07:20:56Z</time>
      </trkpt>
      <trkpt lat="45.63261" lon="6.66994">
        <ele>2080.7932</ele>
        <time>2015-08-20T07:21:01Z</time>
      </trkpt>
      <trkpt lat="45.63256" lon="6.66999">
        <ele>2080.7932</ele>
        <time>2015-08-20T07:21:06Z</time>
      </trkpt>
      <trkpt lat="45.63251" lon="6.67001">
        <ele>2079.764</ele>
        <time>2015-08-20T07:21:11Z</time>
      </trkpt>
      <trkpt lat="45.63247" lon="6.67005">
        <ele>2079.764</ele>
        <time>2015-08-20T07:21:16Z</time>
      </trkpt>
      <trkpt lat="45.63243" lon="6.67008">
        <ele>2077.6643</ele>
        <time>2015-08-20T07:21:21Z</time>
      </trkpt>
      <trkpt lat="45.63237" lon="6.6701">
        <ele>2077.6643</ele>
        <time>2015-08-20T07:21:26Z</time>
      </trkpt>
      <trkpt lat="45.63231" lon="6.67013">
        <ele>2074.596</ele>
        <time>2015-08-20T07:21:31Z</time>
      </trkpt>
      <trkpt lat="45.63225" lon="6.67015">
        <ele>2074.596</ele>
        <time>2015-08-20T07:21:36Z</time>
      </trkpt>
      <trkpt lat="45.63223" lon="6.67022">
        <ele>2070.7983</ele>
        <time>2015-08-20T07:21:41Z</time>
      </trkpt>
      <trkpt lat="45.63221" lon="6.67029">
        <ele>2070.7983</ele>
        <time>2015-08-20T07:21:46Z</time>
      </trkpt>
      <trkpt lat="45.63223" lon="6.67036">
        <ele>2066.4524</ele>
        <time>2015-08-20T07:21:51Z</time>
      </trkpt>
      <trkpt lat="45.63228" lon="6.6704">
        <ele>2066.4524</ele>
        <time>2015-08-20T07:21:56Z</time>
      </trkpt>
      <trkpt lat="45.6323" lon="6.67041">
        <ele>2066.4524</ele>
        <time>2015-08-20T07:22:01Z</time>
      </trkpt>
      <trkpt lat="45.6323" lon="6.67041">
        <ele>2066.4524</ele>
        <time>2015-08-20T07:22:06Z</time>
      </trkpt>
      <trkpt lat="45.63231" lon="6.67042">
        <ele>2061.6746</ele>
        <time>2015-08-20T07:22:11Z</time>
      </trkpt>
      <trkpt lat="45.63235" lon="6.67045">
        <ele>2061.6746</ele>
        <time>2015-08-20T07:22:16Z</time>
      </trkpt>
      <trkpt lat="45.6324" lon="6.67048">
        <ele>2056.7458</ele>
        <time>2015-08-20T07:22:21Z</time>
      </trkpt>
      <trkpt lat="45.63245" lon="6.67051">
        <ele>2056.7458</ele>
        <time>2015-08-20T07:22:26Z</time>
      </trkpt>
      <trkpt lat="45.63249" lon="6.67056">
        <ele>2051.4011</ele>
        <time>2015-08-20T07:22:31Z</time>
      </trkpt>
      <trkpt lat="45.63254" lon="6.67059">
        <ele>2051.4011</ele>
        <time>2015-08-20T07:22:36Z</time>
      </trkpt>
      <trkpt lat="45.63259" lon="6.67063">
        <ele>2046.0686</ele>
        <time>2015-08-20T07:22:41Z</time>
      </trkpt>
      <trkpt lat="45.63264" lon="6.67067">
        <ele>2046.0686</ele>
        <time>2015-08-20T07:22:46Z</time>
      </trkpt>
      <trkpt lat="45.63269" lon="6.67069">
        <ele>2040.5189</ele>
        <time>2015-08-20T07:22:51Z</time>
      </trkpt>
      <trkpt lat="45.63274" lon="6.6707">
        <ele>2040.5189</ele>
        <time>2015-08-20T07:22:56Z</time>
      </trkpt>
      <trkpt lat="45.63278" lon="6.67071">
        <ele>2034.9054</ele>
        <time>2015-08-20T07:23:01Z</time>
      </trkpt>
      <trkpt lat="45.63283" lon="6.6707">
        <ele>2034.9054</ele>
        <time>2015-08-20T07:23:06Z</time>
      </trkpt>
      <trkpt lat="45.63289" lon="6.6707">
        <ele>2029.4565</ele>
        <time>2015-08-20T07:23:11Z</time>
      </trkpt>
      <trkpt lat="45.63295" lon="6.67072">
        <ele>2029.4565</ele>
        <time>2015-08-20T07:23:16Z</time>
      </trkpt>
      <trkpt lat="45.63301" lon="6.67075">
        <ele>2024.2738</ele>
        <time>2015-08-20T07:23:21Z</time>
      </trkpt>
      <trkpt lat="45.63307" lon="6.67076">
        <ele>2024.2738</ele>
        <time>2015-08-20T07:23:26Z</time>
      </trkpt>
      <trkpt lat="45.63311" lon="6.67077">
        <ele>2019.265</ele>
        <time>2015-08-20T07:23:31Z</time>
      </trkpt>
      <trkpt lat="45.63316" lon="6.67079">
        <ele>2019.265</ele>
        <time>2015-08-20T07:23:36Z</time>
      </trkpt>
      <trkpt lat="45.63322" lon="6.67082">
        <ele>2014.3152</ele>
        <time>2015-08-20T07:23:41Z</time>
      </trkpt>
      <trkpt lat="45.63329" lon="6.67083">
        <ele>2014.3152</ele>
        <time>2015-08-20T07:23:46Z</time>
      </trkpt>
      <trkpt lat="45.63335" lon="6.67084">
        <ele>2009.2479</ele>
        <time>2015-08-20T07:23:51Z</time>
      </trkpt>
      <trkpt lat="45.6334" lon="6.67086">
        <ele>2009.2479</ele>
        <time>2015-08-20T07:23:56Z</time>
      </trkpt>
      <trkpt lat="45.63345" lon="6.67088">
        <ele>2004.2427</ele>
        <time>2015-08-20T07:24:01Z</time>
      </trkpt>
      <trkpt lat="45.6335" lon="6.67094">
        <ele>2004.2427</ele>
        <time>2015-08-20T07:24:06Z</time>
      </trkpt>
      <trkpt lat="45.63354" lon="6.671">
        <ele>1999.333</ele>
        <time>2015-08-20T07:24:11Z</time>
      </trkpt>
      <trkpt lat="45.63358" lon="6.67105">
        <ele>1999.333</ele>
        <time>2015-08-20T07:24:16Z</time>
      </trkpt>
      <trkpt lat="45.63361" lon="6.67111">
        <ele>1994.7449</ele>
        <time>2015-08-20T07:24:21Z</time>
      </trkpt>
      <trkpt lat="45.63365" lon="6.67118">
        <ele>1994.7449</ele>
        <time>2015-08-20T07:24:26Z</time>
      </trkpt>
      <trkpt lat="45.63368" lon="6.67124">
        <ele>1990.4222</ele>
        <time>2015-08-20T07:24:31Z</time>
      </trkpt>
      <trkpt lat="45.63371" lon="6.67131">
        <ele>1990.4222</ele>
        <time>2015-08-20T07:24:36Z</time>
      </trkpt>
      <trkpt lat="45.63374" lon="6.67136">
        <ele>1986.1914</ele>
        <time>2015-08-20T07:24:41Z</time>
      </trkpt>
      <trkpt lat="45.63377" lon="6.67143">
        <ele>1986.1914</ele>
        <time>2015-08-20T07:24:46Z</time>
      </trkpt>
      <trkpt lat="45.63382" lon="6.67151">
        <ele>1982.1858</ele>
        <time>2015-08-20T07:24:51Z</time>
      </trkpt>
      <trkpt lat="45.63387" lon="6.67159">
        <ele>1982.1858</ele>
        <time>2015-08-20T07:24:56Z</time>
      </trkpt>
      <trkpt lat="45.6339" lon="6.67166">
        <ele>1978.4209</ele>
        <time>2015-08-20T07:25:01Z</time>
      </trkpt>
      <trkpt lat="45.63393" lon="6.67172">
        <ele>1978.4209</ele>
        <time>2015-08-20T07:25:06Z</time>
      </trkpt>
      <trkpt lat="45.63395" lon="6.67178">
        <ele>1974.8162</ele>
        <time>2015-08-20T07:25:11Z</time>
      </trkpt>
      <trkpt lat="45.63397" lon="6.67185">
        <ele>1974.8162</ele>
        <time>2015-08-20T07:25:16Z</time>
      </trkpt>
      <trkpt lat="45.63399" lon="6.67193">
        <ele>1971.2561</ele>
        <time>2015-08-20T07:25:21Z</time>
      </trkpt>
      <trkpt lat="45.63401" lon="6.67202">
        <ele>1971.2561</ele>
        <time>2015-08-20T07:25:26Z</time>
      </trkpt>
      <trkpt lat="45.63403" lon="6.6721">
        <ele>1967.6897</ele>
        <time>2015-08-20T07:25:31Z</time>
      </trkpt>
      <trkpt lat="45.63405" lon="6.67219">
        <ele>1967.6897</ele>
        <time>2015-08-20T07:25:36Z</time>
      </trkpt>
      <trkpt lat="45.63407" lon="6.67226">
        <ele>1964.0276</ele>
        <time>2015-08-20T07:25:41Z</time>
      </trkpt>
      <trkpt lat="45.6341" lon="6.67234">
        <ele>1964.0276</ele>
        <time>2015-08-20T07:25:46Z</time>
      </trkpt>
      <trkpt lat="45.63412" lon="6.67242">
        <ele>1960.3146</ele>
        <time>2015-08-20T07:25:51Z</time>
      </trkpt>
      <trkpt lat="45.63415" lon="6.67249">
        <ele>1960.3146</ele>
        <time>2015-08-20T07:25:56Z</time>
      </trkpt>
      <trkpt lat="45.63417" lon="6.67256">
        <ele>1956.4932</ele>
        <time>2015-08-20T07:26:01Z</time>
      </trkpt>
      <trkpt lat="45.6342" lon="6.67264">
        <ele>1956.4932</ele>
        <time>2015-08-20T07:26:06Z</time>
      </trkpt>
      <trkpt lat="45.63423" lon="6.67274">
        <ele>1952.6111</ele>
        <time>2015-08-20T07:26:11Z</time>
      </trkpt>
      <trkpt lat="45.63426" lon="6.67281">
        <ele>1952.6111</ele>
        <time>2015-08-20T07:26:16Z</time>
      </trkpt>
      <trkpt lat="45.63427" lon="6.67285">
        <ele>1952.6111</ele>
        <time>2015-08-20T07:26:21Z</time>
      </trkpt>
      <trkpt lat="45.63428" lon="6.67291">
        <ele>1948.3208</ele>
        <time>2015-08-20T07:26:26Z</time>
      </trkpt>
      <trkpt lat="45.63429" lon="6.67297">
        <ele>1948.3208</ele>
        <time>2015-08-20T07:26:31Z</time>
      </trkpt>
      <trkpt lat="45.63426" lon="6.67305">
        <ele>1944.1006</ele>
        <time>2015-08-20T07:26:36Z</time>
      </trkpt>
      <trkpt lat="45.63422" lon="6.67313">
        <ele>1944.1006</ele>
        <time>2015-08-20T07:26:41Z</time>
      </trkpt>
      <trkpt lat="45.63419" lon="6.67321">
        <ele>1940.3293</ele>
        <time>2015-08-20T07:26:46Z</time>
      </trkpt>
      <trkpt lat="45.63418" lon="6.67331">
        <ele>1940.3293</ele>
        <time>2015-08-20T07:26:51Z</time>
      </trkpt>
      <trkpt lat="45.63417" lon="6.67339">
        <ele>1936.8431</ele>
        <time>2015-08-20T07:26:56Z</time>
      </trkpt>
      <trkpt lat="45.63415" lon="6.67346">
        <ele>1936.8431</ele>
        <time>2015-08-20T07:27:01Z</time>
      </trkpt>
      <trkpt lat="45.63414" lon="6.67352">
        <ele>1933.4851</ele>
        <time>2015-08-20T07:27:06Z</time>
      </trkpt>
      <trkpt lat="45.63412" lon="6.67359">
        <ele>1933.4851</ele>
        <time>2015-08-20T07:27:11Z</time>
      </trkpt>
      <trkpt lat="45.6341" lon="6.67368">
        <ele>1930.3899</ele>
        <time>2015-08-20T07:27:16Z</time>
      </trkpt>
      <trkpt lat="45.63408" lon="6.67376">
        <ele>1930.3899</ele>
        <time>2015-08-20T07:27:21Z</time>
      </trkpt>
      <trkpt lat="45.63404" lon="6.67382">
        <ele>1927.7269</ele>
        <time>2015-08-20T07:27:26Z</time>
      </trkpt>
      <trkpt lat="45.63399" lon="6.67386">
        <ele>1927.7269</ele>
        <time>2015-08-20T07:27:31Z</time>
      </trkpt>
      <trkpt lat="45.63398" lon="6.67388">
        <ele>1927.7269</ele>
        <time>2015-08-20T07:27:36Z</time>
      </trkpt>
      <trkpt lat="45.63398" lon="6.67388">
        <ele>1927.7269</ele>
        <time>2015-08-20T07:27:41Z</time>
      </trkpt>
      <trkpt lat="45.63393" lon="6.67392">
        <ele>1925.5157</ele>
        <time>2015-08-20T07:27:46Z</time>
      </trkpt>
      <trkpt lat="45.63392" lon="6.67393">
        <ele>1925.5157</ele>
        <time>2015-08-20T07:27:51Z</time>
      </trkpt>
      <trkpt lat="45.63392" lon="6.67393">
        <ele>1925.5157</ele>
        <time>2015-08-20T07:27:56Z</time>
      </trkpt>
      <trkpt lat="45.63391" lon="6.67394">
        <ele>1925.5157</ele>
        <time>2015-08-20T07:28:36Z</time>
      </trkpt>
      <trkpt lat="45.6339" lon="6.67394">
        <ele>1925.5157</ele>
        <time>2015-08-20T07:28:41Z</time>
      </trkpt>
      <trkpt lat="45.63385" lon="6.67398">
        <ele>1925.5157</ele>
        <time>2015-08-20T07:28:46Z</time>
      </trkpt>
      <trkpt lat="45.63379" lon="6.67401">
        <ele>1923.6959</ele>
        <time>2015-08-20T07:28:51Z</time>
      </trkpt>
      <trkpt lat="45.63374" lon="6.67402">
        <ele>1923.6959</ele>
        <time>2015-08-20T07:28:56Z</time>
      </trkpt>
      <trkpt lat="45.63367" lon="6.67403">
        <ele>1922.118</ele>
        <time>2015-08-20T07:29:01Z</time>
      </trkpt>
      <trkpt lat="45.63361" lon="6.67403">
        <ele>1922.118</ele>
        <time>2015-08-20T07:29:06Z</time>
      </trkpt>
      <trkpt lat="45.63355" lon="6.67403">
        <ele>1920.8081</ele>
        <time>2015-08-20T07:29:11Z</time>
      </trkpt>
      <trkpt lat="45.63349" lon="6.67405">
        <ele>1920.8081</ele>
        <time>2015-08-20T07:29:16Z</time>
      </trkpt>
      <trkpt lat="45.63343" lon="6.67411">
        <ele>1919.7432</ele>
        <time>2015-08-20T07:29:21Z</time>
      </trkpt>
      <trkpt lat="45.63339" lon="6.67417">
        <ele>1919.7432</ele>
        <time>2015-08-20T07:29:26Z</time>
      </trkpt>
      <trkpt lat="45.63335" lon="6.67424">
        <ele>1918.7501</ele>
        <time>2015-08-20T07:29:31Z</time>
      </trkpt>
      <trkpt lat="45.63331" lon="6.6743">
        <ele>1918.7501</ele>
        <time>2015-08-20T07:29:36Z</time>
      </trkpt>
      <trkpt lat="45.63329" lon="6.67438">
        <ele>1917.7745</ele>
        <time>2015-08-20T07:29:41Z</time>
      </trkpt>
      <trkpt lat="45.63328" lon="6.67446">
        <ele>1917.7745</ele>
        <time>2015-08-20T07:29:46Z</time>
      </trkpt>
      <trkpt lat="45.63327" lon="6.67453">
        <ele>1916.842</ele>
        <time>2015-08-20T07:29:51Z</time>
      </trkpt>
      <trkpt lat="45.63323" lon="6.67455">
        <ele>1916.842</ele>
        <time>2015-08-20T07:29:56Z</time>
      </trkpt>
      <trkpt lat="45.63319" lon="6.67457">
        <ele>1916.842</ele>
        <time>2015-08-20T07:30:01Z</time>
      </trkpt>
      <trkpt lat="45.63314" lon="6.67457">
        <ele>1915.9006</ele>
        <time>2015-08-20T07:30:06Z</time>
      </trkpt>
      <trkpt lat="45.6331" lon="6.67459">
        <ele>1915.9006</ele>
        <time>2015-08-20T07:30:11Z</time>
      </trkpt>
      <trkpt lat="45.63306" lon="6.67463">
        <ele>1915.9006</ele>
        <time>2015-08-20T07:30:16Z</time>
      </trkpt>
      <trkpt lat="45.63302" lon="6.67468">
        <ele>1914.9331</ele>
        <time>2015-08-20T07:30:21Z</time>
      </trkpt>
      <trkpt lat="45.63296" lon="6.6747">
        <ele>1914.9331</ele>
        <time>2015-08-20T07:30:26Z</time>
      </trkpt>
      <trkpt lat="45.6329" lon="6.67472">
        <ele>1913.9684</ele>
        <time>2015-08-20T07:30:31Z</time>
      </trkpt>
      <trkpt lat="45.63285" lon="6.67469">
        <ele>1913.9684</ele>
        <time>2015-08-20T07:30:36Z</time>
      </trkpt>
      <trkpt lat="45.63278" lon="6.67468">
        <ele>1913.0784</ele>
        <time>2015-08-20T07:30:41Z</time>
      </trkpt>
      <trkpt lat="45.63272" lon="6.67469">
        <ele>1913.0784</ele>
        <time>2015-08-20T07:30:46Z</time>
      </trkpt>
      <trkpt lat="45.63266" lon="6.67477">
        <ele>1912.254</ele>
        <time>2015-08-20T07:30:51Z</time>
      </trkpt>
      <trkpt lat="45.63264" lon="6.67486">
        <ele>1912.254</ele>
        <time>2015-08-20T07:30:56Z</time>
      </trkpt>
      <trkpt lat="45.63261" lon="6.67495">
        <ele>1911.4575</ele>
        <time>2015-08-20T07:31:01Z</time>
      </trkpt>
      <trkpt lat="45.63257" lon="6.67502">
        <ele>1911.4575</ele>
        <time>2015-08-20T07:31:06Z</time>
      </trkpt>
      <trkpt lat="45.63253" lon="6.67506">
        <ele>1910.7427</ele>
        <time>2015-08-20T07:31:11Z</time>
      </trkpt>
      <trkpt lat="45.63248" lon="6.67507">
        <ele>1910.7427</ele>
        <time>2015-08-20T07:31:16Z</time>
      </trkpt>
      <trkpt lat="45.63243" lon="6.6751">
        <ele>1910.0408</ele>
        <time>2015-08-20T07:31:21Z</time>
      </trkpt>
      <trkpt lat="45.63239" lon="6.67515">
        <ele>1910.0408</ele>
        <time>2015-08-20T07:31:26Z</time>
      </trkpt>
      <trkpt lat="45.63235" lon="6.67518">
        <ele>1909.3478</ele>
        <time>2015-08-20T07:31:31Z</time>
      </trkpt>
      <trkpt lat="45.63231" lon="6.67519">
        <ele>1909.3478</ele>
        <time>2015-08-20T07:31:36Z</time>
      </trkpt>
      <trkpt lat="45.63226" lon="6.67518">
        <ele>1908.6306</ele>
        <time>2015-08-20T07:31:41Z</time>
      </trkpt>
      <trkpt lat="45.6322" lon="6.67518">
        <ele>1908.6306</ele>
        <time>2015-08-20T07:31:46Z</time>
      </trkpt>
      <trkpt lat="45.63216" lon="6.67519">
        <ele>1907.859</ele>
        <time>2015-08-20T07:31:51Z</time>
      </trkpt>
      <trkpt lat="45.63212" lon="6.6752">
        <ele>1907.859</ele>
        <time>2015-08-20T07:31:56Z</time>
      </trkpt>
      <trkpt lat="45.63208" lon="6.67521">
        <ele>1907.859</ele>
        <time>2015-08-20T07:32:01Z</time>
      </trkpt>
      <trkpt lat="45.63202" lon="6.67521">
        <ele>1906.9321</ele>
        <time>2015-08-20T07:32:06Z</time>
      </trkpt>
      <trkpt lat="45.63197" lon="6.67524">
        <ele>1906.9321</ele>
        <time>2015-08-20T07:32:11Z</time>
      </trkpt>
      <trkpt lat="45.63192" lon="6.67524">
        <ele>1905.8894</ele>
        <time>2015-08-20T07:32:16Z</time>
      </trkpt>
      <trkpt lat="45.63187" lon="6.67526">
        <ele>1905.8894</ele>
        <time>2015-08-20T07:32:21Z</time>
      </trkpt>
      <trkpt lat="45.63182" lon="6.67528">
        <ele>1904.6649</ele>
        <time>2015-08-20T07:32:26Z</time>
      </trkpt>
      <trkpt lat="45.63179" lon="6.6753">
        <ele>1904.6649</ele>
        <time>2015-08-20T07:32:31Z</time>
      </trkpt>
      <trkpt lat="45.63172" lon="6.6753">
        <ele>1903.3882</ele>
        <time>2015-08-20T07:32:36Z</time>
      </trkpt>
      <trkpt lat="45.63165" lon="6.67529">
        <ele>1903.3882</ele>
        <time>2015-08-20T07:32:41Z</time>
      </trkpt>
      <trkpt lat="45.63159" lon="6.6753">
        <ele>1902.0475</ele>
        <time>2015-08-20T07:32:46Z</time>
      </trkpt>
      <trkpt lat="45.63153" lon="6.67531">
        <ele>1902.0475</ele>
        <time>2015-08-20T07:32:51Z</time>
      </trkpt>
      <trkpt lat="45.63147" lon="6.67534">
        <ele>1900.6901</ele>
        <time>2015-08-20T07:32:56Z</time>
      </trkpt>
      <trkpt lat="45.63142" lon="6.67535">
        <ele>1900.6901</ele>
        <time>2015-08-20T07:33:01Z</time>
      </trkpt>
      <trkpt lat="45.63139" lon="6.67537">
        <ele>1900.6901</ele>
        <time>2015-08-20T07:33:06Z</time>
      </trkpt>
      <trkpt lat="45.63134" lon="6.67541">
        <ele>1899.2437</ele>
        <time>2015-08-20T07:33:11Z</time>
      </trkpt>
      <trkpt lat="45.63128" lon="6.67544">
        <ele>1899.2437</ele>
        <time>2015-08-20T07:33:16Z</time>
      </trkpt>
      <trkpt lat="45.63124" lon="6.67549">
        <ele>1897.7433</ele>
        <time>2015-08-20T07:33:21Z</time>
      </trkpt>
      <trkpt lat="45.63118" lon="6.67553">
        <ele>1897.7433</ele>
        <time>2015-08-20T07:33:26Z</time>
      </trkpt>
      <trkpt lat="45.63114" lon="6.67555">
        <ele>1896.2792</ele>
        <time>2015-08-20T07:33:31Z</time>
      </trkpt>
      <trkpt lat="45.63109" lon="6.67559">
        <ele>1896.2792</ele>
        <time>2015-08-20T07:33:36Z</time>
      </trkpt>
      <trkpt lat="45.63104" lon="6.67561">
        <ele>1894.7175</ele>
        <time>2015-08-20T07:33:41Z</time>
      </trkpt>
      <trkpt lat="45.631" lon="6.67564">
        <ele>1894.7175</ele>
        <time>2015-08-20T07:33:46Z</time>
      </trkpt>
      <trkpt lat="45.63096" lon="6.67568">
        <ele>1893.1377</ele>
        <time>2015-08-20T07:33:51Z</time>
      </trkpt>
      <trkpt lat="45.63091" lon="6.67566">
        <ele>1893.1377</ele>
        <time>2015-08-20T07:33:56Z</time>
      </trkpt>
      <trkpt lat="45.6309" lon="6.67556">
        <ele>1891.555</ele>
        <time>2015-08-20T07:34:01Z</time>
      </trkpt>
      <trkpt lat="45.63092" lon="6.6755">
        <ele>1891.555</ele>
        <time>2015-08-20T07:34:06Z</time>
      </trkpt>
      <trkpt lat="45.63092" lon="6.67545">
        <ele>1891.555</ele>
        <time>2015-08-20T07:34:11Z</time>
      </trkpt>
      <trkpt lat="45.63096" lon="6.67545">
        <ele>1889.9404</ele>
        <time>2015-08-20T07:34:16Z</time>
      </trkpt>
      <trkpt lat="45.63096" lon="6.67545">
        <ele>1889.9404</ele>
        <time>2015-08-20T07:34:21Z</time>
      </trkpt>
      <trkpt lat="45.631" lon="6.6754">
        <ele>1889.9404</ele>
        <time>2015-08-20T07:35:01Z</time>
      </trkpt>
      <trkpt lat="45.63106" lon="6.67532">
        <ele>1887.5746</ele>
        <time>2015-08-20T07:35:06Z</time>
      </trkpt>
      <trkpt lat="45.6311" lon="6.67524">
        <ele>1887.5746</ele>
        <time>2015-08-20T07:35:11Z</time>
      </trkpt>
      <trkpt lat="45.63112" lon="6.67517">
        <ele>1885.2798</ele>
        <time>2015-08-20T07:35:16Z</time>
      </trkpt>
      <trkpt lat="45.63112" lon="6.67507">
        <ele>1885.2798</ele>
        <time>2015-08-20T07:35:21Z</time>
      </trkpt>
      <trkpt lat="45.6311" lon="6.67498">
        <ele>1883.3839</ele>
        <time>2015-08-20T07:35:26Z</time>
      </trkpt>
      <trkpt lat="45.63109" lon="6.67491">
        <ele>1883.3839</ele>
        <time>2015-08-20T07:35:31Z</time>
      </trkpt>
      <trkpt lat="45.63109" lon="6.67482">
        <ele>1881.8582</ele>
        <time>2015-08-20T07:35:36Z</time>
      </trkpt>
      <trkpt lat="45.6311" lon="6.67474">
        <ele>1881.8582</ele>
        <time>2015-08-20T07:35:41Z</time>
      </trkpt>
      <trkpt lat="45.63109" lon="6.67465">
        <ele>1880.7323</ele>
        <time>2015-08-20T07:35:46Z</time>
      </trkpt>
      <trkpt lat="45.63109" lon="6.67456">
        <ele>1880.7323</ele>
        <time>2015-08-20T07:35:51Z</time>
      </trkpt>
      <trkpt lat="45.63108" lon="6.6745">
        <ele>1879.9468</ele>
        <time>2015-08-20T07:35:56Z</time>
      </trkpt>
      <trkpt lat="45.63104" lon="6.67446">
        <ele>1879.9468</ele>
        <time>2015-08-20T07:36:01Z</time>
      </trkpt>
      <trkpt lat="45.63099" lon="6.67449">
        <ele>1879.3153</ele>
        <time>2015-08-20T07:36:06Z</time>
      </trkpt>
      <trkpt lat="45.63095" lon="6.67455">
        <ele>1879.3153</ele>
        <time>2015-08-20T07:36:11Z</time>
      </trkpt>
      <trkpt lat="45.6309" lon="6.67461">
        <ele>1878.7661</ele>
        <time>2015-08-20T07:36:16Z</time>
      </trkpt>
      <trkpt lat="45.63086" lon="6.67468">
        <ele>1878.7661</ele>
        <time>2015-08-20T07:36:21Z</time>
      </trkpt>
      <trkpt lat="45.63082" lon="6.67474">
        <ele>1878.2902</ele>
        <time>2015-08-20T07:36:26Z</time>
      </trkpt>
      <trkpt lat="45.63079" lon="6.67479">
        <ele>1878.2902</ele>
        <time>2015-08-20T07:36:31Z</time>
      </trkpt>
      <trkpt lat="45.63074" lon="6.67482">
        <ele>1877.7778</ele>
        <time>2015-08-20T07:36:36Z</time>
      </trkpt>
      <trkpt lat="45.63071" lon="6.67486">
        <ele>1877.7778</ele>
        <time>2015-08-20T07:36:41Z</time>
      </trkpt>
      <trkpt lat="45.63066" lon="6.67489">
        <ele>1877.2</ele>
        <time>2015-08-20T07:36:46Z</time>
      </trkpt>
      <trkpt lat="45.63061" lon="6.67492">
        <ele>1877.2</ele>
        <time>2015-08-20T07:36:51Z</time>
      </trkpt>
      <trkpt lat="45.63055" lon="6.67495">
        <ele>1876.5728</ele>
        <time>2015-08-20T07:36:56Z</time>
      </trkpt>
      <trkpt lat="45.63051" lon="6.67502">
        <ele>1876.5728</ele>
        <time>2015-08-20T07:37:01Z</time>
      </trkpt>
      <trkpt lat="45.63047" lon="6.67506">
        <ele>1875.955</ele>
        <time>2015-08-20T07:37:06Z</time>
      </trkpt>
      <trkpt lat="45.63041" lon="6.67509">
        <ele>1875.955</ele>
        <time>2015-08-20T07:37:11Z</time>
      </trkpt>
      <trkpt lat="45.63036" lon="6.67512">
        <ele>1875.2998</ele>
        <time>2015-08-20T07:37:16Z</time>
      </trkpt>
      <trkpt lat="45.63032" lon="6.67514">
        <ele>1875.2998</ele>
        <time>2015-08-20T07:37:21Z</time>
      </trkpt>
      <trkpt lat="45.63028" lon="6.67517">
        <ele>1875.2998</ele>
        <time>2015-08-20T07:37:26Z</time>
      </trkpt>
      <trkpt lat="45.63023" lon="6.67522">
        <ele>1874.377</ele>
        <time>2015-08-20T07:37:31Z</time>
      </trkpt>
      <trkpt lat="45.6302" lon="6.67526">
        <ele>1874.377</ele>
        <time>2015-08-20T07:37:36Z</time>
      </trkpt>
      <trkpt lat="45.63017" lon="6.6753">
        <ele>1874.377</ele>
        <time>2015-08-20T07:37:41Z</time>
      </trkpt>
      <trkpt lat="45.63011" lon="6.67535">
        <ele>1872.9303</ele>
        <time>2015-08-20T07:37:46Z</time>
      </trkpt>
      <trkpt lat="45.63008" lon="6.67537">
        <ele>1872.9303</ele>
        <time>2015-08-20T07:37:51Z</time>
      </trkpt>
      <trkpt lat="45.63004" lon="6.67539">
        <ele>1872.9303</ele>
        <time>2015-08-20T07:37:56Z</time>
      </trkpt>
      <trkpt lat="45.63" lon="6.6754">
        <ele>1871.0558</ele>
        <time>2015-08-20T07:38:01Z</time>
      </trkpt>
      <trkpt lat="45.62995" lon="6.67541">
        <ele>1871.0558</ele>
        <time>2015-08-20T07:38:06Z</time>
      </trkpt>
      <trkpt lat="45.62989" lon="6.67546">
        <ele>1869.0023</ele>
        <time>2015-08-20T07:38:11Z</time>
      </trkpt>
      <trkpt lat="45.62983" lon="6.67549">
        <ele>1869.0023</ele>
        <time>2015-08-20T07:38:16Z</time>
      </trkpt>
      <trkpt lat="45.62978" lon="6.67552">
        <ele>1866.8859</ele>
        <time>2015-08-20T07:38:21Z</time>
      </trkpt>
      <trkpt lat="45.62973" lon="6.67551">
        <ele>1866.8859</ele>
        <time>2015-08-20T07:38:26Z</time>
      </trkpt>
      <trkpt lat="45.62968" lon="6.6755">
        <ele>1864.5974</ele>
        <time>2015-08-20T07:38:31Z</time>
      </trkpt>
      <trkpt lat="45.62962" lon="6.67552">
        <ele>1864.5974</ele>
        <time>2015-08-20T07:38:36Z</time>
      </trkpt>
      <trkpt lat="45.62956" lon="6.67553">
        <ele>1862.1521</ele>
        <time>2015-08-20T07:38:41Z</time>
      </trkpt>
      <trkpt lat="45.62953" lon="6.67554">
        <ele>1862.1521</ele>
        <time>2015-08-20T07:38:46Z</time>
      </trkpt>
      <trkpt lat="45.62948" lon="6.67556">
        <ele>1862.1521</ele>
        <time>2015-08-20T07:38:51Z</time>
      </trkpt>
      <trkpt lat="45.6294" lon="6.67557">
        <ele>1859.3767</ele>
        <time>2015-08-20T07:38:56Z</time>
      </trkpt>
      <trkpt lat="45.62935" lon="6.67557">
        <ele>1859.3767</ele>
        <time>2015-08-20T07:39:01Z</time>
      </trkpt>
      <trkpt lat="45.62931" lon="6.67557">
        <ele>1856.5448</ele>
        <time>2015-08-20T07:39:06Z</time>
      </trkpt>
      <trkpt lat="45.62923" lon="6.67558">
        <ele>1856.5448</ele>
        <time>2015-08-20T07:39:11Z</time>
      </trkpt>
      <trkpt lat="45.62918" lon="6.67562">
        <ele>1853.5779</ele>
        <time>2015-08-20T07:39:16Z</time>
      </trkpt>
      <trkpt lat="45.62913" lon="6.67565">
        <ele>1853.5779</ele>
        <time>2015-08-20T07:39:21Z</time>
      </trkpt>
      <trkpt lat="45.62908" lon="6.67565">
        <ele>1850.7064</ele>
        <time>2015-08-20T07:39:26Z</time>
      </trkpt>
      <trkpt lat="45.629" lon="6.67565">
        <ele>1850.7064</ele>
        <time>2015-08-20T07:39:31Z</time>
      </trkpt>
      <trkpt lat="45.62895" lon="6.67564">
        <ele>1847.9421</ele>
        <time>2015-08-20T07:39:36Z</time>
      </trkpt>
      <trkpt lat="45.62891" lon="6.67563">
        <ele>1847.9421</ele>
        <time>2015-08-20T07:39:41Z</time>
      </trkpt>
      <trkpt lat="45.62886" lon="6.67564">
        <ele>1845.324</ele>
        <time>2015-08-20T07:39:46Z</time>
      </trkpt>
      <trkpt lat="45.6288" lon="6.67566">
        <ele>1845.324</ele>
        <time>2015-08-20T07:39:51Z</time>
      </trkpt>
      <trkpt lat="45.62875" lon="6.67569">
        <ele>1842.83</ele>
        <time>2015-08-20T07:39:56Z</time>
      </trkpt>
      <trkpt lat="45.62871" lon="6.6757">
        <ele>1842.83</ele>
        <time>2015-08-20T07:40:01Z</time>
      </trkpt>
      <trkpt lat="45.62867" lon="6.67572">
        <ele>1840.3962</ele>
        <time>2015-08-20T07:40:06Z</time>
      </trkpt>
      <trkpt lat="45.6286" lon="6.67574">
        <ele>1840.3962</ele>
        <time>2015-08-20T07:40:11Z</time>
      </trkpt>
      <trkpt lat="45.62854" lon="6.67576">
        <ele>1838.1218</ele>
        <time>2015-08-20T07:40:16Z</time>
      </trkpt>
      <trkpt lat="45.62849" lon="6.67579">
        <ele>1838.1218</ele>
        <time>2015-08-20T07:40:21Z</time>
      </trkpt>
      <trkpt lat="45.62842" lon="6.67579">
        <ele>1836.0405</ele>
        <time>2015-08-20T07:40:26Z</time>
      </trkpt>
      <trkpt lat="45.62836" lon="6.67578">
        <ele>1836.0405</ele>
        <time>2015-08-20T07:40:31Z</time>
      </trkpt>
      <trkpt lat="45.62831" lon="6.6758">
        <ele>1834.053</ele>
        <time>2015-08-20T07:40:36Z</time>
      </trkpt>
      <trkpt lat="45.62826" lon="6.67585">
        <ele>1834.053</ele>
        <time>2015-08-20T07:40:41Z</time>
      </trkpt>
      <trkpt lat="45.6282" lon="6.67588">
        <ele>1832.1681</ele>
        <time>2015-08-20T07:40:46Z</time>
      </trkpt>
      <trkpt lat="45.62815" lon="6.67591">
        <ele>1832.1681</ele>
        <time>2015-08-20T07:40:51Z</time>
      </trkpt>
      <trkpt lat="45.62811" lon="6.67593">
        <ele>1830.4944</ele>
        <time>2015-08-20T07:40:56Z</time>
      </trkpt>
      <trkpt lat="45.62806" lon="6.67596">
        <ele>1830.4944</ele>
        <time>2015-08-20T07:41:01Z</time>
      </trkpt>
      <trkpt lat="45.628" lon="6.67598">
        <ele>1829.103</ele>
        <time>2015-08-20T07:41:06Z</time>
      </trkpt>
      <trkpt lat="45.62795" lon="6.67599">
        <ele>1829.103</ele>
        <time>2015-08-20T07:41:11Z</time>
      </trkpt>
      <trkpt lat="45.62789" lon="6.67602">
        <ele>1827.8285</ele>
        <time>2015-08-20T07:41:16Z</time>
      </trkpt>
      <trkpt lat="45.62783" lon="6.67605">
        <ele>1827.8285</ele>
        <time>2015-08-20T07:41:21Z</time>
      </trkpt>
      <trkpt lat="45.62778" lon="6.67608">
        <ele>1826.6324</ele>
        <time>2015-08-20T07:41:26Z</time>
      </trkpt>
      <trkpt lat="45.62772" lon="6.67609">
        <ele>1826.6324</ele>
        <time>2015-08-20T07:41:31Z</time>
      </trkpt>
      <trkpt lat="45.62767" lon="6.67613">
        <ele>1825.6807</ele>
        <time>2015-08-20T07:41:36Z</time>
      </trkpt>
      <trkpt lat="45.62762" lon="6.67617">
        <ele>1825.6807</ele>
        <time>2015-08-20T07:41:41Z</time>
      </trkpt>
      <trkpt lat="45.62757" lon="6.67619">
        <ele>1824.737</ele>
        <time>2015-08-20T07:41:46Z</time>
      </trkpt>
      <trkpt lat="45.62753" lon="6.67619">
        <ele>1824.737</ele>
        <time>2015-08-20T07:41:51Z</time>
      </trkpt>
      <trkpt lat="45.62748" lon="6.67619">
        <ele>1824.737</ele>
        <time>2015-08-20T07:41:56Z</time>
      </trkpt>
      <trkpt lat="45.62743" lon="6.67619">
        <ele>1823.2802</ele>
        <time>2015-08-20T07:42:01Z</time>
      </trkpt>
      <trkpt lat="45.6274" lon="6.67619">
        <ele>1823.2802</ele>
        <time>2015-08-20T07:42:06Z</time>
      </trkpt>
      <trkpt lat="45.62736" lon="6.67619">
        <ele>1823.2802</ele>
        <time>2015-08-20T07:42:11Z</time>
      </trkpt>
      <trkpt lat="45.6273" lon="6.67622">
        <ele>1821.1597</ele>
        <time>2015-08-20T07:42:16Z</time>
      </trkpt>
      <trkpt lat="45.62727" lon="6.67625">
        <ele>1821.1597</ele>
        <time>2015-08-20T07:42:21Z</time>
      </trkpt>
      <trkpt lat="45.62719" lon="6.67631">
        <ele>1818.6852</ele>
        <time>2015-08-20T07:42:26Z</time>
      </trkpt>
      <trkpt lat="45.62713" lon="6.67632">
        <ele>1818.6852</ele>
        <time>2015-08-20T07:42:31Z</time>
      </trkpt>
      <trkpt lat="45.6271" lon="6.67633">
        <ele>1816.101</ele>
        <time>2015-08-20T07:42:36Z</time>
      </trkpt>
      <trkpt lat="45.62706" lon="6.67636">
        <ele>1816.101</ele>
        <time>2015-08-20T07:42:41Z</time>
      </trkpt>
      <trkpt lat="45.62701" lon="6.67638">
        <ele>1816.101</ele>
        <time>2015-08-20T07:42:46Z</time>
      </trkpt>
      <trkpt lat="45.62695" lon="6.6764">
        <ele>1813.1294</ele>
        <time>2015-08-20T07:42:51Z</time>
      </trkpt>
      <trkpt lat="45.62688" lon="6.67642">
        <ele>1813.1294</ele>
        <time>2015-08-20T07:42:56Z</time>
      </trkpt>
      <trkpt lat="45.62684" lon="6.67643">
        <ele>1810.0475</ele>
        <time>2015-08-20T07:43:01Z</time>
      </trkpt>
      <trkpt lat="45.62679" lon="6.67645">
        <ele>1810.0475</ele>
        <time>2015-08-20T07:43:06Z</time>
      </trkpt>
      <trkpt lat="45.62675" lon="6.67647">
        <ele>1806.968</ele>
        <time>2015-08-20T07:43:11Z</time>
      </trkpt>
      <trkpt lat="45.6267" lon="6.6765">
        <ele>1806.968</ele>
        <time>2015-08-20T07:43:16Z</time>
      </trkpt>
      <trkpt lat="45.62664" lon="6.67657">
        <ele>1803.8369</ele>
        <time>2015-08-20T07:43:21Z</time>
      </trkpt>
      <trkpt lat="45.6266" lon="6.67664">
        <ele>1803.8369</ele>
        <time>2015-08-20T07:43:26Z</time>
      </trkpt>
      <trkpt lat="45.62655" lon="6.67666">
        <ele>1800.7627</ele>
        <time>2015-08-20T07:43:31Z</time>
      </trkpt>
      <trkpt lat="45.62651" lon="6.67669">
        <ele>1800.7627</ele>
        <time>2015-08-20T07:43:36Z</time>
      </trkpt>
      <trkpt lat="45.62646" lon="6.67675">
        <ele>1797.817</ele>
        <time>2015-08-20T07:43:41Z</time>
      </trkpt>
      <trkpt lat="45.62641" lon="6.67677">
        <ele>1797.817</ele>
        <time>2015-08-20T07:43:46Z</time>
      </trkpt>
      <trkpt lat="45.62636" lon="6.67679">
        <ele>1794.9502</ele>
        <time>2015-08-20T07:43:51Z</time>
      </trkpt>
      <trkpt lat="45.62631" lon="6.6768">
        <ele>1794.9502</ele>
        <time>2015-08-20T07:43:56Z</time>
      </trkpt>
      <trkpt lat="45.62626" lon="6.67682">
        <ele>1792.1451</ele>
        <time>2015-08-20T07:44:01Z</time>
      </trkpt>
      <trkpt lat="45.62622" lon="6.67686">
        <ele>1792.1451</ele>
        <time>2015-08-20T07:44:06Z</time>
      </trkpt>
      <trkpt lat="45.62616" lon="6.67689">
        <ele>1789.4286</ele>
        <time>2015-08-20T07:44:11Z</time>
      </trkpt>
      <trkpt lat="45.62611" lon="6.6769">
        <ele>1789.4286</ele>
        <time>2015-08-20T07:44:16Z</time>
      </trkpt>
      <trkpt lat="45.62605" lon="6.6769">
        <ele>1786.811</ele>
        <time>2015-08-20T07:44:21Z</time>
      </trkpt>
      <trkpt lat="45.62599" lon="6.67691">
        <ele>1786.811</ele>
        <time>2015-08-20T07:44:26Z</time>
      </trkpt>
      <trkpt lat="45.62595" lon="6.67693">
        <ele>1784.2871</ele>
        <time>2015-08-20T07:44:31Z</time>
      </trkpt>
      <trkpt lat="45.6259" lon="6.67694">
        <ele>1784.2871</ele>
        <time>2015-08-20T07:44:36Z</time>
      </trkpt>
      <trkpt lat="45.62586" lon="6.67697">
        <ele>1781.8228</ele>
        <time>2015-08-20T07:44:41Z</time>
      </trkpt>
      <trkpt lat="45.6258" lon="6.677">
        <ele>1781.8228</ele>
        <time>2015-08-20T07:44:46Z</time>
      </trkpt>
      <trkpt lat="45.62576" lon="6.67705">
        <ele>1779.3429</ele>
        <time>2015-08-20T07:44:51Z</time>
      </trkpt>
      <trkpt lat="45.6257" lon="6.6771">
        <ele>1779.3429</ele>
        <time>2015-08-20T07:44:56Z</time>
      </trkpt>
      <trkpt lat="45.62566" lon="6.67713">
        <ele>1776.8357</ele>
        <time>2015-08-20T07:45:01Z</time>
      </trkpt>
      <trkpt lat="45.62563" lon="6.67718">
        <ele>1776.8357</ele>
        <time>2015-08-20T07:45:06Z</time>
      </trkpt>
      <trkpt lat="45.62558" lon="6.67724">
        <ele>1774.391</ele>
        <time>2015-08-20T07:45:11Z</time>
      </trkpt>
      <trkpt lat="45.62554" lon="6.67728">
        <ele>1774.391</ele>
        <time>2015-08-20T07:45:16Z</time>
      </trkpt>
      <trkpt lat="45.62548" lon="6.67728">
        <ele>1772.063</ele>
        <time>2015-08-20T07:45:21Z</time>
      </trkpt>
      <trkpt lat="45.62541" lon="6.67729">
        <ele>1772.063</ele>
        <time>2015-08-20T07:45:26Z</time>
      </trkpt>
      <trkpt lat="45.62536" lon="6.6773">
        <ele>1769.7719</ele>
        <time>2015-08-20T07:45:31Z</time>
      </trkpt>
      <trkpt lat="45.62531" lon="6.67732">
        <ele>1769.7719</ele>
        <time>2015-08-20T07:45:36Z</time>
      </trkpt>
      <trkpt lat="45.62528" lon="6.67734">
        <ele>1769.7719</ele>
        <time>2015-08-20T07:45:41Z</time>
      </trkpt>
      <trkpt lat="45.62522" lon="6.67738">
        <ele>1767.4432</ele>
        <time>2015-08-20T07:45:46Z</time>
      </trkpt>
      <trkpt lat="45.62518" lon="6.67741">
        <ele>1767.4432</ele>
        <time>2015-08-20T07:45:51Z</time>
      </trkpt>
      <trkpt lat="45.62513" lon="6.67742">
        <ele>1765.2102</ele>
        <time>2015-08-20T07:45:56Z</time>
      </trkpt>
      <trkpt lat="45.62506" lon="6.67747">
        <ele>1765.2102</ele>
        <time>2015-08-20T07:46:01Z</time>
      </trkpt>
      <trkpt lat="45.62501" lon="6.6775">
        <ele>1763.0228</ele>
        <time>2015-08-20T07:46:06Z</time>
      </trkpt>
      <trkpt lat="45.62498" lon="6.67754">
        <ele>1763.0228</ele>
        <time>2015-08-20T07:46:11Z</time>
      </trkpt>
      <trkpt lat="45.62492" lon="6.67759">
        <ele>1761.0221</ele>
        <time>2015-08-20T07:46:16Z</time>
      </trkpt>
      <trkpt lat="45.62485" lon="6.67766">
        <ele>1761.0221</ele>
        <time>2015-08-20T07:46:21Z</time>
      </trkpt>
      <trkpt lat="45.6248" lon="6.67773">
        <ele>1759.1647</ele>
        <time>2015-08-20T07:46:26Z</time>
      </trkpt>
      <trkpt lat="45.62475" lon="6.67781">
        <ele>1759.1647</ele>
        <time>2015-08-20T07:46:31Z</time>
      </trkpt>
      <trkpt lat="45.6247" lon="6.67788">
        <ele>1757.4683</ele>
        <time>2015-08-20T07:46:36Z</time>
      </trkpt>
      <trkpt lat="45.62466" lon="6.67794">
        <ele>1757.4683</ele>
        <time>2015-08-20T07:46:41Z</time>
      </trkpt>
      <trkpt lat="45.62462" lon="6.67798">
        <ele>1756.1067</ele>
        <time>2015-08-20T07:46:46Z</time>
      </trkpt>
      <trkpt lat="45.62461" lon="6.67799">
        <ele>1756.1067</ele>
        <time>2015-08-20T07:46:51Z</time>
      </trkpt>
      <trkpt lat="45.62459" lon="6.67802">
        <ele>1756.1067</ele>
        <time>2015-08-20T07:46:56Z</time>
      </trkpt>
      <trkpt lat="45.62455" lon="6.67806">
        <ele>1754.8225</ele>
        <time>2015-08-20T07:47:01Z</time>
      </trkpt>
      <trkpt lat="45.62451" lon="6.67808">
        <ele>1754.8225</ele>
        <time>2015-08-20T07:47:06Z</time>
      </trkpt>
      <trkpt lat="45.62447" lon="6.67811">
        <ele>1753.6073</ele>
        <time>2015-08-20T07:47:11Z</time>
      </trkpt>
      <trkpt lat="45.62441" lon="6.67814">
        <ele>1753.6073</ele>
        <time>2015-08-20T07:47:16Z</time>
      </trkpt>
      <trkpt lat="45.62435" lon="6.67816">
        <ele>1752.3235</ele>
        <time>2015-08-20T07:47:21Z</time>
      </trkpt>
      <trkpt lat="45.6243" lon="6.67818">
        <ele>1752.3235</ele>
        <time>2015-08-20T07:47:26Z</time>
      </trkpt>
      <trkpt lat="45.62426" lon="6.67818">
        <ele>1752.3235</ele>
        <time>2015-08-20T07:47:31Z</time>
      </trkpt>
      <trkpt lat="45.62421" lon="6.67821">
        <ele>1750.7574</ele>
        <time>2015-08-20T07:47:36Z</time>
      </trkpt>
      <trkpt lat="45.62415" lon="6.67822">
        <ele>1750.7574</ele>
        <time>2015-08-20T07:47:41Z</time>
      </trkpt>
      <trkpt lat="45.6241" lon="6.67826">
        <ele>1749.0287</ele>
        <time>2015-08-20T07:47:46Z</time>
      </trkpt>
      <trkpt lat="45.62405" lon="6.67832">
        <ele>1749.0287</ele>
        <time>2015-08-20T07:47:51Z</time>
      </trkpt>
      <trkpt lat="45.624" lon="6.67837">
        <ele>1747.3928</ele>
        <time>2015-08-20T07:47:56Z</time>
      </trkpt>
      <trkpt lat="45.62394" lon="6.67842">
        <ele>1747.3928</ele>
        <time>2015-08-20T07:48:01Z</time>
      </trkpt>
      <trkpt lat="45.62389" lon="6.67846">
        <ele>1745.9567</ele>
        <time>2015-08-20T07:48:06Z</time>
      </trkpt>
      <trkpt lat="45.62384" lon="6.6785">
        <ele>1745.9567</ele>
        <time>2015-08-20T07:48:11Z</time>
      </trkpt>
      <trkpt lat="45.62378" lon="6.67855">
        <ele>1744.7467</ele>
        <time>2015-08-20T07:48:16Z</time>
      </trkpt>
      <trkpt lat="45.62373" lon="6.67856">
        <ele>1744.7467</ele>
        <time>2015-08-20T07:48:21Z</time>
      </trkpt>
      <trkpt lat="45.62369" lon="6.67859">
        <ele>1743.7145</ele>
        <time>2015-08-20T07:48:26Z</time>
      </trkpt>
      <trkpt lat="45.62365" lon="6.6786">
        <ele>1743.7145</ele>
        <time>2015-08-20T07:48:31Z</time>
      </trkpt>
      <trkpt lat="45.62362" lon="6.67863">
        <ele>1743.7145</ele>
        <time>2015-08-20T07:48:36Z</time>
      </trkpt>
      <trkpt lat="45.62356" lon="6.67865">
        <ele>1742.5989</ele>
        <time>2015-08-20T07:48:41Z</time>
      </trkpt>
      <trkpt lat="45.62352" lon="6.67868">
        <ele>1742.5989</ele>
        <time>2015-08-20T07:48:46Z</time>
      </trkpt>
      <trkpt lat="45.62347" lon="6.67872">
        <ele>1741.5326</ele>
        <time>2015-08-20T07:48:51Z</time>
      </trkpt>
      <trkpt lat="45.62341" lon="6.67876">
        <ele>1741.5326</ele>
        <time>2015-08-20T07:48:56Z</time>
      </trkpt>
      <trkpt lat="45.62337" lon="6.67879">
        <ele>1740.509</ele>
        <time>2015-08-20T07:49:01Z</time>
      </trkpt>
      <trkpt lat="45.62332" lon="6.67881">
        <ele>1740.509</ele>
        <time>2015-08-20T07:49:06Z</time>
      </trkpt>
      <trkpt lat="45.62329" lon="6.67884">
        <ele>1740.509</ele>
        <time>2015-08-20T07:49:11Z</time>
      </trkpt>
      <trkpt lat="45.62324" lon="6.67887">
        <ele>1739.392</ele>
        <time>2015-08-20T07:49:16Z</time>
      </trkpt>
      <trkpt lat="45.62319" lon="6.67888">
        <ele>1739.392</ele>
        <time>2015-08-20T07:49:21Z</time>
      </trkpt>
      <trkpt lat="45.62315" lon="6.67887">
        <ele>1738.3875</ele>
        <time>2015-08-20T07:49:26Z</time>
      </trkpt>
      <trkpt lat="45.62309" lon="6.67886">
        <ele>1738.3875</ele>
        <time>2015-08-20T07:49:31Z</time>
      </trkpt>
      <trkpt lat="45.62302" lon="6.67886">
        <ele>1737.4263</ele>
        <time>2015-08-20T07:49:36Z</time>
      </trkpt>
      <trkpt lat="45.62296" lon="6.67886">
        <ele>1737.4263</ele>
        <time>2015-08-20T07:49:41Z</time>
      </trkpt>
      <trkpt lat="45.62291" lon="6.67887">
        <ele>1736.4158</ele>
        <time>2015-08-20T07:49:46Z</time>
      </trkpt>
      <trkpt lat="45.62286" lon="6.67888">
        <ele>1736.4158</ele>
        <time>2015-08-20T07:49:51Z</time>
      </trkpt>
      <trkpt lat="45.62278" lon="6.67891">
        <ele>1735.2843</ele>
        <time>2015-08-20T07:49:56Z</time>
      </trkpt>
      <trkpt lat="45.62272" lon="6.67892">
        <ele>1735.2843</ele>
        <time>2015-08-20T07:50:01Z</time>
      </trkpt>
      <trkpt lat="45.62267" lon="6.67891">
        <ele>1734.2546</ele>
        <time>2015-08-20T07:50:06Z</time>
      </trkpt>
      <trkpt lat="45.62262" lon="6.6789">
        <ele>1734.2546</ele>
        <time>2015-08-20T07:50:11Z</time>
      </trkpt>
      <trkpt lat="45.62255" lon="6.67891">
        <ele>1733.4028</ele>
        <time>2015-08-20T07:50:16Z</time>
      </trkpt>
      <trkpt lat="45.62249" lon="6.67891">
        <ele>1733.4028</ele>
        <time>2015-08-20T07:50:21Z</time>
      </trkpt>
      <trkpt lat="45.62245" lon="6.67891">
        <ele>1732.6984</ele>
        <time>2015-08-20T07:50:26Z</time>
      </trkpt>
      <trkpt lat="45.62236" lon="6.67893">
        <ele>1732.6984</ele>
        <time>2015-08-20T07:50:31Z</time>
      </trkpt>
      <trkpt lat="45.62229" lon="6.67893">
        <ele>1732.1556</ele>
        <time>2015-08-20T07:50:36Z</time>
      </trkpt>
      <trkpt lat="45.62223" lon="6.67894">
        <ele>1732.1556</ele>
        <time>2015-08-20T07:50:41Z</time>
      </trkpt>
      <trkpt lat="45.62218" lon="6.67896">
        <ele>1731.6581</ele>
        <time>2015-08-20T07:50:46Z</time>
      </trkpt>
      <trkpt lat="45.62214" lon="6.67897">
        <ele>1731.6581</ele>
        <time>2015-08-20T07:50:51Z</time>
      </trkpt>
      <trkpt lat="45.62207" lon="6.67895">
        <ele>1731.1406</ele>
        <time>2015-08-20T07:50:56Z</time>
      </trkpt>
      <trkpt lat="45.62205" lon="6.67894">
        <ele>1731.1406</ele>
        <time>2015-08-20T07:51:01Z</time>
      </trkpt>
      <trkpt lat="45.62202" lon="6.67891">
        <ele>1731.1406</ele>
        <time>2015-08-20T07:51:06Z</time>
      </trkpt>
      <trkpt lat="45.62198" lon="6.67887">
        <ele>1730.6013</ele>
        <time>2015-08-20T07:51:11Z</time>
      </trkpt>
      <trkpt lat="45.62194" lon="6.67884">
        <ele>1730.6013</ele>
        <time>2015-08-20T07:51:16Z</time>
      </trkpt>
      <trkpt lat="45.62187" lon="6.67881">
        <ele>1729.9514</ele>
        <time>2015-08-20T07:51:21Z</time>
      </trkpt>
      <trkpt lat="45.62181" lon="6.6788">
        <ele>1729.9514</ele>
        <time>2015-08-20T07:51:26Z</time>
      </trkpt>
      <trkpt lat="45.62175" lon="6.6788">
        <ele>1729.0951</ele>
        <time>2015-08-20T07:51:31Z</time>
      </trkpt>
      <trkpt lat="45.62166" lon="6.67881">
        <ele>1728.2179</ele>
        <time>2015-08-20T07:51:36Z</time>
      </trkpt>
      <trkpt lat="45.62164" lon="6.67882">
        <ele>1728.2179</ele>
        <time>2015-08-20T07:51:41Z</time>
      </trkpt>
      <trkpt lat="45.6216" lon="6.67882">
        <ele>1728.2179</ele>
        <time>2015-08-20T07:51:46Z</time>
      </trkpt>
      <trkpt lat="45.62155" lon="6.67882">
        <ele>1727.002</ele>
        <time>2015-08-20T07:51:51Z</time>
      </trkpt>
      <trkpt lat="45.62151" lon="6.6788">
        <ele>1727.002</ele>
        <time>2015-08-20T07:51:56Z</time>
      </trkpt>
      <trkpt lat="45.62146" lon="6.67877">
        <ele>1725.716</ele>
        <time>2015-08-20T07:52:01Z</time>
      </trkpt>
      <trkpt lat="45.6214" lon="6.67874">
        <ele>1725.716</ele>
        <time>2015-08-20T07:52:06Z</time>
      </trkpt>
      <trkpt lat="45.62134" lon="6.6787">
        <ele>1724.6377</ele>
        <time>2015-08-20T07:52:11Z</time>
      </trkpt>
      <trkpt lat="45.62129" lon="6.67868">
        <ele>1724.6377</ele>
        <time>2015-08-20T07:52:16Z</time>
      </trkpt>
      <trkpt lat="45.62122" lon="6.67868">
        <ele>1723.7938</ele>
        <time>2015-08-20T07:52:21Z</time>
      </trkpt>
      <trkpt lat="45.62115" lon="6.6787">
        <ele>1723.7938</ele>
        <time>2015-08-20T07:52:26Z</time>
      </trkpt>
      <trkpt lat="45.62109" lon="6.67873">
        <ele>1723.0209</ele>
        <time>2015-08-20T07:52:31Z</time>
      </trkpt>
      <trkpt lat="45.62104" lon="6.67877">
        <ele>1723.0209</ele>
        <time>2015-08-20T07:52:36Z</time>
      </trkpt>
      <trkpt lat="45.62099" lon="6.67879">
        <ele>1722.3403</ele>
        <time>2015-08-20T07:52:41Z</time>
      </trkpt>
      <trkpt lat="45.62094" lon="6.67881">
        <ele>1722.3403</ele>
        <time>2015-08-20T07:52:46Z</time>
      </trkpt>
      <trkpt lat="45.62088" lon="6.67884">
        <ele>1721.7286</ele>
        <time>2015-08-20T07:52:51Z</time>
      </trkpt>
      <trkpt lat="45.62082" lon="6.67889">
        <ele>1721.7286</ele>
        <time>2015-08-20T07:52:56Z</time>
      </trkpt>
      <trkpt lat="45.62077" lon="6.67888">
        <ele>1721.2361</ele>
        <time>2015-08-20T07:53:01Z</time>
      </trkpt>
      <trkpt lat="45.62071" lon="6.67883">
        <ele>1721.2361</ele>
        <time>2015-08-20T07:53:06Z</time>
      </trkpt>
      <trkpt lat="45.62068" lon="6.67877">
        <ele>1720.6782</ele>
        <time>2015-08-20T07:53:11Z</time>
      </trkpt>
      <trkpt lat="45.62065" lon="6.67871">
        <ele>1720.6782</ele>
        <time>2015-08-20T07:53:16Z</time>
      </trkpt>
      <trkpt lat="45.62062" lon="6.67864">
        <ele>1719.9421</ele>
        <time>2015-08-20T07:53:21Z</time>
      </trkpt>
      <trkpt lat="45.62059" lon="6.67859">
        <ele>1719.9421</ele>
        <time>2015-08-20T07:53:26Z</time>
      </trkpt>
      <trkpt lat="45.62055" lon="6.67855">
        <ele>1719.1544</ele>
        <time>2015-08-20T07:53:31Z</time>
      </trkpt>
      <trkpt lat="45.6205" lon="6.67852">
        <ele>1719.1544</ele>
        <time>2015-08-20T07:53:36Z</time>
      </trkpt>
      <trkpt lat="45.62046" lon="6.67847">
        <ele>1718.202</ele>
        <time>2015-08-20T07:53:41Z</time>
      </trkpt>
      <trkpt lat="45.6204" lon="6.6784">
        <ele>1718.202</ele>
        <time>2015-08-20T07:53:46Z</time>
      </trkpt>
      <trkpt lat="45.62035" lon="6.67838">
        <ele>1717.0962</ele>
        <time>2015-08-20T07:53:51Z</time>
      </trkpt>
      <trkpt lat="45.62032" lon="6.67844">
        <ele>1717.0962</ele>
        <time>2015-08-20T07:53:56Z</time>
      </trkpt>
      <trkpt lat="45.62028" lon="6.67849">
        <ele>1715.6312</ele>
        <time>2015-08-20T07:54:01Z</time>
      </trkpt>
      <trkpt lat="45.62024" lon="6.67859">
        <ele>1715.6312</ele>
        <time>2015-08-20T07:54:06Z</time>
      </trkpt>
      <trkpt lat="45.62018" lon="6.67867">
        <ele>1713.9497</ele>
        <time>2015-08-20T07:54:11Z</time>
      </trkpt>
      <trkpt lat="45.6201" lon="6.67873">
        <ele>1713.9497</ele>
        <time>2015-08-20T07:54:16Z</time>
      </trkpt>
      <trkpt lat="45.62005" lon="6.67877">
        <ele>1712.1694</ele>
        <time>2015-08-20T07:54:21Z</time>
      </trkpt>
      <trkpt lat="45.62" lon="6.67879">
        <ele>1712.1694</ele>
        <time>2015-08-20T07:54:26Z</time>
      </trkpt>
      <trkpt lat="45.61996" lon="6.67883">
        <ele>1710.5875</ele>
        <time>2015-08-20T07:54:31Z</time>
      </trkpt>
      <trkpt lat="45.61989" lon="6.67884">
        <ele>1710.5875</ele>
        <time>2015-08-20T07:54:36Z</time>
      </trkpt>
      <trkpt lat="45.61982" lon="6.67887">
        <ele>1709.0609</ele>
        <time>2015-08-20T07:54:41Z</time>
      </trkpt>
      <trkpt lat="45.61976" lon="6.67887">
        <ele>1709.0609</ele>
        <time>2015-08-20T07:54:46Z</time>
      </trkpt>
      <trkpt lat="45.61972" lon="6.67883">
        <ele>1707.7307</ele>
        <time>2015-08-20T07:54:51Z</time>
      </trkpt>
      <trkpt lat="45.61967" lon="6.67883">
        <ele>1707.7307</ele>
        <time>2015-08-20T07:54:56Z</time>
      </trkpt>
      <trkpt lat="45.61961" lon="6.67883">
        <ele>1706.626</ele>
        <time>2015-08-20T07:55:01Z</time>
      </trkpt>
      <trkpt lat="45.61954" lon="6.67885">
        <ele>1706.626</ele>
        <time>2015-08-20T07:55:06Z</time>
      </trkpt>
      <trkpt lat="45.61948" lon="6.67885">
        <ele>1705.4707</ele>
        <time>2015-08-20T07:55:11Z</time>
      </trkpt>
      <trkpt lat="45.61943" lon="6.67883">
        <ele>1705.4707</ele>
        <time>2015-08-20T07:55:16Z</time>
      </trkpt>
      <trkpt lat="45.61939" lon="6.67882">
        <ele>1704.3984</ele>
        <time>2015-08-20T07:55:21Z</time>
      </trkpt>
      <trkpt lat="45.61934" lon="6.6788">
        <ele>1704.3984</ele>
        <time>2015-08-20T07:55:26Z</time>
      </trkpt>
      <trkpt lat="45.61929" lon="6.67876">
        <ele>1703.5182</ele>
        <time>2015-08-20T07:55:31Z</time>
      </trkpt>
      <trkpt lat="45.61923" lon="6.67873">
        <ele>1703.5182</ele>
        <time>2015-08-20T07:55:36Z</time>
      </trkpt>
      <trkpt lat="45.61918" lon="6.67868">
        <ele>1702.7289</ele>
        <time>2015-08-20T07:55:41Z</time>
      </trkpt>
      <trkpt lat="45.61911" lon="6.67865">
        <ele>1702.7289</ele>
        <time>2015-08-20T07:55:46Z</time>
      </trkpt>
      <trkpt lat="45.61906" lon="6.67862">
        <ele>1702.1235</ele>
        <time>2015-08-20T07:55:51Z</time>
      </trkpt>
      <trkpt lat="45.619" lon="6.67863">
        <ele>1702.1235</ele>
        <time>2015-08-20T07:55:56Z</time>
      </trkpt>
      <trkpt lat="45.61894" lon="6.67862">
        <ele>1701.5867</ele>
        <time>2015-08-20T07:56:01Z</time>
      </trkpt>
      <trkpt lat="45.61889" lon="6.67859">
        <ele>1701.5867</ele>
        <time>2015-08-20T07:56:06Z</time>
      </trkpt>
      <trkpt lat="45.61884" lon="6.67855">
        <ele>1701.2124</ele>
        <time>2015-08-20T07:56:11Z</time>
      </trkpt>
      <trkpt lat="45.61876" lon="6.6785">
        <ele>1701.2124</ele>
        <time>2015-08-20T07:56:16Z</time>
      </trkpt>
      <trkpt lat="45.61871" lon="6.6785">
        <ele>1701.1167</ele>
        <time>2015-08-20T07:56:21Z</time>
      </trkpt>
      <trkpt lat="45.61865" lon="6.6785">
        <ele>1701.1167</ele>
        <time>2015-08-20T07:56:26Z</time>
      </trkpt>
      <trkpt lat="45.61859" lon="6.6785">
        <ele>1701.262</ele>
        <time>2015-08-20T07:56:31Z</time>
      </trkpt>
      <trkpt lat="45.61854" lon="6.67848">
        <ele>1701.262</ele>
        <time>2015-08-20T07:56:36Z</time>
      </trkpt>
      <trkpt lat="45.61849" lon="6.67846">
        <ele>1701.339</ele>
        <time>2015-08-20T07:56:41Z</time>
      </trkpt>
      <trkpt lat="45.61845" lon="6.67844">
        <ele>1701.339</ele>
        <time>2015-08-20T07:56:46Z</time>
      </trkpt>
      <trkpt lat="45.61841" lon="6.67843">
        <ele>1701.339</ele>
        <time>2015-08-20T07:56:51Z</time>
      </trkpt>
      <trkpt lat="45.61836" lon="6.6784">
        <ele>1701.0757</ele>
        <time>2015-08-20T07:56:56Z</time>
      </trkpt>
      <trkpt lat="45.61828" lon="6.67836">
        <ele>1701.0757</ele>
        <time>2015-08-20T07:57:01Z</time>
      </trkpt>
      <trkpt lat="45.61822" lon="6.67834">
        <ele>1700.7979</ele>
        <time>2015-08-20T07:57:06Z</time>
      </trkpt>
      <trkpt lat="45.61817" lon="6.67833">
        <ele>1700.7979</ele>
        <time>2015-08-20T07:57:11Z</time>
      </trkpt>
      <trkpt lat="45.61812" lon="6.67837">
        <ele>1700.5189</ele>
        <time>2015-08-20T07:57:16Z</time>
      </trkpt>
      <trkpt lat="45.61808" lon="6.6784">
        <ele>1700.5189</ele>
        <time>2015-08-20T07:57:21Z</time>
      </trkpt>
      <trkpt lat="45.61802" lon="6.67838">
        <ele>1700.0496</ele>
        <time>2015-08-20T07:57:26Z</time>
      </trkpt>
      <trkpt lat="45.61797" lon="6.67835">
        <ele>1700.0496</ele>
        <time>2015-08-20T07:57:31Z</time>
      </trkpt>
      <trkpt lat="45.61791" lon="6.67833">
        <ele>1699.3018</ele>
        <time>2015-08-20T07:57:36Z</time>
      </trkpt>
      <trkpt lat="45.61786" lon="6.67835">
        <ele>1699.3018</ele>
        <time>2015-08-20T07:57:41Z</time>
      </trkpt>
      <trkpt lat="45.61782" lon="6.67839">
        <ele>1698.3962</ele>
        <time>2015-08-20T07:57:46Z</time>
      </trkpt>
      <trkpt lat="45.61778" lon="6.67845">
        <ele>1698.3962</ele>
        <time>2015-08-20T07:57:51Z</time>
      </trkpt>
      <trkpt lat="45.61772" lon="6.67849">
        <ele>1697.3734</ele>
        <time>2015-08-20T07:57:56Z</time>
      </trkpt>
      <trkpt lat="45.61764" lon="6.67852">
        <ele>1697.3734</ele>
        <time>2015-08-20T07:58:01Z</time>
      </trkpt>
      <trkpt lat="45.61758" lon="6.6785">
        <ele>1696.2567</ele>
        <time>2015-08-20T07:58:06Z</time>
      </trkpt>
      <trkpt lat="45.61753" lon="6.67849">
        <ele>1696.2567</ele>
        <time>2015-08-20T07:58:11Z</time>
      </trkpt>
      <trkpt lat="45.61745" lon="6.67846">
        <ele>1695.1547</ele>
        <time>2015-08-20T07:58:16Z</time>
      </trkpt>
      <trkpt lat="45.61739" lon="6.67847">
        <ele>1695.1547</ele>
        <time>2015-08-20T07:58:21Z</time>
      </trkpt>
      <trkpt lat="45.61733" lon="6.67849">
        <ele>1694.1244</ele>
        <time>2015-08-20T07:58:26Z</time>
      </trkpt>
      <trkpt lat="45.61726" lon="6.67853">
        <ele>1694.1244</ele>
        <time>2015-08-20T07:58:31Z</time>
      </trkpt>
      <trkpt lat="45.61719" lon="6.67856">
        <ele>1693.1036</ele>
        <time>2015-08-20T07:58:36Z</time>
      </trkpt>
      <trkpt lat="45.61713" lon="6.67856">
        <ele>1693.1036</ele>
        <time>2015-08-20T07:58:41Z</time>
      </trkpt>
      <trkpt lat="45.61707" lon="6.67857">
        <ele>1692.1931</ele>
        <time>2015-08-20T07:58:46Z</time>
      </trkpt>
      <trkpt lat="45.61702" lon="6.67859">
        <ele>1692.1931</ele>
        <time>2015-08-20T07:58:51Z</time>
      </trkpt>
      <trkpt lat="45.61696" lon="6.67863">
        <ele>1691.3849</ele>
        <time>2015-08-20T07:58:56Z</time>
      </trkpt>
      <trkpt lat="45.6169" lon="6.67865">
        <ele>1691.3849</ele>
        <time>2015-08-20T07:59:01Z</time>
      </trkpt>
      <trkpt lat="45.61685" lon="6.67864">
        <ele>1690.6571</ele>
        <time>2015-08-20T07:59:06Z</time>
      </trkpt>
      <trkpt lat="45.6168" lon="6.67862">
        <ele>1690.6571</ele>
        <time>2015-08-20T07:59:11Z</time>
      </trkpt>
      <trkpt lat="45.61672" lon="6.67858">
        <ele>1689.9315</ele>
        <time>2015-08-20T07:59:16Z</time>
      </trkpt>
      <trkpt lat="45.61666" lon="6.67856">
        <ele>1689.9315</ele>
        <time>2015-08-20T07:59:21Z</time>
      </trkpt>
      <trkpt lat="45.61661" lon="6.67857">
        <ele>1689.1213</ele>
        <time>2015-08-20T07:59:26Z</time>
      </trkpt>
      <trkpt lat="45.61655" lon="6.67857">
        <ele>1689.1213</ele>
        <time>2015-08-20T07:59:31Z</time>
      </trkpt>
      <trkpt lat="45.61649" lon="6.67858">
        <ele>1688.3625</ele>
        <time>2015-08-20T07:59:36Z</time>
      </trkpt>
      <trkpt lat="45.61642" lon="6.67857">
        <ele>1688.3625</ele>
        <time>2015-08-20T07:59:41Z</time>
      </trkpt>
      <trkpt lat="45.61637" lon="6.67857">
        <ele>1687.5936</ele>
        <time>2015-08-20T07:59:46Z</time>
      </trkpt>
      <trkpt lat="45.61631" lon="6.67856">
        <ele>1687.5936</ele>
        <time>2015-08-20T07:59:51Z</time>
      </trkpt>
      <trkpt lat="45.61626" lon="6.67854">
        <ele>1686.8298</ele>
        <time>2015-08-20T07:59:56Z</time>
      </trkpt>
      <trkpt lat="45.61621" lon="6.67854">
        <ele>1686.8298</ele>
        <time>2015-08-20T08:00:01Z</time>
      </trkpt>
      <trkpt lat="45.61615" lon="6.67852">
        <ele>1685.9265</ele>
        <time>2015-08-20T08:00:06Z</time>
      </trkpt>
      <trkpt lat="45.6161" lon="6.67853">
        <ele>1685.9265</ele>
        <time>2015-08-20T08:00:11Z</time>
      </trkpt>
      <trkpt lat="45.61606" lon="6.67855">
        <ele>1684.8943</ele>
        <time>2015-08-20T08:00:16Z</time>
      </trkpt>
      <trkpt lat="45.61601" lon="6.67859">
        <ele>1684.8943</ele>
        <time>2015-08-20T08:00:21Z</time>
      </trkpt>
      <trkpt lat="45.61596" lon="6.67862">
        <ele>1683.5707</ele>
        <time>2015-08-20T08:00:26Z</time>
      </trkpt>
      <trkpt lat="45.61591" lon="6.67867">
        <ele>1683.5707</ele>
        <time>2015-08-20T08:00:31Z</time>
      </trkpt>
      <trkpt lat="45.61585" lon="6.67871">
        <ele>1682.137</ele>
        <time>2015-08-20T08:00:36Z</time>
      </trkpt>
      <trkpt lat="45.61581" lon="6.67874">
        <ele>1682.137</ele>
        <time>2015-08-20T08:00:41Z</time>
      </trkpt>
      <trkpt lat="45.61576" lon="6.67877">
        <ele>1680.5457</ele>
        <time>2015-08-20T08:00:46Z</time>
      </trkpt>
      <trkpt lat="45.61572" lon="6.67881">
        <ele>1680.5457</ele>
        <time>2015-08-20T08:00:51Z</time>
      </trkpt>
      <trkpt lat="45.61567" lon="6.67884">
        <ele>1678.5944</ele>
        <time>2015-08-20T08:00:56Z</time>
      </trkpt>
      <trkpt lat="45.61563" lon="6.67889">
        <ele>1678.5944</ele>
        <time>2015-08-20T08:01:01Z</time>
      </trkpt>
      <trkpt lat="45.6156" lon="6.67891">
        <ele>1678.5944</ele>
        <time>2015-08-20T08:01:06Z</time>
      </trkpt>
      <trkpt lat="45.61553" lon="6.67893">
        <ele>1676.0535</ele>
        <time>2015-08-20T08:01:11Z</time>
      </trkpt>
      <trkpt lat="45.61546" lon="6.67895">
        <ele>1676.0535</ele>
        <time>2015-08-20T08:01:16Z</time>
      </trkpt>
      <trkpt lat="45.6154" lon="6.67896">
        <ele>1673.5767</ele>
        <time>2015-08-20T08:01:21Z</time>
      </trkpt>
      <trkpt lat="45.61533" lon="6.67897">
        <ele>1673.5767</ele>
        <time>2015-08-20T08:01:26Z</time>
      </trkpt>
      <trkpt lat="45.61527" lon="6.67897">
        <ele>1671.0631</ele>
        <time>2015-08-20T08:01:31Z</time>
      </trkpt>
      <trkpt lat="45.61522" lon="6.67897">
        <ele>1671.0631</ele>
        <time>2015-08-20T08:01:36Z</time>
      </trkpt>
      <trkpt lat="45.61519" lon="6.67898">
        <ele>1671.0631</ele>
        <time>2015-08-20T08:01:41Z</time>
      </trkpt>
      <trkpt lat="45.6151" lon="6.67896">
        <ele>1668.5922</ele>
        <time>2015-08-20T08:01:46Z</time>
      </trkpt>
      <trkpt lat="45.61504" lon="6.67898">
        <ele>1668.5922</ele>
        <time>2015-08-20T08:01:51Z</time>
      </trkpt>
      <trkpt lat="45.61497" lon="6.679">
        <ele>1666.2231</ele>
        <time>2015-08-20T08:01:56Z</time>
      </trkpt>
      <trkpt lat="45.61491" lon="6.67901">
        <ele>1666.2231</ele>
        <time>2015-08-20T08:02:01Z</time>
      </trkpt>
      <trkpt lat="45.61486" lon="6.67901">
        <ele>1663.9097</ele>
        <time>2015-08-20T08:02:06Z</time>
      </trkpt>
      <trkpt lat="45.6148" lon="6.67903">
        <ele>1663.9097</ele>
        <time>2015-08-20T08:02:11Z</time>
      </trkpt>
      <trkpt lat="45.61474" lon="6.67904">
        <ele>1661.7092</ele>
        <time>2015-08-20T08:02:16Z</time>
      </trkpt>
      <trkpt lat="45.61471" lon="6.67906">
        <ele>1661.7092</ele>
        <time>2015-08-20T08:02:21Z</time>
      </trkpt>
      <trkpt lat="45.61465" lon="6.67908">
        <ele>1659.5741</ele>
        <time>2015-08-20T08:02:26Z</time>
      </trkpt>
      <trkpt lat="45.6146" lon="6.67911">
        <ele>1659.5741</ele>
        <time>2015-08-20T08:02:31Z</time>
      </trkpt>
      <trkpt lat="45.61455" lon="6.67913">
        <ele>1657.5172</ele>
        <time>2015-08-20T08:02:36Z</time>
      </trkpt>
      <trkpt lat="45.6145" lon="6.67917">
        <ele>1657.5172</ele>
        <time>2015-08-20T08:02:41Z</time>
      </trkpt>
      <trkpt lat="45.61444" lon="6.67921">
        <ele>1655.6511</ele>
        <time>2015-08-20T08:02:46Z</time>
      </trkpt>
      <trkpt lat="45.61439" lon="6.67924">
        <ele>1655.6511</ele>
        <time>2015-08-20T08:02:51Z</time>
      </trkpt>
      <trkpt lat="45.61433" lon="6.6793">
        <ele>1654.0365</ele>
        <time>2015-08-20T08:02:56Z</time>
      </trkpt>
      <trkpt lat="45.61428" lon="6.67932">
        <ele>1654.0365</ele>
        <time>2015-08-20T08:03:01Z</time>
      </trkpt>
      <trkpt lat="45.61422" lon="6.67933">
        <ele>1652.4691</ele>
        <time>2015-08-20T08:03:06Z</time>
      </trkpt>
      <trkpt lat="45.61415" lon="6.67933">
        <ele>1652.4691</ele>
        <time>2015-08-20T08:03:11Z</time>
      </trkpt>
      <trkpt lat="45.61411" lon="6.67933">
        <ele>1650.9038</ele>
        <time>2015-08-20T08:03:16Z</time>
      </trkpt>
      <trkpt lat="45.61406" lon="6.67932">
        <ele>1650.9038</ele>
        <time>2015-08-20T08:03:21Z</time>
      </trkpt>
      <trkpt lat="45.61398" lon="6.67932">
        <ele>1649.4425</ele>
        <time>2015-08-20T08:03:26Z</time>
      </trkpt>
      <trkpt lat="45.61394" lon="6.67932">
        <ele>1649.4425</ele>
        <time>2015-08-20T08:03:31Z</time>
      </trkpt>
      <trkpt lat="45.6139" lon="6.6793">
        <ele>1649.4425</ele>
        <time>2015-08-20T08:03:36Z</time>
      </trkpt>
      <trkpt lat="45.61384" lon="6.67929">
        <ele>1648.0066</ele>
        <time>2015-08-20T08:03:41Z</time>
      </trkpt>
      <trkpt lat="45.61376" lon="6.67928">
        <ele>1648.0066</ele>
        <time>2015-08-20T08:03:46Z</time>
      </trkpt>
      <trkpt lat="45.61369" lon="6.67927">
        <ele>1646.6239</ele>
        <time>2015-08-20T08:03:51Z</time>
      </trkpt>
      <trkpt lat="45.61365" lon="6.67926">
        <ele>1646.6239</ele>
        <time>2015-08-20T08:03:56Z</time>
      </trkpt>
      <trkpt lat="45.6136" lon="6.67924">
        <ele>1645.3632</ele>
        <time>2015-08-20T08:04:01Z</time>
      </trkpt>
      <trkpt lat="45.61354" lon="6.67922">
        <ele>1645.3632</ele>
        <time>2015-08-20T08:04:06Z</time>
      </trkpt>
      <trkpt lat="45.61348" lon="6.67921">
        <ele>1644.1866</ele>
        <time>2015-08-20T08:04:11Z</time>
      </trkpt>
      <trkpt lat="45.61341" lon="6.67921">
        <ele>1644.1866</ele>
        <time>2015-08-20T08:04:16Z</time>
      </trkpt>
      <trkpt lat="45.61336" lon="6.6792">
        <ele>1643.0739</ele>
        <time>2015-08-20T08:04:21Z</time>
      </trkpt>
      <trkpt lat="45.61333" lon="6.67917">
        <ele>1643.0739</ele>
        <time>2015-08-20T08:04:26Z</time>
      </trkpt>
      <trkpt lat="45.61333" lon="6.67921">
        <ele>1643.0739</ele>
        <time>2015-08-20T08:04:31Z</time>
      </trkpt>
      <trkpt lat="45.61336" lon="6.67922">
        <ele>1643.0739</ele>
        <time>2015-08-20T08:04:36Z</time>
      </trkpt>
      <trkpt lat="45.61337" lon="6.67922">
        <ele>1641.8033</ele>
        <time>2015-08-20T08:04:41Z</time>
      </trkpt>
      <trkpt lat="45.61338" lon="6.67923">
        <ele>1641.8033</ele>
        <time>2015-08-20T08:04:46Z</time>
      </trkpt>
      <trkpt lat="45.61337" lon="6.67924">
        <ele>1641.8033</ele>
        <time>2015-08-20T08:04:51Z</time>
      </trkpt>
      <trkpt lat="45.61327" lon="6.67926">
        <ele>1640.0411</ele>
        <time>2015-08-20T08:04:56Z</time>
      </trkpt>
      <trkpt lat="45.61319" lon="6.67926">
        <ele>1640.0411</ele>
        <time>2015-08-20T08:05:01Z</time>
      </trkpt>
      <trkpt lat="45.61313" lon="6.67927">
        <ele>1638.4009</ele>
        <time>2015-08-20T08:05:06Z</time>
      </trkpt>
      <trkpt lat="45.61306" lon="6.67929">
        <ele>1638.4009</ele>
        <time>2015-08-20T08:05:11Z</time>
      </trkpt>
      <trkpt lat="45.61299" lon="6.67931">
        <ele>1636.9469</ele>
        <time>2015-08-20T08:05:16Z</time>
      </trkpt>
      <trkpt lat="45.61291" lon="6.67932">
        <ele>1636.9469</ele>
        <time>2015-08-20T08:05:21Z</time>
      </trkpt>
      <trkpt lat="45.61288" lon="6.67932">
        <ele>1635.6656</ele>
        <time>2015-08-20T08:05:26Z</time>
      </trkpt>
      <trkpt lat="45.61288" lon="6.67932">
        <ele>1635.6656</ele>
        <time>2015-08-20T08:05:31Z</time>
      </trkpt>
      <trkpt lat="45.61284" lon="6.67928">
        <ele>1635.6656</ele>
        <time>2015-08-20T08:05:56Z</time>
      </trkpt>
      <trkpt lat="45.61284" lon="6.67928">
        <ele>1635.6656</ele>
        <time>2015-08-20T08:06:01Z</time>
      </trkpt>
      <trkpt lat="45.61283" lon="6.67929">
        <ele>1635.6656</ele>
        <time>2015-08-20T08:06:11Z</time>
      </trkpt>
      <trkpt lat="45.61283" lon="6.67929">
        <ele>1635.6656</ele>
        <time>2015-08-20T08:06:16Z</time>
      </trkpt>
      <trkpt lat="45.61281" lon="6.6793">
        <ele>1635.6656</ele>
        <time>2015-08-20T08:06:21Z</time>
      </trkpt>
      <trkpt lat="45.61281" lon="6.6793">
        <ele>1635.6656</ele>
        <time>2015-08-20T08:06:26Z</time>
      </trkpt>
      <trkpt lat="45.61281" lon="6.67932">
        <ele>1634.9191</ele>
        <time>2015-08-20T08:06:31Z</time>
      </trkpt>
      <trkpt lat="45.61281" lon="6.67933">
        <ele>1634.9191</ele>
        <time>2015-08-20T08:06:36Z</time>
      </trkpt>
      <trkpt lat="45.6128" lon="6.67939">
        <ele>1634.9191</ele>
        <time>2015-08-20T08:06:41Z</time>
      </trkpt>
      <trkpt lat="45.61276" lon="6.67945">
        <ele>1634.2195</ele>
        <time>2015-08-20T08:06:46Z</time>
      </trkpt>
      <trkpt lat="45.61272" lon="6.6795">
        <ele>1634.2195</ele>
        <time>2015-08-20T08:06:51Z</time>
      </trkpt>
      <trkpt lat="45.61268" lon="6.67953">
        <ele>1633.5903</ele>
        <time>2015-08-20T08:06:56Z</time>
      </trkpt>
      <trkpt lat="45.61266" lon="6.67959">
        <ele>1633.5903</ele>
        <time>2015-08-20T08:07:01Z</time>
      </trkpt>
      <trkpt lat="45.61264" lon="6.67964">
        <ele>1633.5903</ele>
        <time>2015-08-20T08:07:06Z</time>
      </trkpt>
      <trkpt lat="45.6126" lon="6.6797">
        <ele>1632.8804</ele>
        <time>2015-08-20T08:07:11Z</time>
      </trkpt>
      <trkpt lat="45.61256" lon="6.67975">
        <ele>1632.8804</ele>
        <time>2015-08-20T08:07:16Z</time>
      </trkpt>
      <trkpt lat="45.61253" lon="6.67982">
        <ele>1632.3241</ele>
        <time>2015-08-20T08:07:21Z</time>
      </trkpt>
      <trkpt lat="45.61248" lon="6.67987">
        <ele>1632.3241</ele>
        <time>2015-08-20T08:07:26Z</time>
      </trkpt>
      <trkpt lat="45.61242" lon="6.67992">
        <ele>1631.9657</ele>
        <time>2015-08-20T08:07:31Z</time>
      </trkpt>
      <trkpt lat="45.61237" lon="6.67994">
        <ele>1631.9657</ele>
        <time>2015-08-20T08:07:36Z</time>
      </trkpt>
      <trkpt lat="45.61232" lon="6.67996">
        <ele>1631.6434</ele>
        <time>2015-08-20T08:07:41Z</time>
      </trkpt>
      <trkpt lat="45.61227" lon="6.68">
        <ele>1631.6434</ele>
        <time>2015-08-20T08:07:46Z</time>
      </trkpt>
      <trkpt lat="45.61222" lon="6.68004">
        <ele>1631.2511</ele>
        <time>2015-08-20T08:07:51Z</time>
      </trkpt>
      <trkpt lat="45.61217" lon="6.68005">
        <ele>1631.2511</ele>
        <time>2015-08-20T08:07:56Z</time>
      </trkpt>
      <trkpt lat="45.61212" lon="6.68008">
        <ele>1630.8196</ele>
        <time>2015-08-20T08:08:01Z</time>
      </trkpt>
      <trkpt lat="45.61207" lon="6.68009">
        <ele>1630.8196</ele>
        <time>2015-08-20T08:08:06Z</time>
      </trkpt>
      <trkpt lat="45.61201" lon="6.68011">
        <ele>1630.3638</ele>
        <time>2015-08-20T08:08:11Z</time>
      </trkpt>
      <trkpt lat="45.61194" lon="6.68011">
        <ele>1630.3638</ele>
        <time>2015-08-20T08:08:16Z</time>
      </trkpt>
      <trkpt lat="45.61188" lon="6.68012">
        <ele>1630.0125</ele>
        <time>2015-08-20T08:08:21Z</time>
      </trkpt>
      <trkpt lat="45.61181" lon="6.68012">
        <ele>1630.0125</ele>
        <time>2015-08-20T08:08:26Z</time>
      </trkpt>
      <trkpt lat="45.61176" lon="6.68012">
        <ele>1629.784</ele>
        <time>2015-08-20T08:08:31Z</time>
      </trkpt>
      <trkpt lat="45.61172" lon="6.68012">
        <ele>1629.784</ele>
        <time>2015-08-20T08:08:36Z</time>
      </trkpt>
      <trkpt lat="45.61169" lon="6.68012">
        <ele>1629.784</ele>
        <time>2015-08-20T08:08:41Z</time>
      </trkpt>
      <trkpt lat="45.61166" lon="6.68008">
        <ele>1629.6232</ele>
        <time>2015-08-20T08:08:46Z</time>
      </trkpt>
      <trkpt lat="45.61159" lon="6.68006">
        <ele>1629.6232</ele>
        <time>2015-08-20T08:08:51Z</time>
      </trkpt>
      <trkpt lat="45.61151" lon="6.68009">
        <ele>1629.565</ele>
        <time>2015-08-20T08:08:56Z</time>
      </trkpt>
      <trkpt lat="45.61146" lon="6.6801">
        <ele>1629.565</ele>
        <time>2015-08-20T08:09:01Z</time>
      </trkpt>
      <trkpt lat="45.6114" lon="6.68007">
        <ele>1629.6125</ele>
        <time>2015-08-20T08:09:06Z</time>
      </trkpt>
      <trkpt lat="45.61135" lon="6.68004">
        <ele>1629.6125</ele>
        <time>2015-08-20T08:09:11Z</time>
      </trkpt>
      <trkpt lat="45.61129" lon="6.68003">
        <ele>1629.7836</ele>
        <time>2015-08-20T08:09:16Z</time>
      </trkpt>
      <trkpt lat="45.61124" lon="6.68002">
        <ele>1629.7836</ele>
        <time>2015-08-20T08:09:21Z</time>
      </trkpt>
      <trkpt lat="45.61119" lon="6.68">
        <ele>1630.0647</ele>
        <time>2015-08-20T08:09:26Z</time>
      </trkpt>
      <trkpt lat="45.61111" lon="6.67997">
        <ele>1630.0647</ele>
        <time>2015-08-20T08:09:31Z</time>
      </trkpt>
      <trkpt lat="45.61106" lon="6.67994">
        <ele>1630.4581</ele>
        <time>2015-08-20T08:09:36Z</time>
      </trkpt>
      <trkpt lat="45.611" lon="6.67992">
        <ele>1630.4581</ele>
        <time>2015-08-20T08:09:41Z</time>
      </trkpt>
      <trkpt lat="45.61094" lon="6.67987">
        <ele>1630.9222</ele>
        <time>2015-08-20T08:09:46Z</time>
      </trkpt>
      <trkpt lat="45.6109" lon="6.67986">
        <ele>1630.9222</ele>
        <time>2015-08-20T08:09:51Z</time>
      </trkpt>
      <trkpt lat="45.61086" lon="6.67984">
        <ele>1631.4618</ele>
        <time>2015-08-20T08:09:56Z</time>
      </trkpt>
      <trkpt lat="45.61079" lon="6.67983">
        <ele>1631.4618</ele>
        <time>2015-08-20T08:10:01Z</time>
      </trkpt>
      <trkpt lat="45.61075" lon="6.67979">
        <ele>1632.0376</ele>
        <time>2015-08-20T08:10:06Z</time>
      </trkpt>
      <trkpt lat="45.6107" lon="6.67976">
        <ele>1632.0376</ele>
        <time>2015-08-20T08:10:11Z</time>
      </trkpt>
      <trkpt lat="45.61065" lon="6.67975">
        <ele>1632.6425</ele>
        <time>2015-08-20T08:10:16Z</time>
      </trkpt>
      <trkpt lat="45.61062" lon="6.67974">
        <ele>1632.6425</ele>
        <time>2015-08-20T08:10:21Z</time>
      </trkpt>
      <trkpt lat="45.61056" lon="6.67973">
        <ele>1633.2549</ele>
        <time>2015-08-20T08:10:26Z</time>
      </trkpt>
      <trkpt lat="45.6105" lon="6.67972">
        <ele>1633.2549</ele>
        <time>2015-08-20T08:10:31Z</time>
      </trkpt>
      <trkpt lat="45.61045" lon="6.67971">
        <ele>1633.7834</ele>
        <time>2015-08-20T08:10:36Z</time>
      </trkpt>
      <trkpt lat="45.6104" lon="6.67969">
        <ele>1633.7834</ele>
        <time>2015-08-20T08:10:41Z</time>
      </trkpt>
      <trkpt lat="45.61036" lon="6.67967">
        <ele>1634.2157</ele>
        <time>2015-08-20T08:10:46Z</time>
      </trkpt>
      <trkpt lat="45.61032" lon="6.67964">
        <ele>1634.2157</ele>
        <time>2015-08-20T08:10:51Z</time>
      </trkpt>
      <trkpt lat="45.61028" lon="6.67963">
        <ele>1634.2157</ele>
        <time>2015-08-20T08:10:56Z</time>
      </trkpt>
      <trkpt lat="45.61025" lon="6.67963">
        <ele>1634.8285</ele>
        <time>2015-08-20T08:11:01Z</time>
      </trkpt>
      <trkpt lat="45.61022" lon="6.67962">
        <ele>1634.8285</ele>
        <time>2015-08-20T08:11:06Z</time>
      </trkpt>
      <trkpt lat="45.61019" lon="6.67961">
        <ele>1634.8285</ele>
        <time>2015-08-20T08:11:11Z</time>
      </trkpt>
      <trkpt lat="45.61016" lon="6.67959">
        <ele>1635.3739</ele>
        <time>2015-08-20T08:11:16Z</time>
      </trkpt>
      <trkpt lat="45.61011" lon="6.67956">
        <ele>1635.3739</ele>
        <time>2015-08-20T08:11:21Z</time>
      </trkpt>
      <trkpt lat="45.61004" lon="6.6795">
        <ele>1635.925</ele>
        <time>2015-08-20T08:11:26Z</time>
      </trkpt>
      <trkpt lat="45.60998" lon="6.67943">
        <ele>1635.925</ele>
        <time>2015-08-20T08:11:31Z</time>
      </trkpt>
      <trkpt lat="45.60993" lon="6.67939">
        <ele>1636.3191</ele>
        <time>2015-08-20T08:11:36Z</time>
      </trkpt>
      <trkpt lat="45.60991" lon="6.67938">
        <ele>1636.3191</ele>
        <time>2015-08-20T08:11:41Z</time>
      </trkpt>
      <trkpt lat="45.60989" lon="6.67938">
        <ele>1636.3191</ele>
        <time>2015-08-20T08:11:46Z</time>
      </trkpt>
      <trkpt lat="45.60983" lon="6.67938">
        <ele>1636.7086</ele>
        <time>2015-08-20T08:11:51Z</time>
      </trkpt>
      <trkpt lat="45.60976" lon="6.67937">
        <ele>1636.7086</ele>
        <time>2015-08-20T08:11:56Z</time>
      </trkpt>
      <trkpt lat="45.60972" lon="6.67933">
        <ele>1637.0763</ele>
        <time>2015-08-20T08:12:01Z</time>
      </trkpt>
      <trkpt lat="45.60969" lon="6.67931">
        <ele>1637.0763</ele>
        <time>2015-08-20T08:12:06Z</time>
      </trkpt>
      <trkpt lat="45.60963" lon="6.67928">
        <ele>1637.3634</ele>
        <time>2015-08-20T08:12:11Z</time>
      </trkpt>
      <trkpt lat="45.60957" lon="6.67924">
        <ele>1637.3634</ele>
        <time>2015-08-20T08:12:16Z</time>
      </trkpt>
      <trkpt lat="45.6095" lon="6.6792">
        <ele>1637.6884</ele>
        <time>2015-08-20T08:12:21Z</time>
      </trkpt>
      <trkpt lat="45.60944" lon="6.67919">
        <ele>1637.6884</ele>
        <time>2015-08-20T08:12:26Z</time>
      </trkpt>
      <trkpt lat="45.60939" lon="6.67916">
        <ele>1638.0316</ele>
        <time>2015-08-20T08:12:31Z</time>
      </trkpt>
      <trkpt lat="45.60933" lon="6.67913">
        <ele>1638.0316</ele>
        <time>2015-08-20T08:12:36Z</time>
      </trkpt>
      <trkpt lat="45.60927" lon="6.67912">
        <ele>1638.3462</ele>
        <time>2015-08-20T08:12:41Z</time>
      </trkpt>
      <trkpt lat="45.60922" lon="6.67911">
        <ele>1638.3462</ele>
        <time>2015-08-20T08:12:46Z</time>
      </trkpt>
      <trkpt lat="45.60917" lon="6.67911">
        <ele>1638.704</ele>
        <time>2015-08-20T08:12:51Z</time>
      </trkpt>
      <trkpt lat="45.60911" lon="6.67912">
        <ele>1638.704</ele>
        <time>2015-08-20T08:12:56Z</time>
      </trkpt>
      <trkpt lat="45.60904" lon="6.67909">
        <ele>1639.1139</ele>
        <time>2015-08-20T08:13:01Z</time>
      </trkpt>
      <trkpt lat="45.60899" lon="6.67905">
        <ele>1639.1139</ele>
        <time>2015-08-20T08:13:06Z</time>
      </trkpt>
      <trkpt lat="45.60895" lon="6.679">
        <ele>1639.4691</ele>
        <time>2015-08-20T08:13:11Z</time>
      </trkpt>
      <trkpt lat="45.60892" lon="6.67894">
        <ele>1639.4691</ele>
        <time>2015-08-20T08:13:16Z</time>
      </trkpt>
      <trkpt lat="45.60888" lon="6.67888">
        <ele>1639.714</ele>
        <time>2015-08-20T08:13:21Z</time>
      </trkpt>
      <trkpt lat="45.60885" lon="6.6788">
        <ele>1639.714</ele>
        <time>2015-08-20T08:13:26Z</time>
      </trkpt>
      <trkpt lat="45.60884" lon="6.67873">
        <ele>1639.8694</ele>
        <time>2015-08-20T08:13:31Z</time>
      </trkpt>
      <trkpt lat="45.60884" lon="6.67866">
        <ele>1639.8694</ele>
        <time>2015-08-20T08:13:36Z</time>
      </trkpt>
      <trkpt lat="45.60884" lon="6.67864">
        <ele>1639.8694</ele>
        <time>2015-08-20T08:13:41Z</time>
      </trkpt>
      <trkpt lat="45.60884" lon="6.67864">
        <ele>1639.8694</ele>
        <time>2015-08-20T08:13:46Z</time>
      </trkpt>
      <trkpt lat="45.60884" lon="6.67862">
        <ele>1639.8694</ele>
        <time>2015-08-20T08:14:01Z</time>
      </trkpt>
      <trkpt lat="45.60884" lon="6.67862">
        <ele>1639.8694</ele>
        <time>2015-08-20T08:14:06Z</time>
      </trkpt>
      <trkpt lat="45.60884" lon="6.67863">
        <ele>1639.8694</ele>
        <time>2015-08-20T08:15:06Z</time>
      </trkpt>
      <trkpt lat="45.60883" lon="6.67863">
        <ele>1639.6237</ele>
        <time>2015-08-20T08:16:31Z</time>
      </trkpt>
      <trkpt lat="45.60882" lon="6.67863">
        <ele>1639.6237</ele>
        <time>2015-08-20T08:16:36Z</time>
      </trkpt>
      <trkpt lat="45.60882" lon="6.67863">
        <ele>1639.6237</ele>
        <time>2015-08-20T08:16:41Z</time>
      </trkpt>
      <trkpt lat="45.60882" lon="6.67861">
        <ele>1639.6237</ele>
        <time>2015-08-20T08:17:01Z</time>
      </trkpt>
      <trkpt lat="45.60883" lon="6.67848">
        <ele>1639.3666</ele>
        <time>2015-08-20T08:17:11Z</time>
      </trkpt>
      <trkpt lat="45.60882" lon="6.67839">
        <ele>1639.3666</ele>
        <time>2015-08-20T08:17:16Z</time>
      </trkpt>
      <trkpt lat="45.60879" lon="6.67819">
        <ele>1638.9407</ele>
        <time>2015-08-20T08:17:26Z</time>
      </trkpt>
      <trkpt lat="45.60877" lon="6.6781">
        <ele>1638.9407</ele>
        <time>2015-08-20T08:17:31Z</time>
      </trkpt>
      <trkpt lat="45.60874" lon="6.67794">
        <ele>1638.4741</ele>
        <time>2015-08-20T08:17:41Z</time>
      </trkpt>
      <trkpt lat="45.60875" lon="6.67788">
        <ele>1638.4741</ele>
        <time>2015-08-20T08:17:46Z</time>
      </trkpt>
      <trkpt lat="45.60875" lon="6.67787">
        <ele>1638.4741</ele>
        <time>2015-08-20T08:17:56Z</time>
      </trkpt>
      <trkpt lat="45.60874" lon="6.67782">
        <ele>1638.4741</ele>
        <time>2015-08-20T08:18:01Z</time>
      </trkpt>
      <trkpt lat="45.60873" lon="6.67779">
        <ele>1638.2515</ele>
        <time>2015-08-20T08:18:16Z</time>
      </trkpt>
      <trkpt lat="45.60867" lon="6.67769">
        <ele>1638.0287</ele>
        <time>2015-08-20T08:18:31Z</time>
      </trkpt>
      <trkpt lat="45.60861" lon="6.67764">
        <ele>1638.0287</ele>
        <time>2015-08-20T08:18:36Z</time>
      </trkpt>
      <trkpt lat="45.6085" lon="6.67756">
        <ele>1637.5748</ele>
        <time>2015-08-20T08:18:46Z</time>
      </trkpt>
      <trkpt lat="45.60844" lon="6.6775">
        <ele>1637.5748</ele>
        <time>2015-08-20T08:18:51Z</time>
      </trkpt>
      <trkpt lat="45.60833" lon="6.67739">
        <ele>1637.1141</ele>
        <time>2015-08-20T08:19:01Z</time>
      </trkpt>
      <trkpt lat="45.60827" lon="6.67734">
        <ele>1637.1141</ele>
        <time>2015-08-20T08:19:06Z</time>
      </trkpt>
      <trkpt lat="45.60818" lon="6.67727">
        <ele>1636.5186</ele>
        <time>2015-08-20T08:19:16Z</time>
      </trkpt>
      <trkpt lat="45.60814" lon="6.67725">
        <ele>1636.5186</ele>
        <time>2015-08-20T08:19:21Z</time>
      </trkpt>
      <trkpt lat="45.60801" lon="6.67718">
        <ele>1635.7273</ele>
        <time>2015-08-20T08:19:31Z</time>
      </trkpt>
      <trkpt lat="45.60798" lon="6.67711">
        <ele>1635.7273</ele>
        <time>2015-08-20T08:19:36Z</time>
      </trkpt>
      <trkpt lat="45.60806" lon="6.67697">
        <ele>1634.6416</ele>
        <time>2015-08-20T08:19:46Z</time>
      </trkpt>
      <trkpt lat="45.60813" lon="6.67693">
        <ele>1634.6416</ele>
        <time>2015-08-20T08:19:51Z</time>
      </trkpt>
      <trkpt lat="45.6083" lon="6.67692">
        <ele>1633.0988</ele>
        <time>2015-08-20T08:20:06Z</time>
      </trkpt>
      <trkpt lat="45.60835" lon="6.67695">
        <ele>1633.0988</ele>
        <time>2015-08-20T08:20:11Z</time>
      </trkpt>
      <trkpt lat="45.60842" lon="6.67683">
        <ele>1631.2518</ele>
        <time>2015-08-20T08:20:21Z</time>
      </trkpt>
      <trkpt lat="45.60837" lon="6.67676">
        <ele>1631.2518</ele>
        <time>2015-08-20T08:20:26Z</time>
      </trkpt>
      <trkpt lat="45.60829" lon="6.67664">
        <ele>1629.3156</ele>
        <time>2015-08-20T08:20:36Z</time>
      </trkpt>
      <trkpt lat="45.60823" lon="6.67659">
        <ele>1629.3156</ele>
        <time>2015-08-20T08:20:41Z</time>
      </trkpt>
      <trkpt lat="45.60818" lon="6.67654">
        <ele>1627.5181</ele>
        <time>2015-08-20T08:20:51Z</time>
      </trkpt>
      <trkpt lat="45.6081" lon="6.6765">
        <ele>1627.5181</ele>
        <time>2015-08-20T08:22:06Z</time>
      </trkpt>
      <trkpt lat="45.60809" lon="6.6765">
        <ele>1625.782</ele>
        <time>2015-08-20T08:22:11Z</time>
      </trkpt>
      <trkpt lat="45.60796" lon="6.67648">
        <ele>1624.266</ele>
        <time>2015-08-20T08:22:21Z</time>
      </trkpt>
      <trkpt lat="45.6079" lon="6.6765">
        <ele>1624.266</ele>
        <time>2015-08-20T08:22:26Z</time>
      </trkpt>
      <trkpt lat="45.60776" lon="6.67652">
        <ele>1623.03</ele>
        <time>2015-08-20T08:22:36Z</time>
      </trkpt>
      <trkpt lat="45.6077" lon="6.67656">
        <ele>1623.03</ele>
        <time>2015-08-20T08:22:41Z</time>
      </trkpt>
      <trkpt lat="45.60754" lon="6.67657">
        <ele>1621.9559</ele>
        <time>2015-08-20T08:22:56Z</time>
      </trkpt>
      <trkpt lat="45.60748" lon="6.67655">
        <ele>1621.9559</ele>
        <time>2015-08-20T08:23:01Z</time>
      </trkpt>
      <trkpt lat="45.60737" lon="6.67647">
        <ele>1620.8904</ele>
        <time>2015-08-20T08:23:11Z</time>
      </trkpt>
      <trkpt lat="45.60731" lon="6.67642">
        <ele>1620.8904</ele>
        <time>2015-08-20T08:23:16Z</time>
      </trkpt>
      <trkpt lat="45.60718" lon="6.67639">
        <ele>1619.8208</ele>
        <time>2015-08-20T08:23:26Z</time>
      </trkpt>
      <trkpt lat="45.60711" lon="6.67638">
        <ele>1619.8208</ele>
        <time>2015-08-20T08:23:31Z</time>
      </trkpt>
      <trkpt lat="45.60698" lon="6.67633">
        <ele>1618.9519</ele>
        <time>2015-08-20T08:23:41Z</time>
      </trkpt>
      <trkpt lat="45.60693" lon="6.67631">
        <ele>1618.9519</ele>
        <time>2015-08-20T08:23:46Z</time>
      </trkpt>
      <trkpt lat="45.60678" lon="6.67625">
        <ele>1618.2131</ele>
        <time>2015-08-20T08:23:56Z</time>
      </trkpt>
      <trkpt lat="45.60671" lon="6.67623">
        <ele>1618.2131</ele>
        <time>2015-08-20T08:24:01Z</time>
      </trkpt>
      <trkpt lat="45.60659" lon="6.67623">
        <ele>1617.6252</ele>
        <time>2015-08-20T08:24:11Z</time>
      </trkpt>
      <trkpt lat="45.60652" lon="6.67623">
        <ele>1617.6252</ele>
        <time>2015-08-20T08:24:16Z</time>
      </trkpt>
      <trkpt lat="45.60639" lon="6.67625">
        <ele>1617.279</ele>
        <time>2015-08-20T08:24:26Z</time>
      </trkpt>
      <trkpt lat="45.60633" lon="6.67626">
        <ele>1617.279</ele>
        <time>2015-08-20T08:24:31Z</time>
      </trkpt>
      <trkpt lat="45.60622" lon="6.67628">
        <ele>1617.128</ele>
        <time>2015-08-20T08:24:41Z</time>
      </trkpt>
      <trkpt lat="45.60617" lon="6.67628">
        <ele>1617.128</ele>
        <time>2015-08-20T08:24:46Z</time>
      </trkpt>
      <trkpt lat="45.60609" lon="6.67631">
        <ele>1616.8983</ele>
        <time>2015-08-20T08:24:56Z</time>
      </trkpt>
      <trkpt lat="45.60604" lon="6.67635">
        <ele>1616.8983</ele>
        <time>2015-08-20T08:25:01Z</time>
      </trkpt>
      <trkpt lat="45.60593" lon="6.67641">
        <ele>1616.5376</ele>
        <time>2015-08-20T08:25:11Z</time>
      </trkpt>
      <trkpt lat="45.60587" lon="6.67641">
        <ele>1616.5376</ele>
        <time>2015-08-20T08:25:16Z</time>
      </trkpt>
      <trkpt lat="45.6057" lon="6.6764">
        <ele>1616.0845</ele>
        <time>2015-08-20T08:25:31Z</time>
      </trkpt>
      <trkpt lat="45.60565" lon="6.67641">
        <ele>1616.0845</ele>
        <time>2015-08-20T08:25:36Z</time>
      </trkpt>
      <trkpt lat="45.60555" lon="6.6764">
        <ele>1615.5173</ele>
        <time>2015-08-20T08:25:46Z</time>
      </trkpt>
      <trkpt lat="45.60552" lon="6.67641">
        <ele>1615.5173</ele>
        <time>2015-08-20T08:25:51Z</time>
      </trkpt>
      <trkpt lat="45.60541" lon="6.67644">
        <ele>1614.6432</ele>
        <time>2015-08-20T08:26:01Z</time>
      </trkpt>
      <trkpt lat="45.60537" lon="6.67646">
        <ele>1614.6432</ele>
        <time>2015-08-20T08:26:06Z</time>
      </trkpt>
      <trkpt lat="45.60529" lon="6.67649">
        <ele>1613.3563</ele>
        <time>2015-08-20T08:26:16Z</time>
      </trkpt>
      <trkpt lat="45.60522" lon="6.67648">
        <ele>1613.3563</ele>
        <time>2015-08-20T08:26:21Z</time>
      </trkpt>
      <trkpt lat="45.60508" lon="6.67643">
        <ele>1611.9922</ele>
        <time>2015-08-20T08:26:31Z</time>
      </trkpt>
      <trkpt lat="45.60501" lon="6.67641">
        <ele>1611.9922</ele>
        <time>2015-08-20T08:26:36Z</time>
      </trkpt>
      <trkpt lat="45.60487" lon="6.6764">
        <ele>1610.6456</ele>
        <time>2015-08-20T08:26:46Z</time>
      </trkpt>
      <trkpt lat="45.60483" lon="6.6764">
        <ele>1610.6456</ele>
        <time>2015-08-20T08:26:51Z</time>
      </trkpt>
      <trkpt lat="45.60468" lon="6.67634">
        <ele>1609.0297</ele>
        <time>2015-08-20T08:27:06Z</time>
      </trkpt>
      <trkpt lat="45.60462" lon="6.6763">
        <ele>1609.0297</ele>
        <time>2015-08-20T08:27:11Z</time>
      </trkpt>
      <trkpt lat="45.60448" lon="6.67625">
        <ele>1607.398</ele>
        <time>2015-08-20T08:27:21Z</time>
      </trkpt>
      <trkpt lat="45.60442" lon="6.67624">
        <ele>1607.398</ele>
        <time>2015-08-20T08:27:26Z</time>
      </trkpt>
      <trkpt lat="45.6043" lon="6.67614">
        <ele>1605.971</ele>
        <time>2015-08-20T08:27:36Z</time>
      </trkpt>
      <trkpt lat="45.60429" lon="6.67613">
        <ele>1605.971</ele>
        <time>2015-08-20T08:27:41Z</time>
      </trkpt>
      <trkpt lat="45.60428" lon="6.67613">
        <ele>1605.971</ele>
        <time>2015-08-20T08:27:51Z</time>
      </trkpt>
      <trkpt lat="45.60422" lon="6.67611">
        <ele>1605.971</ele>
        <time>2015-08-20T08:28:21Z</time>
      </trkpt>
      <trkpt lat="45.6042" lon="6.6761">
        <ele>1604.3617</ele>
        <time>2015-08-20T08:28:26Z</time>
      </trkpt>
      <trkpt lat="45.6042" lon="6.6761">
        <ele>1604.3617</ele>
        <time>2015-08-20T08:28:36Z</time>
      </trkpt>
      <trkpt lat="45.6042" lon="6.6761">
        <ele>1604.3617</ele>
        <time>2015-08-20T08:28:41Z</time>
      </trkpt>
      <trkpt lat="45.6042" lon="6.6761">
        <ele>1604.3617</ele>
        <time>2015-08-20T08:28:51Z</time>
      </trkpt>
      <trkpt lat="45.60417" lon="6.67607">
        <ele>1604.3617</ele>
        <time>2015-08-20T08:28:56Z</time>
      </trkpt>
      <trkpt lat="45.60398" lon="6.67598">
        <ele>1603.3358</ele>
        <time>2015-08-20T08:29:11Z</time>
      </trkpt>
      <trkpt lat="45.60392" lon="6.67598">
        <ele>1603.3358</ele>
        <time>2015-08-20T08:29:16Z</time>
      </trkpt>
      <trkpt lat="45.60383" lon="6.67595">
        <ele>1602.7366</ele>
        <time>2015-08-20T08:29:26Z</time>
      </trkpt>
      <trkpt lat="45.60379" lon="6.6759">
        <ele>1602.7366</ele>
        <time>2015-08-20T08:29:31Z</time>
      </trkpt>
      <trkpt lat="45.6037" lon="6.67583">
        <ele>1602.3021</ele>
        <time>2015-08-20T08:29:41Z</time>
      </trkpt>
      <trkpt lat="45.60365" lon="6.67579">
        <ele>1602.3021</ele>
        <time>2015-08-20T08:29:46Z</time>
      </trkpt>
      <trkpt lat="45.60358" lon="6.67571">
        <ele>1601.9766</ele>
        <time>2015-08-20T08:29:56Z</time>
      </trkpt>
      <trkpt lat="45.60353" lon="6.67571">
        <ele>1601.9766</ele>
        <time>2015-08-20T08:30:01Z</time>
      </trkpt>
      <trkpt lat="45.60342" lon="6.67571">
        <ele>1601.6503</ele>
        <time>2015-08-20T08:30:11Z</time>
      </trkpt>
      <trkpt lat="45.60336" lon="6.67569">
        <ele>1601.6503</ele>
        <time>2015-08-20T08:30:16Z</time>
      </trkpt>
      <trkpt lat="45.60327" lon="6.6756">
        <ele>1601.1783</ele>
        <time>2015-08-20T08:30:26Z</time>
      </trkpt>
      <trkpt lat="45.60324" lon="6.67556">
        <ele>1601.1783</ele>
        <time>2015-08-20T08:30:31Z</time>
      </trkpt>
      <trkpt lat="45.60314" lon="6.6755">
        <ele>1600.5709</ele>
        <time>2015-08-20T08:30:41Z</time>
      </trkpt>
      <trkpt lat="45.6031" lon="6.6755">
        <ele>1600.5709</ele>
        <time>2015-08-20T08:30:46Z</time>
      </trkpt>
      <trkpt lat="45.60309" lon="6.6755">
        <ele>1600.5709</ele>
        <time>2015-08-20T08:30:56Z</time>
      </trkpt>
      <trkpt lat="45.60306" lon="6.67551">
        <ele>1600.5709</ele>
        <time>2015-08-20T08:31:01Z</time>
      </trkpt>
      <trkpt lat="45.60297" lon="6.6755">
        <ele>1599.953</ele>
        <time>2015-08-20T08:31:16Z</time>
      </trkpt>
      <trkpt lat="45.60294" lon="6.67547">
        <ele>1599.953</ele>
        <time>2015-08-20T08:31:21Z</time>
      </trkpt>
      <trkpt lat="45.60287" lon="6.67544">
        <ele>1599.5991</ele>
        <time>2015-08-20T08:31:31Z</time>
      </trkpt>
      <trkpt lat="45.60284" lon="6.67543">
        <ele>1599.5991</ele>
        <time>2015-08-20T08:31:36Z</time>
      </trkpt>
      <trkpt lat="45.60276" lon="6.67538">
        <ele>1599.2004</ele>
        <time>2015-08-20T08:31:46Z</time>
      </trkpt>
      <trkpt lat="45.60274" lon="6.67537">
        <ele>1599.2004</ele>
        <time>2015-08-20T08:31:51Z</time>
      </trkpt>
      <trkpt lat="45.60271" lon="6.67539">
        <ele>1599.2004</ele>
        <time>2015-08-20T08:32:01Z</time>
      </trkpt>
      <trkpt lat="45.6027" lon="6.67526">
        <ele>1598.9037</ele>
        <time>2015-08-20T08:32:06Z</time>
      </trkpt>
      <trkpt lat="45.60261" lon="6.67512">
        <ele>1598.7146</ele>
        <time>2015-08-20T08:32:16Z</time>
      </trkpt>
      <trkpt lat="45.60258" lon="6.67508">
        <ele>1598.7146</ele>
        <time>2015-08-20T08:32:21Z</time>
      </trkpt>
      <trkpt lat="45.60249" lon="6.67507">
        <ele>1598.4219</ele>
        <time>2015-08-20T08:32:31Z</time>
      </trkpt>
      <trkpt lat="45.60246" lon="6.67509">
        <ele>1598.4219</ele>
        <time>2015-08-20T08:32:36Z</time>
      </trkpt>
      <trkpt lat="45.60241" lon="6.67513">
        <ele>1598.4219</ele>
        <time>2015-08-20T08:32:46Z</time>
      </trkpt>
      <trkpt lat="45.60236" lon="6.67515">
        <ele>1598.0033</ele>
        <time>2015-08-20T08:32:51Z</time>
      </trkpt>
      <trkpt lat="45.60229" lon="6.67516">
        <ele>1598.0033</ele>
        <time>2015-08-20T08:33:01Z</time>
      </trkpt>
      <trkpt lat="45.60227" lon="6.67517">
        <ele>1597.3661</ele>
        <time>2015-08-20T08:33:06Z</time>
      </trkpt>
      <trkpt lat="45.6022" lon="6.67514">
        <ele>1597.3661</ele>
        <time>2015-08-20T08:33:16Z</time>
      </trkpt>
      <trkpt lat="45.60212" lon="6.67507">
        <ele>1596.6127</ele>
        <time>2015-08-20T08:33:21Z</time>
      </trkpt>
      <trkpt lat="45.60205" lon="6.67506">
        <ele>1596.6127</ele>
        <time>2015-08-20T08:33:31Z</time>
      </trkpt>
      <trkpt lat="45.602" lon="6.67504">
        <ele>1595.8525</ele>
        <time>2015-08-20T08:33:36Z</time>
      </trkpt>
      <trkpt lat="45.60197" lon="6.67503">
        <ele>1595.8525</ele>
        <time>2015-08-20T08:33:51Z</time>
      </trkpt>
      <trkpt lat="45.60197" lon="6.67505">
        <ele>1595.8525</ele>
        <time>2015-08-20T08:34:06Z</time>
      </trkpt>
      <trkpt lat="45.60196" lon="6.67506">
        <ele>1595.8525</ele>
        <time>2015-08-20T08:34:16Z</time>
      </trkpt>
      <trkpt lat="45.60196" lon="6.67506">
        <ele>1595.8525</ele>
        <time>2015-08-20T08:34:21Z</time>
      </trkpt>
      <trkpt lat="45.6019" lon="6.67505">
        <ele>1594.8988</ele>
        <time>2015-08-20T08:34:26Z</time>
      </trkpt>
      <trkpt lat="45.60186" lon="6.67505">
        <ele>1594.8988</ele>
        <time>2015-08-20T08:34:31Z</time>
      </trkpt>
      <trkpt lat="45.60177" lon="6.67501">
        <ele>1593.896</ele>
        <time>2015-08-20T08:34:41Z</time>
      </trkpt>
      <trkpt lat="45.6017" lon="6.67497">
        <ele>1593.896</ele>
        <time>2015-08-20T08:34:46Z</time>
      </trkpt>
      <trkpt lat="45.6016" lon="6.67494">
        <ele>1593.4249</ele>
        <time>2015-08-20T08:35:01Z</time>
      </trkpt>
      <trkpt lat="45.60155" lon="6.67493">
        <ele>1593.4249</ele>
        <time>2015-08-20T08:35:06Z</time>
      </trkpt>
      <trkpt lat="45.60153" lon="6.67491">
        <ele>1593.4249</ele>
        <time>2015-08-20T08:35:16Z</time>
      </trkpt>
      <trkpt lat="45.60151" lon="6.67491">
        <ele>1593.4249</ele>
        <time>2015-08-20T08:35:21Z</time>
      </trkpt>
      <trkpt lat="45.60147" lon="6.67484">
        <ele>1593.4313</ele>
        <time>2015-08-20T08:35:31Z</time>
      </trkpt>
      <trkpt lat="45.60147" lon="6.67484">
        <ele>1593.4313</ele>
        <time>2015-08-20T08:35:36Z</time>
      </trkpt>
      <trkpt lat="45.60138" lon="6.67479">
        <ele>1593.5034</ele>
        <time>2015-08-20T08:35:46Z</time>
      </trkpt>
      <trkpt lat="45.60137" lon="6.67479">
        <ele>1593.5034</ele>
        <time>2015-08-20T08:35:51Z</time>
      </trkpt>
      <trkpt lat="45.60136" lon="6.67479">
        <ele>1593.5034</ele>
        <time>2015-08-20T08:36:01Z</time>
      </trkpt>
      <trkpt lat="45.60125" lon="6.67485">
        <ele>1593.3169</ele>
        <time>2015-08-20T08:36:31Z</time>
      </trkpt>
      <trkpt lat="45.60125" lon="6.67483">
        <ele>1593.3169</ele>
        <time>2015-08-20T08:36:36Z</time>
      </trkpt>
      <trkpt lat="45.60121" lon="6.67481">
        <ele>1593.3169</ele>
        <time>2015-08-20T08:36:46Z</time>
      </trkpt>
      <trkpt lat="45.60121" lon="6.67482">
        <ele>1593.3169</ele>
        <time>2015-08-20T08:36:51Z</time>
      </trkpt>
      <trkpt lat="45.60107" lon="6.67483">
        <ele>1593.2208</ele>
        <time>2015-08-20T08:37:01Z</time>
      </trkpt>
      <trkpt lat="45.60102" lon="6.67485">
        <ele>1593.2208</ele>
        <time>2015-08-20T08:37:06Z</time>
      </trkpt>
      <trkpt lat="45.60099" lon="6.67483">
        <ele>1593.2208</ele>
        <time>2015-08-20T08:37:16Z</time>
      </trkpt>
      <trkpt lat="45.60097" lon="6.6748">
        <ele>1593.423</ele>
        <time>2015-08-20T08:37:21Z</time>
      </trkpt>
      <trkpt lat="45.60085" lon="6.67471">
        <ele>1593.9562</ele>
        <time>2015-08-20T08:37:31Z</time>
      </trkpt>
      <trkpt lat="45.6008" lon="6.67466">
        <ele>1593.9562</ele>
        <time>2015-08-20T08:37:36Z</time>
      </trkpt>
      <trkpt lat="45.60075" lon="6.67453">
        <ele>1595.2109</ele>
        <time>2015-08-20T08:37:51Z</time>
      </trkpt>
      <trkpt lat="45.60066" lon="6.67448">
        <ele>1596.6096</ele>
        <time>2015-08-20T08:37:56Z</time>
      </trkpt>
      <trkpt lat="45.60056" lon="6.67441">
        <ele>1598.2224</ele>
        <time>2015-08-20T08:38:06Z</time>
      </trkpt>
      <trkpt lat="45.60056" lon="6.67441">
        <ele>1598.2224</ele>
        <time>2015-08-20T08:38:11Z</time>
      </trkpt>
      <trkpt lat="45.60041" lon="6.67445">
        <ele>1599.6669</ele>
        <time>2015-08-20T08:38:21Z</time>
      </trkpt>
      <trkpt lat="45.60038" lon="6.67447">
        <ele>1599.6669</ele>
        <time>2015-08-20T08:38:26Z</time>
      </trkpt>
      <trkpt lat="45.60032" lon="6.67453">
        <ele>1601.0216</ele>
        <time>2015-08-20T08:38:36Z</time>
      </trkpt>
      <trkpt lat="45.60031" lon="6.67454">
        <ele>1601.0216</ele>
        <time>2015-08-20T08:38:41Z</time>
      </trkpt>
      <trkpt lat="45.60024" lon="6.67454">
        <ele>1601.0216</ele>
        <time>2015-08-20T08:38:51Z</time>
      </trkpt>
      <trkpt lat="45.60017" lon="6.67454">
        <ele>1602.4031</ele>
        <time>2015-08-20T08:38:56Z</time>
      </trkpt>
      <trkpt lat="45.60005" lon="6.67461">
        <ele>1603.7172</ele>
        <time>2015-08-20T08:39:06Z</time>
      </trkpt>
      <trkpt lat="45.60002" lon="6.6746">
        <ele>1603.7172</ele>
        <time>2015-08-20T08:39:11Z</time>
      </trkpt>
      <trkpt lat="45.59993" lon="6.67456">
        <ele>1604.6469</ele>
        <time>2015-08-20T08:39:21Z</time>
      </trkpt>
      <trkpt lat="45.5999" lon="6.67454">
        <ele>1604.6469</ele>
        <time>2015-08-20T08:39:26Z</time>
      </trkpt>
      <trkpt lat="45.59986" lon="6.67453">
        <ele>1604.6469</ele>
        <time>2015-08-20T08:39:36Z</time>
      </trkpt>
      <trkpt lat="45.59984" lon="6.67454">
        <ele>1604.9568</ele>
        <time>2015-08-20T08:39:41Z</time>
      </trkpt>
      <trkpt lat="45.59975" lon="6.67462">
        <ele>1605.0361</ele>
        <time>2015-08-20T08:39:56Z</time>
      </trkpt>
      <trkpt lat="45.59972" lon="6.67466">
        <ele>1605.0361</ele>
        <time>2015-08-20T08:40:01Z</time>
      </trkpt>
      <trkpt lat="45.59972" lon="6.67468">
        <ele>1605.0361</ele>
        <time>2015-08-20T08:40:11Z</time>
      </trkpt>
      <trkpt lat="45.5997" lon="6.67468">
        <ele>1605.0361</ele>
        <time>2015-08-20T08:40:46Z</time>
      </trkpt>
      <trkpt lat="45.59963" lon="6.67471">
        <ele>1605.4772</ele>
        <time>2015-08-20T08:40:56Z</time>
      </trkpt>
      <trkpt lat="45.59961" lon="6.67471">
        <ele>1605.4772</ele>
        <time>2015-08-20T08:41:01Z</time>
      </trkpt>
      <trkpt lat="45.59948" lon="6.67478">
        <ele>1606.0347</ele>
        <time>2015-08-20T08:41:11Z</time>
      </trkpt>
      <trkpt lat="45.59943" lon="6.67482">
        <ele>1606.0347</ele>
        <time>2015-08-20T08:41:16Z</time>
      </trkpt>
      <trkpt lat="45.59938" lon="6.6749">
        <ele>1606.467</ele>
        <time>2015-08-20T08:41:26Z</time>
      </trkpt>
      <trkpt lat="45.59937" lon="6.67493">
        <ele>1606.467</ele>
        <time>2015-08-20T08:41:31Z</time>
      </trkpt>
      <trkpt lat="45.59927" lon="6.67498">
        <ele>1606.9111</ele>
        <time>2015-08-20T08:41:46Z</time>
      </trkpt>
      <trkpt lat="45.59925" lon="6.675">
        <ele>1606.9111</ele>
        <time>2015-08-20T08:41:51Z</time>
      </trkpt>
      <trkpt lat="45.59924" lon="6.675">
        <ele>1606.9111</ele>
        <time>2015-08-20T08:42:01Z</time>
      </trkpt>
      <trkpt lat="45.59921" lon="6.67501">
        <ele>1606.9111</ele>
        <time>2015-08-20T08:42:06Z</time>
      </trkpt>
      <trkpt lat="45.59918" lon="6.67503">
        <ele>1606.9111</ele>
        <time>2015-08-20T08:42:16Z</time>
      </trkpt>
      <trkpt lat="45.59916" lon="6.67506">
        <ele>1607.6667</ele>
        <time>2015-08-20T08:42:21Z</time>
      </trkpt>
      <trkpt lat="45.59909" lon="6.67509">
        <ele>1607.6667</ele>
        <time>2015-08-20T08:42:31Z</time>
      </trkpt>
      <trkpt lat="45.59905" lon="6.67509">
        <ele>1608.6938</ele>
        <time>2015-08-20T08:42:36Z</time>
      </trkpt>
      <trkpt lat="45.59898" lon="6.6751">
        <ele>1608.6938</ele>
        <time>2015-08-20T08:42:46Z</time>
      </trkpt>
      <trkpt lat="45.59893" lon="6.6751">
        <ele>1609.7241</ele>
        <time>2015-08-20T08:42:51Z</time>
      </trkpt>
      <trkpt lat="45.59885" lon="6.67513">
        <ele>1609.7241</ele>
        <time>2015-08-20T08:43:01Z</time>
      </trkpt>
      <trkpt lat="45.59881" lon="6.67511">
        <ele>1610.5812</ele>
        <time>2015-08-20T08:43:06Z</time>
      </trkpt>
      <trkpt lat="45.59872" lon="6.67511">
        <ele>1610.5812</ele>
        <time>2015-08-20T08:43:16Z</time>
      </trkpt>
      <trkpt lat="45.59868" lon="6.67512">
        <ele>1611.2316</ele>
        <time>2015-08-20T08:43:21Z</time>
      </trkpt>
      <trkpt lat="45.59864" lon="6.67516">
        <ele>1611.2316</ele>
        <time>2015-08-20T08:43:31Z</time>
      </trkpt>
      <trkpt lat="45.59864" lon="6.67512">
        <ele>1611.2316</ele>
        <time>2015-08-20T08:43:36Z</time>
      </trkpt>
      <trkpt lat="45.59862" lon="6.67509">
        <ele>1611.6167</ele>
        <time>2015-08-20T08:43:46Z</time>
      </trkpt>
      <trkpt lat="45.5986" lon="6.67509">
        <ele>1611.6167</ele>
        <time>2015-08-20T08:43:51Z</time>
      </trkpt>
      <trkpt lat="45.59859" lon="6.6751">
        <ele>1611.6167</ele>
        <time>2015-08-20T08:44:01Z</time>
      </trkpt>
      <trkpt lat="45.59859" lon="6.67508">
        <ele>1611.6167</ele>
        <time>2015-08-20T08:44:06Z</time>
      </trkpt>
      <trkpt lat="45.59859" lon="6.67508">
        <ele>1611.6167</ele>
        <time>2015-08-20T08:44:16Z</time>
      </trkpt>
      <trkpt lat="45.59859" lon="6.6751">
        <ele>1611.6167</ele>
        <time>2015-08-20T08:44:51Z</time>
      </trkpt>
      <trkpt lat="45.59858" lon="6.6752">
        <ele>1612.1293</ele>
        <time>2015-08-20T08:44:56Z</time>
      </trkpt>
      <trkpt lat="45.59858" lon="6.67531">
        <ele>1612.1293</ele>
        <time>2015-08-20T08:45:06Z</time>
      </trkpt>
      <trkpt lat="45.59855" lon="6.67538">
        <ele>1612.9174</ele>
        <time>2015-08-20T08:45:11Z</time>
      </trkpt>
      <trkpt lat="45.59847" lon="6.67544">
        <ele>1613.9008</ele>
        <time>2015-08-20T08:45:21Z</time>
      </trkpt>
      <trkpt lat="45.59846" lon="6.67546">
        <ele>1613.9008</ele>
        <time>2015-08-20T08:45:26Z</time>
      </trkpt>
      <trkpt lat="45.59843" lon="6.67552">
        <ele>1613.9008</ele>
        <time>2015-08-20T08:45:36Z</time>
      </trkpt>
      <trkpt lat="45.5984" lon="6.67554">
        <ele>1615.3219</ele>
        <time>2015-08-20T08:45:41Z</time>
      </trkpt>
      <trkpt lat="45.59835" lon="6.6756">
        <ele>1615.3219</ele>
        <time>2015-08-20T08:45:51Z</time>
      </trkpt>
      <trkpt lat="45.59832" lon="6.67565">
        <ele>1616.9579</ele>
        <time>2015-08-20T08:45:56Z</time>
      </trkpt>
      <trkpt lat="45.59827" lon="6.67575">
        <ele>1616.9579</ele>
        <time>2015-08-20T08:46:06Z</time>
      </trkpt>
      <trkpt lat="45.59826" lon="6.6758">
        <ele>1618.7166</ele>
        <time>2015-08-20T08:46:11Z</time>
      </trkpt>
      <trkpt lat="45.59825" lon="6.67591">
        <ele>1618.7166</ele>
        <time>2015-08-20T08:46:21Z</time>
      </trkpt>
      <trkpt lat="45.59823" lon="6.67597">
        <ele>1620.6421</ele>
        <time>2015-08-20T08:46:26Z</time>
      </trkpt>
      <trkpt lat="45.59811" lon="6.67601">
        <ele>1622.5302</ele>
        <time>2015-08-20T08:46:41Z</time>
      </trkpt>
      <trkpt lat="45.59806" lon="6.67604">
        <ele>1622.5302</ele>
        <time>2015-08-20T08:46:46Z</time>
      </trkpt>
      <trkpt lat="45.59799" lon="6.67612">
        <ele>1624.2349</ele>
        <time>2015-08-20T08:46:56Z</time>
      </trkpt>
      <trkpt lat="45.59794" lon="6.67614">
        <ele>1624.2349</ele>
        <time>2015-08-20T08:47:01Z</time>
      </trkpt>
      <trkpt lat="45.59788" lon="6.67616">
        <ele>1625.5929</ele>
        <time>2015-08-20T08:47:11Z</time>
      </trkpt>
      <trkpt lat="45.59784" lon="6.67611">
        <ele>1625.5929</ele>
        <time>2015-08-20T08:47:16Z</time>
      </trkpt>
      <trkpt lat="45.59776" lon="6.67597">
        <ele>1626.8717</ele>
        <time>2015-08-20T08:47:26Z</time>
      </trkpt>
      <trkpt lat="45.59773" lon="6.67593">
        <ele>1626.8717</ele>
        <time>2015-08-20T08:47:31Z</time>
      </trkpt>
      <trkpt lat="45.59766" lon="6.67586">
        <ele>1627.974</ele>
        <time>2015-08-20T08:47:41Z</time>
      </trkpt>
      <trkpt lat="45.5976" lon="6.67584">
        <ele>1627.974</ele>
        <time>2015-08-20T08:47:46Z</time>
      </trkpt>
      <trkpt lat="45.59754" lon="6.67575">
        <ele>1628.8099</ele>
        <time>2015-08-20T08:47:56Z</time>
      </trkpt>
      <trkpt lat="45.5975" lon="6.67571">
        <ele>1628.8099</ele>
        <time>2015-08-20T08:48:01Z</time>
      </trkpt>
      <trkpt lat="45.59739" lon="6.67568">
        <ele>1629.2971</ele>
        <time>2015-08-20T08:48:11Z</time>
      </trkpt>
      <trkpt lat="45.59733" lon="6.67569">
        <ele>1629.2971</ele>
        <time>2015-08-20T08:48:16Z</time>
      </trkpt>
      <trkpt lat="45.59723" lon="6.67571">
        <ele>1629.3171</ele>
        <time>2015-08-20T08:48:26Z</time>
      </trkpt>
      <trkpt lat="45.59718" lon="6.67572">
        <ele>1629.3171</ele>
        <time>2015-08-20T08:48:31Z</time>
      </trkpt>
      <trkpt lat="45.5971" lon="6.6757">
        <ele>1628.906</ele>
        <time>2015-08-20T08:48:41Z</time>
      </trkpt>
      <trkpt lat="45.59704" lon="6.67576">
        <ele>1628.906</ele>
        <time>2015-08-20T08:48:46Z</time>
      </trkpt>
      <trkpt lat="45.59694" lon="6.67595">
        <ele>1628.1846</ele>
        <time>2015-08-20T08:49:01Z</time>
      </trkpt>
      <trkpt lat="45.59693" lon="6.67602">
        <ele>1628.1846</ele>
        <time>2015-08-20T08:49:06Z</time>
      </trkpt>
      <trkpt lat="45.59685" lon="6.6761">
        <ele>1627.309</ele>
        <time>2015-08-20T08:49:16Z</time>
      </trkpt>
      <trkpt lat="45.59681" lon="6.67607">
        <ele>1627.309</ele>
        <time>2015-08-20T08:49:21Z</time>
      </trkpt>
      <trkpt lat="45.59673" lon="6.67602">
        <ele>1626.1796</ele>
        <time>2015-08-20T08:49:31Z</time>
      </trkpt>
      <trkpt lat="45.59667" lon="6.67603">
        <ele>1626.1796</ele>
        <time>2015-08-20T08:49:36Z</time>
      </trkpt>
      <trkpt lat="45.59659" lon="6.67598">
        <ele>1624.8055</ele>
        <time>2015-08-20T08:49:46Z</time>
      </trkpt>
      <trkpt lat="45.59654" lon="6.67595">
        <ele>1624.8055</ele>
        <time>2015-08-20T08:49:51Z</time>
      </trkpt>
      <trkpt lat="45.59643" lon="6.67599">
        <ele>1623.2683</ele>
        <time>2015-08-20T08:50:01Z</time>
      </trkpt>
      <trkpt lat="45.59642" lon="6.67601">
        <ele>1623.2683</ele>
        <time>2015-08-20T08:50:06Z</time>
      </trkpt>
      <trkpt lat="45.59639" lon="6.67608">
        <ele>1623.2683</ele>
        <time>2015-08-20T08:50:16Z</time>
      </trkpt>
      <trkpt lat="45.59638" lon="6.67609">
        <ele>1621.7301</ele>
        <time>2015-08-20T08:50:21Z</time>
      </trkpt>
      <trkpt lat="45.59634" lon="6.67621">
        <ele>1621.7301</ele>
        <time>2015-08-20T08:50:31Z</time>
      </trkpt>
      <trkpt lat="45.59631" lon="6.67628">
        <ele>1620.1682</ele>
        <time>2015-08-20T08:50:36Z</time>
      </trkpt>
      <trkpt lat="45.59623" lon="6.67639">
        <ele>1618.6483</ele>
        <time>2015-08-20T08:50:46Z</time>
      </trkpt>
      <trkpt lat="45.59619" lon="6.67643">
        <ele>1618.6483</ele>
        <time>2015-08-20T08:50:51Z</time>
      </trkpt>
      <trkpt lat="45.59611" lon="6.67654">
        <ele>1617.0724</ele>
        <time>2015-08-20T08:51:01Z</time>
      </trkpt>
      <trkpt lat="45.59607" lon="6.67658">
        <ele>1617.0724</ele>
        <time>2015-08-20T08:51:06Z</time>
      </trkpt>
      <trkpt lat="45.59599" lon="6.67659">
        <ele>1615.3931</ele>
        <time>2015-08-20T08:51:16Z</time>
      </trkpt>
      <trkpt lat="45.59596" lon="6.67659">
        <ele>1615.3931</ele>
        <time>2015-08-20T08:51:21Z</time>
      </trkpt>
      <trkpt lat="45.59584" lon="6.67653">
        <ele>1613.6243</ele>
        <time>2015-08-20T08:51:36Z</time>
      </trkpt>
      <trkpt lat="45.59577" lon="6.67653">
        <ele>1613.6243</ele>
        <time>2015-08-20T08:51:41Z</time>
      </trkpt>
      <trkpt lat="45.59564" lon="6.67658">
        <ele>1611.9375</ele>
        <time>2015-08-20T08:51:51Z</time>
      </trkpt>
      <trkpt lat="45.59561" lon="6.67663">
        <ele>1611.9375</ele>
        <time>2015-08-20T08:51:56Z</time>
      </trkpt>
      <trkpt lat="45.59552" lon="6.67668">
        <ele>1610.4626</ele>
        <time>2015-08-20T08:52:06Z</time>
      </trkpt>
      <trkpt lat="45.59548" lon="6.67671">
        <ele>1610.4626</ele>
        <time>2015-08-20T08:52:11Z</time>
      </trkpt>
      <trkpt lat="45.5954" lon="6.67674">
        <ele>1609.1031</ele>
        <time>2015-08-20T08:52:21Z</time>
      </trkpt>
      <trkpt lat="45.59537" lon="6.67675">
        <ele>1609.1031</ele>
        <time>2015-08-20T08:52:26Z</time>
      </trkpt>
      <trkpt lat="45.59528" lon="6.6768">
        <ele>1607.8123</ele>
        <time>2015-08-20T08:52:36Z</time>
      </trkpt>
      <trkpt lat="45.59524" lon="6.6768">
        <ele>1607.8123</ele>
        <time>2015-08-20T08:52:41Z</time>
      </trkpt>
      <trkpt lat="45.59512" lon="6.67679">
        <ele>1606.6328</ele>
        <time>2015-08-20T08:52:51Z</time>
      </trkpt>
      <trkpt lat="45.59508" lon="6.67684">
        <ele>1606.6328</ele>
        <time>2015-08-20T08:52:56Z</time>
      </trkpt>
      <trkpt lat="45.59497" lon="6.67685">
        <ele>1605.5177</ele>
        <time>2015-08-20T08:53:06Z</time>
      </trkpt>
      <trkpt lat="45.59492" lon="6.67685">
        <ele>1605.5177</ele>
        <time>2015-08-20T08:53:11Z</time>
      </trkpt>
      <trkpt lat="45.59476" lon="6.67688">
        <ele>1604.2788</ele>
        <time>2015-08-20T08:53:26Z</time>
      </trkpt>
      <trkpt lat="45.59471" lon="6.67689">
        <ele>1604.2788</ele>
        <time>2015-08-20T08:53:31Z</time>
      </trkpt>
      <trkpt lat="45.59463" lon="6.67681">
        <ele>1603.0302</ele>
        <time>2015-08-20T08:53:41Z</time>
      </trkpt>
      <trkpt lat="45.59458" lon="6.67675">
        <ele>1603.0302</ele>
        <time>2015-08-20T08:53:46Z</time>
      </trkpt>
      <trkpt lat="45.5945" lon="6.67671">
        <ele>1601.8773</ele>
        <time>2015-08-20T08:53:56Z</time>
      </trkpt>
      <trkpt lat="45.59446" lon="6.67668">
        <ele>1601.8773</ele>
        <time>2015-08-20T08:54:01Z</time>
      </trkpt>
      <trkpt lat="45.59436" lon="6.67666">
        <ele>1600.6586</ele>
        <time>2015-08-20T08:54:11Z</time>
      </trkpt>
      <trkpt lat="45.5943" lon="6.67666">
        <ele>1600.6586</ele>
        <time>2015-08-20T08:54:16Z</time>
      </trkpt>
      <trkpt lat="45.59417" lon="6.67671">
        <ele>1599.4688</ele>
        <time>2015-08-20T08:54:26Z</time>
      </trkpt>
      <trkpt lat="45.59413" lon="6.67674">
        <ele>1599.4688</ele>
        <time>2015-08-20T08:54:31Z</time>
      </trkpt>
      <trkpt lat="45.59403" lon="6.67681">
        <ele>1598.4099</ele>
        <time>2015-08-20T08:54:41Z</time>
      </trkpt>
      <trkpt lat="45.59397" lon="6.67681">
        <ele>1598.4099</ele>
        <time>2015-08-20T08:54:46Z</time>
      </trkpt>
      <trkpt lat="45.59389" lon="6.67684">
        <ele>1597.3315</ele>
        <time>2015-08-20T08:54:56Z</time>
      </trkpt>
      <trkpt lat="45.59384" lon="6.67684">
        <ele>1597.3315</ele>
        <time>2015-08-20T08:55:01Z</time>
      </trkpt>
      <trkpt lat="45.59374" lon="6.6768">
        <ele>1596.4395</ele>
        <time>2015-08-20T08:55:16Z</time>
      </trkpt>
      <trkpt lat="45.59372" lon="6.67678">
        <ele>1596.4395</ele>
        <time>2015-08-20T08:55:21Z</time>
      </trkpt>
      <trkpt lat="45.59372" lon="6.67678">
        <ele>1596.4395</ele>
        <time>2015-08-20T08:55:31Z</time>
      </trkpt>
      <trkpt lat="45.59373" lon="6.6768">
        <ele>1596.4395</ele>
        <time>2015-08-20T08:55:36Z</time>
      </trkpt>
      <trkpt lat="45.59371" lon="6.67682">
        <ele>1596.4395</ele>
        <time>2015-08-20T08:55:46Z</time>
      </trkpt>
      <trkpt lat="45.59372" lon="6.67682">
        <ele>1596.4395</ele>
        <time>2015-08-20T08:55:51Z</time>
      </trkpt>
      <trkpt lat="45.59372" lon="6.67679">
        <ele>1595.9095</ele>
        <time>2015-08-20T08:56:01Z</time>
      </trkpt>
      <trkpt lat="45.59372" lon="6.67679">
        <ele>1595.9095</ele>
        <time>2015-08-20T08:56:06Z</time>
      </trkpt>
      <trkpt lat="45.59372" lon="6.67676">
        <ele>1595.9095</ele>
        <time>2015-08-20T08:56:16Z</time>
      </trkpt>
      <trkpt lat="45.59372" lon="6.67679">
        <ele>1595.9095</ele>
        <time>2015-08-20T08:56:21Z</time>
      </trkpt>
      <trkpt lat="45.59372" lon="6.67681">
        <ele>1595.9095</ele>
        <time>2015-08-20T08:56:31Z</time>
      </trkpt>
      <trkpt lat="45.59371" lon="6.6768">
        <ele>1595.9095</ele>
        <time>2015-08-20T08:56:36Z</time>
      </trkpt>
      <trkpt lat="45.59371" lon="6.67678">
        <ele>1595.5001</ele>
        <time>2015-08-20T08:56:46Z</time>
      </trkpt>
      <trkpt lat="45.59371" lon="6.67679">
        <ele>1595.5001</ele>
        <time>2015-08-20T08:56:51Z</time>
      </trkpt>
      <trkpt lat="45.59369" lon="6.67681">
        <ele>1595.5001</ele>
        <time>2015-08-20T08:57:06Z</time>
      </trkpt>
      <trkpt lat="45.59369" lon="6.6768">
        <ele>1595.5001</ele>
        <time>2015-08-20T08:57:11Z</time>
      </trkpt>
      <trkpt lat="45.5937" lon="6.67679">
        <ele>1595.5001</ele>
        <time>2015-08-20T08:57:21Z</time>
      </trkpt>
      <trkpt lat="45.59371" lon="6.6768">
        <ele>1595.5001</ele>
        <time>2015-08-20T08:57:26Z</time>
      </trkpt>
      <trkpt lat="45.59372" lon="6.6768">
        <ele>1595.5001</ele>
        <time>2015-08-20T08:57:36Z</time>
      </trkpt>
      <trkpt lat="45.59372" lon="6.67679">
        <ele>1595.5001</ele>
        <time>2015-08-20T08:57:41Z</time>
      </trkpt>
      <trkpt lat="45.59373" lon="6.67678">
        <ele>1595.3615</ele>
        <time>2015-08-20T08:57:51Z</time>
      </trkpt>
      <trkpt lat="45.59373" lon="6.67678">
        <ele>1595.3615</ele>
        <time>2015-08-20T08:57:56Z</time>
      </trkpt>
      <trkpt lat="45.59371" lon="6.67679">
        <ele>1595.3615</ele>
        <time>2015-08-20T08:58:06Z</time>
      </trkpt>
      <trkpt lat="45.59371" lon="6.67679">
        <ele>1595.3615</ele>
        <time>2015-08-20T08:58:11Z</time>
      </trkpt>
      <trkpt lat="45.59372" lon="6.67678">
        <ele>1595.3615</ele>
        <time>2015-08-20T08:58:21Z</time>
      </trkpt>
      <trkpt lat="45.59372" lon="6.67678">
        <ele>1595.3615</ele>
        <time>2015-08-20T08:58:26Z</time>
      </trkpt>
      <trkpt lat="45.59371" lon="6.67677">
        <ele>1595.3615</ele>
        <time>2015-08-20T08:58:31Z</time>
      </trkpt>
      <trkpt lat="45.59371" lon="6.67677">
        <ele>1595.3615</ele>
        <time>2015-08-20T08:58:36Z</time>
      </trkpt>
      <trkpt lat="45.59371" lon="6.67677">
        <ele>1595.3615</ele>
        <time>2015-08-20T08:58:41Z</time>
      </trkpt>
      <trkpt lat="45.59372" lon="6.67678">
        <ele>1595.3615</ele>
        <time>2015-08-20T08:58:46Z</time>
      </trkpt>
      <trkpt lat="45.59374" lon="6.67679">
        <ele>1595.3615</ele>
        <time>2015-08-20T08:58:51Z</time>
      </trkpt>
      <trkpt lat="45.59374" lon="6.67678">
        <ele>1595.3615</ele>
        <time>2015-08-20T08:58:56Z</time>
      </trkpt>
      <trkpt lat="45.59374" lon="6.67678">
        <ele>1595.3615</ele>
        <time>2015-08-20T08:59:01Z</time>
      </trkpt>
      <trkpt lat="45.59374" lon="6.6768">
        <ele>1595.286</ele>
        <time>2015-08-20T08:59:06Z</time>
      </trkpt>
      <trkpt lat="45.59374" lon="6.6768">
        <ele>1595.286</ele>
        <time>2015-08-20T08:59:11Z</time>
      </trkpt>
      <trkpt lat="45.59373" lon="6.6768">
        <ele>1595.286</ele>
        <time>2015-08-20T08:59:16Z</time>
      </trkpt>
      <trkpt lat="45.59373" lon="6.67679">
        <ele>1595.286</ele>
        <time>2015-08-20T08:59:21Z</time>
      </trkpt>
      <trkpt lat="45.59373" lon="6.67678">
        <ele>1595.286</ele>
        <time>2015-08-20T08:59:26Z</time>
      </trkpt>
      <trkpt lat="45.59371" lon="6.67679">
        <ele>1595.286</ele>
        <time>2015-08-20T08:59:31Z</time>
      </trkpt>
      <trkpt lat="45.59373" lon="6.67677">
        <ele>1595.286</ele>
        <time>2015-08-20T08:59:41Z</time>
      </trkpt>
      <trkpt lat="45.59373" lon="6.67677">
        <ele>1595.286</ele>
        <time>2015-08-20T08:59:46Z</time>
      </trkpt>
      <trkpt lat="45.59374" lon="6.67677">
        <ele>1595.286</ele>
        <time>2015-08-20T08:59:56Z</time>
      </trkpt>
      <trkpt lat="45.59374" lon="6.67678">
        <ele>1595.283</ele>
        <time>2015-08-20T09:00:01Z</time>
      </trkpt>
      <trkpt lat="45.59376" lon="6.67679">
        <ele>1595.283</ele>
        <time>2015-08-20T09:00:11Z</time>
      </trkpt>
      <trkpt lat="45.59375" lon="6.6768">
        <ele>1595.283</ele>
        <time>2015-08-20T09:00:16Z</time>
      </trkpt>
      <trkpt lat="45.59375" lon="6.6768">
        <ele>1595.283</ele>
        <time>2015-08-20T09:00:26Z</time>
      </trkpt>
      <trkpt lat="45.59374" lon="6.67679">
        <ele>1595.283</ele>
        <time>2015-08-20T09:00:31Z</time>
      </trkpt>
      <trkpt lat="45.59375" lon="6.67681">
        <ele>1595.283</ele>
        <time>2015-08-20T09:00:46Z</time>
      </trkpt>
      <trkpt lat="45.59376" lon="6.67681">
        <ele>1595.283</ele>
        <time>2015-08-20T09:00:51Z</time>
      </trkpt>
      <trkpt lat="45.59376" lon="6.6768">
        <ele>1595.283</ele>
        <time>2015-08-20T09:01:01Z</time>
      </trkpt>
      <trkpt lat="45.59375" lon="6.6768">
        <ele>1595.283</ele>
        <time>2015-08-20T09:01:06Z</time>
      </trkpt>
      <trkpt lat="45.59375" lon="6.6768">
        <ele>1595.283</ele>
        <time>2015-08-20T09:01:11Z</time>
      </trkpt>
      <trkpt lat="45.59374" lon="6.67681">
        <ele>1595.2742</ele>
        <time>2015-08-20T09:01:16Z</time>
      </trkpt>
      <trkpt lat="45.59373" lon="6.6768">
        <ele>1595.2742</ele>
        <time>2015-08-20T09:01:21Z</time>
      </trkpt>
      <trkpt lat="45.59373" lon="6.67679">
        <ele>1595.2742</ele>
        <time>2015-08-20T09:01:26Z</time>
      </trkpt>
      <trkpt lat="45.59373" lon="6.67677">
        <ele>1595.2742</ele>
        <time>2015-08-20T09:01:31Z</time>
      </trkpt>
      <trkpt lat="45.59374" lon="6.67676">
        <ele>1595.2742</ele>
        <time>2015-08-20T09:01:41Z</time>
      </trkpt>
      <trkpt lat="45.59373" lon="6.67675">
        <ele>1595.2742</ele>
        <time>2015-08-20T09:01:46Z</time>
      </trkpt>
      <trkpt lat="45.59374" lon="6.67676">
        <ele>1595.2742</ele>
        <time>2015-08-20T09:01:56Z</time>
      </trkpt>
      <trkpt lat="45.59375" lon="6.67678">
        <ele>1595.2742</ele>
        <time>2015-08-20T09:02:01Z</time>
      </trkpt>
      <trkpt lat="45.59376" lon="6.67677">
        <ele>1595.1436</ele>
        <time>2015-08-20T09:02:11Z</time>
      </trkpt>
      <trkpt lat="45.59376" lon="6.67678">
        <ele>1595.1436</ele>
        <time>2015-08-20T09:02:16Z</time>
      </trkpt>
      <trkpt lat="45.59377" lon="6.6768">
        <ele>1595.1436</ele>
        <time>2015-08-20T09:02:26Z</time>
      </trkpt>
      <trkpt lat="45.59376" lon="6.67679">
        <ele>1595.1436</ele>
        <time>2015-08-20T09:02:31Z</time>
      </trkpt>
      <trkpt lat="45.59376" lon="6.67679">
        <ele>1595.1436</ele>
        <time>2015-08-20T09:02:41Z</time>
      </trkpt>
      <trkpt lat="45.59375" lon="6.67677">
        <ele>1595.1436</ele>
        <time>2015-08-20T09:06:21Z</time>
      </trkpt>
      <trkpt lat="45.59374" lon="6.67678">
        <ele>1595.1436</ele>
        <time>2015-08-20T09:08:11Z</time>
      </trkpt>
      <trkpt lat="45.59374" lon="6.67677">
        <ele>1595.1436</ele>
        <time>2015-08-20T09:08:16Z</time>
      </trkpt>
      <trkpt lat="45.59374" lon="6.67677">
        <ele>1595.1436</ele>
        <time>2015-08-20T09:08:26Z</time>
      </trkpt>
      <trkpt lat="45.59373" lon="6.67677">
        <ele>1595.1436</ele>
        <time>2015-08-20T09:09:31Z</time>
      </trkpt>
      <trkpt lat="45.59373" lon="6.67677">
        <ele>1595.1436</ele>
        <time>2015-08-20T09:09:41Z</time>
      </trkpt>
      <trkpt lat="45.59356" lon="6.67675">
        <ele>1595.3895</ele>
        <time>2015-08-20T09:10:16Z</time>
      </trkpt>
      <trkpt lat="45.59353" lon="6.67674">
        <ele>1595.3895</ele>
        <time>2015-08-20T09:10:21Z</time>
      </trkpt>
      <trkpt lat="45.59344" lon="6.67678">
        <ele>1595.5935</ele>
        <time>2015-08-20T09:10:31Z</time>
      </trkpt>
      <trkpt lat="45.59339" lon="6.67679">
        <ele>1595.5935</ele>
        <time>2015-08-20T09:10:36Z</time>
      </trkpt>
      <trkpt lat="45.59328" lon="6.6768">
        <ele>1595.8722</ele>
        <time>2015-08-20T09:10:46Z</time>
      </trkpt>
      <trkpt lat="45.59323" lon="6.67681">
        <ele>1595.8722</ele>
        <time>2015-08-20T09:10:51Z</time>
      </trkpt>
      <trkpt lat="45.59314" lon="6.6768">
        <ele>1596.1746</ele>
        <time>2015-08-20T09:11:01Z</time>
      </trkpt>
      <trkpt lat="45.5931" lon="6.67681">
        <ele>1596.1746</ele>
        <time>2015-08-20T09:11:06Z</time>
      </trkpt>
      <trkpt lat="45.593" lon="6.67686">
        <ele>1596.3385</ele>
        <time>2015-08-20T09:11:16Z</time>
      </trkpt>
      <trkpt lat="45.59295" lon="6.67689">
        <ele>1596.3385</ele>
        <time>2015-08-20T09:11:21Z</time>
      </trkpt>
      <trkpt lat="45.59286" lon="6.67695">
        <ele>1596.3436</ele>
        <time>2015-08-20T09:11:31Z</time>
      </trkpt>
      <trkpt lat="45.59281" lon="6.67698">
        <ele>1596.3436</ele>
        <time>2015-08-20T09:11:36Z</time>
      </trkpt>
      <trkpt lat="45.59267" lon="6.67703">
        <ele>1596.1279</ele>
        <time>2015-08-20T09:11:51Z</time>
      </trkpt>
      <trkpt lat="45.59259" lon="6.67706">
        <ele>1596.1279</ele>
        <time>2015-08-20T09:11:56Z</time>
      </trkpt>
      <trkpt lat="45.59245" lon="6.67709">
        <ele>1595.8656</ele>
        <time>2015-08-20T09:12:06Z</time>
      </trkpt>
      <trkpt lat="45.59242" lon="6.67708">
        <ele>1595.8656</ele>
        <time>2015-08-20T09:12:11Z</time>
      </trkpt>
      <trkpt lat="45.59231" lon="6.67708">
        <ele>1595.5018</ele>
        <time>2015-08-20T09:12:21Z</time>
      </trkpt>
      <trkpt lat="45.59225" lon="6.67706">
        <ele>1595.5018</ele>
        <time>2015-08-20T09:12:26Z</time>
      </trkpt>
      <trkpt lat="45.59213" lon="6.67704">
        <ele>1595.1157</ele>
        <time>2015-08-20T09:12:36Z</time>
      </trkpt>
      <trkpt lat="45.59207" lon="6.67704">
        <ele>1595.1157</ele>
        <time>2015-08-20T09:12:41Z</time>
      </trkpt>
      <trkpt lat="45.59199" lon="6.67704">
        <ele>1594.7661</ele>
        <time>2015-08-20T09:12:51Z</time>
      </trkpt>
      <trkpt lat="45.59193" lon="6.67705">
        <ele>1594.7661</ele>
        <time>2015-08-20T09:12:56Z</time>
      </trkpt>
      <trkpt lat="45.59184" lon="6.67705">
        <ele>1594.2484</ele>
        <time>2015-08-20T09:13:06Z</time>
      </trkpt>
      <trkpt lat="45.59178" lon="6.67706">
        <ele>1594.2484</ele>
        <time>2015-08-20T09:13:11Z</time>
      </trkpt>
      <trkpt lat="45.59167" lon="6.67707">
        <ele>1593.6902</ele>
        <time>2015-08-20T09:13:21Z</time>
      </trkpt>
      <trkpt lat="45.59166" lon="6.67712">
        <ele>1593.6902</ele>
        <time>2015-08-20T09:13:26Z</time>
      </trkpt>
      <trkpt lat="45.59165" lon="6.67726">
        <ele>1593.0802</ele>
        <time>2015-08-20T09:13:36Z</time>
      </trkpt>
      <trkpt lat="45.59164" lon="6.67732">
        <ele>1593.0802</ele>
        <time>2015-08-20T09:13:41Z</time>
      </trkpt>
      <trkpt lat="45.5916" lon="6.67749">
        <ele>1592.3071</ele>
        <time>2015-08-20T09:13:51Z</time>
      </trkpt>
      <trkpt lat="45.59159" lon="6.67756">
        <ele>1592.3071</ele>
        <time>2015-08-20T09:13:56Z</time>
      </trkpt>
      <trkpt lat="45.59159" lon="6.67768">
        <ele>1591.4272</ele>
        <time>2015-08-20T09:14:06Z</time>
      </trkpt>
      <trkpt lat="45.59159" lon="6.67774">
        <ele>1591.4272</ele>
        <time>2015-08-20T09:14:11Z</time>
      </trkpt>
      <trkpt lat="45.59157" lon="6.67786">
        <ele>1590.3483</ele>
        <time>2015-08-20T09:14:21Z</time>
      </trkpt>
      <trkpt lat="45.59159" lon="6.67792">
        <ele>1590.3483</ele>
        <time>2015-08-20T09:14:26Z</time>
      </trkpt>
      <trkpt lat="45.59156" lon="6.67812">
        <ele>1588.8704</ele>
        <time>2015-08-20T09:14:41Z</time>
      </trkpt>
      <trkpt lat="45.59153" lon="6.6782">
        <ele>1588.8704</ele>
        <time>2015-08-20T09:14:46Z</time>
      </trkpt>
      <trkpt lat="45.59149" lon="6.67831">
        <ele>1587.2129</ele>
        <time>2015-08-20T09:14:56Z</time>
      </trkpt>
      <trkpt lat="45.59146" lon="6.67839">
        <ele>1587.2129</ele>
        <time>2015-08-20T09:15:01Z</time>
      </trkpt>
      <trkpt lat="45.59138" lon="6.67847">
        <ele>1585.3202</ele>
        <time>2015-08-20T09:15:11Z</time>
      </trkpt>
      <trkpt lat="45.59133" lon="6.67851">
        <ele>1585.3202</ele>
        <time>2015-08-20T09:15:16Z</time>
      </trkpt>
      <trkpt lat="45.59123" lon="6.6786">
        <ele>1583.2278</ele>
        <time>2015-08-20T09:15:26Z</time>
      </trkpt>
      <trkpt lat="45.59119" lon="6.67866">
        <ele>1583.2278</ele>
        <time>2015-08-20T09:15:31Z</time>
      </trkpt>
      <trkpt lat="45.59113" lon="6.67878">
        <ele>1580.9833</ele>
        <time>2015-08-20T09:15:41Z</time>
      </trkpt>
      <trkpt lat="45.59109" lon="6.67882">
        <ele>1580.9833</ele>
        <time>2015-08-20T09:15:46Z</time>
      </trkpt>
      <trkpt lat="45.59097" lon="6.67893">
        <ele>1578.6316</ele>
        <time>2015-08-20T09:15:56Z</time>
      </trkpt>
      <trkpt lat="45.59093" lon="6.679">
        <ele>1578.6316</ele>
        <time>2015-08-20T09:16:01Z</time>
      </trkpt>
      <trkpt lat="45.59088" lon="6.67911">
        <ele>1576.2865</ele>
        <time>2015-08-20T09:16:11Z</time>
      </trkpt>
      <trkpt lat="45.59082" lon="6.67918">
        <ele>1576.2865</ele>
        <time>2015-08-20T09:16:16Z</time>
      </trkpt>
      <trkpt lat="45.59076" lon="6.67931">
        <ele>1573.9088</ele>
        <time>2015-08-20T09:16:26Z</time>
      </trkpt>
      <trkpt lat="45.59072" lon="6.67935">
        <ele>1573.9088</ele>
        <time>2015-08-20T09:16:31Z</time>
      </trkpt>
      <trkpt lat="45.59072" lon="6.67932">
        <ele>1573.9088</ele>
        <time>2015-08-20T09:16:41Z</time>
      </trkpt>
      <trkpt lat="45.59072" lon="6.67928">
        <ele>1571.4053</ele>
        <time>2015-08-20T09:16:46Z</time>
      </trkpt>
      <trkpt lat="45.59068" lon="6.67934">
        <ele>1571.4053</ele>
        <time>2015-08-20T09:17:01Z</time>
      </trkpt>
      <trkpt lat="45.59064" lon="6.67938">
        <ele>1569.035</ele>
        <time>2015-08-20T09:17:06Z</time>
      </trkpt>
      <trkpt lat="45.59055" lon="6.67944">
        <ele>1566.7786</ele>
        <time>2015-08-20T09:17:16Z</time>
      </trkpt>
      <trkpt lat="45.59052" lon="6.67944">
        <ele>1566.7786</ele>
        <time>2015-08-20T09:17:21Z</time>
      </trkpt>
      <trkpt lat="45.59049" lon="6.67945">
        <ele>1566.7786</ele>
        <time>2015-08-20T09:17:31Z</time>
      </trkpt>
      <trkpt lat="45.59049" lon="6.67944">
        <ele>1566.7786</ele>
        <time>2015-08-20T09:17:36Z</time>
      </trkpt>
      <trkpt lat="45.59047" lon="6.67944">
        <ele>1566.7786</ele>
        <time>2015-08-20T09:17:46Z</time>
      </trkpt>
      <trkpt lat="45.59048" lon="6.67944">
        <ele>1564.4734</ele>
        <time>2015-08-20T09:17:51Z</time>
      </trkpt>
      <trkpt lat="45.59044" lon="6.67945">
        <ele>1564.4734</ele>
        <time>2015-08-20T09:18:01Z</time>
      </trkpt>
      <trkpt lat="45.59039" lon="6.67947">
        <ele>1562.3002</ele>
        <time>2015-08-20T09:18:06Z</time>
      </trkpt>
      <trkpt lat="45.59029" lon="6.67954">
        <ele>1560.2241</ele>
        <time>2015-08-20T09:18:16Z</time>
      </trkpt>
      <trkpt lat="45.59024" lon="6.67957">
        <ele>1560.2241</ele>
        <time>2015-08-20T09:18:21Z</time>
      </trkpt>
      <trkpt lat="45.59016" lon="6.67964">
        <ele>1558.1553</ele>
        <time>2015-08-20T09:18:31Z</time>
      </trkpt>
      <trkpt lat="45.59012" lon="6.67968">
        <ele>1558.1553</ele>
        <time>2015-08-20T09:18:36Z</time>
      </trkpt>
      <trkpt lat="45.58999" lon="6.67982">
        <ele>1555.88</ele>
        <time>2015-08-20T09:18:51Z</time>
      </trkpt>
      <trkpt lat="45.58998" lon="6.67984">
        <ele>1555.88</ele>
        <time>2015-08-20T09:18:56Z</time>
      </trkpt>
      <trkpt lat="45.58998" lon="6.67986">
        <ele>1555.88</ele>
        <time>2015-08-20T09:19:06Z</time>
      </trkpt>
      <trkpt lat="45.58998" lon="6.67988">
        <ele>1555.88</ele>
        <time>2015-08-20T09:19:11Z</time>
      </trkpt>
      <trkpt lat="45.58996" lon="6.6799">
        <ele>1555.88</ele>
        <time>2015-08-20T09:19:21Z</time>
      </trkpt>
      <trkpt lat="45.58992" lon="6.67996">
        <ele>1553.0426</ele>
        <time>2015-08-20T09:19:26Z</time>
      </trkpt>
      <trkpt lat="45.58985" lon="6.68012">
        <ele>1550.3812</ele>
        <time>2015-08-20T09:19:36Z</time>
      </trkpt>
      <trkpt lat="45.58984" lon="6.68018">
        <ele>1550.3812</ele>
        <time>2015-08-20T09:19:41Z</time>
      </trkpt>
      <trkpt lat="45.58979" lon="6.68034">
        <ele>1547.7434</ele>
        <time>2015-08-20T09:19:51Z</time>
      </trkpt>
      <trkpt lat="45.58977" lon="6.68041">
        <ele>1547.7434</ele>
        <time>2015-08-20T09:19:56Z</time>
      </trkpt>
      <trkpt lat="45.58972" lon="6.68056">
        <ele>1545.0453</ele>
        <time>2015-08-20T09:20:06Z</time>
      </trkpt>
      <trkpt lat="45.58969" lon="6.68064">
        <ele>1545.0453</ele>
        <time>2015-08-20T09:20:11Z</time>
      </trkpt>
      <trkpt lat="45.58962" lon="6.68078">
        <ele>1542.4255</ele>
        <time>2015-08-20T09:20:21Z</time>
      </trkpt>
      <trkpt lat="45.58959" lon="6.68087">
        <ele>1542.4255</ele>
        <time>2015-08-20T09:20:26Z</time>
      </trkpt>
      <trkpt lat="45.58951" lon="6.68104">
        <ele>1539.8678</ele>
        <time>2015-08-20T09:20:36Z</time>
      </trkpt>
      <trkpt lat="45.58948" lon="6.68109">
        <ele>1539.8678</ele>
        <time>2015-08-20T09:20:41Z</time>
      </trkpt>
      <trkpt lat="45.58945" lon="6.68125">
        <ele>1537.357</ele>
        <time>2015-08-20T09:20:51Z</time>
      </trkpt>
      <trkpt lat="45.58944" lon="6.68134">
        <ele>1537.357</ele>
        <time>2015-08-20T09:20:56Z</time>
      </trkpt>
      <trkpt lat="45.58937" lon="6.6815">
        <ele>1534.9076</ele>
        <time>2015-08-20T09:21:06Z</time>
      </trkpt>
      <trkpt lat="45.58933" lon="6.68157">
        <ele>1534.9076</ele>
        <time>2015-08-20T09:21:11Z</time>
      </trkpt>
      <trkpt lat="45.58917" lon="6.68173">
        <ele>1532.6046</ele>
        <time>2015-08-20T09:21:26Z</time>
      </trkpt>
      <trkpt lat="45.58912" lon="6.68181">
        <ele>1532.6046</ele>
        <time>2015-08-20T09:21:31Z</time>
      </trkpt>
      <trkpt lat="45.58905" lon="6.68191">
        <ele>1530.3967</ele>
        <time>2015-08-20T09:21:41Z</time>
      </trkpt>
      <trkpt lat="45.589" lon="6.68198">
        <ele>1530.3967</ele>
        <time>2015-08-20T09:21:46Z</time>
      </trkpt>
      <trkpt lat="45.58892" lon="6.6821">
        <ele>1528.2502</ele>
        <time>2015-08-20T09:21:56Z</time>
      </trkpt>
      <trkpt lat="45.5889" lon="6.68219">
        <ele>1528.2502</ele>
        <time>2015-08-20T09:22:01Z</time>
      </trkpt>
      <trkpt lat="45.58885" lon="6.68232">
        <ele>1526.1914</ele>
        <time>2015-08-20T09:22:11Z</time>
      </trkpt>
      <trkpt lat="45.5888" lon="6.68239">
        <ele>1526.1914</ele>
        <time>2015-08-20T09:22:16Z</time>
      </trkpt>
      <trkpt lat="45.58869" lon="6.68245">
        <ele>1524.1288</ele>
        <time>2015-08-20T09:22:26Z</time>
      </trkpt>
      <trkpt lat="45.58861" lon="6.68252">
        <ele>1522.3091</ele>
        <time>2015-08-20T09:22:31Z</time>
      </trkpt>
      <trkpt lat="45.58852" lon="6.6826">
        <ele>1520.6287</ele>
        <time>2015-08-20T09:22:41Z</time>
      </trkpt>
      <trkpt lat="45.58846" lon="6.68262">
        <ele>1520.6287</ele>
        <time>2015-08-20T09:22:46Z</time>
      </trkpt>
      <trkpt lat="45.58835" lon="6.68268">
        <ele>1518.8901</ele>
        <time>2015-08-20T09:22:56Z</time>
      </trkpt>
      <trkpt lat="45.58833" lon="6.68268">
        <ele>1518.8901</ele>
        <time>2015-08-20T09:23:01Z</time>
      </trkpt>
      <trkpt lat="45.58821" lon="6.68273">
        <ele>1517.0833</ele>
        <time>2015-08-20T09:23:11Z</time>
      </trkpt>
      <trkpt lat="45.58815" lon="6.68276">
        <ele>1517.0833</ele>
        <time>2015-08-20T09:23:16Z</time>
      </trkpt>
      <trkpt lat="45.58803" lon="6.6828">
        <ele>1515.1703</ele>
        <time>2015-08-20T09:23:26Z</time>
      </trkpt>
      <trkpt lat="45.58797" lon="6.68281">
        <ele>1515.1703</ele>
        <time>2015-08-20T09:23:31Z</time>
      </trkpt>
      <trkpt lat="45.58787" lon="6.68284">
        <ele>1513.2316</ele>
        <time>2015-08-20T09:23:41Z</time>
      </trkpt>
      <trkpt lat="45.58783" lon="6.68289">
        <ele>1513.2316</ele>
        <time>2015-08-20T09:23:46Z</time>
      </trkpt>
      <trkpt lat="45.58767" lon="6.68304">
        <ele>1510.9667</ele>
        <time>2015-08-20T09:24:01Z</time>
      </trkpt>
      <trkpt lat="45.58763" lon="6.68309">
        <ele>1510.9667</ele>
        <time>2015-08-20T09:24:06Z</time>
      </trkpt>
      <trkpt lat="45.58753" lon="6.68314">
        <ele>1508.5452</ele>
        <time>2015-08-20T09:24:16Z</time>
      </trkpt>
      <trkpt lat="45.58747" lon="6.68317">
        <ele>1508.5452</ele>
        <time>2015-08-20T09:24:21Z</time>
      </trkpt>
      <trkpt lat="45.58732" lon="6.6832">
        <ele>1506.1818</ele>
        <time>2015-08-20T09:24:31Z</time>
      </trkpt>
      <trkpt lat="45.58725" lon="6.68322">
        <ele>1506.1818</ele>
        <time>2015-08-20T09:24:36Z</time>
      </trkpt>
      <trkpt lat="45.58721" lon="6.68323">
        <ele>1503.9891</ele>
        <time>2015-08-20T09:24:46Z</time>
      </trkpt>
      <trkpt lat="45.58723" lon="6.6832">
        <ele>1503.9891</ele>
        <time>2015-08-20T09:24:51Z</time>
      </trkpt>
      <trkpt lat="45.58712" lon="6.68316">
        <ele>1501.9121</ele>
        <time>2015-08-20T09:25:01Z</time>
      </trkpt>
      <trkpt lat="45.58708" lon="6.68318">
        <ele>1501.9121</ele>
        <time>2015-08-20T09:25:06Z</time>
      </trkpt>
      <trkpt lat="45.58697" lon="6.68323">
        <ele>1499.9718</ele>
        <time>2015-08-20T09:25:16Z</time>
      </trkpt>
      <trkpt lat="45.5869" lon="6.68322">
        <ele>1499.9718</ele>
        <time>2015-08-20T09:25:21Z</time>
      </trkpt>
      <trkpt lat="45.5868" lon="6.68325">
        <ele>1498.1578</ele>
        <time>2015-08-20T09:25:31Z</time>
      </trkpt>
      <trkpt lat="45.58676" lon="6.68326">
        <ele>1498.1578</ele>
        <time>2015-08-20T09:25:36Z</time>
      </trkpt>
      <trkpt lat="45.58667" lon="6.68324">
        <ele>1496.4321</ele>
        <time>2015-08-20T09:25:46Z</time>
      </trkpt>
      <trkpt lat="45.58662" lon="6.68323">
        <ele>1496.4321</ele>
        <time>2015-08-20T09:25:51Z</time>
      </trkpt>
      <trkpt lat="45.58651" lon="6.68325">
        <ele>1494.7007</ele>
        <time>2015-08-20T09:26:01Z</time>
      </trkpt>
      <trkpt lat="45.58644" lon="6.68328">
        <ele>1494.7007</ele>
        <time>2015-08-20T09:26:06Z</time>
      </trkpt>
      <trkpt lat="45.58635" lon="6.68337">
        <ele>1492.704</ele>
        <time>2015-08-20T09:26:21Z</time>
      </trkpt>
      <trkpt lat="45.5863" lon="6.68343">
        <ele>1492.704</ele>
        <time>2015-08-20T09:26:26Z</time>
      </trkpt>
      <trkpt lat="45.58622" lon="6.68354">
        <ele>1490.4902</ele>
        <time>2015-08-20T09:26:36Z</time>
      </trkpt>
      <trkpt lat="45.58618" lon="6.68359">
        <ele>1490.4902</ele>
        <time>2015-08-20T09:26:41Z</time>
      </trkpt>
      <trkpt lat="45.5861" lon="6.6837">
        <ele>1488.148</ele>
        <time>2015-08-20T09:26:51Z</time>
      </trkpt>
      <trkpt lat="45.58605" lon="6.68376">
        <ele>1488.148</ele>
        <time>2015-08-20T09:26:56Z</time>
      </trkpt>
      <trkpt lat="45.58598" lon="6.68382">
        <ele>1485.702</ele>
        <time>2015-08-20T09:27:06Z</time>
      </trkpt>
      <trkpt lat="45.58593" lon="6.68388">
        <ele>1485.702</ele>
        <time>2015-08-20T09:27:11Z</time>
      </trkpt>
      <trkpt lat="45.58583" lon="6.68396">
        <ele>1483.2042</ele>
        <time>2015-08-20T09:27:21Z</time>
      </trkpt>
      <trkpt lat="45.58577" lon="6.68403">
        <ele>1483.2042</ele>
        <time>2015-08-20T09:27:26Z</time>
      </trkpt>
      <trkpt lat="45.58569" lon="6.6841">
        <ele>1480.6309</ele>
        <time>2015-08-20T09:27:36Z</time>
      </trkpt>
      <trkpt lat="45.58566" lon="6.68414">
        <ele>1480.6309</ele>
        <time>2015-08-20T09:27:41Z</time>
      </trkpt>
      <trkpt lat="45.58557" lon="6.68427">
        <ele>1478.0896</ele>
        <time>2015-08-20T09:27:51Z</time>
      </trkpt>
      <trkpt lat="45.58555" lon="6.68433">
        <ele>1478.0896</ele>
        <time>2015-08-20T09:27:56Z</time>
      </trkpt>
      <trkpt lat="45.5855" lon="6.68443">
        <ele>1475.522</ele>
        <time>2015-08-20T09:28:06Z</time>
      </trkpt>
      <trkpt lat="45.58545" lon="6.68449">
        <ele>1475.522</ele>
        <time>2015-08-20T09:28:11Z</time>
      </trkpt>
      <trkpt lat="45.58538" lon="6.68459">
        <ele>1472.9741</ele>
        <time>2015-08-20T09:28:21Z</time>
      </trkpt>
      <trkpt lat="45.58534" lon="6.68461">
        <ele>1472.9741</ele>
        <time>2015-08-20T09:28:26Z</time>
      </trkpt>
      <trkpt lat="45.58523" lon="6.68467">
        <ele>1470.446</ele>
        <time>2015-08-20T09:28:36Z</time>
      </trkpt>
      <trkpt lat="45.58518" lon="6.68469">
        <ele>1470.446</ele>
        <time>2015-08-20T09:28:41Z</time>
      </trkpt>
      <trkpt lat="45.58502" lon="6.68473">
        <ele>1468.0238</ele>
        <time>2015-08-20T09:28:56Z</time>
      </trkpt>
      <trkpt lat="45.58497" lon="6.68476">
        <ele>1468.0238</ele>
        <time>2015-08-20T09:29:01Z</time>
      </trkpt>
      <trkpt lat="45.58488" lon="6.68482">
        <ele>1465.7434</ele>
        <time>2015-08-20T09:29:11Z</time>
      </trkpt>
      <trkpt lat="45.58485" lon="6.68487">
        <ele>1465.7434</ele>
        <time>2015-08-20T09:29:16Z</time>
      </trkpt>
      <trkpt lat="45.58483" lon="6.68499">
        <ele>1463.3213</ele>
        <time>2015-08-20T09:29:26Z</time>
      </trkpt>
      <trkpt lat="45.5848" lon="6.68505">
        <ele>1463.3213</ele>
        <time>2015-08-20T09:29:31Z</time>
      </trkpt>
      <trkpt lat="45.58473" lon="6.68519">
        <ele>1460.8258</ele>
        <time>2015-08-20T09:29:41Z</time>
      </trkpt>
      <trkpt lat="45.58472" lon="6.68522">
        <ele>1460.8258</ele>
        <time>2015-08-20T09:29:46Z</time>
      </trkpt>
      <trkpt lat="45.58465" lon="6.6853">
        <ele>1458.1626</ele>
        <time>2015-08-20T09:29:56Z</time>
      </trkpt>
      <trkpt lat="45.58462" lon="6.68538">
        <ele>1458.1626</ele>
        <time>2015-08-20T09:30:01Z</time>
      </trkpt>
      <trkpt lat="45.58456" lon="6.68547">
        <ele>1455.4172</ele>
        <time>2015-08-20T09:30:11Z</time>
      </trkpt>
      <trkpt lat="45.58452" lon="6.6855">
        <ele>1455.4172</ele>
        <time>2015-08-20T09:30:16Z</time>
      </trkpt>
      <trkpt lat="45.58444" lon="6.68558">
        <ele>1452.6549</ele>
        <time>2015-08-20T09:30:26Z</time>
      </trkpt>
      <trkpt lat="45.58439" lon="6.68561">
        <ele>1452.6549</ele>
        <time>2015-08-20T09:30:31Z</time>
      </trkpt>
      <trkpt lat="45.58431" lon="6.68568">
        <ele>1449.8062</ele>
        <time>2015-08-20T09:30:41Z</time>
      </trkpt>
      <trkpt lat="45.58426" lon="6.68573">
        <ele>1449.8062</ele>
        <time>2015-08-20T09:30:46Z</time>
      </trkpt>
      <trkpt lat="45.5842" lon="6.68577">
        <ele>1446.9078</ele>
        <time>2015-08-20T09:30:56Z</time>
      </trkpt>
      <trkpt lat="45.58421" lon="6.68576">
        <ele>1446.9078</ele>
        <time>2015-08-20T09:31:01Z</time>
      </trkpt>
      <trkpt lat="45.58422" lon="6.6858">
        <ele>1446.9078</ele>
        <time>2015-08-20T09:31:11Z</time>
      </trkpt>
      <trkpt lat="45.58422" lon="6.68579">
        <ele>1446.9078</ele>
        <time>2015-08-20T09:31:16Z</time>
      </trkpt>
      <trkpt lat="45.58417" lon="6.68583">
        <ele>1446.9078</ele>
        <time>2015-08-20T09:31:26Z</time>
      </trkpt>
      <trkpt lat="45.58411" lon="6.68586">
        <ele>1443.8501</ele>
        <time>2015-08-20T09:31:31Z</time>
      </trkpt>
      <trkpt lat="45.58401" lon="6.68592">
        <ele>1441.0936</ele>
        <time>2015-08-20T09:31:41Z</time>
      </trkpt>
      <trkpt lat="45.58398" lon="6.68593">
        <ele>1441.0936</ele>
        <time>2015-08-20T09:31:46Z</time>
      </trkpt>
      <trkpt lat="45.58391" lon="6.68603">
        <ele>1438.459</ele>
        <time>2015-08-20T09:31:56Z</time>
      </trkpt>
      <trkpt lat="45.58388" lon="6.68611">
        <ele>1438.459</ele>
        <time>2015-08-20T09:32:01Z</time>
      </trkpt>
      <trkpt lat="45.58392" lon="6.68637">
        <ele>1435.6788</ele>
        <time>2015-08-20T09:32:16Z</time>
      </trkpt>
      <trkpt lat="45.58392" lon="6.68644">
        <ele>1435.6788</ele>
        <time>2015-08-20T09:32:21Z</time>
      </trkpt>
      <trkpt lat="45.58385" lon="6.68638">
        <ele>1432.9089</ele>
        <time>2015-08-20T09:32:31Z</time>
      </trkpt>
      <trkpt lat="45.58382" lon="6.68629">
        <ele>1432.9089</ele>
        <time>2015-08-20T09:32:36Z</time>
      </trkpt>
      <trkpt lat="45.58376" lon="6.68621">
        <ele>1430.0492</ele>
        <time>2015-08-20T09:32:46Z</time>
      </trkpt>
      <trkpt lat="45.5837" lon="6.68617">
        <ele>1430.0492</ele>
        <time>2015-08-20T09:32:51Z</time>
      </trkpt>
      <trkpt lat="45.58363" lon="6.68612">
        <ele>1427.0208</ele>
        <time>2015-08-20T09:33:01Z</time>
      </trkpt>
      <trkpt lat="45.5836" lon="6.6861">
        <ele>1427.0208</ele>
        <time>2015-08-20T09:33:06Z</time>
      </trkpt>
      <trkpt lat="45.58351" lon="6.68603">
        <ele>1423.6796</ele>
        <time>2015-08-20T09:33:16Z</time>
      </trkpt>
      <trkpt lat="45.58345" lon="6.68598">
        <ele>1423.6796</ele>
        <time>2015-08-20T09:33:21Z</time>
      </trkpt>
      <trkpt lat="45.58335" lon="6.68584">
        <ele>1420.0366</ele>
        <time>2015-08-20T09:33:36Z</time>
      </trkpt>
      <trkpt lat="45.5833" lon="6.6858">
        <ele>1420.0366</ele>
        <time>2015-08-20T09:33:41Z</time>
      </trkpt>
      <trkpt lat="45.58323" lon="6.68571">
        <ele>1416.4634</ele>
        <time>2015-08-20T09:33:51Z</time>
      </trkpt>
      <trkpt lat="45.5832" lon="6.68563">
        <ele>1416.4634</ele>
        <time>2015-08-20T09:33:56Z</time>
      </trkpt>
      <trkpt lat="45.58321" lon="6.6855">
        <ele>1413.0302</ele>
        <time>2015-08-20T09:34:06Z</time>
      </trkpt>
      <trkpt lat="45.58322" lon="6.68542">
        <ele>1413.0302</ele>
        <time>2015-08-20T09:34:11Z</time>
      </trkpt>
      <trkpt lat="45.58315" lon="6.68535">
        <ele>1409.7291</ele>
        <time>2015-08-20T09:34:21Z</time>
      </trkpt>
      <trkpt lat="45.58313" lon="6.6854">
        <ele>1409.7291</ele>
        <time>2015-08-20T09:34:26Z</time>
      </trkpt>
      <trkpt lat="45.58308" lon="6.68556">
        <ele>1406.38</ele>
        <time>2015-08-20T09:34:36Z</time>
      </trkpt>
      <trkpt lat="45.58305" lon="6.68565">
        <ele>1406.38</ele>
        <time>2015-08-20T09:34:41Z</time>
      </trkpt>
      <trkpt lat="45.58302" lon="6.68579">
        <ele>1403.0895</ele>
        <time>2015-08-20T09:34:51Z</time>
      </trkpt>
      <trkpt lat="45.583" lon="6.68583">
        <ele>1403.0895</ele>
        <time>2015-08-20T09:34:56Z</time>
      </trkpt>
      <trkpt lat="45.583" lon="6.686">
        <ele>1399.596</ele>
        <time>2015-08-20T09:35:06Z</time>
      </trkpt>
      <trkpt lat="45.58301" lon="6.68605">
        <ele>1399.596</ele>
        <time>2015-08-20T09:35:11Z</time>
      </trkpt>
      <trkpt lat="45.58298" lon="6.68628">
        <ele>1396.0178</ele>
        <time>2015-08-20T09:35:26Z</time>
      </trkpt>
      <trkpt lat="45.58295" lon="6.68633">
        <ele>1396.0178</ele>
        <time>2015-08-20T09:35:31Z</time>
      </trkpt>
      <trkpt lat="45.58286" lon="6.68639">
        <ele>1392.6234</ele>
        <time>2015-08-20T09:35:41Z</time>
      </trkpt>
      <trkpt lat="45.58282" lon="6.68639">
        <ele>1392.6234</ele>
        <time>2015-08-20T09:35:46Z</time>
      </trkpt>
      <trkpt lat="45.58273" lon="6.68645">
        <ele>1389.4015</ele>
        <time>2015-08-20T09:35:56Z</time>
      </trkpt>
      <trkpt lat="45.58269" lon="6.68648">
        <ele>1389.4015</ele>
        <time>2015-08-20T09:36:01Z</time>
      </trkpt>
      <trkpt lat="45.58262" lon="6.68653">
        <ele>1386.2832</ele>
        <time>2015-08-20T09:36:11Z</time>
      </trkpt>
      <trkpt lat="45.58258" lon="6.68655">
        <ele>1386.2832</ele>
        <time>2015-08-20T09:36:16Z</time>
      </trkpt>
      <trkpt lat="45.58248" lon="6.68659">
        <ele>1383.2766</ele>
        <time>2015-08-20T09:36:26Z</time>
      </trkpt>
      <trkpt lat="45.58244" lon="6.68666">
        <ele>1383.2766</ele>
        <time>2015-08-20T09:36:31Z</time>
      </trkpt>
      <trkpt lat="45.5824" lon="6.68673">
        <ele>1380.3456</ele>
        <time>2015-08-20T09:36:41Z</time>
      </trkpt>
      <trkpt lat="45.58237" lon="6.68676">
        <ele>1380.3456</ele>
        <time>2015-08-20T09:36:46Z</time>
      </trkpt>
      <trkpt lat="45.5823" lon="6.68683">
        <ele>1377.4274</ele>
        <time>2015-08-20T09:36:56Z</time>
      </trkpt>
      <trkpt lat="45.58227" lon="6.68687">
        <ele>1377.4274</ele>
        <time>2015-08-20T09:37:01Z</time>
      </trkpt>
      <trkpt lat="45.5822" lon="6.68697">
        <ele>1374.5216</ele>
        <time>2015-08-20T09:37:11Z</time>
      </trkpt>
      <trkpt lat="45.58218" lon="6.68701">
        <ele>1374.5216</ele>
        <time>2015-08-20T09:37:16Z</time>
      </trkpt>
      <trkpt lat="45.58212" lon="6.6871">
        <ele>1371.4692</ele>
        <time>2015-08-20T09:37:26Z</time>
      </trkpt>
      <trkpt lat="45.5821" lon="6.68716">
        <ele>1371.4692</ele>
        <time>2015-08-20T09:37:31Z</time>
      </trkpt>
      <trkpt lat="45.58213" lon="6.68729">
        <ele>1368.1519</ele>
        <time>2015-08-20T09:37:41Z</time>
      </trkpt>
      <trkpt lat="45.58217" lon="6.68736">
        <ele>1368.1519</ele>
        <time>2015-08-20T09:37:46Z</time>
      </trkpt>
      <trkpt lat="45.58225" lon="6.6875">
        <ele>1364.7778</ele>
        <time>2015-08-20T09:37:56Z</time>
      </trkpt>
      <trkpt lat="45.58227" lon="6.68755">
        <ele>1364.7778</ele>
        <time>2015-08-20T09:38:01Z</time>
      </trkpt>
      <trkpt lat="45.58226" lon="6.68772">
        <ele>1361.4824</ele>
        <time>2015-08-20T09:38:11Z</time>
      </trkpt>
      <trkpt lat="45.58227" lon="6.68785">
        <ele>1358.7079</ele>
        <time>2015-08-20T09:38:16Z</time>
      </trkpt>
      <trkpt lat="45.58231" lon="6.68811">
        <ele>1356.4733</ele>
        <time>2015-08-20T09:38:31Z</time>
      </trkpt>
      <trkpt lat="45.58232" lon="6.68816">
        <ele>1356.4733</ele>
        <time>2015-08-20T09:38:36Z</time>
      </trkpt>
      <trkpt lat="45.5823" lon="6.68825">
        <ele>1354.4921</ele>
        <time>2015-08-20T09:38:46Z</time>
      </trkpt>
      <trkpt lat="45.58223" lon="6.6883">
        <ele>1354.4921</ele>
        <time>2015-08-20T09:38:51Z</time>
      </trkpt>
      <trkpt lat="45.58212" lon="6.6883">
        <ele>1352.7861</ele>
        <time>2015-08-20T09:39:01Z</time>
      </trkpt>
      <trkpt lat="45.58205" lon="6.6883">
        <ele>1352.7861</ele>
        <time>2015-08-20T09:39:06Z</time>
      </trkpt>
      <trkpt lat="45.58198" lon="6.68833">
        <ele>1351.0726</ele>
        <time>2015-08-20T09:39:16Z</time>
      </trkpt>
      <trkpt lat="45.5819" lon="6.68835">
        <ele>1351.0726</ele>
        <time>2015-08-20T09:39:21Z</time>
      </trkpt>
      <trkpt lat="45.5818" lon="6.68842">
        <ele>1349.464</ele>
        <time>2015-08-20T09:39:31Z</time>
      </trkpt>
      <trkpt lat="45.58175" lon="6.68843">
        <ele>1349.464</ele>
        <time>2015-08-20T09:39:36Z</time>
      </trkpt>
      <trkpt lat="45.58165" lon="6.68844">
        <ele>1347.7324</ele>
        <time>2015-08-20T09:39:46Z</time>
      </trkpt>
      <trkpt lat="45.58159" lon="6.68847">
        <ele>1347.7324</ele>
        <time>2015-08-20T09:39:51Z</time>
      </trkpt>
      <trkpt lat="45.58151" lon="6.68855">
        <ele>1345.9846</ele>
        <time>2015-08-20T09:40:01Z</time>
      </trkpt>
      <trkpt lat="45.58145" lon="6.68859">
        <ele>1345.9846</ele>
        <time>2015-08-20T09:40:06Z</time>
      </trkpt>
      <trkpt lat="45.5813" lon="6.68873">
        <ele>1343.9159</ele>
        <time>2015-08-20T09:40:21Z</time>
      </trkpt>
      <trkpt lat="45.58125" lon="6.68876">
        <ele>1343.9159</ele>
        <time>2015-08-20T09:40:26Z</time>
      </trkpt>
      <trkpt lat="45.58115" lon="6.68885">
        <ele>1341.7634</ele>
        <time>2015-08-20T09:40:36Z</time>
      </trkpt>
      <trkpt lat="45.5811" lon="6.68889">
        <ele>1341.7634</ele>
        <time>2015-08-20T09:40:41Z</time>
      </trkpt>
      <trkpt lat="45.581" lon="6.68897">
        <ele>1339.7188</ele>
        <time>2015-08-20T09:40:51Z</time>
      </trkpt>
      <trkpt lat="45.58095" lon="6.68903">
        <ele>1339.7188</ele>
        <time>2015-08-20T09:40:56Z</time>
      </trkpt>
      <trkpt lat="45.5809" lon="6.6891">
        <ele>1337.8002</ele>
        <time>2015-08-20T09:41:06Z</time>
      </trkpt>
      <trkpt lat="45.58089" lon="6.68909">
        <ele>1337.8002</ele>
        <time>2015-08-20T09:41:11Z</time>
      </trkpt>
      <trkpt lat="45.58086" lon="6.68911">
        <ele>1337.8002</ele>
        <time>2015-08-20T09:41:21Z</time>
      </trkpt>
      <trkpt lat="45.58081" lon="6.68912">
        <ele>1335.8087</ele>
        <time>2015-08-20T09:41:26Z</time>
      </trkpt>
      <trkpt lat="45.58069" lon="6.68914">
        <ele>1333.9342</ele>
        <time>2015-08-20T09:41:36Z</time>
      </trkpt>
      <trkpt lat="45.58064" lon="6.6892">
        <ele>1333.9342</ele>
        <time>2015-08-20T09:41:41Z</time>
      </trkpt>
      <trkpt lat="45.58054" lon="6.68934">
        <ele>1332.0648</ele>
        <time>2015-08-20T09:41:51Z</time>
      </trkpt>
      <trkpt lat="45.58049" lon="6.68938">
        <ele>1332.0648</ele>
        <time>2015-08-20T09:41:56Z</time>
      </trkpt>
      <trkpt lat="45.58039" lon="6.68946">
        <ele>1330.2549</ele>
        <time>2015-08-20T09:42:06Z</time>
      </trkpt>
      <trkpt lat="45.58033" lon="6.68949">
        <ele>1330.2549</ele>
        <time>2015-08-20T09:42:11Z</time>
      </trkpt>
      <trkpt lat="45.58021" lon="6.68956">
        <ele>1328.3676</ele>
        <time>2015-08-20T09:42:21Z</time>
      </trkpt>
      <trkpt lat="45.58016" lon="6.6896">
        <ele>1328.3676</ele>
        <time>2015-08-20T09:42:26Z</time>
      </trkpt>
      <trkpt lat="45.57999" lon="6.6897">
        <ele>1326.4924</ele>
        <time>2015-08-20T09:42:41Z</time>
      </trkpt>
      <trkpt lat="45.57994" lon="6.68975">
        <ele>1326.4924</ele>
        <time>2015-08-20T09:42:46Z</time>
      </trkpt>
      <trkpt lat="45.57984" lon="6.68983">
        <ele>1324.6984</ele>
        <time>2015-08-20T09:42:56Z</time>
      </trkpt>
      <trkpt lat="45.57979" lon="6.68989">
        <ele>1324.6984</ele>
        <time>2015-08-20T09:43:01Z</time>
      </trkpt>
      <trkpt lat="45.57973" lon="6.69003">
        <ele>1322.8324</ele>
        <time>2015-08-20T09:43:11Z</time>
      </trkpt>
      <trkpt lat="45.57969" lon="6.69009">
        <ele>1322.8324</ele>
        <time>2015-08-20T09:43:16Z</time>
      </trkpt>
      <trkpt lat="45.57965" lon="6.69021">
        <ele>1320.7389</ele>
        <time>2015-08-20T09:43:26Z</time>
      </trkpt>
      <trkpt lat="45.57964" lon="6.69024">
        <ele>1320.7389</ele>
        <time>2015-08-20T09:43:31Z</time>
      </trkpt>
      <trkpt lat="45.57958" lon="6.69038">
        <ele>1318.6204</ele>
        <time>2015-08-20T09:43:41Z</time>
      </trkpt>
      <trkpt lat="45.57955" lon="6.69044">
        <ele>1318.6204</ele>
        <time>2015-08-20T09:43:46Z</time>
      </trkpt>
      <trkpt lat="45.5795" lon="6.69053">
        <ele>1316.3906</ele>
        <time>2015-08-20T09:43:56Z</time>
      </trkpt>
      <trkpt lat="45.57947" lon="6.69058">
        <ele>1316.3906</ele>
        <time>2015-08-20T09:44:01Z</time>
      </trkpt>
      <trkpt lat="45.57942" lon="6.69068">
        <ele>1313.9557</ele>
        <time>2015-08-20T09:44:11Z</time>
      </trkpt>
      <trkpt lat="45.57938" lon="6.69072">
        <ele>1313.9557</ele>
        <time>2015-08-20T09:44:16Z</time>
      </trkpt>
      <trkpt lat="45.57929" lon="6.69075">
        <ele>1311.2438</ele>
        <time>2015-08-20T09:44:26Z</time>
      </trkpt>
      <trkpt lat="45.57922" lon="6.69076">
        <ele>1311.2438</ele>
        <time>2015-08-20T09:44:31Z</time>
      </trkpt>
      <trkpt lat="45.57911" lon="6.69088">
        <ele>1308.088</ele>
        <time>2015-08-20T09:44:46Z</time>
      </trkpt>
      <trkpt lat="45.57907" lon="6.69097">
        <ele>1308.088</ele>
        <time>2015-08-20T09:44:51Z</time>
      </trkpt>
      <trkpt lat="45.57903" lon="6.69112">
        <ele>1304.5228</ele>
        <time>2015-08-20T09:45:01Z</time>
      </trkpt>
      <trkpt lat="45.57903" lon="6.6912">
        <ele>1304.5228</ele>
        <time>2015-08-20T09:45:06Z</time>
      </trkpt>
      <trkpt lat="45.57904" lon="6.69134">
        <ele>1300.8403</ele>
        <time>2015-08-20T09:45:16Z</time>
      </trkpt>
      <trkpt lat="45.57903" lon="6.69145">
        <ele>1300.8403</ele>
        <time>2015-08-20T09:45:21Z</time>
      </trkpt>
      <trkpt lat="45.579" lon="6.69162">
        <ele>1297.0669</ele>
        <time>2015-08-20T09:45:31Z</time>
      </trkpt>
      <trkpt lat="45.57898" lon="6.69166">
        <ele>1297.0669</ele>
        <time>2015-08-20T09:45:36Z</time>
      </trkpt>
      <trkpt lat="45.5789" lon="6.69181">
        <ele>1293.4575</ele>
        <time>2015-08-20T09:45:46Z</time>
      </trkpt>
      <trkpt lat="45.57885" lon="6.69187">
        <ele>1293.4575</ele>
        <time>2015-08-20T09:45:51Z</time>
      </trkpt>
      <trkpt lat="45.57876" lon="6.69195">
        <ele>1290.0176</ele>
        <time>2015-08-20T09:46:01Z</time>
      </trkpt>
      <trkpt lat="45.57873" lon="6.69201">
        <ele>1290.0176</ele>
        <time>2015-08-20T09:46:06Z</time>
      </trkpt>
      <trkpt lat="45.5787" lon="6.69212">
        <ele>1286.7661</ele>
        <time>2015-08-20T09:46:16Z</time>
      </trkpt>
      <trkpt lat="45.57867" lon="6.69218">
        <ele>1286.7661</ele>
        <time>2015-08-20T09:46:21Z</time>
      </trkpt>
      <trkpt lat="45.57857" lon="6.69231">
        <ele>1283.4606</ele>
        <time>2015-08-20T09:46:31Z</time>
      </trkpt>
      <trkpt lat="45.57853" lon="6.69239">
        <ele>1283.4606</ele>
        <time>2015-08-20T09:46:36Z</time>
      </trkpt>
      <trkpt lat="45.57845" lon="6.69256">
        <ele>1280.0928</ele>
        <time>2015-08-20T09:46:51Z</time>
      </trkpt>
      <trkpt lat="45.5784" lon="6.69263">
        <ele>1280.0928</ele>
        <time>2015-08-20T09:46:56Z</time>
      </trkpt>
      <trkpt lat="45.57834" lon="6.69275">
        <ele>1276.7993</ele>
        <time>2015-08-20T09:47:06Z</time>
      </trkpt>
      <trkpt lat="45.57832" lon="6.69278">
        <ele>1276.7993</ele>
        <time>2015-08-20T09:47:11Z</time>
      </trkpt>
      <trkpt lat="45.57822" lon="6.6929">
        <ele>1273.6919</ele>
        <time>2015-08-20T09:47:26Z</time>
      </trkpt>
      <trkpt lat="45.57818" lon="6.69292">
        <ele>1273.6919</ele>
        <time>2015-08-20T09:47:31Z</time>
      </trkpt>
      <trkpt lat="45.5781" lon="6.69291">
        <ele>1270.8307</ele>
        <time>2015-08-20T09:47:41Z</time>
      </trkpt>
      <trkpt lat="45.57805" lon="6.6929">
        <ele>1270.8307</ele>
        <time>2015-08-20T09:47:46Z</time>
      </trkpt>
      <trkpt lat="45.57797" lon="6.69286">
        <ele>1267.91</ele>
        <time>2015-08-20T09:47:56Z</time>
      </trkpt>
      <trkpt lat="45.57793" lon="6.69286">
        <ele>1267.91</ele>
        <time>2015-08-20T09:48:01Z</time>
      </trkpt>
      <trkpt lat="45.57785" lon="6.69285">
        <ele>1264.7623</ele>
        <time>2015-08-20T09:48:11Z</time>
      </trkpt>
      <trkpt lat="45.57783" lon="6.69285">
        <ele>1264.7623</ele>
        <time>2015-08-20T09:48:16Z</time>
      </trkpt>
      <trkpt lat="45.57784" lon="6.69286">
        <ele>1264.7623</ele>
        <time>2015-08-20T09:48:26Z</time>
      </trkpt>
      <trkpt lat="45.57785" lon="6.69285">
        <ele>1264.7623</ele>
        <time>2015-08-20T09:48:31Z</time>
      </trkpt>
      <trkpt lat="45.57786" lon="6.69286">
        <ele>1264.7623</ele>
        <time>2015-08-20T09:48:41Z</time>
      </trkpt>
      <trkpt lat="45.57786" lon="6.69284">
        <ele>1264.7623</ele>
        <time>2015-08-20T09:48:46Z</time>
      </trkpt>
      <trkpt lat="45.57784" lon="6.6928">
        <ele>1261.3915</ele>
        <time>2015-08-20T09:49:01Z</time>
      </trkpt>
      <trkpt lat="45.57785" lon="6.6928">
        <ele>1261.3915</ele>
        <time>2015-08-20T09:49:06Z</time>
      </trkpt>
      <trkpt lat="45.57784" lon="6.69284">
        <ele>1261.3915</ele>
        <time>2015-08-20T09:49:16Z</time>
      </trkpt>
      <trkpt lat="45.57783" lon="6.69285">
        <ele>1261.3915</ele>
        <time>2015-08-20T09:49:21Z</time>
      </trkpt>
      <trkpt lat="45.5778" lon="6.69287">
        <ele>1261.3915</ele>
        <time>2015-08-20T09:49:31Z</time>
      </trkpt>
      <trkpt lat="45.57778" lon="6.69285">
        <ele>1258.1907</ele>
        <time>2015-08-20T09:49:36Z</time>
      </trkpt>
      <trkpt lat="45.57771" lon="6.69279">
        <ele>1258.1907</ele>
        <time>2015-08-20T09:49:46Z</time>
      </trkpt>
      <trkpt lat="45.57769" lon="6.69277">
        <ele>1255.2211</ele>
        <time>2015-08-20T09:49:51Z</time>
      </trkpt>
      <trkpt lat="45.57769" lon="6.69275">
        <ele>1255.2211</ele>
        <time>2015-08-20T09:50:01Z</time>
      </trkpt>
      <trkpt lat="45.57769" lon="6.69275">
        <ele>1255.2211</ele>
        <time>2015-08-20T09:50:06Z</time>
      </trkpt>
      <trkpt lat="45.57769" lon="6.69277">
        <ele>1255.2211</ele>
        <time>2015-08-20T09:50:16Z</time>
      </trkpt>
      <trkpt lat="45.57769" lon="6.69277">
        <ele>1255.2211</ele>
        <time>2015-08-20T09:50:21Z</time>
      </trkpt>
      <trkpt lat="45.57761" lon="6.69275">
        <ele>1252.5531</ele>
        <time>2015-08-20T09:50:31Z</time>
      </trkpt>
      <trkpt lat="45.57755" lon="6.69275">
        <ele>1252.5531</ele>
        <time>2015-08-20T09:50:36Z</time>
      </trkpt>
      <trkpt lat="45.57749" lon="6.69269">
        <ele>1250.0927</ele>
        <time>2015-08-20T09:50:46Z</time>
      </trkpt>
      <trkpt lat="45.57744" lon="6.69267">
        <ele>1250.0927</ele>
        <time>2015-08-20T09:50:51Z</time>
      </trkpt>
      <trkpt lat="45.57737" lon="6.69261">
        <ele>1247.651</ele>
        <time>2015-08-20T09:51:01Z</time>
      </trkpt>
      <trkpt lat="45.57729" lon="6.69265">
        <ele>1247.651</ele>
        <time>2015-08-20T09:51:06Z</time>
      </trkpt>
      <trkpt lat="45.57719" lon="6.6927">
        <ele>1245.1107</ele>
        <time>2015-08-20T09:51:16Z</time>
      </trkpt>
      <trkpt lat="45.57715" lon="6.69271">
        <ele>1245.1107</ele>
        <time>2015-08-20T09:51:21Z</time>
      </trkpt>
      <trkpt lat="45.57699" lon="6.69269">
        <ele>1242.3925</ele>
        <time>2015-08-20T09:51:36Z</time>
      </trkpt>
      <trkpt lat="45.57695" lon="6.69268">
        <ele>1242.3925</ele>
        <time>2015-08-20T09:51:41Z</time>
      </trkpt>
      <trkpt lat="45.57686" lon="6.69271">
        <ele>1239.5668</ele>
        <time>2015-08-20T09:51:51Z</time>
      </trkpt>
      <trkpt lat="45.57681" lon="6.69273">
        <ele>1239.5668</ele>
        <time>2015-08-20T09:51:56Z</time>
      </trkpt>
      <trkpt lat="45.57671" lon="6.69279">
        <ele>1236.8148</ele>
        <time>2015-08-20T09:52:06Z</time>
      </trkpt>
      <trkpt lat="45.57666" lon="6.69283">
        <ele>1236.8148</ele>
        <time>2015-08-20T09:52:11Z</time>
      </trkpt>
      <trkpt lat="45.57657" lon="6.69289">
        <ele>1234.2036</ele>
        <time>2015-08-20T09:52:21Z</time>
      </trkpt>
      <trkpt lat="45.57653" lon="6.69295">
        <ele>1234.2036</ele>
        <time>2015-08-20T09:52:26Z</time>
      </trkpt>
      <trkpt lat="45.57647" lon="6.69306">
        <ele>1231.7368</ele>
        <time>2015-08-20T09:52:36Z</time>
      </trkpt>
      <trkpt lat="45.57643" lon="6.69309">
        <ele>1231.7368</ele>
        <time>2015-08-20T09:52:41Z</time>
      </trkpt>
      <trkpt lat="45.57641" lon="6.69326">
        <ele>1229.3022</ele>
        <time>2015-08-20T09:52:51Z</time>
      </trkpt>
      <trkpt lat="45.57638" lon="6.69334">
        <ele>1229.3022</ele>
        <time>2015-08-20T09:52:56Z</time>
      </trkpt>
      <trkpt lat="45.57631" lon="6.69339">
        <ele>1226.8678</ele>
        <time>2015-08-20T09:53:06Z</time>
      </trkpt>
      <trkpt lat="45.57627" lon="6.69341">
        <ele>1226.8678</ele>
        <time>2015-08-20T09:53:11Z</time>
      </trkpt>
      <trkpt lat="45.57621" lon="6.69341">
        <ele>1224.4329</ele>
        <time>2015-08-20T09:53:21Z</time>
      </trkpt>
      <trkpt lat="45.57621" lon="6.69342">
        <ele>1224.4329</ele>
        <time>2015-08-20T09:53:26Z</time>
      </trkpt>
      <trkpt lat="45.5762" lon="6.69347">
        <ele>1224.4329</ele>
        <time>2015-08-20T09:53:36Z</time>
      </trkpt>
      <trkpt lat="45.57619" lon="6.69348">
        <ele>1224.4329</ele>
        <time>2015-08-20T09:53:41Z</time>
      </trkpt>
      <trkpt lat="45.57606" lon="6.69352">
        <ele>1221.9244</ele>
        <time>2015-08-20T09:53:51Z</time>
      </trkpt>
      <trkpt lat="45.57602" lon="6.69354">
        <ele>1221.9244</ele>
        <time>2015-08-20T09:53:56Z</time>
      </trkpt>
      <trkpt lat="45.57591" lon="6.69357">
        <ele>1219.722</ele>
        <time>2015-08-20T09:54:06Z</time>
      </trkpt>
      <trkpt lat="45.57588" lon="6.69357">
        <ele>1219.722</ele>
        <time>2015-08-20T09:54:11Z</time>
      </trkpt>
      <trkpt lat="45.57577" lon="6.69354">
        <ele>1217.2252</ele>
        <time>2015-08-20T09:54:26Z</time>
      </trkpt>
      <trkpt lat="45.57573" lon="6.69354">
        <ele>1217.2252</ele>
        <time>2015-08-20T09:54:31Z</time>
      </trkpt>
      <trkpt lat="45.57564" lon="6.69359">
        <ele>1214.5559</ele>
        <time>2015-08-20T09:54:41Z</time>
      </trkpt>
      <trkpt lat="45.5756" lon="6.69361">
        <ele>1214.5559</ele>
        <time>2015-08-20T09:54:46Z</time>
      </trkpt>
      <trkpt lat="45.57556" lon="6.69364">
        <ele>1214.5559</ele>
        <time>2015-08-20T09:54:56Z</time>
      </trkpt>
      <trkpt lat="45.57557" lon="6.69364">
        <ele>1214.5559</ele>
        <time>2015-08-20T09:55:01Z</time>
      </trkpt>
      <trkpt lat="45.57554" lon="6.69367">
        <ele>1211.8562</ele>
        <time>2015-08-20T09:55:11Z</time>
      </trkpt>
      <trkpt lat="45.57553" lon="6.6937">
        <ele>1211.8562</ele>
        <time>2015-08-20T09:55:16Z</time>
      </trkpt>
      <trkpt lat="45.57554" lon="6.69372">
        <ele>1211.8562</ele>
        <time>2015-08-20T09:55:26Z</time>
      </trkpt>
      <trkpt lat="45.57552" lon="6.69371">
        <ele>1211.8562</ele>
        <time>2015-08-20T09:55:31Z</time>
      </trkpt>
      <trkpt lat="45.57545" lon="6.69371">
        <ele>1209.0563</ele>
        <time>2015-08-20T09:55:41Z</time>
      </trkpt>
      <trkpt lat="45.57541" lon="6.6937">
        <ele>1209.0563</ele>
        <time>2015-08-20T09:55:46Z</time>
      </trkpt>
      <trkpt lat="45.57533" lon="6.69372">
        <ele>1206.2357</ele>
        <time>2015-08-20T09:55:56Z</time>
      </trkpt>
      <trkpt lat="45.57529" lon="6.69374">
        <ele>1206.2357</ele>
        <time>2015-08-20T09:56:01Z</time>
      </trkpt>
      <trkpt lat="45.57516" lon="6.69375">
        <ele>1203.5836</ele>
        <time>2015-08-20T09:56:11Z</time>
      </trkpt>
      <trkpt lat="45.57511" lon="6.69373">
        <ele>1203.5836</ele>
        <time>2015-08-20T09:56:16Z</time>
      </trkpt>
      <trkpt lat="45.57503" lon="6.6937">
        <ele>1201.001</ele>
        <time>2015-08-20T09:56:26Z</time>
      </trkpt>
      <trkpt lat="45.57499" lon="6.69368">
        <ele>1201.001</ele>
        <time>2015-08-20T09:56:31Z</time>
      </trkpt>
      <trkpt lat="45.57489" lon="6.69369">
        <ele>1198.4103</ele>
        <time>2015-08-20T09:56:41Z</time>
      </trkpt>
      <trkpt lat="45.57487" lon="6.69368">
        <ele>1198.4103</ele>
        <time>2015-08-20T09:56:46Z</time>
      </trkpt>
      <trkpt lat="45.57485" lon="6.6937">
        <ele>1198.4103</ele>
        <time>2015-08-20T09:57:01Z</time>
      </trkpt>
      <trkpt lat="45.57487" lon="6.6937">
        <ele>1198.4103</ele>
        <time>2015-08-20T09:57:06Z</time>
      </trkpt>
      <trkpt lat="45.57487" lon="6.69368">
        <ele>1198.4103</ele>
        <time>2015-08-20T09:57:16Z</time>
      </trkpt>
      <trkpt lat="45.57486" lon="6.69366">
        <ele>1195.9125</ele>
        <time>2015-08-20T09:57:21Z</time>
      </trkpt>
      <trkpt lat="45.57486" lon="6.69367">
        <ele>1195.9125</ele>
        <time>2015-08-20T09:57:31Z</time>
      </trkpt>
      <trkpt lat="45.57485" lon="6.69367">
        <ele>1195.9125</ele>
        <time>2015-08-20T09:57:36Z</time>
      </trkpt>
      <trkpt lat="45.57484" lon="6.69368">
        <ele>1195.9125</ele>
        <time>2015-08-20T09:57:46Z</time>
      </trkpt>
      <trkpt lat="45.57483" lon="6.69369">
        <ele>1195.9125</ele>
        <time>2015-08-20T09:57:51Z</time>
      </trkpt>
      <trkpt lat="45.57483" lon="6.69371">
        <ele>1195.9125</ele>
        <time>2015-08-20T09:58:01Z</time>
      </trkpt>
      <trkpt lat="45.57484" lon="6.6937">
        <ele>1195.9125</ele>
        <time>2015-08-20T09:58:06Z</time>
      </trkpt>
      <trkpt lat="45.57484" lon="6.6937">
        <ele>1195.9125</ele>
        <time>2015-08-20T09:58:16Z</time>
      </trkpt>
      <trkpt lat="45.57484" lon="6.6937">
        <ele>1195.9125</ele>
        <time>2015-08-20T09:58:21Z</time>
      </trkpt>
      <trkpt lat="45.57484" lon="6.69373">
        <ele>1193.5579</ele>
        <time>2015-08-20T09:58:31Z</time>
      </trkpt>
      <trkpt lat="45.57484" lon="6.69376">
        <ele>1193.5579</ele>
        <time>2015-08-20T09:58:36Z</time>
      </trkpt>
      <trkpt lat="45.57483" lon="6.69377">
        <ele>1193.5579</ele>
        <time>2015-08-20T09:58:46Z</time>
      </trkpt>
      <trkpt lat="45.57484" lon="6.69376">
        <ele>1193.5579</ele>
        <time>2015-08-20T09:58:51Z</time>
      </trkpt>
      <trkpt lat="45.57484" lon="6.69376">
        <ele>1193.5579</ele>
        <time>2015-08-20T09:59:01Z</time>
      </trkpt>
      <trkpt lat="45.57484" lon="6.69376">
        <ele>1193.5579</ele>
        <time>2015-08-20T09:59:06Z</time>
      </trkpt>
      <trkpt lat="45.57484" lon="6.69377">
        <ele>1193.5579</ele>
        <time>2015-08-20T09:59:16Z</time>
      </trkpt>
      <trkpt lat="45.57484" lon="6.69378">
        <ele>1193.5579</ele>
        <time>2015-08-20T09:59:21Z</time>
      </trkpt>
      <trkpt lat="45.57484" lon="6.69379">
        <ele>1193.5579</ele>
        <time>2015-08-20T09:59:31Z</time>
      </trkpt>
      <trkpt lat="45.57484" lon="6.69376">
        <ele>1191.4791</ele>
        <time>2015-08-20T09:59:36Z</time>
      </trkpt>
      <trkpt lat="45.57485" lon="6.69373">
        <ele>1191.4791</ele>
        <time>2015-08-20T09:59:51Z</time>
      </trkpt>
      <trkpt lat="45.57485" lon="6.69372">
        <ele>1191.4791</ele>
        <time>2015-08-20T09:59:56Z</time>
      </trkpt>
      <trkpt lat="45.57485" lon="6.69373">
        <ele>1191.4791</ele>
        <time>2015-08-20T10:00:06Z</time>
      </trkpt>
      <trkpt lat="45.57485" lon="6.69371">
        <ele>1191.4791</ele>
        <time>2015-08-20T10:00:11Z</time>
      </trkpt>
      <trkpt lat="45.57487" lon="6.69368">
        <ele>1191.4791</ele>
        <time>2015-08-20T10:00:21Z</time>
      </trkpt>
      <trkpt lat="45.57489" lon="6.69367">
        <ele>1191.4791</ele>
        <time>2015-08-20T10:00:26Z</time>
      </trkpt>
      <trkpt lat="45.57489" lon="6.69367">
        <ele>1189.5243</ele>
        <time>2015-08-20T10:00:36Z</time>
      </trkpt>
      <trkpt lat="45.57488" lon="6.69368">
        <ele>1189.5243</ele>
        <time>2015-08-20T10:00:41Z</time>
      </trkpt>
      <trkpt lat="45.57482" lon="6.69371">
        <ele>1189.5243</ele>
        <time>2015-08-20T10:00:51Z</time>
      </trkpt>
      <trkpt lat="45.57476" lon="6.69369">
        <ele>1187.5958</ele>
        <time>2015-08-20T10:00:56Z</time>
      </trkpt>
      <trkpt lat="45.57467" lon="6.69368">
        <ele>1187.5958</ele>
        <time>2015-08-20T10:01:06Z</time>
      </trkpt>
      <trkpt lat="45.57463" lon="6.69367">
        <ele>1185.877</ele>
        <time>2015-08-20T10:01:11Z</time>
      </trkpt>
      <trkpt lat="45.57454" lon="6.69366">
        <ele>1185.877</ele>
        <time>2015-08-20T10:01:21Z</time>
      </trkpt>
      <trkpt lat="45.57451" lon="6.69365">
        <ele>1184.1765</ele>
        <time>2015-08-20T10:01:26Z</time>
      </trkpt>
      <trkpt lat="45.57448" lon="6.69367">
        <ele>1184.1765</ele>
        <time>2015-08-20T10:01:36Z</time>
      </trkpt>
      <trkpt lat="45.57446" lon="6.69362">
        <ele>1184.1765</ele>
        <time>2015-08-20T10:01:41Z</time>
      </trkpt>
      <trkpt lat="45.57443" lon="6.69348">
        <ele>1181.9717</ele>
        <time>2015-08-20T10:01:56Z</time>
      </trkpt>
      <trkpt lat="45.57442" lon="6.69345">
        <ele>1181.9717</ele>
        <time>2015-08-20T10:02:01Z</time>
      </trkpt>
      <trkpt lat="45.57437" lon="6.69334">
        <ele>1179.7161</ele>
        <time>2015-08-20T10:02:11Z</time>
      </trkpt>
      <trkpt lat="45.57435" lon="6.69328">
        <ele>1179.7161</ele>
        <time>2015-08-20T10:02:16Z</time>
      </trkpt>
      <trkpt lat="45.57429" lon="6.6932">
        <ele>1177.6141</ele>
        <time>2015-08-20T10:02:26Z</time>
      </trkpt>
      <trkpt lat="45.57427" lon="6.69323">
        <ele>1177.6141</ele>
        <time>2015-08-20T10:02:31Z</time>
      </trkpt>
      <trkpt lat="45.57424" lon="6.69329">
        <ele>1177.6141</ele>
        <time>2015-08-20T10:02:41Z</time>
      </trkpt>
      <trkpt lat="45.57425" lon="6.69329">
        <ele>1175.552</ele>
        <time>2015-08-20T10:02:46Z</time>
      </trkpt>
      <trkpt lat="45.57425" lon="6.6932">
        <ele>1175.552</ele>
        <time>2015-08-20T10:02:56Z</time>
      </trkpt>
      <trkpt lat="45.57424" lon="6.69312">
        <ele>1173.7559</ele>
        <time>2015-08-20T10:03:01Z</time>
      </trkpt>
      <trkpt lat="45.57419" lon="6.69305">
        <ele>1173.7559</ele>
        <time>2015-08-20T10:03:11Z</time>
      </trkpt>
      <trkpt lat="45.57414" lon="6.69305">
        <ele>1172.0598</ele>
        <time>2015-08-20T10:03:16Z</time>
      </trkpt>
      <trkpt lat="45.57405" lon="6.69308">
        <ele>1170.5259</ele>
        <time>2015-08-20T10:03:26Z</time>
      </trkpt>
      <trkpt lat="45.57403" lon="6.69313">
        <ele>1170.5259</ele>
        <time>2015-08-20T10:03:31Z</time>
      </trkpt>
      <trkpt lat="45.57399" lon="6.69325">
        <ele>1169.0674</ele>
        <time>2015-08-20T10:03:41Z</time>
      </trkpt>
      <trkpt lat="45.57398" lon="6.69332">
        <ele>1169.0674</ele>
        <time>2015-08-20T10:03:46Z</time>
      </trkpt>
      <trkpt lat="45.57397" lon="6.69346">
        <ele>1167.5746</ele>
        <time>2015-08-20T10:03:56Z</time>
      </trkpt>
      <trkpt lat="45.57396" lon="6.69354">
        <ele>1167.5746</ele>
        <time>2015-08-20T10:04:01Z</time>
      </trkpt>
      <trkpt lat="45.57392" lon="6.69373">
        <ele>1165.8453</ele>
        <time>2015-08-20T10:04:16Z</time>
      </trkpt>
      <trkpt lat="45.57386" lon="6.69371">
        <ele>1165.8453</ele>
        <time>2015-08-20T10:04:21Z</time>
      </trkpt>
      <trkpt lat="45.57379" lon="6.69366">
        <ele>1164.0535</ele>
        <time>2015-08-20T10:04:31Z</time>
      </trkpt>
      <trkpt lat="45.57376" lon="6.69365">
        <ele>1164.0535</ele>
        <time>2015-08-20T10:04:36Z</time>
      </trkpt>
      <trkpt lat="45.57369" lon="6.69359">
        <ele>1162.0286</ele>
        <time>2015-08-20T10:04:46Z</time>
      </trkpt>
      <trkpt lat="45.57365" lon="6.69355">
        <ele>1162.0286</ele>
        <time>2015-08-20T10:04:51Z</time>
      </trkpt>
      <trkpt lat="45.57358" lon="6.69341">
        <ele>1159.8875</ele>
        <time>2015-08-20T10:05:01Z</time>
      </trkpt>
      <trkpt lat="45.57355" lon="6.69338">
        <ele>1159.8875</ele>
        <time>2015-08-20T10:05:06Z</time>
      </trkpt>
      <trkpt lat="45.57348" lon="6.69329">
        <ele>1157.6809</ele>
        <time>2015-08-20T10:05:16Z</time>
      </trkpt>
      <trkpt lat="45.57344" lon="6.69325">
        <ele>1157.6809</ele>
        <time>2015-08-20T10:05:21Z</time>
      </trkpt>
      <trkpt lat="45.57334" lon="6.69326">
        <ele>1155.298</ele>
        <time>2015-08-20T10:05:31Z</time>
      </trkpt>
      <trkpt lat="45.5733" lon="6.69324">
        <ele>1155.298</ele>
        <time>2015-08-20T10:05:36Z</time>
      </trkpt>
      <trkpt lat="45.5732" lon="6.69321">
        <ele>1152.7659</ele>
        <time>2015-08-20T10:05:51Z</time>
      </trkpt>
      <trkpt lat="45.57315" lon="6.69323">
        <ele>1152.7659</ele>
        <time>2015-08-20T10:05:56Z</time>
      </trkpt>
      <trkpt lat="45.57306" lon="6.69319">
        <ele>1150.0815</ele>
        <time>2015-08-20T10:06:06Z</time>
      </trkpt>
      <trkpt lat="45.57301" lon="6.69313">
        <ele>1150.0815</ele>
        <time>2015-08-20T10:06:11Z</time>
      </trkpt>
      <trkpt lat="45.57296" lon="6.69302">
        <ele>1147.2283</ele>
        <time>2015-08-20T10:06:21Z</time>
      </trkpt>
      <trkpt lat="45.57293" lon="6.69295">
        <ele>1147.2283</ele>
        <time>2015-08-20T10:06:26Z</time>
      </trkpt>
      <trkpt lat="45.57287" lon="6.69286">
        <ele>1144.292</ele>
        <time>2015-08-20T10:06:36Z</time>
      </trkpt>
      <trkpt lat="45.57282" lon="6.69283">
        <ele>1144.292</ele>
        <time>2015-08-20T10:06:41Z</time>
      </trkpt>
      <trkpt lat="45.57275" lon="6.69284">
        <ele>1141.3525</ele>
        <time>2015-08-20T10:06:51Z</time>
      </trkpt>
      <trkpt lat="45.57273" lon="6.6928">
        <ele>1141.3525</ele>
        <time>2015-08-20T10:06:56Z</time>
      </trkpt>
      <trkpt lat="45.57267" lon="6.69284">
        <ele>1138.354</ele>
        <time>2015-08-20T10:07:06Z</time>
      </trkpt>
      <trkpt lat="45.57264" lon="6.69284">
        <ele>1138.354</ele>
        <time>2015-08-20T10:07:11Z</time>
      </trkpt>
      <trkpt lat="45.57263" lon="6.69285">
        <ele>1138.354</ele>
        <time>2015-08-20T10:07:26Z</time>
      </trkpt>
      <trkpt lat="45.57261" lon="6.69289">
        <ele>1138.354</ele>
        <time>2015-08-20T10:07:31Z</time>
      </trkpt>
      <trkpt lat="45.5725" lon="6.69298">
        <ele>1134.885</ele>
        <time>2015-08-20T10:07:41Z</time>
      </trkpt>
      <trkpt lat="45.57247" lon="6.69303">
        <ele>1134.885</ele>
        <time>2015-08-20T10:07:46Z</time>
      </trkpt>
      <trkpt lat="45.57242" lon="6.69317">
        <ele>1131.4586</ele>
        <time>2015-08-20T10:07:56Z</time>
      </trkpt>
      <trkpt lat="45.5724" lon="6.69324">
        <ele>1131.4586</ele>
        <time>2015-08-20T10:08:01Z</time>
      </trkpt>
      <trkpt lat="45.5724" lon="6.69338">
        <ele>1127.9885</ele>
        <time>2015-08-20T10:08:11Z</time>
      </trkpt>
      <trkpt lat="45.57237" lon="6.69344">
        <ele>1127.9885</ele>
        <time>2015-08-20T10:08:16Z</time>
      </trkpt>
      <trkpt lat="45.57236" lon="6.69356">
        <ele>1124.3658</ele>
        <time>2015-08-20T10:08:26Z</time>
      </trkpt>
      <trkpt lat="45.57234" lon="6.69365">
        <ele>1124.3658</ele>
        <time>2015-08-20T10:08:31Z</time>
      </trkpt>
      <trkpt lat="45.57232" lon="6.69378">
        <ele>1120.7063</ele>
        <time>2015-08-20T10:08:41Z</time>
      </trkpt>
      <trkpt lat="45.57233" lon="6.69381">
        <ele>1120.7063</ele>
        <time>2015-08-20T10:08:46Z</time>
      </trkpt>
      <trkpt lat="45.57231" lon="6.69393">
        <ele>1116.9299</ele>
        <time>2015-08-20T10:08:56Z</time>
      </trkpt>
      <trkpt lat="45.5723" lon="6.69404">
        <ele>1116.9299</ele>
        <time>2015-08-20T10:09:01Z</time>
      </trkpt>
      <trkpt lat="45.57231" lon="6.69417">
        <ele>1113.323</ele>
        <time>2015-08-20T10:09:11Z</time>
      </trkpt>
      <trkpt lat="45.5723" lon="6.69422">
        <ele>1113.323</ele>
        <time>2015-08-20T10:09:16Z</time>
      </trkpt>
      <trkpt lat="45.5723" lon="6.69436">
        <ele>1109.963</ele>
        <time>2015-08-20T10:09:26Z</time>
      </trkpt>
      <trkpt lat="45.57231" lon="6.69443">
        <ele>1109.963</ele>
        <time>2015-08-20T10:09:31Z</time>
      </trkpt>
      <trkpt lat="45.57232" lon="6.6946">
        <ele>1106.5465</ele>
        <time>2015-08-20T10:09:41Z</time>
      </trkpt>
      <trkpt lat="45.57233" lon="6.69465">
        <ele>1106.5465</ele>
        <time>2015-08-20T10:09:46Z</time>
      </trkpt>
      <trkpt lat="45.57233" lon="6.6949">
        <ele>1102.9506</ele>
        <time>2015-08-20T10:10:01Z</time>
      </trkpt>
      <trkpt lat="45.57236" lon="6.695">
        <ele>1102.9506</ele>
        <time>2015-08-20T10:10:06Z</time>
      </trkpt>
      <trkpt lat="45.57238" lon="6.69513">
        <ele>1099.4946</ele>
        <time>2015-08-20T10:10:16Z</time>
      </trkpt>
      <trkpt lat="45.57243" lon="6.69515">
        <ele>1099.4946</ele>
        <time>2015-08-20T10:10:21Z</time>
      </trkpt>
      <trkpt lat="45.57246" lon="6.69527">
        <ele>1096.2141</ele>
        <time>2015-08-20T10:10:31Z</time>
      </trkpt>
      <trkpt lat="45.57246" lon="6.69535">
        <ele>1096.2141</ele>
        <time>2015-08-20T10:10:36Z</time>
      </trkpt>
      <trkpt lat="45.57246" lon="6.69551">
        <ele>1093.2284</ele>
        <time>2015-08-20T10:10:46Z</time>
      </trkpt>
      <trkpt lat="45.57248" lon="6.69557">
        <ele>1093.2284</ele>
        <time>2015-08-20T10:10:51Z</time>
      </trkpt>
      <trkpt lat="45.57255" lon="6.69566">
        <ele>1090.4451</ele>
        <time>2015-08-20T10:11:01Z</time>
      </trkpt>
      <trkpt lat="45.57259" lon="6.69576">
        <ele>1090.4451</ele>
        <time>2015-08-20T10:11:06Z</time>
      </trkpt>
      <trkpt lat="45.57264" lon="6.69587">
        <ele>1087.7634</ele>
        <time>2015-08-20T10:11:16Z</time>
      </trkpt>
      <trkpt lat="45.57266" lon="6.69593">
        <ele>1087.7634</ele>
        <time>2015-08-20T10:11:21Z</time>
      </trkpt>
      <trkpt lat="45.57265" lon="6.69591">
        <ele>1087.7634</ele>
        <time>2015-08-20T10:11:31Z</time>
      </trkpt>
      <trkpt lat="45.57266" lon="6.69592">
        <ele>1087.7634</ele>
        <time>2015-08-20T10:11:36Z</time>
      </trkpt>
      <trkpt lat="45.57266" lon="6.69588">
        <ele>1087.7634</ele>
        <time>2015-08-20T10:11:46Z</time>
      </trkpt>
      <trkpt lat="45.57267" lon="6.69588">
        <ele>1085.0468</ele>
        <time>2015-08-20T10:11:51Z</time>
      </trkpt>
      <trkpt lat="45.57278" lon="6.69607">
        <ele>1082.3557</ele>
        <time>2015-08-20T10:12:06Z</time>
      </trkpt>
      <trkpt lat="45.57281" lon="6.69613">
        <ele>1082.3557</ele>
        <time>2015-08-20T10:12:11Z</time>
      </trkpt>
      <trkpt lat="45.57288" lon="6.69625">
        <ele>1079.7753</ele>
        <time>2015-08-20T10:12:21Z</time>
      </trkpt>
      <trkpt lat="45.57294" lon="6.69632">
        <ele>1079.7753</ele>
        <time>2015-08-20T10:12:26Z</time>
      </trkpt>
      <trkpt lat="45.57306" lon="6.69641">
        <ele>1077.3693</ele>
        <time>2015-08-20T10:12:36Z</time>
      </trkpt>
      <trkpt lat="45.57309" lon="6.69645">
        <ele>1077.3693</ele>
        <time>2015-08-20T10:12:41Z</time>
      </trkpt>
      <trkpt lat="45.57309" lon="6.69658">
        <ele>1075.1818</ele>
        <time>2015-08-20T10:12:51Z</time>
      </trkpt>
      <trkpt lat="45.57308" lon="6.69666">
        <ele>1075.1818</ele>
        <time>2015-08-20T10:12:56Z</time>
      </trkpt>
      <trkpt lat="45.57308" lon="6.69666">
        <ele>1075.1818</ele>
        <time>2015-08-20T10:13:06Z</time>
      </trkpt>
      <trkpt lat="45.57298" lon="6.69656">
        <ele>1073.21</ele>
        <time>2015-08-20T10:13:36Z</time>
      </trkpt>
      <trkpt lat="45.57294" lon="6.69651">
        <ele>1073.21</ele>
        <time>2015-08-20T10:13:41Z</time>
      </trkpt>
      <trkpt lat="45.57289" lon="6.69659">
        <ele>1071.22</ele>
        <time>2015-08-20T10:13:56Z</time>
      </trkpt>
      <trkpt lat="45.57288" lon="6.6967">
        <ele>1071.22</ele>
        <time>2015-08-20T10:14:01Z</time>
      </trkpt>
      <trkpt lat="45.5729" lon="6.69686">
        <ele>1069.0383</ele>
        <time>2015-08-20T10:14:11Z</time>
      </trkpt>
      <trkpt lat="45.5729" lon="6.69693">
        <ele>1069.0383</ele>
        <time>2015-08-20T10:14:16Z</time>
      </trkpt>
      <trkpt lat="45.57293" lon="6.69707">
        <ele>1066.5624</ele>
        <time>2015-08-20T10:14:26Z</time>
      </trkpt>
      <trkpt lat="45.57294" lon="6.69712">
        <ele>1066.5624</ele>
        <time>2015-08-20T10:14:31Z</time>
      </trkpt>
      <trkpt lat="45.57296" lon="6.69719">
        <ele>1066.5624</ele>
        <time>2015-08-20T10:14:41Z</time>
      </trkpt>
      <trkpt lat="45.57298" lon="6.69725">
        <ele>1064.0006</ele>
        <time>2015-08-20T10:14:46Z</time>
      </trkpt>
      <trkpt lat="45.57305" lon="6.69742">
        <ele>1061.5607</ele>
        <time>2015-08-20T10:14:56Z</time>
      </trkpt>
      <trkpt lat="45.57308" lon="6.69751">
        <ele>1061.5607</ele>
        <time>2015-08-20T10:15:01Z</time>
      </trkpt>
      <trkpt lat="45.57318" lon="6.69759">
        <ele>1059.0311</ele>
        <time>2015-08-20T10:15:11Z</time>
      </trkpt>
      <trkpt lat="45.5732" lon="6.69767">
        <ele>1059.0311</ele>
        <time>2015-08-20T10:15:16Z</time>
      </trkpt>
      <trkpt lat="45.5732" lon="6.6978">
        <ele>1056.7642</ele>
        <time>2015-08-20T10:15:26Z</time>
      </trkpt>
      <trkpt lat="45.5732" lon="6.69788">
        <ele>1056.7642</ele>
        <time>2015-08-20T10:15:31Z</time>
      </trkpt>
      <trkpt lat="45.57318" lon="6.69804">
        <ele>1054.6238</ele>
        <time>2015-08-20T10:15:41Z</time>
      </trkpt>
      <trkpt lat="45.57316" lon="6.6981">
        <ele>1054.6238</ele>
        <time>2015-08-20T10:15:46Z</time>
      </trkpt>
      <trkpt lat="45.57312" lon="6.69818">
        <ele>1052.6282</ele>
        <time>2015-08-20T10:15:56Z</time>
      </trkpt>
      <trkpt lat="45.57308" lon="6.69826">
        <ele>1052.6282</ele>
        <time>2015-08-20T10:16:01Z</time>
      </trkpt>
      <trkpt lat="45.57312" lon="6.69845">
        <ele>1050.8511</ele>
        <time>2015-08-20T10:16:16Z</time>
      </trkpt>
      <trkpt lat="45.57315" lon="6.6985">
        <ele>1050.8511</ele>
        <time>2015-08-20T10:16:21Z</time>
      </trkpt>
      <trkpt lat="45.57324" lon="6.69856">
        <ele>1049.3461</ele>
        <time>2015-08-20T10:16:31Z</time>
      </trkpt>
      <trkpt lat="45.57326" lon="6.69861">
        <ele>1049.3461</ele>
        <time>2015-08-20T10:16:36Z</time>
      </trkpt>
      <trkpt lat="45.57326" lon="6.69872">
        <ele>1048.0177</ele>
        <time>2015-08-20T10:16:46Z</time>
      </trkpt>
      <trkpt lat="45.5732" lon="6.69869">
        <ele>1048.0177</ele>
        <time>2015-08-20T10:16:51Z</time>
      </trkpt>
      <trkpt lat="45.57317" lon="6.69863">
        <ele>1046.2728</ele>
        <time>2015-08-20T10:17:01Z</time>
      </trkpt>
      <trkpt lat="45.57311" lon="6.69862">
        <ele>1046.2728</ele>
        <time>2015-08-20T10:17:06Z</time>
      </trkpt>
      <trkpt lat="45.57297" lon="6.69857">
        <ele>1044.3989</ele>
        <time>2015-08-20T10:17:16Z</time>
      </trkpt>
      <trkpt lat="45.57293" lon="6.69856">
        <ele>1044.3989</ele>
        <time>2015-08-20T10:17:21Z</time>
      </trkpt>
      <trkpt lat="45.57281" lon="6.6985">
        <ele>1042.5762</ele>
        <time>2015-08-20T10:17:31Z</time>
      </trkpt>
      <trkpt lat="45.57277" lon="6.69847">
        <ele>1042.5762</ele>
        <time>2015-08-20T10:17:36Z</time>
      </trkpt>
      <trkpt lat="45.57264" lon="6.69832">
        <ele>1040.5825</ele>
        <time>2015-08-20T10:17:46Z</time>
      </trkpt>
      <trkpt lat="45.57259" lon="6.69832">
        <ele>1040.5825</ele>
        <time>2015-08-20T10:17:51Z</time>
      </trkpt>
      <trkpt lat="45.57254" lon="6.69849">
        <ele>1038.6592</ele>
        <time>2015-08-20T10:18:01Z</time>
      </trkpt>
      <trkpt lat="45.57252" lon="6.69858">
        <ele>1038.6592</ele>
        <time>2015-08-20T10:18:06Z</time>
      </trkpt>
      <trkpt lat="45.5725" lon="6.69871">
        <ele>1036.7126</ele>
        <time>2015-08-20T10:18:16Z</time>
      </trkpt>
      <trkpt lat="45.57247" lon="6.69878">
        <ele>1036.7126</ele>
        <time>2015-08-20T10:18:21Z</time>
      </trkpt>
      <trkpt lat="45.57248" lon="6.69894">
        <ele>1034.8583</ele>
        <time>2015-08-20T10:18:31Z</time>
      </trkpt>
      <trkpt lat="45.5725" lon="6.69897">
        <ele>1034.8583</ele>
        <time>2015-08-20T10:18:36Z</time>
      </trkpt>
      <trkpt lat="45.57263" lon="6.69911">
        <ele>1032.8998</ele>
        <time>2015-08-20T10:18:51Z</time>
      </trkpt>
      <trkpt lat="45.57268" lon="6.69921">
        <ele>1032.8998</ele>
        <time>2015-08-20T10:18:56Z</time>
      </trkpt>
      <trkpt lat="45.57268" lon="6.69939">
        <ele>1031.1172</ele>
        <time>2015-08-20T10:19:06Z</time>
      </trkpt>
      <trkpt lat="45.57266" lon="6.69945">
        <ele>1031.1172</ele>
        <time>2015-08-20T10:19:11Z</time>
      </trkpt>
      <trkpt lat="45.57255" lon="6.69939">
        <ele>1029.3513</ele>
        <time>2015-08-20T10:19:21Z</time>
      </trkpt>
      <trkpt lat="45.57251" lon="6.69934">
        <ele>1029.3513</ele>
        <time>2015-08-20T10:19:26Z</time>
      </trkpt>
      <trkpt lat="45.57249" lon="6.6994">
        <ele>1027.2529</ele>
        <time>2015-08-20T10:19:36Z</time>
      </trkpt>
      <trkpt lat="45.57249" lon="6.69947">
        <ele>1027.2529</ele>
        <time>2015-08-20T10:19:41Z</time>
      </trkpt>
      <trkpt lat="45.57247" lon="6.69957">
        <ele>1024.6869</ele>
        <time>2015-08-20T10:19:51Z</time>
      </trkpt>
      <trkpt lat="45.57244" lon="6.69962">
        <ele>1024.6869</ele>
        <time>2015-08-20T10:19:56Z</time>
      </trkpt>
      <trkpt lat="45.57232" lon="6.69981">
        <ele>1021.78876</ele>
        <time>2015-08-20T10:20:06Z</time>
      </trkpt>
      <trkpt lat="45.5723" lon="6.69984">
        <ele>1021.78876</ele>
        <time>2015-08-20T10:20:11Z</time>
      </trkpt>
      <trkpt lat="45.5722" lon="6.69997">
        <ele>1019.04535</ele>
        <time>2015-08-20T10:20:21Z</time>
      </trkpt>
      <trkpt lat="45.57216" lon="6.70003">
        <ele>1019.04535</ele>
        <time>2015-08-20T10:20:26Z</time>
      </trkpt>
      <trkpt lat="45.57215" lon="6.70016">
        <ele>1016.4749</ele>
        <time>2015-08-20T10:20:36Z</time>
      </trkpt>
      <trkpt lat="45.57216" lon="6.70021">
        <ele>1016.4749</ele>
        <time>2015-08-20T10:20:41Z</time>
      </trkpt>
      <trkpt lat="45.57215" lon="6.70043">
        <ele>1013.3304</ele>
        <time>2015-08-20T10:20:56Z</time>
      </trkpt>
      <trkpt lat="45.57214" lon="6.7005">
        <ele>1013.3304</ele>
        <time>2015-08-20T10:21:01Z</time>
      </trkpt>
      <trkpt lat="45.57213" lon="6.70065">
        <ele>1010.117</ele>
        <time>2015-08-20T10:21:11Z</time>
      </trkpt>
      <trkpt lat="45.57208" lon="6.70073">
        <ele>1010.117</ele>
        <time>2015-08-20T10:21:16Z</time>
      </trkpt>
      <trkpt lat="45.57209" lon="6.70087">
        <ele>1007.01514</ele>
        <time>2015-08-20T10:21:26Z</time>
      </trkpt>
      <trkpt lat="45.57211" lon="6.70095">
        <ele>1007.01514</ele>
        <time>2015-08-20T10:21:31Z</time>
      </trkpt>
      <trkpt lat="45.57213" lon="6.70109">
        <ele>1003.84564</ele>
        <time>2015-08-20T10:21:41Z</time>
      </trkpt>
      <trkpt lat="45.57214" lon="6.7012">
        <ele>1003.84564</ele>
        <time>2015-08-20T10:21:46Z</time>
      </trkpt>
      <trkpt lat="45.57213" lon="6.70135">
        <ele>1000.67334</ele>
        <time>2015-08-20T10:21:56Z</time>
      </trkpt>
      <trkpt lat="45.57215" lon="6.70139">
        <ele>1000.67334</ele>
        <time>2015-08-20T10:22:01Z</time>
      </trkpt>
      <trkpt lat="45.57215" lon="6.70152">
        <ele>997.7601</ele>
        <time>2015-08-20T10:22:11Z</time>
      </trkpt>
      <trkpt lat="45.57215" lon="6.70161">
        <ele>997.7601</ele>
        <time>2015-08-20T10:22:16Z</time>
      </trkpt>
      <trkpt lat="45.5722" lon="6.7018">
        <ele>995.0306</ele>
        <time>2015-08-20T10:22:26Z</time>
      </trkpt>
      <trkpt lat="45.57221" lon="6.7019">
        <ele>995.0306</ele>
        <time>2015-08-20T10:22:31Z</time>
      </trkpt>
      <trkpt lat="45.57221" lon="6.70204">
        <ele>992.52997</ele>
        <time>2015-08-20T10:22:41Z</time>
      </trkpt>
      <trkpt lat="45.57222" lon="6.70212">
        <ele>992.52997</ele>
        <time>2015-08-20T10:22:46Z</time>
      </trkpt>
      <trkpt lat="45.57225" lon="6.70226">
        <ele>990.18414</ele>
        <time>2015-08-20T10:22:56Z</time>
      </trkpt>
      <trkpt lat="45.57226" lon="6.70234">
        <ele>990.18414</ele>
        <time>2015-08-20T10:23:01Z</time>
      </trkpt>
      <trkpt lat="45.57228" lon="6.70252">
        <ele>987.9527</ele>
        <time>2015-08-20T10:23:11Z</time>
      </trkpt>
      <trkpt lat="45.5723" lon="6.70259">
        <ele>987.9527</ele>
        <time>2015-08-20T10:23:16Z</time>
      </trkpt>
      <trkpt lat="45.57229" lon="6.70271">
        <ele>985.95654</ele>
        <time>2015-08-20T10:23:26Z</time>
      </trkpt>
      <trkpt lat="45.57227" lon="6.7028">
        <ele>985.95654</ele>
        <time>2015-08-20T10:23:31Z</time>
      </trkpt>
      <trkpt lat="45.57223" lon="6.70295">
        <ele>984.0331</ele>
        <time>2015-08-20T10:23:41Z</time>
      </trkpt>
      <trkpt lat="45.57222" lon="6.70302">
        <ele>984.0331</ele>
        <time>2015-08-20T10:23:46Z</time>
      </trkpt>
      <trkpt lat="45.57224" lon="6.70324">
        <ele>982.10364</ele>
        <time>2015-08-20T10:24:01Z</time>
      </trkpt>
      <trkpt lat="45.57224" lon="6.7033">
        <ele>982.10364</ele>
        <time>2015-08-20T10:24:06Z</time>
      </trkpt>
      <trkpt lat="45.57222" lon="6.70343">
        <ele>980.15283</ele>
        <time>2015-08-20T10:24:16Z</time>
      </trkpt>
      <trkpt lat="45.57222" lon="6.70349">
        <ele>980.15283</ele>
        <time>2015-08-20T10:24:21Z</time>
      </trkpt>
      <trkpt lat="45.57224" lon="6.70362">
        <ele>978.10895</ele>
        <time>2015-08-20T10:24:31Z</time>
      </trkpt>
      <trkpt lat="45.57226" lon="6.70368">
        <ele>978.10895</ele>
        <time>2015-08-20T10:24:36Z</time>
      </trkpt>
      <trkpt lat="45.57228" lon="6.70376">
        <ele>976.00665</ele>
        <time>2015-08-20T10:24:46Z</time>
      </trkpt>
      <trkpt lat="45.5723" lon="6.70381">
        <ele>976.00665</ele>
        <time>2015-08-20T10:24:51Z</time>
      </trkpt>
      <trkpt lat="45.57236" lon="6.70392">
        <ele>974.1088</ele>
        <time>2015-08-20T10:25:01Z</time>
      </trkpt>
      <trkpt lat="45.57238" lon="6.70398">
        <ele>974.1088</ele>
        <time>2015-08-20T10:25:06Z</time>
      </trkpt>
      <trkpt lat="45.57246" lon="6.70407">
        <ele>972.37024</ele>
        <time>2015-08-20T10:25:16Z</time>
      </trkpt>
      <trkpt lat="45.57248" lon="6.70408">
        <ele>972.37024</ele>
        <time>2015-08-20T10:25:21Z</time>
      </trkpt>
      <trkpt lat="45.5725" lon="6.70418">
        <ele>970.6909</ele>
        <time>2015-08-20T10:25:31Z</time>
      </trkpt>
      <trkpt lat="45.57253" lon="6.70422">
        <ele>970.6909</ele>
        <time>2015-08-20T10:25:36Z</time>
      </trkpt>
      <trkpt lat="45.57258" lon="6.7043">
        <ele>969.2663</ele>
        <time>2015-08-20T10:25:51Z</time>
      </trkpt>
      <trkpt lat="45.57258" lon="6.70434">
        <ele>969.2663</ele>
        <time>2015-08-20T10:25:56Z</time>
      </trkpt>
      <trkpt lat="45.57259" lon="6.70446">
        <ele>967.9453</ele>
        <time>2015-08-20T10:26:06Z</time>
      </trkpt>
      <trkpt lat="45.57261" lon="6.70451">
        <ele>967.9453</ele>
        <time>2015-08-20T10:26:11Z</time>
      </trkpt>
      <trkpt lat="45.57264" lon="6.70454">
        <ele>967.9453</ele>
        <time>2015-08-20T10:26:21Z</time>
      </trkpt>
      <trkpt lat="45.57265" lon="6.70454">
        <ele>967.9453</ele>
        <time>2015-08-20T10:26:26Z</time>
      </trkpt>
      <trkpt lat="45.5727" lon="6.70458">
        <ele>966.7318</ele>
        <time>2015-08-20T10:26:36Z</time>
      </trkpt>
      <trkpt lat="45.57271" lon="6.70462">
        <ele>966.7318</ele>
        <time>2015-08-20T10:26:41Z</time>
      </trkpt>
      <trkpt lat="45.57274" lon="6.70475">
        <ele>965.6293</ele>
        <time>2015-08-20T10:26:51Z</time>
      </trkpt>
      <trkpt lat="45.57275" lon="6.7048">
        <ele>965.6293</ele>
        <time>2015-08-20T10:26:56Z</time>
      </trkpt>
      <trkpt lat="45.5728" lon="6.70484">
        <ele>964.453</ele>
        <time>2015-08-20T10:27:06Z</time>
      </trkpt>
      <trkpt lat="45.57283" lon="6.70488">
        <ele>964.453</ele>
        <time>2015-08-20T10:27:11Z</time>
      </trkpt>
      <trkpt lat="45.5729" lon="6.70497">
        <ele>963.3062</ele>
        <time>2015-08-20T10:27:21Z</time>
      </trkpt>
      <trkpt lat="45.57292" lon="6.70503">
        <ele>963.3062</ele>
        <time>2015-08-20T10:27:26Z</time>
      </trkpt>
      <trkpt lat="45.57297" lon="6.70513">
        <ele>962.0971</ele>
        <time>2015-08-20T10:27:36Z</time>
      </trkpt>
      <trkpt lat="45.57295" lon="6.70518">
        <ele>962.0971</ele>
        <time>2015-08-20T10:27:41Z</time>
      </trkpt>
      <trkpt lat="45.57294" lon="6.70526">
        <ele>960.611</ele>
        <time>2015-08-20T10:27:51Z</time>
      </trkpt>
      <trkpt lat="45.57294" lon="6.70532">
        <ele>960.611</ele>
        <time>2015-08-20T10:27:56Z</time>
      </trkpt>
      <trkpt lat="45.5729" lon="6.7055">
        <ele>958.5059</ele>
        <time>2015-08-20T10:28:11Z</time>
      </trkpt>
      <trkpt lat="45.57289" lon="6.70556">
        <ele>958.5059</ele>
        <time>2015-08-20T10:28:16Z</time>
      </trkpt>
      <trkpt lat="45.57282" lon="6.70566">
        <ele>955.8414</ele>
        <time>2015-08-20T10:28:26Z</time>
      </trkpt>
      <trkpt lat="45.57279" lon="6.70572">
        <ele>955.8414</ele>
        <time>2015-08-20T10:28:31Z</time>
      </trkpt>
      <trkpt lat="45.57275" lon="6.70581">
        <ele>952.9191</ele>
        <time>2015-08-20T10:28:41Z</time>
      </trkpt>
      <trkpt lat="45.57273" lon="6.70587">
        <ele>952.9191</ele>
        <time>2015-08-20T10:28:46Z</time>
      </trkpt>
      <trkpt lat="45.57269" lon="6.70598">
        <ele>949.87555</ele>
        <time>2015-08-20T10:28:56Z</time>
      </trkpt>
      <trkpt lat="45.57268" lon="6.70603">
        <ele>949.87555</ele>
        <time>2015-08-20T10:29:01Z</time>
      </trkpt>
      <trkpt lat="45.57271" lon="6.70618">
        <ele>946.89484</ele>
        <time>2015-08-20T10:29:11Z</time>
      </trkpt>
      <trkpt lat="45.57276" lon="6.70627">
        <ele>946.89484</ele>
        <time>2015-08-20T10:29:16Z</time>
      </trkpt>
      <trkpt lat="45.57278" lon="6.70641">
        <ele>944.1045</ele>
        <time>2015-08-20T10:29:26Z</time>
      </trkpt>
      <trkpt lat="45.57278" lon="6.70646">
        <ele>944.1045</ele>
        <time>2015-08-20T10:29:31Z</time>
      </trkpt>
      <trkpt lat="45.57277" lon="6.70656">
        <ele>941.57874</ele>
        <time>2015-08-20T10:29:41Z</time>
      </trkpt>
      <trkpt lat="45.57275" lon="6.70664">
        <ele>941.57874</ele>
        <time>2015-08-20T10:29:46Z</time>
      </trkpt>
      <trkpt lat="45.57274" lon="6.70671">
        <ele>939.1263</ele>
        <time>2015-08-20T10:29:56Z</time>
      </trkpt>
      <trkpt lat="45.57273" lon="6.70674">
        <ele>939.1263</ele>
        <time>2015-08-20T10:30:01Z</time>
      </trkpt>
      <trkpt lat="45.5727" lon="6.70683">
        <ele>936.82916</ele>
        <time>2015-08-20T10:30:11Z</time>
      </trkpt>
      <trkpt lat="45.57268" lon="6.70686">
        <ele>936.82916</ele>
        <time>2015-08-20T10:30:16Z</time>
      </trkpt>
      <trkpt lat="45.57269" lon="6.70696">
        <ele>934.6187</ele>
        <time>2015-08-20T10:30:26Z</time>
      </trkpt>
      <trkpt lat="45.57269" lon="6.707">
        <ele>934.6187</ele>
        <time>2015-08-20T10:30:31Z</time>
      </trkpt>
      <trkpt lat="45.57264" lon="6.70687">
        <ele>932.28705</ele>
        <time>2015-08-20T10:30:46Z</time>
      </trkpt>
      <trkpt lat="45.57264" lon="6.70686">
        <ele>932.28705</ele>
        <time>2015-08-20T10:30:51Z</time>
      </trkpt>
      <trkpt lat="45.57259" lon="6.70676">
        <ele>929.90125</ele>
        <time>2015-08-20T10:31:01Z</time>
      </trkpt>
      <trkpt lat="45.57254" lon="6.7067">
        <ele>929.90125</ele>
        <time>2015-08-20T10:31:06Z</time>
      </trkpt>
      <trkpt lat="45.57249" lon="6.7066">
        <ele>927.4805</ele>
        <time>2015-08-20T10:31:16Z</time>
      </trkpt>
      <trkpt lat="45.57245" lon="6.70657">
        <ele>927.4805</ele>
        <time>2015-08-20T10:31:21Z</time>
      </trkpt>
      <trkpt lat="45.57239" lon="6.70649">
        <ele>924.9706</ele>
        <time>2015-08-20T10:31:31Z</time>
      </trkpt>
      <trkpt lat="45.57234" lon="6.70643">
        <ele>924.9706</ele>
        <time>2015-08-20T10:31:36Z</time>
      </trkpt>
      <trkpt lat="45.57226" lon="6.70638">
        <ele>922.3358</ele>
        <time>2015-08-20T10:31:46Z</time>
      </trkpt>
      <trkpt lat="45.57223" lon="6.70636">
        <ele>922.3358</ele>
        <time>2015-08-20T10:31:51Z</time>
      </trkpt>
      <trkpt lat="45.57213" lon="6.70633">
        <ele>919.5435</ele>
        <time>2015-08-20T10:32:01Z</time>
      </trkpt>
      <trkpt lat="45.57208" lon="6.70632">
        <ele>919.5435</ele>
        <time>2015-08-20T10:32:06Z</time>
      </trkpt>
      <trkpt lat="45.57204" lon="6.70626">
        <ele>916.78015</ele>
        <time>2015-08-20T10:32:16Z</time>
      </trkpt>
      <trkpt lat="45.57201" lon="6.70629">
        <ele>916.78015</ele>
        <time>2015-08-20T10:32:21Z</time>
      </trkpt>
      <trkpt lat="45.57203" lon="6.70645">
        <ele>913.8291</ele>
        <time>2015-08-20T10:32:36Z</time>
      </trkpt>
      <trkpt lat="45.57203" lon="6.70652">
        <ele>913.8291</ele>
        <time>2015-08-20T10:32:41Z</time>
      </trkpt>
      <trkpt lat="45.57201" lon="6.70661">
        <ele>910.70636</ele>
        <time>2015-08-20T10:32:51Z</time>
      </trkpt>
      <trkpt lat="45.57203" lon="6.70664">
        <ele>910.70636</ele>
        <time>2015-08-20T10:32:56Z</time>
      </trkpt>
      <trkpt lat="45.57203" lon="6.70672">
        <ele>910.70636</ele>
        <time>2015-08-20T10:33:06Z</time>
      </trkpt>
      <trkpt lat="45.57205" lon="6.70681">
        <ele>906.96625</ele>
        <time>2015-08-20T10:33:11Z</time>
      </trkpt>
      <trkpt lat="45.57206" lon="6.70693">
        <ele>906.96625</ele>
        <time>2015-08-20T10:33:21Z</time>
      </trkpt>
      <trkpt lat="45.57203" lon="6.70704">
        <ele>903.35016</ele>
        <time>2015-08-20T10:33:26Z</time>
      </trkpt>
      <trkpt lat="45.57202" lon="6.70719">
        <ele>900.15564</ele>
        <time>2015-08-20T10:33:36Z</time>
      </trkpt>
      <trkpt lat="45.57202" lon="6.70723">
        <ele>900.15564</ele>
        <time>2015-08-20T10:33:41Z</time>
      </trkpt>
      <trkpt lat="45.57201" lon="6.70735">
        <ele>897.2105</ele>
        <time>2015-08-20T10:33:51Z</time>
      </trkpt>
      <trkpt lat="45.57201" lon="6.70743">
        <ele>897.2105</ele>
        <time>2015-08-20T10:33:56Z</time>
      </trkpt>
      <trkpt lat="45.572" lon="6.70755">
        <ele>894.29663</ele>
        <time>2015-08-20T10:34:06Z</time>
      </trkpt>
      <trkpt lat="45.57201" lon="6.70759">
        <ele>894.29663</ele>
        <time>2015-08-20T10:34:11Z</time>
      </trkpt>
      <trkpt lat="45.57205" lon="6.7078">
        <ele>891.4713</ele>
        <time>2015-08-20T10:34:26Z</time>
      </trkpt>
      <trkpt lat="45.57204" lon="6.70783">
        <ele>891.4713</ele>
        <time>2015-08-20T10:34:31Z</time>
      </trkpt>
      <trkpt lat="45.57197" lon="6.70788">
        <ele>888.9746</ele>
        <time>2015-08-20T10:34:41Z</time>
      </trkpt>
      <trkpt lat="45.57193" lon="6.70787">
        <ele>888.9746</ele>
        <time>2015-08-20T10:34:46Z</time>
      </trkpt>
      <trkpt lat="45.57185" lon="6.70785">
        <ele>886.65326</ele>
        <time>2015-08-20T10:34:56Z</time>
      </trkpt>
      <trkpt lat="45.57182" lon="6.70784">
        <ele>886.65326</ele>
        <time>2015-08-20T10:35:01Z</time>
      </trkpt>
      <trkpt lat="45.57173" lon="6.70783">
        <ele>884.30725</ele>
        <time>2015-08-20T10:35:11Z</time>
      </trkpt>
      <trkpt lat="45.57169" lon="6.70783">
        <ele>884.30725</ele>
        <time>2015-08-20T10:35:16Z</time>
      </trkpt>
      <trkpt lat="45.57165" lon="6.70779">
        <ele>884.30725</ele>
        <time>2015-08-20T10:35:26Z</time>
      </trkpt>
      <trkpt lat="45.57159" lon="6.70778">
        <ele>881.8951</ele>
        <time>2015-08-20T10:35:31Z</time>
      </trkpt>
      <trkpt lat="45.57151" lon="6.70776">
        <ele>881.8951</ele>
        <time>2015-08-20T10:35:41Z</time>
      </trkpt>
      <trkpt lat="45.57146" lon="6.70776">
        <ele>879.5228</ele>
        <time>2015-08-20T10:35:46Z</time>
      </trkpt>
      <trkpt lat="45.57141" lon="6.70776">
        <ele>879.5228</ele>
        <time>2015-08-20T10:35:56Z</time>
      </trkpt>
      <trkpt lat="45.57138" lon="6.70779">
        <ele>877.05786</ele>
        <time>2015-08-20T10:36:01Z</time>
      </trkpt>
      <trkpt lat="45.57129" lon="6.70782">
        <ele>877.05786</ele>
        <time>2015-08-20T10:36:11Z</time>
      </trkpt>
      <trkpt lat="45.57126" lon="6.70784">
        <ele>874.4641</ele>
        <time>2015-08-20T10:36:16Z</time>
      </trkpt>
      <trkpt lat="45.57118" lon="6.70789">
        <ele>874.4641</ele>
        <time>2015-08-20T10:36:26Z</time>
      </trkpt>
      <trkpt lat="45.57115" lon="6.70792">
        <ele>871.7516</ele>
        <time>2015-08-20T10:36:31Z</time>
      </trkpt>
      <trkpt lat="45.57106" lon="6.708">
        <ele>869.0164</ele>
        <time>2015-08-20T10:36:46Z</time>
      </trkpt>
      <trkpt lat="45.57105" lon="6.70803">
        <ele>869.0164</ele>
        <time>2015-08-20T10:36:51Z</time>
      </trkpt>
      <trkpt lat="45.571" lon="6.70813">
        <ele>866.0306</ele>
        <time>2015-08-20T10:37:01Z</time>
      </trkpt>
      <trkpt lat="45.57098" lon="6.70817">
        <ele>866.0306</ele>
        <time>2015-08-20T10:37:06Z</time>
      </trkpt>
      <trkpt lat="45.57097" lon="6.70824">
        <ele>866.0306</ele>
        <time>2015-08-20T10:37:16Z</time>
      </trkpt>
      <trkpt lat="45.57096" lon="6.70825">
        <ele>862.9438</ele>
        <time>2015-08-20T10:37:21Z</time>
      </trkpt>
      <trkpt lat="45.57095" lon="6.70824">
        <ele>862.9438</ele>
        <time>2015-08-20T10:37:31Z</time>
      </trkpt>
      <trkpt lat="45.57095" lon="6.70824">
        <ele>862.9438</ele>
        <time>2015-08-20T10:37:36Z</time>
      </trkpt>
      <trkpt lat="45.57095" lon="6.70824">
        <ele>862.9438</ele>
        <time>2015-08-20T10:37:46Z</time>
      </trkpt>
      <trkpt lat="45.57093" lon="6.70832">
        <ele>862.9438</ele>
        <time>2015-08-20T10:38:01Z</time>
      </trkpt>
      <trkpt lat="45.57093" lon="6.70832">
        <ele>862.9438</ele>
        <time>2015-08-20T10:38:06Z</time>
      </trkpt>
      <trkpt lat="45.57093" lon="6.70836">
        <ele>859.46265</ele>
        <time>2015-08-20T10:38:16Z</time>
      </trkpt>
      <trkpt lat="45.57093" lon="6.70841">
        <ele>859.46265</ele>
        <time>2015-08-20T10:38:21Z</time>
      </trkpt>
      <trkpt lat="45.57093" lon="6.70849">
        <ele>859.46265</ele>
        <time>2015-08-20T10:38:31Z</time>
      </trkpt>
      <trkpt lat="45.57094" lon="6.70856">
        <ele>856.0514</ele>
        <time>2015-08-20T10:38:36Z</time>
      </trkpt>
      <trkpt lat="45.57097" lon="6.70873">
        <ele>852.89484</ele>
        <time>2015-08-20T10:38:46Z</time>
      </trkpt>
      <trkpt lat="45.57097" lon="6.70878">
        <ele>852.89484</ele>
        <time>2015-08-20T10:38:51Z</time>
      </trkpt>
      <trkpt lat="45.57098" lon="6.7088">
        <ele>852.89484</ele>
        <time>2015-08-20T10:39:01Z</time>
      </trkpt>
      <trkpt lat="45.57098" lon="6.7088">
        <ele>852.89484</ele>
        <time>2015-08-20T10:39:06Z</time>
      </trkpt>
      <trkpt lat="45.57096" lon="6.70887">
        <ele>849.1547</ele>
        <time>2015-08-20T10:39:21Z</time>
      </trkpt>
      <trkpt lat="45.57096" lon="6.70889">
        <ele>849.1547</ele>
        <time>2015-08-20T10:39:26Z</time>
      </trkpt>
      <trkpt lat="45.57096" lon="6.70889">
        <ele>849.1547</ele>
        <time>2015-08-20T10:39:36Z</time>
      </trkpt>
      <trkpt lat="45.57096" lon="6.70891">
        <ele>849.1547</ele>
        <time>2015-08-20T10:39:41Z</time>
      </trkpt>
      <trkpt lat="45.57099" lon="6.70893">
        <ele>849.1547</ele>
        <time>2015-08-20T10:39:51Z</time>
      </trkpt>
      <trkpt lat="45.571" lon="6.70896">
        <ele>849.1547</ele>
        <time>2015-08-20T10:39:56Z</time>
      </trkpt>
      <trkpt lat="45.571" lon="6.70911">
        <ele>845.32416</ele>
        <time>2015-08-20T10:40:06Z</time>
      </trkpt>
      <trkpt lat="45.57103" lon="6.70921">
        <ele>845.32416</ele>
        <time>2015-08-20T10:40:11Z</time>
      </trkpt>
      <trkpt lat="45.57106" lon="6.70933">
        <ele>841.61523</ele>
        <time>2015-08-20T10:40:21Z</time>
      </trkpt>
      <trkpt lat="45.57105" lon="6.70942">
        <ele>841.61523</ele>
        <time>2015-08-20T10:40:26Z</time>
      </trkpt>
      <trkpt lat="45.57107" lon="6.70959">
        <ele>837.89246</ele>
        <time>2015-08-20T10:40:36Z</time>
      </trkpt>
      <trkpt lat="45.57103" lon="6.70961">
        <ele>837.89246</ele>
        <time>2015-08-20T10:40:41Z</time>
      </trkpt>
      <trkpt lat="45.57104" lon="6.70961">
        <ele>837.89246</ele>
        <time>2015-08-20T10:40:51Z</time>
      </trkpt>
      <trkpt lat="45.57106" lon="6.70963">
        <ele>837.89246</ele>
        <time>2015-08-20T10:40:56Z</time>
      </trkpt>
      <trkpt lat="45.57106" lon="6.70979">
        <ele>834.3763</ele>
        <time>2015-08-20T10:41:06Z</time>
      </trkpt>
      <trkpt lat="45.57106" lon="6.70991">
        <ele>834.3763</ele>
        <time>2015-08-20T10:41:11Z</time>
      </trkpt>
      <trkpt lat="45.57106" lon="6.71008">
        <ele>831.28467</ele>
        <time>2015-08-20T10:41:21Z</time>
      </trkpt>
      <trkpt lat="45.57105" lon="6.71011">
        <ele>831.28467</ele>
        <time>2015-08-20T10:41:26Z</time>
      </trkpt>
      <trkpt lat="45.57105" lon="6.71011">
        <ele>831.28467</ele>
        <time>2015-08-20T10:41:36Z</time>
      </trkpt>
      <trkpt lat="45.57104" lon="6.71014">
        <ele>831.28467</ele>
        <time>2015-08-20T10:42:11Z</time>
      </trkpt>
      <trkpt lat="45.57101" lon="6.7102">
        <ele>828.5301</ele>
        <time>2015-08-20T10:42:16Z</time>
      </trkpt>
      <trkpt lat="45.57099" lon="6.71021">
        <ele>828.5301</ele>
        <time>2015-08-20T10:42:26Z</time>
      </trkpt>
      <trkpt lat="45.57099" lon="6.71021">
        <ele>828.5301</ele>
        <time>2015-08-20T10:42:31Z</time>
      </trkpt>
      <trkpt lat="45.571" lon="6.7102">
        <ele>828.5301</ele>
        <time>2015-08-20T10:43:26Z</time>
      </trkpt>
      <trkpt lat="45.571" lon="6.71019">
        <ele>828.5301</ele>
        <time>2015-08-20T10:43:31Z</time>
      </trkpt>
      <trkpt lat="45.571" lon="6.71019">
        <ele>828.5301</ele>
        <time>2015-08-20T10:43:41Z</time>
      </trkpt>
      <trkpt lat="45.57099" lon="6.71021">
        <ele>828.5301</ele>
        <time>2015-08-20T10:43:46Z</time>
      </trkpt>
      <trkpt lat="45.57099" lon="6.71021">
        <ele>828.5301</ele>
        <time>2015-08-20T10:43:56Z</time>
      </trkpt>
      <trkpt lat="45.57101" lon="6.71024">
        <ele>828.5301</ele>
        <time>2015-08-20T10:44:16Z</time>
      </trkpt>
      <trkpt lat="45.57101" lon="6.71024">
        <ele>826.55975</ele>
        <time>2015-08-20T10:44:21Z</time>
      </trkpt>
      <trkpt lat="45.57102" lon="6.71026">
        <ele>824.58936</ele>
        <time>2015-08-20T10:45:01Z</time>
      </trkpt>
      <trkpt lat="45.57102" lon="6.71026">
        <ele>824.58936</ele>
        <time>2015-08-20T10:45:06Z</time>
      </trkpt>
      <trkpt lat="45.57096" lon="6.71015">
        <ele>821.2103</ele>
        <time>2015-08-20T10:45:16Z</time>
      </trkpt>
      <trkpt lat="45.57094" lon="6.71009">
        <ele>821.2103</ele>
        <time>2015-08-20T10:45:21Z</time>
      </trkpt>
      <trkpt lat="45.57092" lon="6.71006">
        <ele>821.2103</ele>
        <time>2015-08-20T10:45:31Z</time>
      </trkpt>
      <trkpt lat="45.57092" lon="6.71007">
        <ele>821.2103</ele>
        <time>2015-08-20T10:45:51Z</time>
      </trkpt>
      <trkpt lat="45.57092" lon="6.71007">
        <ele>821.2103</ele>
        <time>2015-08-20T10:46:06Z</time>
      </trkpt>
      <trkpt lat="45.57096" lon="6.7101">
        <ele>818.74274</ele>
        <time>2015-08-20T10:50:31Z</time>
      </trkpt>
      <trkpt lat="45.57095" lon="6.71009">
        <ele>818.74274</ele>
        <time>2015-08-20T10:50:36Z</time>
      </trkpt>
      <trkpt lat="45.57095" lon="6.7101">
        <ele>818.74274</ele>
        <time>2015-08-20T10:50:46Z</time>
      </trkpt>
      <trkpt lat="45.57098" lon="6.71011">
        <ele>818.74274</ele>
        <time>2015-08-20T10:50:51Z</time>
      </trkpt>
      <trkpt lat="45.57099" lon="6.71005">
        <ele>816.2254</ele>
        <time>2015-08-20T10:51:01Z</time>
      </trkpt>
      <trkpt lat="45.57101" lon="6.71008">
        <ele>816.2254</ele>
        <time>2015-08-20T10:51:06Z</time>
      </trkpt>
      <trkpt lat="45.57104" lon="6.7101">
        <ele>816.2254</ele>
        <time>2015-08-20T10:51:16Z</time>
      </trkpt>
      <trkpt lat="45.57106" lon="6.71008">
        <ele>816.2254</ele>
        <time>2015-08-20T10:51:31Z</time>
      </trkpt>
      <trkpt lat="45.57106" lon="6.71008">
        <ele>816.2254</ele>
        <time>2015-08-20T10:51:36Z</time>
      </trkpt>
      <trkpt lat="45.57104" lon="6.71012">
        <ele>815.0016</ele>
        <time>2015-08-20T10:52:01Z</time>
      </trkpt>
      <trkpt lat="45.57104" lon="6.71012">
        <ele>815.0016</ele>
        <time>2015-08-20T10:52:06Z</time>
      </trkpt>
      <trkpt lat="45.57099" lon="6.71019">
        <ele>815.0016</ele>
        <time>2015-08-20T10:52:21Z</time>
      </trkpt>
      <trkpt lat="45.57098" lon="6.7102">
        <ele>815.0016</ele>
        <time>2015-08-20T10:52:36Z</time>
      </trkpt>
      <trkpt lat="45.57098" lon="6.7102">
        <ele>815.0016</ele>
        <time>2015-08-20T10:52:41Z</time>
      </trkpt>
      <trkpt lat="45.57096" lon="6.71023">
        <ele>814.1648</ele>
        <time>2015-08-20T10:53:26Z</time>
      </trkpt>
      <trkpt lat="45.57096" lon="6.71023">
        <ele>814.1648</ele>
        <time>2015-08-20T10:53:36Z</time>
      </trkpt>
      <trkpt lat="45.57089" lon="6.71031">
        <ele>813.6956</ele>
        <time>2015-08-20T10:54:06Z</time>
      </trkpt>
      <trkpt lat="45.57082" lon="6.71042">
        <ele>813.3875</ele>
        <time>2015-08-20T10:54:11Z</time>
      </trkpt>
      <trkpt lat="45.57069" lon="6.71056">
        <ele>813.12085</ele>
        <time>2015-08-20T10:54:21Z</time>
      </trkpt>
      <trkpt lat="45.57067" lon="6.71059">
        <ele>813.12085</ele>
        <time>2015-08-20T10:54:26Z</time>
      </trkpt>
      <trkpt lat="45.57059" lon="6.71068">
        <ele>812.9575</ele>
        <time>2015-08-20T10:54:36Z</time>
      </trkpt>
      <trkpt lat="45.57056" lon="6.71071">
        <ele>812.9575</ele>
        <time>2015-08-20T10:54:41Z</time>
      </trkpt>
      <trkpt lat="45.57059" lon="6.71074">
        <ele>812.9575</ele>
        <time>2015-08-20T10:54:51Z</time>
      </trkpt>
      <trkpt lat="45.57062" lon="6.71073">
        <ele>812.6664</ele>
        <time>2015-08-20T10:54:56Z</time>
      </trkpt>
      <trkpt lat="45.57063" lon="6.71073">
        <ele>812.6664</ele>
        <time>2015-08-20T10:55:06Z</time>
      </trkpt>
      <trkpt lat="45.57064" lon="6.71072">
        <ele>812.6664</ele>
        <time>2015-08-20T10:55:11Z</time>
      </trkpt>
      <trkpt lat="45.57071" lon="6.71072">
        <ele>812.1203</ele>
        <time>2015-08-20T10:55:26Z</time>
      </trkpt>
      <trkpt lat="45.57071" lon="6.71072">
        <ele>812.1203</ele>
        <time>2015-08-20T10:55:31Z</time>
      </trkpt>
      <trkpt lat="45.57073" lon="6.7108">
        <ele>812.1203</ele>
        <time>2015-08-20T10:55:41Z</time>
      </trkpt>
      <trkpt lat="45.57073" lon="6.7108">
        <ele>812.1203</ele>
        <time>2015-08-20T10:55:46Z</time>
      </trkpt>
      <trkpt lat="45.57073" lon="6.71088">
        <ele>811.7209</ele>
        <time>2015-08-20T10:55:56Z</time>
      </trkpt>
      <trkpt lat="45.57073" lon="6.71088">
        <ele>811.7209</ele>
        <time>2015-08-20T10:56:01Z</time>
      </trkpt>
      <trkpt lat="45.57072" lon="6.71102">
        <ele>811.2204</ele>
        <time>2015-08-20T10:56:11Z</time>
      </trkpt>
      <trkpt lat="45.5707" lon="6.71111">
        <ele>811.2204</ele>
        <time>2015-08-20T10:56:16Z</time>
      </trkpt>
      <trkpt lat="45.57068" lon="6.71123">
        <ele>810.70654</ele>
        <time>2015-08-20T10:56:26Z</time>
      </trkpt>
      <trkpt lat="45.57068" lon="6.71126">
        <ele>810.70654</ele>
        <time>2015-08-20T10:56:31Z</time>
      </trkpt>
      <trkpt lat="45.57061" lon="6.71144">
        <ele>810.3619</ele>
        <time>2015-08-20T10:56:41Z</time>
      </trkpt>
      <trkpt lat="45.57058" lon="6.7115">
        <ele>810.3619</ele>
        <time>2015-08-20T10:56:46Z</time>
      </trkpt>
      <trkpt lat="45.57051" lon="6.71158">
        <ele>809.9803</ele>
        <time>2015-08-20T10:56:56Z</time>
      </trkpt>
      <trkpt lat="45.5704" lon="6.7117">
        <ele>809.65924</ele>
        <time>2015-08-20T10:57:01Z</time>
      </trkpt>
      <trkpt lat="45.57025" lon="6.71184">
        <ele>809.3451</ele>
        <time>2015-08-20T10:57:11Z</time>
      </trkpt>
      <trkpt lat="45.57021" lon="6.71189">
        <ele>809.3451</ele>
        <time>2015-08-20T10:57:16Z</time>
      </trkpt>
      <trkpt lat="45.57011" lon="6.712">
        <ele>808.772</ele>
        <time>2015-08-20T10:57:26Z</time>
      </trkpt>
      <trkpt lat="45.57006" lon="6.71206">
        <ele>808.772</ele>
        <time>2015-08-20T10:57:31Z</time>
      </trkpt>
      <trkpt lat="45.57001" lon="6.71213">
        <ele>808.1123</ele>
        <time>2015-08-20T10:57:41Z</time>
      </trkpt>
      <trkpt lat="45.57" lon="6.71215">
        <ele>808.1123</ele>
        <time>2015-08-20T10:57:46Z</time>
      </trkpt>
      <trkpt lat="45.56986" lon="6.71229">
        <ele>807.166</ele>
        <time>2015-08-20T10:58:01Z</time>
      </trkpt>
      <trkpt lat="45.56983" lon="6.71232">
        <ele>807.166</ele>
        <time>2015-08-20T10:58:06Z</time>
      </trkpt>
      <trkpt lat="45.56978" lon="6.7123">
        <ele>806.3108</ele>
        <time>2015-08-20T10:58:16Z</time>
      </trkpt>
      <trkpt lat="45.56973" lon="6.71228">
        <ele>806.3108</ele>
        <time>2015-08-20T10:58:21Z</time>
      </trkpt>
      <trkpt lat="45.56968" lon="6.71231">
        <ele>805.76666</ele>
        <time>2015-08-20T10:58:31Z</time>
      </trkpt>
      <trkpt lat="45.56962" lon="6.71231">
        <ele>805.76666</ele>
        <time>2015-08-20T10:58:36Z</time>
      </trkpt>
      <trkpt lat="45.5696" lon="6.7123">
        <ele>805.76666</ele>
        <time>2015-08-20T10:58:46Z</time>
      </trkpt>
      <trkpt lat="45.56957" lon="6.71235">
        <ele>805.2613</ele>
        <time>2015-08-20T10:58:51Z</time>
      </trkpt>
      <trkpt lat="45.56946" lon="6.71245">
        <ele>804.5712</ele>
        <time>2015-08-20T10:59:01Z</time>
      </trkpt>
      <trkpt lat="45.56941" lon="6.71244">
        <ele>804.5712</ele>
        <time>2015-08-20T10:59:06Z</time>
      </trkpt>
      <trkpt lat="45.56931" lon="6.71246">
        <ele>803.76385</ele>
        <time>2015-08-20T10:59:16Z</time>
      </trkpt>
      <trkpt lat="45.56923" lon="6.71245">
        <ele>803.76385</ele>
        <time>2015-08-20T10:59:21Z</time>
      </trkpt>
      <trkpt lat="45.56913" lon="6.71244">
        <ele>802.9021</ele>
        <time>2015-08-20T10:59:31Z</time>
      </trkpt>
      <trkpt lat="45.56908" lon="6.71242">
        <ele>802.9021</ele>
        <time>2015-08-20T10:59:36Z</time>
      </trkpt>
      <trkpt lat="45.56908" lon="6.71242">
        <ele>802.9021</ele>
        <time>2015-08-20T10:59:51Z</time>
      </trkpt>
      <trkpt lat="45.56904" lon="6.71247">
        <ele>801.7997</ele>
        <time>2015-08-20T11:00:06Z</time>
      </trkpt>
      <trkpt lat="45.56903" lon="6.71249">
        <ele>801.7997</ele>
        <time>2015-08-20T11:00:11Z</time>
      </trkpt>
      <trkpt lat="45.569" lon="6.71248">
        <ele>801.7997</ele>
        <time>2015-08-20T11:00:21Z</time>
      </trkpt>
      <trkpt lat="45.569" lon="6.71251">
        <ele>801.7997</ele>
        <time>2015-08-20T11:00:26Z</time>
      </trkpt>
      <trkpt lat="45.56898" lon="6.71255">
        <ele>801.1062</ele>
        <time>2015-08-20T11:00:36Z</time>
      </trkpt>
      <trkpt lat="45.56898" lon="6.71267">
        <ele>801.1062</ele>
        <time>2015-08-20T11:00:41Z</time>
      </trkpt>
      <trkpt lat="45.56894" lon="6.71284">
        <ele>800.3128</ele>
        <time>2015-08-20T11:00:51Z</time>
      </trkpt>
      <trkpt lat="45.56894" lon="6.71295">
        <ele>800.3128</ele>
        <time>2015-08-20T11:00:56Z</time>
      </trkpt>
      <trkpt lat="45.56896" lon="6.71303">
        <ele>799.55396</ele>
        <time>2015-08-20T11:01:06Z</time>
      </trkpt>
      <trkpt lat="45.56896" lon="6.71303">
        <ele>799.55396</ele>
        <time>2015-08-20T11:01:11Z</time>
      </trkpt>
      <trkpt lat="45.56897" lon="6.71307">
        <ele>799.55396</ele>
        <time>2015-08-20T11:01:21Z</time>
      </trkpt>
      <trkpt lat="45.56899" lon="6.71313">
        <ele>799.55396</ele>
        <time>2015-08-20T11:01:26Z</time>
      </trkpt>
      <trkpt lat="45.56902" lon="6.71328">
        <ele>798.3487</ele>
        <time>2015-08-20T11:01:36Z</time>
      </trkpt>
      <trkpt lat="45.56905" lon="6.7134">
        <ele>798.3487</ele>
        <time>2015-08-20T11:01:41Z</time>
      </trkpt>
      <trkpt lat="45.56908" lon="6.71359">
        <ele>797.4204</ele>
        <time>2015-08-20T11:01:51Z</time>
      </trkpt>
      <trkpt lat="45.56909" lon="6.71365">
        <ele>797.4204</ele>
        <time>2015-08-20T11:01:56Z</time>
      </trkpt>
      <trkpt lat="45.56911" lon="6.71371">
        <ele>797.4204</ele>
        <time>2015-08-20T11:02:11Z</time>
      </trkpt>
      <trkpt lat="45.56912" lon="6.71374">
        <ele>796.5161</ele>
        <time>2015-08-20T11:02:16Z</time>
      </trkpt>
      <trkpt lat="45.56913" lon="6.71392">
        <ele>795.517</ele>
        <time>2015-08-20T11:02:26Z</time>
      </trkpt>
      <trkpt lat="45.56915" lon="6.71399">
        <ele>795.517</ele>
        <time>2015-08-20T11:02:31Z</time>
      </trkpt>
      <trkpt lat="45.56922" lon="6.71416">
        <ele>794.67346</ele>
        <time>2015-08-20T11:02:41Z</time>
      </trkpt>
      <trkpt lat="45.56924" lon="6.71424">
        <ele>794.67346</ele>
        <time>2015-08-20T11:02:46Z</time>
      </trkpt>
      <trkpt lat="45.56924" lon="6.71424">
        <ele>794.67346</ele>
        <time>2015-08-20T11:02:56Z</time>
      </trkpt>
      <trkpt lat="45.56924" lon="6.71425">
        <ele>794.67346</ele>
        <time>2015-08-20T11:03:01Z</time>
      </trkpt>
      <trkpt lat="45.56919" lon="6.71437">
        <ele>794.26056</ele>
        <time>2015-08-20T11:03:11Z</time>
      </trkpt>
      <trkpt lat="45.5692" lon="6.71447">
        <ele>794.26056</ele>
        <time>2015-08-20T11:03:16Z</time>
      </trkpt>
      <trkpt lat="45.5692" lon="6.71461">
        <ele>793.5232</ele>
        <time>2015-08-20T11:03:26Z</time>
      </trkpt>
      <trkpt lat="45.56921" lon="6.7147">
        <ele>793.5232</ele>
        <time>2015-08-20T11:03:31Z</time>
      </trkpt>
      <trkpt lat="45.56923" lon="6.7148">
        <ele>792.54095</ele>
        <time>2015-08-20T11:03:41Z</time>
      </trkpt>
      <trkpt lat="45.56923" lon="6.7148">
        <ele>792.54095</ele>
        <time>2015-08-20T11:03:46Z</time>
      </trkpt>
      <trkpt lat="45.56922" lon="6.71479">
        <ele>792.54095</ele>
        <time>2015-08-20T11:03:56Z</time>
      </trkpt>
      <trkpt lat="45.56922" lon="6.7148">
        <ele>792.54095</ele>
        <time>2015-08-20T11:04:01Z</time>
      </trkpt>
      <trkpt lat="45.56928" lon="6.71489">
        <ele>791.4173</ele>
        <time>2015-08-20T11:04:11Z</time>
      </trkpt>
      <trkpt lat="45.56931" lon="6.7149">
        <ele>791.4173</ele>
        <time>2015-08-20T11:04:16Z</time>
      </trkpt>
      <trkpt lat="45.5694" lon="6.71497">
        <ele>790.1909</ele>
        <time>2015-08-20T11:04:31Z</time>
      </trkpt>
      <trkpt lat="45.56942" lon="6.71503">
        <ele>790.1909</ele>
        <time>2015-08-20T11:04:36Z</time>
      </trkpt>
      <trkpt lat="45.56953" lon="6.71513">
        <ele>788.6673</ele>
        <time>2015-08-20T11:04:46Z</time>
      </trkpt>
      <trkpt lat="45.56958" lon="6.71522">
        <ele>788.6673</ele>
        <time>2015-08-20T11:04:51Z</time>
      </trkpt>
      <trkpt lat="45.56965" lon="6.71534">
        <ele>787.0133</ele>
        <time>2015-08-20T11:05:01Z</time>
      </trkpt>
      <trkpt lat="45.5697" lon="6.71542">
        <ele>787.0133</ele>
        <time>2015-08-20T11:05:06Z</time>
      </trkpt>
      <trkpt lat="45.56975" lon="6.7156">
        <ele>785.3549</ele>
        <time>2015-08-20T11:05:16Z</time>
      </trkpt>
      <trkpt lat="45.56977" lon="6.71567">
        <ele>785.3549</ele>
        <time>2015-08-20T11:05:21Z</time>
      </trkpt>
      <trkpt lat="45.56982" lon="6.71581">
        <ele>783.7803</ele>
        <time>2015-08-20T11:05:31Z</time>
      </trkpt>
      <trkpt lat="45.56983" lon="6.71588">
        <ele>783.7803</ele>
        <time>2015-08-20T11:05:36Z</time>
      </trkpt>
      <trkpt lat="45.56981" lon="6.71606">
        <ele>782.0249</ele>
        <time>2015-08-20T11:05:46Z</time>
      </trkpt>
      <trkpt lat="45.5698" lon="6.71616">
        <ele>782.0249</ele>
        <time>2015-08-20T11:05:51Z</time>
      </trkpt>
      <trkpt lat="45.56982" lon="6.71629">
        <ele>780.2336</ele>
        <time>2015-08-20T11:06:01Z</time>
      </trkpt>
      <trkpt lat="45.56983" lon="6.7163">
        <ele>780.2336</ele>
        <time>2015-08-20T11:06:06Z</time>
      </trkpt>
      <trkpt lat="45.56981" lon="6.7163">
        <ele>780.2336</ele>
        <time>2015-08-20T11:06:16Z</time>
      </trkpt>
      <trkpt lat="45.56981" lon="6.7163">
        <ele>780.2336</ele>
        <time>2015-08-20T11:06:21Z</time>
      </trkpt>
      <trkpt lat="45.56983" lon="6.71645">
        <ele>778.23773</ele>
        <time>2015-08-20T11:06:36Z</time>
      </trkpt>
      <trkpt lat="45.56982" lon="6.71653">
        <ele>778.23773</ele>
        <time>2015-08-20T11:06:41Z</time>
      </trkpt>
      <trkpt lat="45.5698" lon="6.71653">
        <ele>778.23773</ele>
        <time>2015-08-20T11:06:51Z</time>
      </trkpt>
      <trkpt lat="45.56977" lon="6.71657">
        <ele>775.91077</ele>
        <time>2015-08-20T11:06:56Z</time>
      </trkpt>
      <trkpt lat="45.56972" lon="6.71666">
        <ele>775.91077</ele>
        <time>2015-08-20T11:07:06Z</time>
      </trkpt>
      <trkpt lat="45.56968" lon="6.71672">
        <ele>773.48224</ele>
        <time>2015-08-20T11:07:11Z</time>
      </trkpt>
      <trkpt lat="45.56954" lon="6.71673">
        <ele>771.4244</ele>
        <time>2015-08-20T11:07:21Z</time>
      </trkpt>
      <trkpt lat="45.56948" lon="6.7167">
        <ele>771.4244</ele>
        <time>2015-08-20T11:07:26Z</time>
      </trkpt>
      <trkpt lat="45.56936" lon="6.71664">
        <ele>769.655</ele>
        <time>2015-08-20T11:07:36Z</time>
      </trkpt>
      <trkpt lat="45.56932" lon="6.7166">
        <ele>769.655</ele>
        <time>2015-08-20T11:07:41Z</time>
      </trkpt>
      <trkpt lat="45.56923" lon="6.71652">
        <ele>768.06836</ele>
        <time>2015-08-20T11:07:51Z</time>
      </trkpt>
      <trkpt lat="45.56917" lon="6.71648">
        <ele>768.06836</ele>
        <time>2015-08-20T11:07:56Z</time>
      </trkpt>
      <trkpt lat="45.56901" lon="6.71638">
        <ele>766.76764</ele>
        <time>2015-08-20T11:08:11Z</time>
      </trkpt>
      <trkpt lat="45.56895" lon="6.71633">
        <ele>766.76764</ele>
        <time>2015-08-20T11:08:16Z</time>
      </trkpt>
      <trkpt lat="45.56884" lon="6.71627">
        <ele>765.6747</ele>
        <time>2015-08-20T11:08:26Z</time>
      </trkpt>
      <trkpt lat="45.56878" lon="6.71621">
        <ele>765.6747</ele>
        <time>2015-08-20T11:08:31Z</time>
      </trkpt>
      <trkpt lat="45.56871" lon="6.71612">
        <ele>764.65894</ele>
        <time>2015-08-20T11:08:41Z</time>
      </trkpt>
      <trkpt lat="45.56866" lon="6.71607">
        <ele>764.65894</ele>
        <time>2015-08-20T11:08:46Z</time>
      </trkpt>
      <trkpt lat="45.56857" lon="6.71598">
        <ele>763.80084</ele>
        <time>2015-08-20T11:08:56Z</time>
      </trkpt>
      <trkpt lat="45.56853" lon="6.71594">
        <ele>763.80084</ele>
        <time>2015-08-20T11:09:01Z</time>
      </trkpt>
      <trkpt lat="45.56845" lon="6.71587">
        <ele>763.016</ele>
        <time>2015-08-20T11:09:11Z</time>
      </trkpt>
      <trkpt lat="45.56841" lon="6.71583">
        <ele>763.016</ele>
        <time>2015-08-20T11:09:16Z</time>
      </trkpt>
      <trkpt lat="45.56832" lon="6.71579">
        <ele>762.2261</ele>
        <time>2015-08-20T11:09:26Z</time>
      </trkpt>
      <trkpt lat="45.56827" lon="6.71577">
        <ele>762.2261</ele>
        <time>2015-08-20T11:09:31Z</time>
      </trkpt>
      <trkpt lat="45.56816" lon="6.71569">
        <ele>761.25745</ele>
        <time>2015-08-20T11:09:41Z</time>
      </trkpt>
      <trkpt lat="45.56812" lon="6.71565">
        <ele>761.25745</ele>
        <time>2015-08-20T11:09:46Z</time>
      </trkpt>
      <trkpt lat="45.56801" lon="6.71551">
        <ele>760.3103</ele>
        <time>2015-08-20T11:09:56Z</time>
      </trkpt>
      <trkpt lat="45.56796" lon="6.71547">
        <ele>760.3103</ele>
        <time>2015-08-20T11:10:01Z</time>
      </trkpt>
      <trkpt lat="45.5679" lon="6.71534">
        <ele>759.3824</ele>
        <time>2015-08-20T11:10:11Z</time>
      </trkpt>
      <trkpt lat="45.5679" lon="6.71524">
        <ele>759.3824</ele>
        <time>2015-08-20T11:10:16Z</time>
      </trkpt>
      <trkpt lat="45.56787" lon="6.7151">
        <ele>758.50055</ele>
        <time>2015-08-20T11:10:26Z</time>
      </trkpt>
      <trkpt lat="45.56786" lon="6.71503">
        <ele>758.50055</ele>
        <time>2015-08-20T11:10:31Z</time>
      </trkpt>
      <trkpt lat="45.56788" lon="6.71487">
        <ele>757.5023</ele>
        <time>2015-08-20T11:10:46Z</time>
      </trkpt>
      <trkpt lat="45.56788" lon="6.71487">
        <ele>757.5023</ele>
        <time>2015-08-20T11:10:51Z</time>
      </trkpt>
      <trkpt lat="45.56786" lon="6.71473">
        <ele>756.52545</ele>
        <time>2015-08-20T11:11:01Z</time>
      </trkpt>
      <trkpt lat="45.56785" lon="6.71467">
        <ele>756.52545</ele>
        <time>2015-08-20T11:11:06Z</time>
      </trkpt>
      <trkpt lat="45.56781" lon="6.7146">
        <ele>755.48157</ele>
        <time>2015-08-20T11:11:16Z</time>
      </trkpt>
      <trkpt lat="45.56779" lon="6.71456">
        <ele>755.48157</ele>
        <time>2015-08-20T11:11:21Z</time>
      </trkpt>
      <trkpt lat="45.56776" lon="6.71468">
        <ele>754.0727</ele>
        <time>2015-08-20T11:11:31Z</time>
      </trkpt>
      <trkpt lat="45.56774" lon="6.71474">
        <ele>754.0727</ele>
        <time>2015-08-20T11:11:36Z</time>
      </trkpt>
      <trkpt lat="45.56772" lon="6.71476">
        <ele>754.0727</ele>
        <time>2015-08-20T11:11:46Z</time>
      </trkpt>
      <trkpt lat="45.56767" lon="6.7147">
        <ele>752.4562</ele>
        <time>2015-08-20T11:11:51Z</time>
      </trkpt>
      <trkpt lat="45.56757" lon="6.71457">
        <ele>750.85034</ele>
        <time>2015-08-20T11:12:06Z</time>
      </trkpt>
      <trkpt lat="45.56757" lon="6.71457">
        <ele>750.85034</ele>
        <time>2015-08-20T11:12:11Z</time>
      </trkpt>
      <trkpt lat="45.56753" lon="6.71463">
        <ele>750.85034</ele>
        <time>2015-08-20T11:12:21Z</time>
      </trkpt>
      <trkpt lat="45.56748" lon="6.71466">
        <ele>748.72266</ele>
        <time>2015-08-20T11:12:26Z</time>
      </trkpt>
      <trkpt lat="45.56742" lon="6.71472">
        <ele>748.72266</ele>
        <time>2015-08-20T11:12:36Z</time>
      </trkpt>
      <trkpt lat="45.56737" lon="6.71473">
        <ele>746.2439</ele>
        <time>2015-08-20T11:12:41Z</time>
      </trkpt>
      <trkpt lat="45.56725" lon="6.71476">
        <ele>743.84717</ele>
        <time>2015-08-20T11:12:51Z</time>
      </trkpt>
      <trkpt lat="45.56719" lon="6.71481">
        <ele>743.84717</ele>
        <time>2015-08-20T11:12:56Z</time>
      </trkpt>
      <trkpt lat="45.56716" lon="6.71488">
        <ele>741.3859</ele>
        <time>2015-08-20T11:13:06Z</time>
      </trkpt>
      <trkpt lat="45.56712" lon="6.71487">
        <ele>741.3859</ele>
        <time>2015-08-20T11:13:11Z</time>
      </trkpt>
      <trkpt lat="45.56699" lon="6.71483">
        <ele>739.2864</ele>
        <time>2015-08-20T11:13:21Z</time>
      </trkpt>
      <trkpt lat="45.56692" lon="6.71482">
        <ele>739.2864</ele>
        <time>2015-08-20T11:13:26Z</time>
      </trkpt>
      <trkpt lat="45.56692" lon="6.71482">
        <ele>739.2864</ele>
        <time>2015-08-20T11:13:36Z</time>
      </trkpt>
      <trkpt lat="45.56692" lon="6.71492">
        <ele>737.58234</ele>
        <time>2015-08-20T11:14:01Z</time>
      </trkpt>
      <trkpt lat="45.56688" lon="6.71498">
        <ele>737.58234</ele>
        <time>2015-08-20T11:14:11Z</time>
      </trkpt>
      <trkpt lat="45.56685" lon="6.71499">
        <ele>735.92914</ele>
        <time>2015-08-20T11:14:16Z</time>
      </trkpt>
      <trkpt lat="45.56683" lon="6.71501">
        <ele>735.92914</ele>
        <time>2015-08-20T11:14:26Z</time>
      </trkpt>
      <trkpt lat="45.56683" lon="6.71501">
        <ele>735.92914</ele>
        <time>2015-08-20T11:14:31Z</time>
      </trkpt>
      <trkpt lat="45.56684" lon="6.71514">
        <ele>734.3964</ele>
        <time>2015-08-20T11:14:41Z</time>
      </trkpt>
      <trkpt lat="45.56679" lon="6.71516">
        <ele>734.3964</ele>
        <time>2015-08-20T11:15:11Z</time>
      </trkpt>
      <trkpt lat="45.56673" lon="6.71518">
        <ele>732.9618</ele>
        <time>2015-08-20T11:15:16Z</time>
      </trkpt>
      <trkpt lat="45.5667" lon="6.71518">
        <ele>732.9618</ele>
        <time>2015-08-20T11:15:26Z</time>
      </trkpt>
      <trkpt lat="45.56667" lon="6.7152">
        <ele>732.9618</ele>
        <time>2015-08-20T11:15:31Z</time>
      </trkpt>
      <trkpt lat="45.56667" lon="6.7152">
        <ele>732.9618</ele>
        <time>2015-08-20T11:15:41Z</time>
      </trkpt>
      <trkpt lat="45.56666" lon="6.71521">
        <ele>732.9618</ele>
        <time>2015-08-20T11:15:46Z</time>
      </trkpt>
      <trkpt lat="45.56663" lon="6.71533">
        <ele>731.561</ele>
        <time>2015-08-20T11:16:01Z</time>
      </trkpt>
      <trkpt lat="45.56662" lon="6.71542">
        <ele>731.561</ele>
        <time>2015-08-20T11:16:06Z</time>
      </trkpt>
      <trkpt lat="45.56662" lon="6.71551">
        <ele>730.40814</ele>
        <time>2015-08-20T11:16:16Z</time>
      </trkpt>
      <trkpt lat="45.56661" lon="6.71557">
        <ele>730.40814</ele>
        <time>2015-08-20T11:16:21Z</time>
      </trkpt>
      <trkpt lat="45.5666" lon="6.71571">
        <ele>729.61444</ele>
        <time>2015-08-20T11:16:31Z</time>
      </trkpt>
      <trkpt lat="45.5666" lon="6.71578">
        <ele>729.61444</ele>
        <time>2015-08-20T11:16:36Z</time>
      </trkpt>
      <trkpt lat="45.56661" lon="6.71584">
        <ele>729.0369</ele>
        <time>2015-08-20T11:16:46Z</time>
      </trkpt>
      <trkpt lat="45.56661" lon="6.71584">
        <ele>729.0369</ele>
        <time>2015-08-20T11:16:51Z</time>
      </trkpt>
      <trkpt lat="45.56657" lon="6.71603">
        <ele>728.80176</ele>
        <time>2015-08-20T11:17:01Z</time>
      </trkpt>
      <trkpt lat="45.56656" lon="6.71608">
        <ele>728.80176</ele>
        <time>2015-08-20T11:17:06Z</time>
      </trkpt>
      <trkpt lat="45.56656" lon="6.7161">
        <ele>728.80176</ele>
        <time>2015-08-20T11:17:16Z</time>
      </trkpt>
      <trkpt lat="45.56655" lon="6.71617">
        <ele>728.9242</ele>
        <time>2015-08-20T11:17:21Z</time>
      </trkpt>
      <trkpt lat="45.56651" lon="6.71622">
        <ele>728.9242</ele>
        <time>2015-08-20T11:17:31Z</time>
      </trkpt>
      <trkpt lat="45.5665" lon="6.71624">
        <ele>728.9242</ele>
        <time>2015-08-20T11:17:36Z</time>
      </trkpt>
      <trkpt lat="45.56647" lon="6.71629">
        <ele>729.50354</ele>
        <time>2015-08-20T11:17:46Z</time>
      </trkpt>
      <trkpt lat="45.56646" lon="6.71631">
        <ele>729.50354</ele>
        <time>2015-08-20T11:17:51Z</time>
      </trkpt>
      <trkpt lat="45.56645" lon="6.71638">
        <ele>729.50354</ele>
        <time>2015-08-20T11:18:06Z</time>
      </trkpt>
      <trkpt lat="45.56645" lon="6.71641">
        <ele>729.50354</ele>
        <time>2015-08-20T11:18:11Z</time>
      </trkpt>
      <trkpt lat="45.56644" lon="6.71645">
        <ele>730.27057</ele>
        <time>2015-08-20T11:18:21Z</time>
      </trkpt>
      <trkpt lat="45.56644" lon="6.71645">
        <ele>730.27057</ele>
        <time>2015-08-20T11:18:26Z</time>
      </trkpt>
      <trkpt lat="45.56643" lon="6.71648">
        <ele>730.27057</ele>
        <time>2015-08-20T11:18:36Z</time>
      </trkpt>
      <trkpt lat="45.56643" lon="6.7165">
        <ele>730.27057</ele>
        <time>2015-08-20T11:18:51Z</time>
      </trkpt>
      <trkpt lat="45.56641" lon="6.71652">
        <ele>730.27057</ele>
        <time>2015-08-20T11:19:06Z</time>
      </trkpt>
      <trkpt lat="45.56641" lon="6.71654">
        <ele>730.27057</ele>
        <time>2015-08-20T11:19:11Z</time>
      </trkpt>
      <trkpt lat="45.56638" lon="6.71662">
        <ele>731.8398</ele>
        <time>2015-08-20T11:19:21Z</time>
      </trkpt>
      <trkpt lat="45.56638" lon="6.71662">
        <ele>731.8398</ele>
        <time>2015-08-20T11:19:26Z</time>
      </trkpt>
      <trkpt lat="45.56636" lon="6.71664">
        <ele>731.8398</ele>
        <time>2015-08-20T11:19:36Z</time>
      </trkpt>
      <trkpt lat="45.56637" lon="6.71665">
        <ele>731.8398</ele>
        <time>2015-08-20T11:19:41Z</time>
      </trkpt>
      <trkpt lat="45.56633" lon="6.71688">
        <ele>733.98566</ele>
        <time>2015-08-20T11:19:56Z</time>
      </trkpt>
      <trkpt lat="45.56633" lon="6.71694">
        <ele>733.98566</ele>
        <time>2015-08-20T11:20:01Z</time>
      </trkpt>
      <trkpt lat="45.56629" lon="6.71704">
        <ele>736.4547</ele>
        <time>2015-08-20T11:20:11Z</time>
      </trkpt>
      <trkpt lat="45.56629" lon="6.71706">
        <ele>736.4547</ele>
        <time>2015-08-20T11:20:16Z</time>
      </trkpt>
      <trkpt lat="45.56628" lon="6.71707">
        <ele>736.4547</ele>
        <time>2015-08-20T11:20:26Z</time>
      </trkpt>
      <trkpt lat="45.56628" lon="6.7171">
        <ele>736.4547</ele>
        <time>2015-08-20T11:20:31Z</time>
      </trkpt>
      <trkpt lat="45.56627" lon="6.71715">
        <ele>736.4547</ele>
        <time>2015-08-20T11:20:41Z</time>
      </trkpt>
      <trkpt lat="45.56627" lon="6.71718">
        <ele>739.5298</ele>
        <time>2015-08-20T11:20:46Z</time>
      </trkpt>
      <trkpt lat="45.56625" lon="6.71725">
        <ele>739.5298</ele>
        <time>2015-08-20T11:20:56Z</time>
      </trkpt>
      <trkpt lat="45.56624" lon="6.71723">
        <ele>739.5298</ele>
        <time>2015-08-20T11:21:01Z</time>
      </trkpt>
      <trkpt lat="45.56625" lon="6.71714">
        <ele>742.9527</ele>
        <time>2015-08-20T11:21:16Z</time>
      </trkpt>
      <trkpt lat="45.56624" lon="6.71711">
        <ele>742.9527</ele>
        <time>2015-08-20T11:21:21Z</time>
      </trkpt>
      <trkpt lat="45.56621" lon="6.71708">
        <ele>742.9527</ele>
        <time>2015-08-20T11:21:31Z</time>
      </trkpt>
      <trkpt lat="45.56621" lon="6.71708">
        <ele>742.9527</ele>
        <time>2015-08-20T11:21:36Z</time>
      </trkpt>
      <trkpt lat="45.56621" lon="6.71705">
        <ele>742.9527</ele>
        <time>2015-08-20T11:22:06Z</time>
      </trkpt>
      <trkpt lat="45.56621" lon="6.71699">
        <ele>746.72833</ele>
        <time>2015-08-20T11:22:16Z</time>
      </trkpt>
      <trkpt lat="45.56622" lon="6.71696">
        <ele>746.72833</ele>
        <time>2015-08-20T11:22:21Z</time>
      </trkpt>
      <trkpt lat="45.56622" lon="6.71691">
        <ele>746.72833</ele>
        <time>2015-08-20T11:22:31Z</time>
      </trkpt>
      <trkpt lat="45.56623" lon="6.71689">
        <ele>746.72833</ele>
        <time>2015-08-20T11:22:36Z</time>
      </trkpt>
      <trkpt lat="45.56622" lon="6.71664">
        <ele>750.9757</ele>
        <time>2015-08-20T11:22:46Z</time>
      </trkpt>
      <trkpt lat="45.56621" lon="6.71661">
        <ele>750.9757</ele>
        <time>2015-08-20T11:22:51Z</time>
      </trkpt>
      <trkpt lat="45.56621" lon="6.71651">
        <ele>755.16986</ele>
        <time>2015-08-20T11:23:01Z</time>
      </trkpt>
      <trkpt lat="45.5662" lon="6.71648">
        <ele>755.16986</ele>
        <time>2015-08-20T11:23:06Z</time>
      </trkpt>
      <trkpt lat="45.56609" lon="6.71637">
        <ele>759.5164</ele>
        <time>2015-08-20T11:23:21Z</time>
      </trkpt>
      <trkpt lat="45.56603" lon="6.71633">
        <ele>759.5164</ele>
        <time>2015-08-20T11:23:26Z</time>
      </trkpt>
      <trkpt lat="45.56603" lon="6.71632">
        <ele>759.5164</ele>
        <time>2015-08-20T11:23:36Z</time>
      </trkpt>
      <trkpt lat="45.56603" lon="6.71632">
        <ele>759.5164</ele>
        <time>2015-08-20T11:23:41Z</time>
      </trkpt>
      <trkpt lat="45.56601" lon="6.71631">
        <ele>763.77356</ele>
        <time>2015-08-20T11:23:51Z</time>
      </trkpt>
      <trkpt lat="45.56599" lon="6.71629">
        <ele>763.77356</ele>
        <time>2015-08-20T11:23:56Z</time>
      </trkpt>
      <trkpt lat="45.56596" lon="6.71625">
        <ele>763.77356</ele>
        <time>2015-08-20T11:24:06Z</time>
      </trkpt>
      <trkpt lat="45.56593" lon="6.71621">
        <ele>767.7752</ele>
        <time>2015-08-20T11:24:11Z</time>
      </trkpt>
      <trkpt lat="45.56586" lon="6.71614">
        <ele>767.7752</ele>
        <time>2015-08-20T11:24:21Z</time>
      </trkpt>
      <trkpt lat="45.56582" lon="6.7161">
        <ele>771.6136</ele>
        <time>2015-08-20T11:24:26Z</time>
      </trkpt>
      <trkpt lat="45.56576" lon="6.71605">
        <ele>771.6136</ele>
        <time>2015-08-20T11:24:36Z</time>
      </trkpt>
      <trkpt lat="45.56576" lon="6.71605">
        <ele>771.6136</ele>
        <time>2015-08-20T11:24:41Z</time>
      </trkpt>
      <trkpt lat="45.56573" lon="6.71604">
        <ele>775.41815</ele>
        <time>2015-08-20T11:24:56Z</time>
      </trkpt>
      <trkpt lat="45.56566" lon="6.71599">
        <ele>775.41815</ele>
        <time>2015-08-20T11:25:11Z</time>
      </trkpt>
      <trkpt lat="45.56555" lon="6.71595">
        <ele>779.3525</ele>
        <time>2015-08-20T11:25:26Z</time>
      </trkpt>
      <trkpt lat="45.56555" lon="6.71595">
        <ele>779.3525</ele>
        <time>2015-08-20T11:25:31Z</time>
      </trkpt>
      <trkpt lat="45.56551" lon="6.71591">
        <ele>779.3525</ele>
        <time>2015-08-20T11:25:41Z</time>
      </trkpt>
      <trkpt lat="45.5655" lon="6.71591">
        <ele>779.3525</ele>
        <time>2015-08-20T11:25:46Z</time>
      </trkpt>
      <trkpt lat="45.56535" lon="6.71586">
        <ele>783.33746</ele>
        <time>2015-08-20T11:25:56Z</time>
      </trkpt>
      <trkpt lat="45.56533" lon="6.71584">
        <ele>783.33746</ele>
        <time>2015-08-20T11:26:01Z</time>
      </trkpt>
      <trkpt lat="45.56528" lon="6.7158">
        <ele>783.33746</ele>
        <time>2015-08-20T11:26:11Z</time>
      </trkpt>
      <trkpt lat="45.56523" lon="6.71577">
        <ele>787.1992</ele>
        <time>2015-08-20T11:26:16Z</time>
      </trkpt>
      <trkpt lat="45.5652" lon="6.71576">
        <ele>787.1992</ele>
        <time>2015-08-20T11:26:26Z</time>
      </trkpt>
      <trkpt lat="45.5652" lon="6.71575">
        <ele>787.1992</ele>
        <time>2015-08-20T11:26:31Z</time>
      </trkpt>
      <trkpt lat="45.56519" lon="6.71575">
        <ele>787.1992</ele>
        <time>2015-08-20T11:26:41Z</time>
      </trkpt>
      <trkpt lat="45.56517" lon="6.71574">
        <ele>787.1992</ele>
        <time>2015-08-20T11:26:46Z</time>
      </trkpt>
      <trkpt lat="45.56515" lon="6.71574">
        <ele>791.46906</ele>
        <time>2015-08-20T11:26:56Z</time>
      </trkpt>
      <trkpt lat="45.56512" lon="6.71574">
        <ele>791.46906</ele>
        <time>2015-08-20T11:27:01Z</time>
      </trkpt>
      <trkpt lat="45.56512" lon="6.71575">
        <ele>791.46906</ele>
        <time>2015-08-20T11:27:11Z</time>
      </trkpt>
      <trkpt lat="45.56508" lon="6.71577">
        <ele>791.46906</ele>
        <time>2015-08-20T11:27:26Z</time>
      </trkpt>
      <trkpt lat="45.56508" lon="6.71577">
        <ele>791.46906</ele>
        <time>2015-08-20T11:27:31Z</time>
      </trkpt>
      <trkpt lat="45.565" lon="6.7158">
        <ele>796.73926</ele>
        <time>2015-08-20T11:27:46Z</time>
      </trkpt>
      <trkpt lat="45.56499" lon="6.71581">
        <ele>796.73926</ele>
        <time>2015-08-20T11:27:51Z</time>
      </trkpt>
      <trkpt lat="45.56496" lon="6.71583">
        <ele>796.73926</ele>
        <time>2015-08-20T11:28:01Z</time>
      </trkpt>
      <trkpt lat="45.56493" lon="6.71585">
        <ele>796.73926</ele>
        <time>2015-08-20T11:28:06Z</time>
      </trkpt>
      <trkpt lat="45.56489" lon="6.71587">
        <ele>802.70605</ele>
        <time>2015-08-20T11:28:16Z</time>
      </trkpt>
      <trkpt lat="45.56488" lon="6.71588">
        <ele>802.70605</ele>
        <time>2015-08-20T11:28:31Z</time>
      </trkpt>
      <trkpt lat="45.56487" lon="6.71589">
        <ele>802.70605</ele>
        <time>2015-08-20T11:28:36Z</time>
      </trkpt>
      <trkpt lat="45.56478" lon="6.71597">
        <ele>808.9278</ele>
        <time>2015-08-20T11:28:46Z</time>
      </trkpt>
      <trkpt lat="45.56478" lon="6.71596">
        <ele>808.9278</ele>
        <time>2015-08-20T11:28:51Z</time>
      </trkpt>
      <trkpt lat="45.56475" lon="6.71597">
        <ele>808.9278</ele>
        <time>2015-08-20T11:29:01Z</time>
      </trkpt>
      <trkpt lat="45.56475" lon="6.71598">
        <ele>808.9278</ele>
        <time>2015-08-20T11:29:06Z</time>
      </trkpt>
      <trkpt lat="45.56469" lon="6.71599">
        <ele>814.86536</ele>
        <time>2015-08-20T11:29:16Z</time>
      </trkpt>
      <trkpt lat="45.56468" lon="6.71601">
        <ele>814.86536</ele>
        <time>2015-08-20T11:29:21Z</time>
      </trkpt>
      <trkpt lat="45.5646" lon="6.71609">
        <ele>819.9194</ele>
        <time>2015-08-20T11:29:36Z</time>
      </trkpt>
      <trkpt lat="45.56456" lon="6.71613">
        <ele>819.9194</ele>
        <time>2015-08-20T11:29:41Z</time>
      </trkpt>
      <trkpt lat="45.56454" lon="6.71616">
        <ele>819.9194</ele>
        <time>2015-08-20T11:29:51Z</time>
      </trkpt>
      <trkpt lat="45.56454" lon="6.71616">
        <ele>819.9194</ele>
        <time>2015-08-20T11:29:56Z</time>
      </trkpt>
      <trkpt lat="45.56449" lon="6.71618">
        <ele>824.73376</ele>
        <time>2015-08-20T11:30:06Z</time>
      </trkpt>
      <trkpt lat="45.56442" lon="6.71618">
        <ele>824.73376</ele>
        <time>2015-08-20T11:30:11Z</time>
      </trkpt>
      <trkpt lat="45.56438" lon="6.71618">
        <ele>829.04144</ele>
        <time>2015-08-20T11:30:21Z</time>
      </trkpt>
      <trkpt lat="45.56438" lon="6.71618">
        <ele>829.04144</ele>
        <time>2015-08-20T11:30:26Z</time>
      </trkpt>
      <trkpt lat="45.56435" lon="6.71618">
        <ele>829.04144</ele>
        <time>2015-08-20T11:30:36Z</time>
      </trkpt>
      <trkpt lat="45.56434" lon="6.71618">
        <ele>829.04144</ele>
        <time>2015-08-20T11:30:41Z</time>
      </trkpt>
      <trkpt lat="45.56428" lon="6.71619">
        <ele>832.9283</ele>
        <time>2015-08-20T11:30:51Z</time>
      </trkpt>
      <trkpt lat="45.56427" lon="6.71619">
        <ele>832.9283</ele>
        <time>2015-08-20T11:30:56Z</time>
      </trkpt>
      <trkpt lat="45.56418" lon="6.71622">
        <ele>836.34576</ele>
        <time>2015-08-20T11:31:06Z</time>
      </trkpt>
      <trkpt lat="45.56417" lon="6.71622">
        <ele>836.34576</ele>
        <time>2015-08-20T11:31:26Z</time>
      </trkpt>
      <trkpt lat="45.56415" lon="6.71622">
        <ele>836.34576</ele>
        <time>2015-08-20T11:32:01Z</time>
      </trkpt>
      <trkpt lat="45.56404" lon="6.7162">
        <ele>838.7751</ele>
        <time>2015-08-20T11:32:11Z</time>
      </trkpt>
      <trkpt lat="45.564" lon="6.71617">
        <ele>838.7751</ele>
        <time>2015-08-20T11:32:16Z</time>
      </trkpt>
      <trkpt lat="45.56396" lon="6.71613">
        <ele>841.0934</ele>
        <time>2015-08-20T11:32:26Z</time>
      </trkpt>
      <trkpt lat="45.56392" lon="6.71611">
        <ele>841.0934</ele>
        <time>2015-08-20T11:32:31Z</time>
      </trkpt>
      <trkpt lat="45.56386" lon="6.7161">
        <ele>843.6385</ele>
        <time>2015-08-20T11:32:41Z</time>
      </trkpt>
      <trkpt lat="45.56385" lon="6.7161">
        <ele>843.6385</ele>
        <time>2015-08-20T11:32:46Z</time>
      </trkpt>
      <trkpt lat="45.56381" lon="6.71608">
        <ele>843.6385</ele>
        <time>2015-08-20T11:32:56Z</time>
      </trkpt>
      <trkpt lat="45.5638" lon="6.71607">
        <ele>843.6385</ele>
        <time>2015-08-20T11:33:01Z</time>
      </trkpt>
      <trkpt lat="45.56372" lon="6.71603">
        <ele>846.9104</ele>
        <time>2015-08-20T11:33:16Z</time>
      </trkpt>
      <trkpt lat="45.56371" lon="6.71603">
        <ele>846.9104</ele>
        <time>2015-08-20T11:33:21Z</time>
      </trkpt>
      <trkpt lat="45.56366" lon="6.71598">
        <ele>846.9104</ele>
        <time>2015-08-20T11:33:31Z</time>
      </trkpt>
      <trkpt lat="45.56359" lon="6.71594">
        <ele>850.54944</ele>
        <time>2015-08-20T11:33:36Z</time>
      </trkpt>
      <trkpt lat="45.56351" lon="6.71589">
        <ele>853.7315</ele>
        <time>2015-08-20T11:33:46Z</time>
      </trkpt>
      <trkpt lat="45.56345" lon="6.71586">
        <ele>853.7315</ele>
        <time>2015-08-20T11:33:51Z</time>
      </trkpt>
      <trkpt lat="45.56343" lon="6.71585">
        <ele>853.7315</ele>
        <time>2015-08-20T11:34:01Z</time>
      </trkpt>
      <trkpt lat="45.5634" lon="6.71586">
        <ele>857.0925</ele>
        <time>2015-08-20T11:34:16Z</time>
      </trkpt>
      <trkpt lat="45.56339" lon="6.71587">
        <ele>857.0925</ele>
        <time>2015-08-20T11:34:21Z</time>
      </trkpt>
      <trkpt lat="45.56337" lon="6.71588">
        <ele>857.0925</ele>
        <time>2015-08-20T11:34:31Z</time>
      </trkpt>
      <trkpt lat="45.56337" lon="6.71588">
        <ele>857.0925</ele>
        <time>2015-08-20T11:34:36Z</time>
      </trkpt>
      <trkpt lat="45.56333" lon="6.71593">
        <ele>857.0925</ele>
        <time>2015-08-20T11:34:46Z</time>
      </trkpt>
      <trkpt lat="45.56328" lon="6.71597">
        <ele>860.80365</ele>
        <time>2015-08-20T11:34:51Z</time>
      </trkpt>
      <trkpt lat="45.56317" lon="6.7161">
        <ele>863.98517</ele>
        <time>2015-08-20T11:35:06Z</time>
      </trkpt>
      <trkpt lat="45.56315" lon="6.71613">
        <ele>863.98517</ele>
        <time>2015-08-20T11:35:11Z</time>
      </trkpt>
      <trkpt lat="45.56314" lon="6.71614">
        <ele>863.98517</ele>
        <time>2015-08-20T11:35:21Z</time>
      </trkpt>
      <trkpt lat="45.56312" lon="6.71616">
        <ele>863.98517</ele>
        <time>2015-08-20T11:35:26Z</time>
      </trkpt>
      <trkpt lat="45.56304" lon="6.71622">
        <ele>867.4953</ele>
        <time>2015-08-20T11:35:36Z</time>
      </trkpt>
      <trkpt lat="45.56305" lon="6.71623">
        <ele>867.4953</ele>
        <time>2015-08-20T11:35:41Z</time>
      </trkpt>
      <trkpt lat="45.56297" lon="6.71636">
        <ele>871.1055</ele>
        <time>2015-08-20T11:35:51Z</time>
      </trkpt>
      <trkpt lat="45.56296" lon="6.71636">
        <ele>871.1055</ele>
        <time>2015-08-20T11:35:56Z</time>
      </trkpt>
      <trkpt lat="45.5628" lon="6.71645">
        <ele>874.4166</ele>
        <time>2015-08-20T11:36:06Z</time>
      </trkpt>
      <trkpt lat="45.56276" lon="6.7165">
        <ele>874.4166</ele>
        <time>2015-08-20T11:36:11Z</time>
      </trkpt>
      <trkpt lat="45.56274" lon="6.71652">
        <ele>874.4166</ele>
        <time>2015-08-20T11:36:21Z</time>
      </trkpt>
      <trkpt lat="45.56274" lon="6.71651">
        <ele>874.4166</ele>
        <time>2015-08-20T11:36:26Z</time>
      </trkpt>
      <trkpt lat="45.56275" lon="6.71651">
        <ele>874.4166</ele>
        <time>2015-08-20T11:36:36Z</time>
      </trkpt>
      <trkpt lat="45.56273" lon="6.71651">
        <ele>876.6852</ele>
        <time>2015-08-20T11:37:01Z</time>
      </trkpt>
      <trkpt lat="45.56271" lon="6.71652">
        <ele>876.6852</ele>
        <time>2015-08-20T11:37:11Z</time>
      </trkpt>
      <trkpt lat="45.5627" lon="6.71654">
        <ele>876.6852</ele>
        <time>2015-08-20T11:37:16Z</time>
      </trkpt>
      <trkpt lat="45.56269" lon="6.71656">
        <ele>876.6852</ele>
        <time>2015-08-20T11:37:26Z</time>
      </trkpt>
      <trkpt lat="45.56268" lon="6.71659">
        <ele>876.6852</ele>
        <time>2015-08-20T11:37:31Z</time>
      </trkpt>
      <trkpt lat="45.56271" lon="6.71663">
        <ele>879.24304</ele>
        <time>2015-08-20T11:37:41Z</time>
      </trkpt>
      <trkpt lat="45.56272" lon="6.71665">
        <ele>879.24304</ele>
        <time>2015-08-20T11:37:46Z</time>
      </trkpt>
      <trkpt lat="45.56273" lon="6.71667">
        <ele>879.24304</ele>
        <time>2015-08-20T11:37:56Z</time>
      </trkpt>
      <trkpt lat="45.56273" lon="6.71669">
        <ele>879.24304</ele>
        <time>2015-08-20T11:38:01Z</time>
      </trkpt>
      <trkpt lat="45.56275" lon="6.71672">
        <ele>879.24304</ele>
        <time>2015-08-20T11:38:11Z</time>
      </trkpt>
      <trkpt lat="45.56277" lon="6.71679">
        <ele>881.86804</ele>
        <time>2015-08-20T11:38:16Z</time>
      </trkpt>
      <trkpt lat="45.5628" lon="6.71683">
        <ele>881.86804</ele>
        <time>2015-08-20T11:38:26Z</time>
      </trkpt>
      <trkpt lat="45.56285" lon="6.7169">
        <ele>884.13824</ele>
        <time>2015-08-20T11:38:31Z</time>
      </trkpt>
      <trkpt lat="45.56284" lon="6.71704">
        <ele>885.952</ele>
        <time>2015-08-20T11:38:46Z</time>
      </trkpt>
      <trkpt lat="45.56284" lon="6.71705">
        <ele>885.952</ele>
        <time>2015-08-20T11:38:51Z</time>
      </trkpt>
      <trkpt lat="45.56284" lon="6.71709">
        <ele>885.952</ele>
        <time>2015-08-20T11:39:01Z</time>
      </trkpt>
      <trkpt lat="45.56284" lon="6.71711">
        <ele>885.952</ele>
        <time>2015-08-20T11:39:06Z</time>
      </trkpt>
      <trkpt lat="45.56277" lon="6.71706">
        <ele>888.08136</ele>
        <time>2015-08-20T11:39:16Z</time>
      </trkpt>
      <trkpt lat="45.56273" lon="6.71702">
        <ele>888.08136</ele>
        <time>2015-08-20T11:39:21Z</time>
      </trkpt>
      <trkpt lat="45.56272" lon="6.71701">
        <ele>888.08136</ele>
        <time>2015-08-20T11:39:31Z</time>
      </trkpt>
      <trkpt lat="45.56269" lon="6.71699">
        <ele>888.08136</ele>
        <time>2015-08-20T11:39:46Z</time>
      </trkpt>
      <trkpt lat="45.56268" lon="6.71698">
        <ele>889.98694</ele>
        <time>2015-08-20T11:39:51Z</time>
      </trkpt>
      <trkpt lat="45.56263" lon="6.71695">
        <ele>889.98694</ele>
        <time>2015-08-20T11:40:01Z</time>
      </trkpt>
      <trkpt lat="45.5626" lon="6.71695">
        <ele>889.98694</ele>
        <time>2015-08-20T11:40:06Z</time>
      </trkpt>
      <trkpt lat="45.56258" lon="6.71695">
        <ele>891.5446</ele>
        <time>2015-08-20T11:40:16Z</time>
      </trkpt>
      <trkpt lat="45.56256" lon="6.71695">
        <ele>891.5446</ele>
        <time>2015-08-20T11:40:21Z</time>
      </trkpt>
      <trkpt lat="45.56253" lon="6.71696">
        <ele>891.5446</ele>
        <time>2015-08-20T11:40:31Z</time>
      </trkpt>
      <trkpt lat="45.56251" lon="6.71697">
        <ele>891.5446</ele>
        <time>2015-08-20T11:40:36Z</time>
      </trkpt>
      <trkpt lat="45.56249" lon="6.71696">
        <ele>892.65466</ele>
        <time>2015-08-20T11:40:51Z</time>
      </trkpt>
      <trkpt lat="45.56246" lon="6.71696">
        <ele>892.65466</ele>
        <time>2015-08-20T11:40:56Z</time>
      </trkpt>
      <trkpt lat="45.56245" lon="6.71698">
        <ele>892.65466</ele>
        <time>2015-08-20T11:41:06Z</time>
      </trkpt>
      <trkpt lat="45.56243" lon="6.71703">
        <ele>892.65466</ele>
        <time>2015-08-20T11:41:11Z</time>
      </trkpt>
      <trkpt lat="45.56242" lon="6.71713">
        <ele>894.062</ele>
        <time>2015-08-20T11:41:21Z</time>
      </trkpt>
      <trkpt lat="45.56241" lon="6.7172">
        <ele>894.062</ele>
        <time>2015-08-20T11:41:26Z</time>
      </trkpt>
      <trkpt lat="45.56241" lon="6.71723">
        <ele>894.062</ele>
        <time>2015-08-20T11:41:36Z</time>
      </trkpt>
      <trkpt lat="45.5624" lon="6.71725">
        <ele>894.062</ele>
        <time>2015-08-20T11:41:41Z</time>
      </trkpt>
      <trkpt lat="45.5624" lon="6.71727">
        <ele>895.476</ele>
        <time>2015-08-20T11:41:51Z</time>
      </trkpt>
      <trkpt lat="45.56239" lon="6.71729">
        <ele>895.476</ele>
        <time>2015-08-20T11:41:56Z</time>
      </trkpt>
      <trkpt lat="45.56239" lon="6.71736">
        <ele>895.476</ele>
        <time>2015-08-20T11:42:06Z</time>
      </trkpt>
      <trkpt lat="45.56241" lon="6.71738">
        <ele>895.476</ele>
        <time>2015-08-20T11:42:11Z</time>
      </trkpt>
      <trkpt lat="45.56238" lon="6.71741">
        <ele>897.40564</ele>
        <time>2015-08-20T11:42:21Z</time>
      </trkpt>
      <trkpt lat="45.56237" lon="6.71742">
        <ele>897.40564</ele>
        <time>2015-08-20T11:42:26Z</time>
      </trkpt>
      <trkpt lat="45.56232" lon="6.71754">
        <ele>899.41315</ele>
        <time>2015-08-20T11:42:36Z</time>
      </trkpt>
      <trkpt lat="45.56233" lon="6.7176">
        <ele>899.41315</ele>
        <time>2015-08-20T11:42:41Z</time>
      </trkpt>
      <trkpt lat="45.5623" lon="6.7177">
        <ele>901.23676</ele>
        <time>2015-08-20T11:42:51Z</time>
      </trkpt>
      <trkpt lat="45.56228" lon="6.71772">
        <ele>901.23676</ele>
        <time>2015-08-20T11:42:56Z</time>
      </trkpt>
      <trkpt lat="45.56226" lon="6.71776">
        <ele>901.23676</ele>
        <time>2015-08-20T11:43:06Z</time>
      </trkpt>
      <trkpt lat="45.56226" lon="6.71777">
        <ele>901.23676</ele>
        <time>2015-08-20T11:43:11Z</time>
      </trkpt>
      <trkpt lat="45.56225" lon="6.71778">
        <ele>901.23676</ele>
        <time>2015-08-20T11:43:21Z</time>
      </trkpt>
      <trkpt lat="45.56225" lon="6.71779">
        <ele>901.23676</ele>
        <time>2015-08-20T11:43:26Z</time>
      </trkpt>
      <trkpt lat="45.5622" lon="6.71781">
        <ele>903.5136</ele>
        <time>2015-08-20T11:43:41Z</time>
      </trkpt>
      <trkpt lat="45.56218" lon="6.71783">
        <ele>903.5136</ele>
        <time>2015-08-20T11:43:46Z</time>
      </trkpt>
      <trkpt lat="45.56217" lon="6.71789">
        <ele>903.5136</ele>
        <time>2015-08-20T11:43:56Z</time>
      </trkpt>
      <trkpt lat="45.56216" lon="6.71791">
        <ele>903.5136</ele>
        <time>2015-08-20T11:44:01Z</time>
      </trkpt>
      <trkpt lat="45.56215" lon="6.71791">
        <ele>905.53564</ele>
        <time>2015-08-20T11:44:11Z</time>
      </trkpt>
      <trkpt lat="45.56212" lon="6.71793">
        <ele>905.53564</ele>
        <time>2015-08-20T11:44:16Z</time>
      </trkpt>
      <trkpt lat="45.56208" lon="6.71797">
        <ele>905.53564</ele>
        <time>2015-08-20T11:44:26Z</time>
      </trkpt>
      <trkpt lat="45.56207" lon="6.71799">
        <ele>907.56995</ele>
        <time>2015-08-20T11:44:31Z</time>
      </trkpt>
      <trkpt lat="45.56206" lon="6.71802">
        <ele>907.56995</ele>
        <time>2015-08-20T11:44:41Z</time>
      </trkpt>
      <trkpt lat="45.56205" lon="6.71803">
        <ele>907.56995</ele>
        <time>2015-08-20T11:44:46Z</time>
      </trkpt>
      <trkpt lat="45.56205" lon="6.71805">
        <ele>907.56995</ele>
        <time>2015-08-20T11:44:56Z</time>
      </trkpt>
      <trkpt lat="45.56204" lon="6.71806">
        <ele>907.56995</ele>
        <time>2015-08-20T11:45:01Z</time>
      </trkpt>
      <trkpt lat="45.56201" lon="6.71804">
        <ele>909.71967</ele>
        <time>2015-08-20T11:45:11Z</time>
      </trkpt>
      <trkpt lat="45.56201" lon="6.71804">
        <ele>909.71967</ele>
        <time>2015-08-20T11:45:16Z</time>
      </trkpt>
      <trkpt lat="45.56201" lon="6.71804">
        <ele>909.71967</ele>
        <time>2015-08-20T11:46:01Z</time>
      </trkpt>
      <trkpt lat="45.56197" lon="6.71813">
        <ele>909.71967</ele>
        <time>2015-08-20T11:46:16Z</time>
      </trkpt>
      <trkpt lat="45.56197" lon="6.71813">
        <ele>909.71967</ele>
        <time>2015-08-20T11:46:21Z</time>
      </trkpt>
      <trkpt lat="45.56196" lon="6.71812">
        <ele>909.71967</ele>
        <time>2015-08-20T11:46:31Z</time>
      </trkpt>
      <trkpt lat="45.56194" lon="6.71813">
        <ele>913.16095</ele>
        <time>2015-08-20T11:46:36Z</time>
      </trkpt>
      <trkpt lat="45.56193" lon="6.71813">
        <ele>913.16095</ele>
        <time>2015-08-20T11:46:46Z</time>
      </trkpt>
      <trkpt lat="45.56189" lon="6.71815">
        <ele>913.16095</ele>
        <time>2015-08-20T11:47:31Z</time>
      </trkpt>
      <trkpt lat="45.56189" lon="6.71815">
        <ele>913.16095</ele>
        <time>2015-08-20T11:47:36Z</time>
      </trkpt>
      <trkpt lat="45.56188" lon="6.71815">
        <ele>913.16095</ele>
        <time>2015-08-20T11:48:06Z</time>
      </trkpt>
      <trkpt lat="45.56183" lon="6.71816">
        <ele>916.7605</ele>
        <time>2015-08-20T11:48:36Z</time>
      </trkpt>
      <trkpt lat="45.56176" lon="6.7182">
        <ele>916.7605</ele>
        <time>2015-08-20T11:48:41Z</time>
      </trkpt>
      <trkpt lat="45.56174" lon="6.7182">
        <ele>919.97217</ele>
        <time>2015-08-20T11:48:51Z</time>
      </trkpt>
      <trkpt lat="45.5617" lon="6.7182">
        <ele>919.97217</ele>
        <time>2015-08-20T11:48:56Z</time>
      </trkpt>
      <trkpt lat="45.56165" lon="6.71825">
        <ele>922.853</ele>
        <time>2015-08-20T11:49:06Z</time>
      </trkpt>
      <trkpt lat="45.56165" lon="6.71825">
        <ele>922.853</ele>
        <time>2015-08-20T11:49:11Z</time>
      </trkpt>
      <trkpt lat="45.56155" lon="6.71825">
        <ele>925.80273</ele>
        <time>2015-08-20T11:49:51Z</time>
      </trkpt>
      <trkpt lat="45.56154" lon="6.71827">
        <ele>925.80273</ele>
        <time>2015-08-20T11:49:56Z</time>
      </trkpt>
      <trkpt lat="45.56153" lon="6.71828">
        <ele>925.80273</ele>
        <time>2015-08-20T11:50:06Z</time>
      </trkpt>
      <trkpt lat="45.56149" lon="6.71833">
        <ele>925.80273</ele>
        <time>2015-08-20T11:50:11Z</time>
      </trkpt>
      <trkpt lat="45.56146" lon="6.7183">
        <ele>928.9608</ele>
        <time>2015-08-20T11:50:26Z</time>
      </trkpt>
      <trkpt lat="45.56145" lon="6.7183">
        <ele>928.9608</ele>
        <time>2015-08-20T11:50:31Z</time>
      </trkpt>
      <trkpt lat="45.56144" lon="6.71828">
        <ele>928.9608</ele>
        <time>2015-08-20T11:50:41Z</time>
      </trkpt>
      <trkpt lat="45.56139" lon="6.71826">
        <ele>928.9608</ele>
        <time>2015-08-20T11:50:46Z</time>
      </trkpt>
      <trkpt lat="45.56139" lon="6.71826">
        <ele>928.9608</ele>
        <time>2015-08-20T11:50:56Z</time>
      </trkpt>
      <trkpt lat="45.56137" lon="6.71826">
        <ele>932.0091</ele>
        <time>2015-08-20T11:51:01Z</time>
      </trkpt>
      <trkpt lat="45.56128" lon="6.71829">
        <ele>932.0091</ele>
        <time>2015-08-20T11:51:11Z</time>
      </trkpt>
      <trkpt lat="45.56123" lon="6.71834">
        <ele>934.69635</ele>
        <time>2015-08-20T11:51:16Z</time>
      </trkpt>
      <trkpt lat="45.56122" lon="6.71835">
        <ele>934.69635</ele>
        <time>2015-08-20T11:51:26Z</time>
      </trkpt>
      <trkpt lat="45.56121" lon="6.71836">
        <ele>934.69635</ele>
        <time>2015-08-20T11:52:01Z</time>
      </trkpt>
      <trkpt lat="45.5612" lon="6.71837">
        <ele>934.69635</ele>
        <time>2015-08-20T11:52:11Z</time>
      </trkpt>
      <trkpt lat="45.5612" lon="6.71837">
        <ele>934.69635</ele>
        <time>2015-08-20T11:52:16Z</time>
      </trkpt>
      <trkpt lat="45.56118" lon="6.71844">
        <ele>934.69635</ele>
        <time>2015-08-20T11:52:26Z</time>
      </trkpt>
      <trkpt lat="45.56118" lon="6.71846">
        <ele>938.20306</ele>
        <time>2015-08-20T11:52:31Z</time>
      </trkpt>
      <trkpt lat="45.56118" lon="6.71856">
        <ele>938.20306</ele>
        <time>2015-08-20T11:52:46Z</time>
      </trkpt>
      <trkpt lat="45.56116" lon="6.71863">
        <ele>941.32935</ele>
        <time>2015-08-20T11:52:51Z</time>
      </trkpt>
      <trkpt lat="45.56115" lon="6.71878">
        <ele>944.2759</ele>
        <time>2015-08-20T11:53:01Z</time>
      </trkpt>
      <trkpt lat="45.56115" lon="6.71878">
        <ele>944.2759</ele>
        <time>2015-08-20T11:53:06Z</time>
      </trkpt>
      <trkpt lat="45.56115" lon="6.71882">
        <ele>944.2759</ele>
        <time>2015-08-20T11:53:16Z</time>
      </trkpt>
      <trkpt lat="45.56115" lon="6.71882">
        <ele>944.2759</ele>
        <time>2015-08-20T11:53:21Z</time>
      </trkpt>
      <trkpt lat="45.56113" lon="6.71883">
        <ele>944.2759</ele>
        <time>2015-08-20T11:53:31Z</time>
      </trkpt>
      <trkpt lat="45.56113" lon="6.71883">
        <ele>944.2759</ele>
        <time>2015-08-20T11:53:36Z</time>
      </trkpt>
      <trkpt lat="45.56113" lon="6.71885">
        <ele>944.2759</ele>
        <time>2015-08-20T11:53:46Z</time>
      </trkpt>
      <trkpt lat="45.56114" lon="6.71886">
        <ele>944.2759</ele>
        <time>2015-08-20T11:53:51Z</time>
      </trkpt>
      <trkpt lat="45.56116" lon="6.71889">
        <ele>948.56934</ele>
        <time>2015-08-20T11:54:01Z</time>
      </trkpt>
      <trkpt lat="45.56117" lon="6.7189">
        <ele>948.56934</ele>
        <time>2015-08-20T11:54:06Z</time>
      </trkpt>
      <trkpt lat="45.56117" lon="6.71891">
        <ele>948.56934</ele>
        <time>2015-08-20T11:54:16Z</time>
      </trkpt>
      <trkpt lat="45.56118" lon="6.71893">
        <ele>948.56934</ele>
        <time>2015-08-20T11:54:31Z</time>
      </trkpt>
      <trkpt lat="45.56118" lon="6.71896">
        <ele>948.56934</ele>
        <time>2015-08-20T11:54:36Z</time>
      </trkpt>
      <trkpt lat="45.56118" lon="6.71897">
        <ele>948.56934</ele>
        <time>2015-08-20T11:54:46Z</time>
      </trkpt>
      <trkpt lat="45.56119" lon="6.71897">
        <ele>948.56934</ele>
        <time>2015-08-20T11:54:51Z</time>
      </trkpt>
      <trkpt lat="45.56121" lon="6.719">
        <ele>953.7325</ele>
        <time>2015-08-20T11:55:06Z</time>
      </trkpt>
      <trkpt lat="45.56121" lon="6.71902">
        <ele>953.7325</ele>
        <time>2015-08-20T11:55:11Z</time>
      </trkpt>
      <trkpt lat="45.56121" lon="6.71902">
        <ele>953.7325</ele>
        <time>2015-08-20T11:55:21Z</time>
      </trkpt>
      <trkpt lat="45.56123" lon="6.71905">
        <ele>953.7325</ele>
        <time>2015-08-20T11:55:36Z</time>
      </trkpt>
      <trkpt lat="45.56124" lon="6.71908">
        <ele>953.7325</ele>
        <time>2015-08-20T11:55:41Z</time>
      </trkpt>
      <trkpt lat="45.56124" lon="6.71916">
        <ele>958.8742</ele>
        <time>2015-08-20T11:55:51Z</time>
      </trkpt>
      <trkpt lat="45.56124" lon="6.71917">
        <ele>958.8742</ele>
        <time>2015-08-20T11:55:56Z</time>
      </trkpt>
      <trkpt lat="45.56127" lon="6.71924">
        <ele>958.8742</ele>
        <time>2015-08-20T11:56:06Z</time>
      </trkpt>
      <trkpt lat="45.56126" lon="6.71926">
        <ele>958.8742</ele>
        <time>2015-08-20T11:56:11Z</time>
      </trkpt>
      <trkpt lat="45.56125" lon="6.71933">
        <ele>963.6586</ele>
        <time>2015-08-20T11:56:21Z</time>
      </trkpt>
      <trkpt lat="45.56126" lon="6.71935">
        <ele>963.6586</ele>
        <time>2015-08-20T11:56:26Z</time>
      </trkpt>
      <trkpt lat="45.56126" lon="6.71935">
        <ele>963.6586</ele>
        <time>2015-08-20T11:56:36Z</time>
      </trkpt>
      <trkpt lat="45.56126" lon="6.71936">
        <ele>963.6586</ele>
        <time>2015-08-20T11:56:41Z</time>
      </trkpt>
      <trkpt lat="45.56121" lon="6.71957">
        <ele>968.7269</ele>
        <time>2015-08-20T11:56:56Z</time>
      </trkpt>
      <trkpt lat="45.56121" lon="6.71962">
        <ele>968.7269</ele>
        <time>2015-08-20T11:57:01Z</time>
      </trkpt>
      <trkpt lat="45.56124" lon="6.71967">
        <ele>968.7269</ele>
        <time>2015-08-20T11:57:11Z</time>
      </trkpt>
      <trkpt lat="45.56121" lon="6.7197">
        <ele>973.8508</ele>
        <time>2015-08-20T11:57:16Z</time>
      </trkpt>
      <trkpt lat="45.56121" lon="6.7197">
        <ele>973.8508</ele>
        <time>2015-08-20T11:57:26Z</time>
      </trkpt>
      <trkpt lat="45.56121" lon="6.71969">
        <ele>973.8508</ele>
        <time>2015-08-20T11:58:11Z</time>
      </trkpt>
      <trkpt lat="45.56121" lon="6.71969">
        <ele>973.8508</ele>
        <time>2015-08-20T11:58:16Z</time>
      </trkpt>
      <trkpt lat="45.56122" lon="6.71967">
        <ele>973.8508</ele>
        <time>2015-08-20T11:59:41Z</time>
      </trkpt>
      <trkpt lat="45.56123" lon="6.71967">
        <ele>973.8508</ele>
        <time>2015-08-20T11:59:46Z</time>
      </trkpt>
      <trkpt lat="45.56123" lon="6.71967">
        <ele>973.8508</ele>
        <time>2015-08-20T12:00:06Z</time>
      </trkpt>
      <trkpt lat="45.56124" lon="6.71976">
        <ele>977.8677</ele>
        <time>2015-08-20T12:00:16Z</time>
      </trkpt>
      <trkpt lat="45.56123" lon="6.71984">
        <ele>977.8677</ele>
        <time>2015-08-20T12:00:21Z</time>
      </trkpt>
      <trkpt lat="45.56128" lon="6.71989">
        <ele>981.49036</ele>
        <time>2015-08-20T12:00:31Z</time>
      </trkpt>
      <trkpt lat="45.5613" lon="6.71993">
        <ele>981.49036</ele>
        <time>2015-08-20T12:00:36Z</time>
      </trkpt>
      <trkpt lat="45.56133" lon="6.71996">
        <ele>981.49036</ele>
        <time>2015-08-20T12:00:46Z</time>
      </trkpt>
      <trkpt lat="45.56134" lon="6.72">
        <ele>984.67444</ele>
        <time>2015-08-20T12:00:51Z</time>
      </trkpt>
      <trkpt lat="45.56134" lon="6.72005">
        <ele>984.67444</ele>
        <time>2015-08-20T12:01:01Z</time>
      </trkpt>
      <trkpt lat="45.56133" lon="6.72006">
        <ele>984.67444</ele>
        <time>2015-08-20T12:01:06Z</time>
      </trkpt>
      <trkpt lat="45.56134" lon="6.72016">
        <ele>987.88434</ele>
        <time>2015-08-20T12:01:16Z</time>
      </trkpt>
      <trkpt lat="45.56135" lon="6.72021">
        <ele>987.88434</ele>
        <time>2015-08-20T12:01:21Z</time>
      </trkpt>
      <trkpt lat="45.56141" lon="6.72042">
        <ele>991.16144</ele>
        <time>2015-08-20T12:01:36Z</time>
      </trkpt>
      <trkpt lat="45.56141" lon="6.72044">
        <ele>991.16144</ele>
        <time>2015-08-20T12:01:41Z</time>
      </trkpt>
      <trkpt lat="45.56138" lon="6.72054">
        <ele>991.16144</ele>
        <time>2015-08-20T12:01:51Z</time>
      </trkpt>
      <trkpt lat="45.56138" lon="6.72056">
        <ele>994.0537</ele>
        <time>2015-08-20T12:01:56Z</time>
      </trkpt>
      <trkpt lat="45.56136" lon="6.72058">
        <ele>994.0537</ele>
        <time>2015-08-20T12:02:06Z</time>
      </trkpt>
      <trkpt lat="45.56134" lon="6.72069">
        <ele>996.73456</ele>
        <time>2015-08-20T12:02:21Z</time>
      </trkpt>
      <trkpt lat="45.56134" lon="6.72069">
        <ele>996.73456</ele>
        <time>2015-08-20T12:02:26Z</time>
      </trkpt>
      <trkpt lat="45.56132" lon="6.72072">
        <ele>996.73456</ele>
        <time>2015-08-20T12:02:36Z</time>
      </trkpt>
      <trkpt lat="45.56131" lon="6.7208">
        <ele>996.73456</ele>
        <time>2015-08-20T12:02:41Z</time>
      </trkpt>
      <trkpt lat="45.56131" lon="6.72085">
        <ele>999.40845</ele>
        <time>2015-08-20T12:02:51Z</time>
      </trkpt>
      <trkpt lat="45.56131" lon="6.72088">
        <ele>999.40845</ele>
        <time>2015-08-20T12:02:56Z</time>
      </trkpt>
      <trkpt lat="45.56131" lon="6.72109">
        <ele>1002.22156</ele>
        <time>2015-08-20T12:03:06Z</time>
      </trkpt>
      <trkpt lat="45.56131" lon="6.72115">
        <ele>1002.22156</ele>
        <time>2015-08-20T12:03:11Z</time>
      </trkpt>
      <trkpt lat="45.56133" lon="6.7212">
        <ele>1002.22156</ele>
        <time>2015-08-20T12:03:21Z</time>
      </trkpt>
      <trkpt lat="45.56132" lon="6.72124">
        <ele>1005.0065</ele>
        <time>2015-08-20T12:03:26Z</time>
      </trkpt>
      <trkpt lat="45.56131" lon="6.72141">
        <ele>1007.147</ele>
        <time>2015-08-20T12:03:41Z</time>
      </trkpt>
      <trkpt lat="45.56132" lon="6.72146">
        <ele>1007.147</ele>
        <time>2015-08-20T12:03:46Z</time>
      </trkpt>
      <trkpt lat="45.56131" lon="6.7215">
        <ele>1007.147</ele>
        <time>2015-08-20T12:03:56Z</time>
      </trkpt>
      <trkpt lat="45.56132" lon="6.72157">
        <ele>1008.88086</ele>
        <time>2015-08-20T12:04:01Z</time>
      </trkpt>
      <trkpt lat="45.5613" lon="6.72168">
        <ele>1008.88086</ele>
        <time>2015-08-20T12:04:11Z</time>
      </trkpt>
      <trkpt lat="45.5613" lon="6.72168">
        <ele>1008.88086</ele>
        <time>2015-08-20T12:04:16Z</time>
      </trkpt>
      <trkpt lat="45.56131" lon="6.7218">
        <ele>1010.401</ele>
        <time>2015-08-20T12:04:26Z</time>
      </trkpt>
      <trkpt lat="45.5613" lon="6.72188">
        <ele>1010.401</ele>
        <time>2015-08-20T12:04:31Z</time>
      </trkpt>
      <trkpt lat="45.56125" lon="6.72197">
        <ele>1011.9008</ele>
        <time>2015-08-20T12:04:41Z</time>
      </trkpt>
      <trkpt lat="45.56125" lon="6.72202">
        <ele>1011.9008</ele>
        <time>2015-08-20T12:04:46Z</time>
      </trkpt>
      <trkpt lat="45.56126" lon="6.72204">
        <ele>1011.9008</ele>
        <time>2015-08-20T12:04:56Z</time>
      </trkpt>
      <trkpt lat="45.56128" lon="6.72211">
        <ele>1013.64636</ele>
        <time>2015-08-20T12:05:11Z</time>
      </trkpt>
      <trkpt lat="45.56128" lon="6.72212">
        <ele>1013.64636</ele>
        <time>2015-08-20T12:05:16Z</time>
      </trkpt>
      <trkpt lat="45.56126" lon="6.72213">
        <ele>1013.64636</ele>
        <time>2015-08-20T12:05:26Z</time>
      </trkpt>
      <trkpt lat="45.56127" lon="6.72214">
        <ele>1013.64636</ele>
        <time>2015-08-20T12:05:31Z</time>
      </trkpt>
      <trkpt lat="45.56118" lon="6.72213">
        <ele>1015.494</ele>
        <time>2015-08-20T12:05:46Z</time>
      </trkpt>
      <trkpt lat="45.56118" lon="6.72213">
        <ele>1015.494</ele>
        <time>2015-08-20T12:05:51Z</time>
      </trkpt>
      <trkpt lat="45.56115" lon="6.72211">
        <ele>1015.494</ele>
        <time>2015-08-20T12:06:01Z</time>
      </trkpt>
      <trkpt lat="45.56115" lon="6.72211">
        <ele>1015.494</ele>
        <time>2015-08-20T12:06:06Z</time>
      </trkpt>
      <trkpt lat="45.56115" lon="6.7221">
        <ele>1015.494</ele>
        <time>2015-08-20T12:06:21Z</time>
      </trkpt>
      <trkpt lat="45.56114" lon="6.72208">
        <ele>1015.494</ele>
        <time>2015-08-20T12:06:31Z</time>
      </trkpt>
      <trkpt lat="45.56113" lon="6.72207">
        <ele>1015.494</ele>
        <time>2015-08-20T12:06:36Z</time>
      </trkpt>
      <trkpt lat="45.56112" lon="6.72208">
        <ele>1017.6708</ele>
        <time>2015-08-20T12:06:46Z</time>
      </trkpt>
      <trkpt lat="45.56112" lon="6.72208">
        <ele>1017.6708</ele>
        <time>2015-08-20T12:06:51Z</time>
      </trkpt>
      <trkpt lat="45.56113" lon="6.7221">
        <ele>1017.6708</ele>
        <time>2015-08-20T12:07:01Z</time>
      </trkpt>
      <trkpt lat="45.56112" lon="6.72213">
        <ele>1017.6708</ele>
        <time>2015-08-20T12:07:06Z</time>
      </trkpt>
      <trkpt lat="45.56111" lon="6.72216">
        <ele>1017.6708</ele>
        <time>2015-08-20T12:07:16Z</time>
      </trkpt>
      <trkpt lat="45.56112" lon="6.72217">
        <ele>1017.6708</ele>
        <time>2015-08-20T12:07:21Z</time>
      </trkpt>
      <trkpt lat="45.56119" lon="6.72225">
        <ele>1020.9482</ele>
        <time>2015-08-20T12:07:31Z</time>
      </trkpt>
      <trkpt lat="45.5612" lon="6.72226">
        <ele>1020.9482</ele>
        <time>2015-08-20T12:07:36Z</time>
      </trkpt>
      <trkpt lat="45.5612" lon="6.72229">
        <ele>1020.9482</ele>
        <time>2015-08-20T12:07:51Z</time>
      </trkpt>
      <trkpt lat="45.56119" lon="6.72238">
        <ele>1024.366</ele>
        <time>2015-08-20T12:07:56Z</time>
      </trkpt>
      <trkpt lat="45.56122" lon="6.7225">
        <ele>1024.366</ele>
        <time>2015-08-20T12:08:06Z</time>
      </trkpt>
      <trkpt lat="45.56123" lon="6.72255">
        <ele>1027.5818</ele>
        <time>2015-08-20T12:08:11Z</time>
      </trkpt>
      <trkpt lat="45.56122" lon="6.72256">
        <ele>1027.5818</ele>
        <time>2015-08-20T12:08:21Z</time>
      </trkpt>
      <trkpt lat="45.56122" lon="6.72258">
        <ele>1027.5818</ele>
        <time>2015-08-20T12:08:26Z</time>
      </trkpt>
      <trkpt lat="45.56122" lon="6.72263">
        <ele>1027.5818</ele>
        <time>2015-08-20T12:08:36Z</time>
      </trkpt>
      <trkpt lat="45.56121" lon="6.72267">
        <ele>1027.5818</ele>
        <time>2015-08-20T12:08:41Z</time>
      </trkpt>
      <trkpt lat="45.56122" lon="6.7227">
        <ele>1030.9995</ele>
        <time>2015-08-20T12:08:51Z</time>
      </trkpt>
      <trkpt lat="45.56122" lon="6.72273">
        <ele>1030.9995</ele>
        <time>2015-08-20T12:08:56Z</time>
      </trkpt>
      <trkpt lat="45.56122" lon="6.72277">
        <ele>1030.9995</ele>
        <time>2015-08-20T12:09:06Z</time>
      </trkpt>
      <trkpt lat="45.56122" lon="6.72281">
        <ele>1030.9995</ele>
        <time>2015-08-20T12:09:11Z</time>
      </trkpt>
      <trkpt lat="45.56122" lon="6.72288">
        <ele>1034.6613</ele>
        <time>2015-08-20T12:09:21Z</time>
      </trkpt>
      <trkpt lat="45.56122" lon="6.72291">
        <ele>1034.6613</ele>
        <time>2015-08-20T12:09:26Z</time>
      </trkpt>
      <trkpt lat="45.56122" lon="6.72291">
        <ele>1034.6613</ele>
        <time>2015-08-20T12:09:36Z</time>
      </trkpt>
      <trkpt lat="45.56121" lon="6.72314">
        <ele>1038.0576</ele>
        <time>2015-08-20T12:09:56Z</time>
      </trkpt>
      <trkpt lat="45.56121" lon="6.72317">
        <ele>1038.0576</ele>
        <time>2015-08-20T12:10:01Z</time>
      </trkpt>
      <trkpt lat="45.56126" lon="6.72325">
        <ele>1040.9912</ele>
        <time>2015-08-20T12:10:11Z</time>
      </trkpt>
      <trkpt lat="45.56129" lon="6.72336">
        <ele>1040.9912</ele>
        <time>2015-08-20T12:10:16Z</time>
      </trkpt>
      <trkpt lat="45.56133" lon="6.7235">
        <ele>1043.5974</ele>
        <time>2015-08-20T12:10:26Z</time>
      </trkpt>
      <trkpt lat="45.56134" lon="6.72354">
        <ele>1043.5974</ele>
        <time>2015-08-20T12:10:31Z</time>
      </trkpt>
      <trkpt lat="45.56133" lon="6.72372">
        <ele>1045.7289</ele>
        <time>2015-08-20T12:10:41Z</time>
      </trkpt>
      <trkpt lat="45.56132" lon="6.72378">
        <ele>1045.7289</ele>
        <time>2015-08-20T12:10:46Z</time>
      </trkpt>
      <trkpt lat="45.56133" lon="6.72387">
        <ele>1047.452</ele>
        <time>2015-08-20T12:10:56Z</time>
      </trkpt>
      <trkpt lat="45.5613" lon="6.72395">
        <ele>1047.452</ele>
        <time>2015-08-20T12:11:01Z</time>
      </trkpt>
      <trkpt lat="45.56128" lon="6.72405">
        <ele>1048.6278</ele>
        <time>2015-08-20T12:11:11Z</time>
      </trkpt>
      <trkpt lat="45.56127" lon="6.7241">
        <ele>1048.6278</ele>
        <time>2015-08-20T12:11:16Z</time>
      </trkpt>
      <trkpt lat="45.56128" lon="6.72416">
        <ele>1048.6278</ele>
        <time>2015-08-20T12:11:26Z</time>
      </trkpt>
      <trkpt lat="45.56128" lon="6.72419">
        <ele>1049.6042</ele>
        <time>2015-08-20T12:11:31Z</time>
      </trkpt>
      <trkpt lat="45.56127" lon="6.72422">
        <ele>1049.6042</ele>
        <time>2015-08-20T12:11:41Z</time>
      </trkpt>
      <trkpt lat="45.56127" lon="6.72429">
        <ele>1049.6042</ele>
        <time>2015-08-20T12:11:46Z</time>
      </trkpt>
      <trkpt lat="45.56127" lon="6.72445">
        <ele>1051.1658</ele>
        <time>2015-08-20T12:11:56Z</time>
      </trkpt>
      <trkpt lat="45.56127" lon="6.72448">
        <ele>1051.1658</ele>
        <time>2015-08-20T12:12:01Z</time>
      </trkpt>
      <trkpt lat="45.5613" lon="6.72452">
        <ele>1051.1658</ele>
        <time>2015-08-20T12:12:11Z</time>
      </trkpt>
      <trkpt lat="45.5613" lon="6.72456">
        <ele>1051.1658</ele>
        <time>2015-08-20T12:12:16Z</time>
      </trkpt>
      <trkpt lat="45.5613" lon="6.72464">
        <ele>1052.5385</ele>
        <time>2015-08-20T12:12:26Z</time>
      </trkpt>
      <trkpt lat="45.5613" lon="6.72468">
        <ele>1052.5385</ele>
        <time>2015-08-20T12:12:31Z</time>
      </trkpt>
      <trkpt lat="45.56131" lon="6.72476">
        <ele>1052.5385</ele>
        <time>2015-08-20T12:12:41Z</time>
      </trkpt>
      <trkpt lat="45.5613" lon="6.7248">
        <ele>1053.7264</ele>
        <time>2015-08-20T12:12:46Z</time>
      </trkpt>
      <trkpt lat="45.56132" lon="6.72485">
        <ele>1053.7264</ele>
        <time>2015-08-20T12:12:56Z</time>
      </trkpt>
      <trkpt lat="45.56133" lon="6.72488">
        <ele>1053.7264</ele>
        <time>2015-08-20T12:13:01Z</time>
      </trkpt>
      <trkpt lat="45.56136" lon="6.72498">
        <ele>1055.2814</ele>
        <time>2015-08-20T12:13:16Z</time>
      </trkpt>
      <trkpt lat="45.56138" lon="6.72503">
        <ele>1055.2814</ele>
        <time>2015-08-20T12:13:21Z</time>
      </trkpt>
      <trkpt lat="45.56143" lon="6.72512">
        <ele>1056.5175</ele>
        <time>2015-08-20T12:13:31Z</time>
      </trkpt>
      <trkpt lat="45.56145" lon="6.72514">
        <ele>1056.5175</ele>
        <time>2015-08-20T12:13:36Z</time>
      </trkpt>
      <trkpt lat="45.56147" lon="6.72522">
        <ele>1056.5175</ele>
        <time>2015-08-20T12:13:46Z</time>
      </trkpt>
      <trkpt lat="45.5615" lon="6.72528">
        <ele>1057.7078</ele>
        <time>2015-08-20T12:13:51Z</time>
      </trkpt>
      <trkpt lat="45.56156" lon="6.72536">
        <ele>1057.7078</ele>
        <time>2015-08-20T12:14:01Z</time>
      </trkpt>
      <trkpt lat="45.56158" lon="6.72542">
        <ele>1058.9612</ele>
        <time>2015-08-20T12:14:06Z</time>
      </trkpt>
      <trkpt lat="45.56159" lon="6.72552">
        <ele>1058.9612</ele>
        <time>2015-08-20T12:14:16Z</time>
      </trkpt>
      <trkpt lat="45.5616" lon="6.72555">
        <ele>1060.1046</ele>
        <time>2015-08-20T12:14:21Z</time>
      </trkpt>
      <trkpt lat="45.56161" lon="6.72562">
        <ele>1060.1046</ele>
        <time>2015-08-20T12:14:31Z</time>
      </trkpt>
      <trkpt lat="45.56162" lon="6.72566">
        <ele>1060.1046</ele>
        <time>2015-08-20T12:14:36Z</time>
      </trkpt>
      <trkpt lat="45.56163" lon="6.72571">
        <ele>1060.9923</ele>
        <time>2015-08-20T12:14:46Z</time>
      </trkpt>
      <trkpt lat="45.56163" lon="6.72576">
        <ele>1060.9923</ele>
        <time>2015-08-20T12:14:51Z</time>
      </trkpt>
      <trkpt lat="45.56162" lon="6.72583">
        <ele>1060.9923</ele>
        <time>2015-08-20T12:14:56Z</time>
      </trkpt>
      <trkpt lat="45.56162" lon="6.72584">
        <ele>1061.5184</ele>
        <time>2015-08-20T12:15:01Z</time>
      </trkpt>
      <trkpt lat="45.56161" lon="6.72593">
        <ele>1061.5184</ele>
        <time>2015-08-20T12:15:16Z</time>
      </trkpt>
      <trkpt lat="45.5616" lon="6.72598">
        <ele>1061.9751</ele>
        <time>2015-08-20T12:15:21Z</time>
      </trkpt>
      <trkpt lat="45.56159" lon="6.72606">
        <ele>1061.9751</ele>
        <time>2015-08-20T12:15:31Z</time>
      </trkpt>
      <trkpt lat="45.56158" lon="6.72609">
        <ele>1061.9751</ele>
        <time>2015-08-20T12:15:36Z</time>
      </trkpt>
      <trkpt lat="45.56158" lon="6.72613">
        <ele>1062.6329</ele>
        <time>2015-08-20T12:15:46Z</time>
      </trkpt>
      <trkpt lat="45.56156" lon="6.72617">
        <ele>1062.6329</ele>
        <time>2015-08-20T12:15:51Z</time>
      </trkpt>
      <trkpt lat="45.56154" lon="6.72624">
        <ele>1062.6329</ele>
        <time>2015-08-20T12:16:01Z</time>
      </trkpt>
      <trkpt lat="45.56152" lon="6.72628">
        <ele>1063.3818</ele>
        <time>2015-08-20T12:16:06Z</time>
      </trkpt>
      <trkpt lat="45.56153" lon="6.72631">
        <ele>1063.3818</ele>
        <time>2015-08-20T12:16:16Z</time>
      </trkpt>
      <trkpt lat="45.56152" lon="6.72634">
        <ele>1063.3818</ele>
        <time>2015-08-20T12:16:21Z</time>
      </trkpt>
      <trkpt lat="45.56153" lon="6.72641">
        <ele>1064.3499</ele>
        <time>2015-08-20T12:16:31Z</time>
      </trkpt>
      <trkpt lat="45.56154" lon="6.72645">
        <ele>1064.3499</ele>
        <time>2015-08-20T12:16:36Z</time>
      </trkpt>
      <trkpt lat="45.56157" lon="6.72655">
        <ele>1065.4675</ele>
        <time>2015-08-20T12:16:46Z</time>
      </trkpt>
      <trkpt lat="45.56159" lon="6.72659">
        <ele>1065.4675</ele>
        <time>2015-08-20T12:16:51Z</time>
      </trkpt>
      <trkpt lat="45.56162" lon="6.72662">
        <ele>1065.4675</ele>
        <time>2015-08-20T12:17:06Z</time>
      </trkpt>
      <trkpt lat="45.56164" lon="6.72661">
        <ele>1066.6842</ele>
        <time>2015-08-20T12:17:11Z</time>
      </trkpt>
      <trkpt lat="45.56165" lon="6.72657">
        <ele>1066.6842</ele>
        <time>2015-08-20T12:17:21Z</time>
      </trkpt>
      <trkpt lat="45.56164" lon="6.72657">
        <ele>1066.6842</ele>
        <time>2015-08-20T12:17:26Z</time>
      </trkpt>
      <trkpt lat="45.56164" lon="6.72662">
        <ele>1066.6842</ele>
        <time>2015-08-20T12:17:36Z</time>
      </trkpt>
      <trkpt lat="45.56163" lon="6.72663">
        <ele>1067.7222</ele>
        <time>2015-08-20T12:17:41Z</time>
      </trkpt>
      <trkpt lat="45.56159" lon="6.7266">
        <ele>1067.7222</ele>
        <time>2015-08-20T12:17:51Z</time>
      </trkpt>
      <trkpt lat="45.56158" lon="6.72656">
        <ele>1067.7222</ele>
        <time>2015-08-20T12:17:56Z</time>
      </trkpt>
      <trkpt lat="45.56156" lon="6.72653">
        <ele>1068.8865</ele>
        <time>2015-08-20T12:18:06Z</time>
      </trkpt>
      <trkpt lat="45.56155" lon="6.72649">
        <ele>1068.8865</ele>
        <time>2015-08-20T12:18:11Z</time>
      </trkpt>
      <trkpt lat="45.56152" lon="6.72657">
        <ele>1069.8827</ele>
        <time>2015-08-20T12:18:21Z</time>
      </trkpt>
      <trkpt lat="45.56148" lon="6.7266">
        <ele>1069.8827</ele>
        <time>2015-08-20T12:18:26Z</time>
      </trkpt>
      <trkpt lat="45.56143" lon="6.72655">
        <ele>1070.9283</ele>
        <time>2015-08-20T12:18:36Z</time>
      </trkpt>
      <trkpt lat="45.56142" lon="6.72651">
        <ele>1070.9283</ele>
        <time>2015-08-20T12:18:41Z</time>
      </trkpt>
      <trkpt lat="45.56132" lon="6.72644">
        <ele>1071.9796</ele>
        <time>2015-08-20T12:18:56Z</time>
      </trkpt>
      <trkpt lat="45.56129" lon="6.72642">
        <ele>1071.9796</ele>
        <time>2015-08-20T12:19:01Z</time>
      </trkpt>
      <trkpt lat="45.56128" lon="6.72643">
        <ele>1071.9796</ele>
        <time>2015-08-20T12:19:11Z</time>
      </trkpt>
      <trkpt lat="45.56129" lon="6.72642">
        <ele>1071.9796</ele>
        <time>2015-08-20T12:19:16Z</time>
      </trkpt>
      <trkpt lat="45.56133" lon="6.72642">
        <ele>1073.0537</ele>
        <time>2015-08-20T12:19:26Z</time>
      </trkpt>
      <trkpt lat="45.56133" lon="6.72643">
        <ele>1073.0537</ele>
        <time>2015-08-20T12:19:31Z</time>
      </trkpt>
      <trkpt lat="45.56134" lon="6.72643">
        <ele>1073.0537</ele>
        <time>2015-08-20T12:19:41Z</time>
      </trkpt>
      <trkpt lat="45.56134" lon="6.72643">
        <ele>1073.0537</ele>
        <time>2015-08-20T12:19:46Z</time>
      </trkpt>
      <trkpt lat="45.56129" lon="6.72647">
        <ele>1073.0537</ele>
        <time>2015-08-20T12:19:56Z</time>
      </trkpt>
      <trkpt lat="45.56128" lon="6.72646">
        <ele>1073.0537</ele>
        <time>2015-08-20T12:20:01Z</time>
      </trkpt>
      <trkpt lat="45.56127" lon="6.72646">
        <ele>1073.9642</ele>
        <time>2015-08-20T12:20:11Z</time>
      </trkpt>
      <trkpt lat="45.56126" lon="6.72647">
        <ele>1073.9642</ele>
        <time>2015-08-20T12:20:16Z</time>
      </trkpt>
      <trkpt lat="45.56126" lon="6.72655">
        <ele>1073.9642</ele>
        <time>2015-08-20T12:20:26Z</time>
      </trkpt>
      <trkpt lat="45.56126" lon="6.72659">
        <ele>1075.1731</ele>
        <time>2015-08-20T12:20:31Z</time>
      </trkpt>
      <trkpt lat="45.56126" lon="6.72674">
        <ele>1076.329</ele>
        <time>2015-08-20T12:20:41Z</time>
      </trkpt>
      <trkpt lat="45.56127" lon="6.72679">
        <ele>1076.329</ele>
        <time>2015-08-20T12:20:46Z</time>
      </trkpt>
      <trkpt lat="45.56129" lon="6.72692">
        <ele>1077.5533</ele>
        <time>2015-08-20T12:21:01Z</time>
      </trkpt>
      <trkpt lat="45.5613" lon="6.72696">
        <ele>1077.5533</ele>
        <time>2015-08-20T12:21:06Z</time>
      </trkpt>
      <trkpt lat="45.56133" lon="6.72707">
        <ele>1078.742</ele>
        <time>2015-08-20T12:21:16Z</time>
      </trkpt>
      <trkpt lat="45.56135" lon="6.72714">
        <ele>1078.742</ele>
        <time>2015-08-20T12:21:21Z</time>
      </trkpt>
      <trkpt lat="45.56137" lon="6.72727">
        <ele>1079.9425</ele>
        <time>2015-08-20T12:21:31Z</time>
      </trkpt>
      <trkpt lat="45.56138" lon="6.72732">
        <ele>1079.9425</ele>
        <time>2015-08-20T12:21:36Z</time>
      </trkpt>
      <trkpt lat="45.56141" lon="6.72743">
        <ele>1081.0837</ele>
        <time>2015-08-20T12:21:46Z</time>
      </trkpt>
      <trkpt lat="45.56142" lon="6.72749">
        <ele>1081.0837</ele>
        <time>2015-08-20T12:21:51Z</time>
      </trkpt>
      <trkpt lat="45.56143" lon="6.72762">
        <ele>1082.0996</ele>
        <time>2015-08-20T12:22:01Z</time>
      </trkpt>
      <trkpt lat="45.56145" lon="6.72768">
        <ele>1082.0996</ele>
        <time>2015-08-20T12:22:06Z</time>
      </trkpt>
      <trkpt lat="45.56147" lon="6.72778">
        <ele>1082.9867</ele>
        <time>2015-08-20T12:22:16Z</time>
      </trkpt>
      <trkpt lat="45.5615" lon="6.72782">
        <ele>1082.9867</ele>
        <time>2015-08-20T12:22:21Z</time>
      </trkpt>
      <trkpt lat="45.56151" lon="6.72786">
        <ele>1082.9867</ele>
        <time>2015-08-20T12:22:31Z</time>
      </trkpt>
      <trkpt lat="45.5615" lon="6.72786">
        <ele>1082.9867</ele>
        <time>2015-08-20T12:22:36Z</time>
      </trkpt>
      <trkpt lat="45.56152" lon="6.72785">
        <ele>1083.9298</ele>
        <time>2015-08-20T12:22:46Z</time>
      </trkpt>
      <trkpt lat="45.56153" lon="6.72791">
        <ele>1083.9298</ele>
        <time>2015-08-20T12:22:51Z</time>
      </trkpt>
      <trkpt lat="45.56155" lon="6.72804">
        <ele>1084.6526</ele>
        <time>2015-08-20T12:23:06Z</time>
      </trkpt>
      <trkpt lat="45.56156" lon="6.72812">
        <ele>1084.6526</ele>
        <time>2015-08-20T12:23:11Z</time>
      </trkpt>
      <trkpt lat="45.56162" lon="6.72816">
        <ele>1085.246</ele>
        <time>2015-08-20T12:23:21Z</time>
      </trkpt>
      <trkpt lat="45.56165" lon="6.72831">
        <ele>1085.7219</ele>
        <time>2015-08-20T12:23:26Z</time>
      </trkpt>
      <trkpt lat="45.56165" lon="6.72839">
        <ele>1085.7219</ele>
        <time>2015-08-20T12:23:36Z</time>
      </trkpt>
      <trkpt lat="45.56166" lon="6.72848">
        <ele>1086.3802</ele>
        <time>2015-08-20T12:23:41Z</time>
      </trkpt>
      <trkpt lat="45.56161" lon="6.72861">
        <ele>1087.1953</ele>
        <time>2015-08-20T12:23:51Z</time>
      </trkpt>
      <trkpt lat="45.56156" lon="6.72867">
        <ele>1087.1953</ele>
        <time>2015-08-20T12:23:56Z</time>
      </trkpt>
      <trkpt lat="45.56148" lon="6.72874">
        <ele>1088.1575</ele>
        <time>2015-08-20T12:24:06Z</time>
      </trkpt>
      <trkpt lat="45.56142" lon="6.72877">
        <ele>1088.1575</ele>
        <time>2015-08-20T12:24:11Z</time>
      </trkpt>
      <trkpt lat="45.56136" lon="6.72876">
        <ele>1089.1273</ele>
        <time>2015-08-20T12:24:21Z</time>
      </trkpt>
      <trkpt lat="45.56132" lon="6.72876">
        <ele>1089.1273</ele>
        <time>2015-08-20T12:24:26Z</time>
      </trkpt>
      <trkpt lat="45.56133" lon="6.72881">
        <ele>1089.1273</ele>
        <time>2015-08-20T12:24:36Z</time>
      </trkpt>
      <trkpt lat="45.56133" lon="6.72881">
        <ele>1089.1273</ele>
        <time>2015-08-20T12:24:41Z</time>
      </trkpt>
      <trkpt lat="45.56132" lon="6.72881">
        <ele>1089.1273</ele>
        <time>2015-08-20T12:25:41Z</time>
      </trkpt>
      <trkpt lat="45.56129" lon="6.72884">
        <ele>1090.3071</ele>
        <time>2015-08-20T12:25:46Z</time>
      </trkpt>
      <trkpt lat="45.56126" lon="6.72897">
        <ele>1091.4082</ele>
        <time>2015-08-20T12:25:56Z</time>
      </trkpt>
      <trkpt lat="45.56126" lon="6.72903">
        <ele>1091.4082</ele>
        <time>2015-08-20T12:26:01Z</time>
      </trkpt>
      <trkpt lat="45.56125" lon="6.72907">
        <ele>1091.4082</ele>
        <time>2015-08-20T12:26:11Z</time>
      </trkpt>
      <trkpt lat="45.56125" lon="6.72908">
        <ele>1091.4082</ele>
        <time>2015-08-20T12:26:16Z</time>
      </trkpt>
      <trkpt lat="45.56125" lon="6.72908">
        <ele>1091.4082</ele>
        <time>2015-08-20T12:26:26Z</time>
      </trkpt>
      <trkpt lat="45.56124" lon="6.72909">
        <ele>1092.4943</ele>
        <time>2015-08-20T12:26:31Z</time>
      </trkpt>
      <trkpt lat="45.56124" lon="6.72908">
        <ele>1092.4943</ele>
        <time>2015-08-20T12:26:41Z</time>
      </trkpt>
      <trkpt lat="45.56125" lon="6.72908">
        <ele>1092.4943</ele>
        <time>2015-08-20T12:27:01Z</time>
      </trkpt>
      <trkpt lat="45.56125" lon="6.72907">
        <ele>1092.4943</ele>
        <time>2015-08-20T12:27:06Z</time>
      </trkpt>
      <trkpt lat="45.56125" lon="6.72906">
        <ele>1092.4943</ele>
        <time>2015-08-20T12:28:16Z</time>
      </trkpt>
      <trkpt lat="45.56125" lon="6.72906">
        <ele>1092.4943</ele>
        <time>2015-08-20T12:28:21Z</time>
      </trkpt>
      <trkpt lat="45.56125" lon="6.72906">
        <ele>1092.4943</ele>
        <time>2015-08-20T12:28:56Z</time>
      </trkpt>
      <trkpt lat="45.56125" lon="6.72906">
        <ele>1092.4943</ele>
        <time>2015-08-20T12:29:01Z</time>
      </trkpt>
      <trkpt lat="45.56126" lon="6.72903">
        <ele>1092.4943</ele>
        <time>2015-08-20T12:58:46Z</time>
      </trkpt>
      <trkpt lat="45.56127" lon="6.72905">
        <ele>1092.4943</ele>
        <time>2015-08-20T12:58:51Z</time>
      </trkpt>
      <trkpt lat="45.56127" lon="6.72905">
        <ele>1092.4943</ele>
        <time>2015-08-20T12:58:56Z</time>
      </trkpt>
      <trkpt lat="45.56126" lon="6.72902">
        <ele>1094.0715</ele>
        <time>2015-08-20T12:59:01Z</time>
      </trkpt>
      <trkpt lat="45.56127" lon="6.72904">
        <ele>1094.0715</ele>
        <time>2015-08-20T12:59:06Z</time>
      </trkpt>
      <trkpt lat="45.56127" lon="6.72905">
        <ele>1094.0715</ele>
        <time>2015-08-20T12:59:11Z</time>
      </trkpt>
      <trkpt lat="45.56127" lon="6.72906">
        <ele>1094.0715</ele>
        <time>2015-08-20T12:59:26Z</time>
      </trkpt>
      <trkpt lat="45.56126" lon="6.72906">
        <ele>1094.0715</ele>
        <time>2015-08-20T12:59:56Z</time>
      </trkpt>
      <trkpt lat="45.56126" lon="6.72906">
        <ele>1094.0715</ele>
        <time>2015-08-20T13:00:01Z</time>
      </trkpt>
      <trkpt lat="45.56124" lon="6.72905">
        <ele>1094.0715</ele>
        <time>2015-08-20T13:00:26Z</time>
      </trkpt>
      <trkpt lat="45.56125" lon="6.72905">
        <ele>1094.0715</ele>
        <time>2015-08-20T13:00:41Z</time>
      </trkpt>
      <trkpt lat="45.56127" lon="6.72904">
        <ele>1094.0715</ele>
        <time>2015-08-20T13:00:46Z</time>
      </trkpt>
      <trkpt lat="45.56127" lon="6.72901">
        <ele>1095.1084</ele>
        <time>2015-08-20T13:00:56Z</time>
      </trkpt>
      <trkpt lat="45.56127" lon="6.72896">
        <ele>1095.1084</ele>
        <time>2015-08-20T13:01:01Z</time>
      </trkpt>
      <trkpt lat="45.56128" lon="6.72884">
        <ele>1095.8037</ele>
        <time>2015-08-20T13:01:11Z</time>
      </trkpt>
      <trkpt lat="45.56128" lon="6.72877">
        <ele>1095.8037</ele>
        <time>2015-08-20T13:01:16Z</time>
      </trkpt>
      <trkpt lat="45.56119" lon="6.7288">
        <ele>1096.2126</ele>
        <time>2015-08-20T13:01:31Z</time>
      </trkpt>
      <trkpt lat="45.56116" lon="6.72882">
        <ele>1096.2126</ele>
        <time>2015-08-20T13:01:36Z</time>
      </trkpt>
      <trkpt lat="45.5611" lon="6.72882">
        <ele>1096.5024</ele>
        <time>2015-08-20T13:01:46Z</time>
      </trkpt>
      <trkpt lat="45.56107" lon="6.72883">
        <ele>1096.5024</ele>
        <time>2015-08-20T13:01:51Z</time>
      </trkpt>
      <trkpt lat="45.56101" lon="6.72885">
        <ele>1096.5024</ele>
        <time>2015-08-20T13:02:01Z</time>
      </trkpt>
      <trkpt lat="45.56095" lon="6.72887">
        <ele>1096.9005</ele>
        <time>2015-08-20T13:02:06Z</time>
      </trkpt>
      <trkpt lat="45.56088" lon="6.72891">
        <ele>1096.9005</ele>
        <time>2015-08-20T13:02:16Z</time>
      </trkpt>
      <trkpt lat="45.5609" lon="6.72893">
        <ele>1097.3721</ele>
        <time>2015-08-20T13:02:21Z</time>
      </trkpt>
      <trkpt lat="45.56097" lon="6.72895">
        <ele>1097.3721</ele>
        <time>2015-08-20T13:02:31Z</time>
      </trkpt>
      <trkpt lat="45.56097" lon="6.72896">
        <ele>1097.3721</ele>
        <time>2015-08-20T13:02:36Z</time>
      </trkpt>
      <trkpt lat="45.56098" lon="6.72898">
        <ele>1097.654</ele>
        <time>2015-08-20T13:02:46Z</time>
      </trkpt>
      <trkpt lat="45.56089" lon="6.729">
        <ele>1097.654</ele>
        <time>2015-08-20T13:03:16Z</time>
      </trkpt>
      <trkpt lat="45.56089" lon="6.72904">
        <ele>1098.1227</ele>
        <time>2015-08-20T13:03:21Z</time>
      </trkpt>
      <trkpt lat="45.56089" lon="6.72916">
        <ele>1098.1227</ele>
        <time>2015-08-20T13:03:31Z</time>
      </trkpt>
      <trkpt lat="45.5609" lon="6.72926">
        <ele>1099.1552</ele>
        <time>2015-08-20T13:03:36Z</time>
      </trkpt>
      <trkpt lat="45.56092" lon="6.72935">
        <ele>1099.1552</ele>
        <time>2015-08-20T13:03:46Z</time>
      </trkpt>
      <trkpt lat="45.56093" lon="6.72937">
        <ele>1099.1552</ele>
        <time>2015-08-20T13:03:51Z</time>
      </trkpt>
      <trkpt lat="45.56093" lon="6.72946">
        <ele>1101.243</ele>
        <time>2015-08-20T13:04:06Z</time>
      </trkpt>
      <trkpt lat="45.56094" lon="6.72949">
        <ele>1101.243</ele>
        <time>2015-08-20T13:04:11Z</time>
      </trkpt>
      <trkpt lat="45.56092" lon="6.72965">
        <ele>1103.1819</ele>
        <time>2015-08-20T13:04:21Z</time>
      </trkpt>
      <trkpt lat="45.56092" lon="6.72969">
        <ele>1103.1819</ele>
        <time>2015-08-20T13:04:26Z</time>
      </trkpt>
      <trkpt lat="45.56094" lon="6.72969">
        <ele>1103.1819</ele>
        <time>2015-08-20T13:04:36Z</time>
      </trkpt>
      <trkpt lat="45.56093" lon="6.72972">
        <ele>1103.1819</ele>
        <time>2015-08-20T13:04:41Z</time>
      </trkpt>
      <trkpt lat="45.56093" lon="6.72978">
        <ele>1104.9509</ele>
        <time>2015-08-20T13:04:51Z</time>
      </trkpt>
      <trkpt lat="45.56093" lon="6.72982">
        <ele>1104.9509</ele>
        <time>2015-08-20T13:04:56Z</time>
      </trkpt>
      <trkpt lat="45.56093" lon="6.72986">
        <ele>1104.9509</ele>
        <time>2015-08-20T13:05:06Z</time>
      </trkpt>
      <trkpt lat="45.56093" lon="6.72989">
        <ele>1104.9509</ele>
        <time>2015-08-20T13:05:11Z</time>
      </trkpt>
      <trkpt lat="45.56091" lon="6.72998">
        <ele>1106.6324</ele>
        <time>2015-08-20T13:05:21Z</time>
      </trkpt>
      <trkpt lat="45.56091" lon="6.73001">
        <ele>1106.6324</ele>
        <time>2015-08-20T13:05:26Z</time>
      </trkpt>
      <trkpt lat="45.56093" lon="6.73008">
        <ele>1106.6324</ele>
        <time>2015-08-20T13:05:36Z</time>
      </trkpt>
      <trkpt lat="45.56095" lon="6.73012">
        <ele>1108.1733</ele>
        <time>2015-08-20T13:05:41Z</time>
      </trkpt>
      <trkpt lat="45.56092" lon="6.73022">
        <ele>1108.1733</ele>
        <time>2015-08-20T13:05:51Z</time>
      </trkpt>
      <trkpt lat="45.56091" lon="6.73026">
        <ele>1109.611</ele>
        <time>2015-08-20T13:05:56Z</time>
      </trkpt>
      <trkpt lat="45.56092" lon="6.73034">
        <ele>1109.611</ele>
        <time>2015-08-20T13:06:06Z</time>
      </trkpt>
      <trkpt lat="45.56091" lon="6.73037">
        <ele>1109.611</ele>
        <time>2015-08-20T13:06:11Z</time>
      </trkpt>
      <trkpt lat="45.56087" lon="6.73044">
        <ele>1111.3982</ele>
        <time>2015-08-20T13:06:21Z</time>
      </trkpt>
      <trkpt lat="45.56086" lon="6.73047">
        <ele>1111.3982</ele>
        <time>2015-08-20T13:06:26Z</time>
      </trkpt>
      <trkpt lat="45.56081" lon="6.73053">
        <ele>1111.3982</ele>
        <time>2015-08-20T13:06:41Z</time>
      </trkpt>
      <trkpt lat="45.56081" lon="6.73056">
        <ele>1113.4783</ele>
        <time>2015-08-20T13:06:46Z</time>
      </trkpt>
      <trkpt lat="45.5608" lon="6.73063">
        <ele>1113.4783</ele>
        <time>2015-08-20T13:06:56Z</time>
      </trkpt>
      <trkpt lat="45.5608" lon="6.73066">
        <ele>1113.4783</ele>
        <time>2015-08-20T13:07:01Z</time>
      </trkpt>
      <trkpt lat="45.56078" lon="6.73065">
        <ele>1115.6534</ele>
        <time>2015-08-20T13:07:11Z</time>
      </trkpt>
      <trkpt lat="45.56078" lon="6.73068">
        <ele>1115.6534</ele>
        <time>2015-08-20T13:07:16Z</time>
      </trkpt>
      <trkpt lat="45.5608" lon="6.73076">
        <ele>1115.6534</ele>
        <time>2015-08-20T13:07:26Z</time>
      </trkpt>
      <trkpt lat="45.56082" lon="6.73082">
        <ele>1117.8269</ele>
        <time>2015-08-20T13:07:31Z</time>
      </trkpt>
      <trkpt lat="45.56086" lon="6.73093">
        <ele>1119.9664</ele>
        <time>2015-08-20T13:07:41Z</time>
      </trkpt>
      <trkpt lat="45.56087" lon="6.73098">
        <ele>1119.9664</ele>
        <time>2015-08-20T13:07:46Z</time>
      </trkpt>
      <trkpt lat="45.56089" lon="6.73111">
        <ele>1122.1288</ele>
        <time>2015-08-20T13:07:56Z</time>
      </trkpt>
      <trkpt lat="45.56089" lon="6.73119">
        <ele>1122.1288</ele>
        <time>2015-08-20T13:08:01Z</time>
      </trkpt>
      <trkpt lat="45.5609" lon="6.73136">
        <ele>1124.4532</ele>
        <time>2015-08-20T13:08:11Z</time>
      </trkpt>
      <trkpt lat="45.56091" lon="6.7314">
        <ele>1124.4532</ele>
        <time>2015-08-20T13:08:16Z</time>
      </trkpt>
      <trkpt lat="45.56093" lon="6.73151">
        <ele>1126.6357</ele>
        <time>2015-08-20T13:08:26Z</time>
      </trkpt>
      <trkpt lat="45.56094" lon="6.73156">
        <ele>1126.6357</ele>
        <time>2015-08-20T13:08:31Z</time>
      </trkpt>
      <trkpt lat="45.56095" lon="6.73168">
        <ele>1128.6403</ele>
        <time>2015-08-20T13:08:41Z</time>
      </trkpt>
      <trkpt lat="45.56093" lon="6.73177">
        <ele>1128.6403</ele>
        <time>2015-08-20T13:08:46Z</time>
      </trkpt>
      <trkpt lat="45.56096" lon="6.7319">
        <ele>1130.6211</ele>
        <time>2015-08-20T13:09:01Z</time>
      </trkpt>
      <trkpt lat="45.56097" lon="6.73196">
        <ele>1130.6211</ele>
        <time>2015-08-20T13:09:06Z</time>
      </trkpt>
      <trkpt lat="45.561" lon="6.73205">
        <ele>1132.6353</ele>
        <time>2015-08-20T13:09:16Z</time>
      </trkpt>
      <trkpt lat="45.56101" lon="6.73208">
        <ele>1132.6353</ele>
        <time>2015-08-20T13:09:21Z</time>
      </trkpt>
      <trkpt lat="45.56102" lon="6.73216">
        <ele>1132.6353</ele>
        <time>2015-08-20T13:09:31Z</time>
      </trkpt>
      <trkpt lat="45.56102" lon="6.73221">
        <ele>1134.7207</ele>
        <time>2015-08-20T13:09:36Z</time>
      </trkpt>
      <trkpt lat="45.56104" lon="6.73228">
        <ele>1134.7207</ele>
        <time>2015-08-20T13:09:46Z</time>
      </trkpt>
      <trkpt lat="45.56104" lon="6.73233">
        <ele>1134.7207</ele>
        <time>2015-08-20T13:09:51Z</time>
      </trkpt>
      <trkpt lat="45.56106" lon="6.73243">
        <ele>1136.5812</ele>
        <time>2015-08-20T13:10:01Z</time>
      </trkpt>
      <trkpt lat="45.56107" lon="6.73249">
        <ele>1136.5812</ele>
        <time>2015-08-20T13:10:06Z</time>
      </trkpt>
      <trkpt lat="45.56109" lon="6.73259">
        <ele>1138.4906</ele>
        <time>2015-08-20T13:10:16Z</time>
      </trkpt>
      <trkpt lat="45.5611" lon="6.7327">
        <ele>1138.4906</ele>
        <time>2015-08-20T13:10:21Z</time>
      </trkpt>
      <trkpt lat="45.56115" lon="6.73287">
        <ele>1140.4865</ele>
        <time>2015-08-20T13:10:36Z</time>
      </trkpt>
      <trkpt lat="45.5612" lon="6.73293">
        <ele>1140.4865</ele>
        <time>2015-08-20T13:10:41Z</time>
      </trkpt>
      <trkpt lat="45.56126" lon="6.73299">
        <ele>1142.1853</ele>
        <time>2015-08-20T13:10:51Z</time>
      </trkpt>
      <trkpt lat="45.56126" lon="6.73303">
        <ele>1142.1853</ele>
        <time>2015-08-20T13:10:56Z</time>
      </trkpt>
      <trkpt lat="45.56131" lon="6.73315">
        <ele>1143.622</ele>
        <time>2015-08-20T13:11:06Z</time>
      </trkpt>
      <trkpt lat="45.56132" lon="6.73319">
        <ele>1143.622</ele>
        <time>2015-08-20T13:11:11Z</time>
      </trkpt>
      <trkpt lat="45.56135" lon="6.73325">
        <ele>1143.622</ele>
        <time>2015-08-20T13:11:21Z</time>
      </trkpt>
      <trkpt lat="45.56137" lon="6.73334">
        <ele>1145.3628</ele>
        <time>2015-08-20T13:11:26Z</time>
      </trkpt>
      <trkpt lat="45.56142" lon="6.73344">
        <ele>1145.3628</ele>
        <time>2015-08-20T13:11:36Z</time>
      </trkpt>
      <trkpt lat="45.56142" lon="6.7335">
        <ele>1147.2255</ele>
        <time>2015-08-20T13:11:41Z</time>
      </trkpt>
      <trkpt lat="45.56142" lon="6.73362">
        <ele>1147.2255</ele>
        <time>2015-08-20T13:11:51Z</time>
      </trkpt>
      <trkpt lat="45.56142" lon="6.73368">
        <ele>1149.1418</ele>
        <time>2015-08-20T13:11:56Z</time>
      </trkpt>
      <trkpt lat="45.56142" lon="6.7338">
        <ele>1149.1418</ele>
        <time>2015-08-20T13:12:06Z</time>
      </trkpt>
      <trkpt lat="45.56139" lon="6.73385">
        <ele>1151.1061</ele>
        <time>2015-08-20T13:12:11Z</time>
      </trkpt>
      <trkpt lat="45.56138" lon="6.73394">
        <ele>1151.1061</ele>
        <time>2015-08-20T13:12:26Z</time>
      </trkpt>
      <trkpt lat="45.56137" lon="6.73395">
        <ele>1151.1061</ele>
        <time>2015-08-20T13:12:31Z</time>
      </trkpt>
      <trkpt lat="45.56136" lon="6.73402">
        <ele>1153.3867</ele>
        <time>2015-08-20T13:12:41Z</time>
      </trkpt>
      <trkpt lat="45.56136" lon="6.73405">
        <ele>1153.3867</ele>
        <time>2015-08-20T13:12:46Z</time>
      </trkpt>
      <trkpt lat="45.56134" lon="6.73412">
        <ele>1153.3867</ele>
        <time>2015-08-20T13:12:56Z</time>
      </trkpt>
      <trkpt lat="45.56133" lon="6.73417">
        <ele>1155.3094</ele>
        <time>2015-08-20T13:13:01Z</time>
      </trkpt>
      <trkpt lat="45.56128" lon="6.73425">
        <ele>1155.3094</ele>
        <time>2015-08-20T13:13:11Z</time>
      </trkpt>
      <trkpt lat="45.56127" lon="6.73428">
        <ele>1157.0863</ele>
        <time>2015-08-20T13:13:16Z</time>
      </trkpt>
      <trkpt lat="45.56124" lon="6.73433">
        <ele>1157.0863</ele>
        <time>2015-08-20T13:13:26Z</time>
      </trkpt>
      <trkpt lat="45.56122" lon="6.73436">
        <ele>1157.0863</ele>
        <time>2015-08-20T13:13:31Z</time>
      </trkpt>
      <trkpt lat="45.56118" lon="6.73442">
        <ele>1159.0583</ele>
        <time>2015-08-20T13:13:41Z</time>
      </trkpt>
      <trkpt lat="45.56118" lon="6.73444">
        <ele>1159.0583</ele>
        <time>2015-08-20T13:13:46Z</time>
      </trkpt>
      <trkpt lat="45.56117" lon="6.73451">
        <ele>1159.0583</ele>
        <time>2015-08-20T13:13:56Z</time>
      </trkpt>
      <trkpt lat="45.56115" lon="6.73454">
        <ele>1159.0583</ele>
        <time>2015-08-20T13:14:01Z</time>
      </trkpt>
      <trkpt lat="45.56115" lon="6.73457">
        <ele>1161.2817</ele>
        <time>2015-08-20T13:14:11Z</time>
      </trkpt>
      <trkpt lat="45.56114" lon="6.73459">
        <ele>1161.2817</ele>
        <time>2015-08-20T13:14:16Z</time>
      </trkpt>
      <trkpt lat="45.56112" lon="6.73461">
        <ele>1161.2817</ele>
        <time>2015-08-20T13:14:26Z</time>
      </trkpt>
      <trkpt lat="45.5611" lon="6.73464">
        <ele>1161.2817</ele>
        <time>2015-08-20T13:14:31Z</time>
      </trkpt>
      <trkpt lat="45.5611" lon="6.7347">
        <ele>1163.491</ele>
        <time>2015-08-20T13:14:41Z</time>
      </trkpt>
      <trkpt lat="45.56108" lon="6.73476">
        <ele>1163.491</ele>
        <time>2015-08-20T13:14:46Z</time>
      </trkpt>
      <trkpt lat="45.561" lon="6.73488">
        <ele>1165.8434</ele>
        <time>2015-08-20T13:15:01Z</time>
      </trkpt>
      <trkpt lat="45.56098" lon="6.7349">
        <ele>1165.8434</ele>
        <time>2015-08-20T13:15:06Z</time>
      </trkpt>
      <trkpt lat="45.56093" lon="6.73497">
        <ele>1168.3116</ele>
        <time>2015-08-20T13:15:16Z</time>
      </trkpt>
      <trkpt lat="45.5609" lon="6.735">
        <ele>1168.3116</ele>
        <time>2015-08-20T13:15:21Z</time>
      </trkpt>
      <trkpt lat="45.56086" lon="6.73504">
        <ele>1168.3116</ele>
        <time>2015-08-20T13:15:31Z</time>
      </trkpt>
      <trkpt lat="45.56084" lon="6.73506">
        <ele>1171.0864</ele>
        <time>2015-08-20T13:15:36Z</time>
      </trkpt>
      <trkpt lat="45.56082" lon="6.73513">
        <ele>1171.0864</ele>
        <time>2015-08-20T13:15:46Z</time>
      </trkpt>
      <trkpt lat="45.56083" lon="6.73515">
        <ele>1171.0864</ele>
        <time>2015-08-20T13:15:51Z</time>
      </trkpt>
      <trkpt lat="45.56082" lon="6.73523">
        <ele>1174.0696</ele>
        <time>2015-08-20T13:16:01Z</time>
      </trkpt>
      <trkpt lat="45.56084" lon="6.73526">
        <ele>1174.0696</ele>
        <time>2015-08-20T13:16:06Z</time>
      </trkpt>
      <trkpt lat="45.56085" lon="6.73534">
        <ele>1174.0696</ele>
        <time>2015-08-20T13:16:21Z</time>
      </trkpt>
      <trkpt lat="45.56084" lon="6.73535">
        <ele>1177.0834</ele>
        <time>2015-08-20T13:16:26Z</time>
      </trkpt>
      <trkpt lat="45.56084" lon="6.73541">
        <ele>1177.0834</ele>
        <time>2015-08-20T13:16:36Z</time>
      </trkpt>
      <trkpt lat="45.56085" lon="6.73543">
        <ele>1177.0834</ele>
        <time>2015-08-20T13:16:41Z</time>
      </trkpt>
      <trkpt lat="45.56079" lon="6.73542">
        <ele>1180.3091</ele>
        <time>2015-08-20T13:16:51Z</time>
      </trkpt>
      <trkpt lat="45.56082" lon="6.73543">
        <ele>1180.3091</ele>
        <time>2015-08-20T13:16:56Z</time>
      </trkpt>
      <trkpt lat="45.56084" lon="6.73544">
        <ele>1180.3091</ele>
        <time>2015-08-20T13:17:06Z</time>
      </trkpt>
      <trkpt lat="45.56081" lon="6.73542">
        <ele>1180.3091</ele>
        <time>2015-08-20T13:17:11Z</time>
      </trkpt>
      <trkpt lat="45.56072" lon="6.73531">
        <ele>1183.6978</ele>
        <time>2015-08-20T13:17:21Z</time>
      </trkpt>
      <trkpt lat="45.56069" lon="6.73526">
        <ele>1183.6978</ele>
        <time>2015-08-20T13:17:26Z</time>
      </trkpt>
      <trkpt lat="45.56064" lon="6.73515">
        <ele>1186.9587</ele>
        <time>2015-08-20T13:17:36Z</time>
      </trkpt>
      <trkpt lat="45.56062" lon="6.73511">
        <ele>1186.9587</ele>
        <time>2015-08-20T13:17:41Z</time>
      </trkpt>
      <trkpt lat="45.56058" lon="6.73506">
        <ele>1186.9587</ele>
        <time>2015-08-20T13:17:51Z</time>
      </trkpt>
      <trkpt lat="45.56055" lon="6.73503">
        <ele>1190.0684</ele>
        <time>2015-08-20T13:17:56Z</time>
      </trkpt>
      <trkpt lat="45.5605" lon="6.73494">
        <ele>1190.0684</ele>
        <time>2015-08-20T13:18:06Z</time>
      </trkpt>
      <trkpt lat="45.56049" lon="6.73493">
        <ele>1190.0684</ele>
        <time>2015-08-20T13:18:11Z</time>
      </trkpt>
      <trkpt lat="45.5605" lon="6.73494">
        <ele>1192.9185</ele>
        <time>2015-08-20T13:18:26Z</time>
      </trkpt>
      <trkpt lat="45.5605" lon="6.73493">
        <ele>1192.9185</ele>
        <time>2015-08-20T13:18:31Z</time>
      </trkpt>
      <trkpt lat="45.56048" lon="6.73482">
        <ele>1192.9185</ele>
        <time>2015-08-20T13:18:41Z</time>
      </trkpt>
      <trkpt lat="45.56044" lon="6.73477">
        <ele>1195.5542</ele>
        <time>2015-08-20T13:18:46Z</time>
      </trkpt>
      <trkpt lat="45.5604" lon="6.73466">
        <ele>1195.5542</ele>
        <time>2015-08-20T13:18:56Z</time>
      </trkpt>
      <trkpt lat="45.56038" lon="6.73461">
        <ele>1197.9744</ele>
        <time>2015-08-20T13:19:01Z</time>
      </trkpt>
      <trkpt lat="45.56034" lon="6.73454">
        <ele>1197.9744</ele>
        <time>2015-08-20T13:19:11Z</time>
      </trkpt>
      <trkpt lat="45.56029" lon="6.73453">
        <ele>1200.0205</ele>
        <time>2015-08-20T13:19:16Z</time>
      </trkpt>
      <trkpt lat="45.5603" lon="6.73452">
        <ele>1200.0205</ele>
        <time>2015-08-20T13:19:26Z</time>
      </trkpt>
      <trkpt lat="45.5603" lon="6.73454">
        <ele>1200.0205</ele>
        <time>2015-08-20T13:19:31Z</time>
      </trkpt>
      <trkpt lat="45.56026" lon="6.73462">
        <ele>1200.0205</ele>
        <time>2015-08-20T13:19:41Z</time>
      </trkpt>
      <trkpt lat="45.56025" lon="6.73463">
        <ele>1201.6044</ele>
        <time>2015-08-20T13:19:46Z</time>
      </trkpt>
      <trkpt lat="45.56022" lon="6.73464">
        <ele>1201.6044</ele>
        <time>2015-08-20T13:19:56Z</time>
      </trkpt>
      <trkpt lat="45.56022" lon="6.73465">
        <ele>1201.6044</ele>
        <time>2015-08-20T13:20:01Z</time>
      </trkpt>
      <trkpt lat="45.56017" lon="6.7347">
        <ele>1201.6044</ele>
        <time>2015-08-20T13:20:11Z</time>
      </trkpt>
      <trkpt lat="45.56017" lon="6.73471">
        <ele>1203.1068</ele>
        <time>2015-08-20T13:20:16Z</time>
      </trkpt>
      <trkpt lat="45.56017" lon="6.73471">
        <ele>1203.1068</ele>
        <time>2015-08-20T13:20:26Z</time>
      </trkpt>
      <trkpt lat="45.56017" lon="6.73471">
        <ele>1203.1068</ele>
        <time>2015-08-20T13:20:31Z</time>
      </trkpt>
      <trkpt lat="45.56013" lon="6.7349">
        <ele>1204.607</ele>
        <time>2015-08-20T13:20:46Z</time>
      </trkpt>
      <trkpt lat="45.56014" lon="6.73495">
        <ele>1204.607</ele>
        <time>2015-08-20T13:20:51Z</time>
      </trkpt>
      <trkpt lat="45.56013" lon="6.73508">
        <ele>1206.2365</ele>
        <time>2015-08-20T13:21:01Z</time>
      </trkpt>
      <trkpt lat="45.56013" lon="6.73514">
        <ele>1206.2365</ele>
        <time>2015-08-20T13:21:06Z</time>
      </trkpt>
      <trkpt lat="45.56013" lon="6.73523">
        <ele>1208.1019</ele>
        <time>2015-08-20T13:21:16Z</time>
      </trkpt>
      <trkpt lat="45.56011" lon="6.73529">
        <ele>1208.1019</ele>
        <time>2015-08-20T13:21:21Z</time>
      </trkpt>
      <trkpt lat="45.56011" lon="6.7353">
        <ele>1208.1019</ele>
        <time>2015-08-20T13:21:31Z</time>
      </trkpt>
      <trkpt lat="45.56011" lon="6.7353">
        <ele>1208.1019</ele>
        <time>2015-08-20T13:21:36Z</time>
      </trkpt>
      <trkpt lat="45.56011" lon="6.7353">
        <ele>1208.1019</ele>
        <time>2015-08-20T13:21:46Z</time>
      </trkpt>
      <trkpt lat="45.56012" lon="6.73531">
        <ele>1208.1019</ele>
        <time>2015-08-20T13:27:36Z</time>
      </trkpt>
      <trkpt lat="45.56014" lon="6.73542">
        <ele>1210.518</ele>
        <time>2015-08-20T13:27:46Z</time>
      </trkpt>
      <trkpt lat="45.56016" lon="6.7355">
        <ele>1210.518</ele>
        <time>2015-08-20T13:27:51Z</time>
      </trkpt>
      <trkpt lat="45.56015" lon="6.73568">
        <ele>1212.7516</ele>
        <time>2015-08-20T13:28:01Z</time>
      </trkpt>
      <trkpt lat="45.56016" lon="6.73576">
        <ele>1212.7516</ele>
        <time>2015-08-20T13:28:06Z</time>
      </trkpt>
      <trkpt lat="45.56017" lon="6.73586">
        <ele>1214.9166</ele>
        <time>2015-08-20T13:28:21Z</time>
      </trkpt>
      <trkpt lat="45.56013" lon="6.7359">
        <ele>1214.9166</ele>
        <time>2015-08-20T13:28:26Z</time>
      </trkpt>
      <trkpt lat="45.56" lon="6.73587">
        <ele>1216.7728</ele>
        <time>2015-08-20T13:28:36Z</time>
      </trkpt>
      <trkpt lat="45.55999" lon="6.73588">
        <ele>1216.7728</ele>
        <time>2015-08-20T13:28:41Z</time>
      </trkpt>
      <trkpt lat="45.55988" lon="6.7359">
        <ele>1218.4302</ele>
        <time>2015-08-20T13:28:51Z</time>
      </trkpt>
      <trkpt lat="45.55984" lon="6.73585">
        <ele>1218.4302</ele>
        <time>2015-08-20T13:28:56Z</time>
      </trkpt>
      <trkpt lat="45.5598" lon="6.73584">
        <ele>1219.7894</ele>
        <time>2015-08-20T13:29:06Z</time>
      </trkpt>
      <trkpt lat="45.55976" lon="6.73584">
        <ele>1219.7894</ele>
        <time>2015-08-20T13:29:11Z</time>
      </trkpt>
      <trkpt lat="45.55974" lon="6.73585">
        <ele>1219.7894</ele>
        <time>2015-08-20T13:29:21Z</time>
      </trkpt>
      <trkpt lat="45.55975" lon="6.73582">
        <ele>1219.7894</ele>
        <time>2015-08-20T13:29:26Z</time>
      </trkpt>
      <trkpt lat="45.55977" lon="6.73575">
        <ele>1221.0762</ele>
        <time>2015-08-20T13:29:36Z</time>
      </trkpt>
      <trkpt lat="45.55977" lon="6.73571">
        <ele>1221.0762</ele>
        <time>2015-08-20T13:29:41Z</time>
      </trkpt>
      <trkpt lat="45.55976" lon="6.73567">
        <ele>1221.0762</ele>
        <time>2015-08-20T13:29:51Z</time>
      </trkpt>
      <trkpt lat="45.55973" lon="6.73562">
        <ele>1222.4425</ele>
        <time>2015-08-20T13:29:56Z</time>
      </trkpt>
      <trkpt lat="45.55967" lon="6.73561">
        <ele>1222.4425</ele>
        <time>2015-08-20T13:30:06Z</time>
      </trkpt>
      <trkpt lat="45.55966" lon="6.73561">
        <ele>1222.4425</ele>
        <time>2015-08-20T13:30:11Z</time>
      </trkpt>
      <trkpt lat="45.5596" lon="6.73557">
        <ele>1223.6975</ele>
        <time>2015-08-20T13:30:21Z</time>
      </trkpt>
      <trkpt lat="45.55959" lon="6.73557">
        <ele>1223.6975</ele>
        <time>2015-08-20T13:30:26Z</time>
      </trkpt>
      <trkpt lat="45.55944" lon="6.73549">
        <ele>1224.9093</ele>
        <time>2015-08-20T13:30:41Z</time>
      </trkpt>
      <trkpt lat="45.55939" lon="6.73546">
        <ele>1224.9093</ele>
        <time>2015-08-20T13:30:46Z</time>
      </trkpt>
      <trkpt lat="45.55931" lon="6.73544">
        <ele>1226.1415</ele>
        <time>2015-08-20T13:30:56Z</time>
      </trkpt>
      <trkpt lat="45.55929" lon="6.73541">
        <ele>1226.1415</ele>
        <time>2015-08-20T13:31:01Z</time>
      </trkpt>
      <trkpt lat="45.55931" lon="6.73538">
        <ele>1226.1415</ele>
        <time>2015-08-20T13:31:11Z</time>
      </trkpt>
      <trkpt lat="45.55931" lon="6.73539">
        <ele>1226.1415</ele>
        <time>2015-08-20T13:31:16Z</time>
      </trkpt>
      <trkpt lat="45.55931" lon="6.73541">
        <ele>1226.1415</ele>
        <time>2015-08-20T13:31:26Z</time>
      </trkpt>
      <trkpt lat="45.55931" lon="6.73542">
        <ele>1226.1415</ele>
        <time>2015-08-20T13:31:31Z</time>
      </trkpt>
      <trkpt lat="45.55928" lon="6.73537">
        <ele>1227.5682</ele>
        <time>2015-08-20T13:31:41Z</time>
      </trkpt>
      <trkpt lat="45.55927" lon="6.73535">
        <ele>1227.5682</ele>
        <time>2015-08-20T13:31:46Z</time>
      </trkpt>
      <trkpt lat="45.55927" lon="6.73538">
        <ele>1227.5682</ele>
        <time>2015-08-20T13:31:56Z</time>
      </trkpt>
      <trkpt lat="45.55927" lon="6.73538">
        <ele>1227.5682</ele>
        <time>2015-08-20T13:32:01Z</time>
      </trkpt>
      <trkpt lat="45.55926" lon="6.73539">
        <ele>1227.5682</ele>
        <time>2015-08-20T13:32:11Z</time>
      </trkpt>
      <trkpt lat="45.55926" lon="6.7354">
        <ele>1227.5682</ele>
        <time>2015-08-20T13:32:16Z</time>
      </trkpt>
      <trkpt lat="45.55926" lon="6.73539">
        <ele>1227.5682</ele>
        <time>2015-08-20T13:32:26Z</time>
      </trkpt>
      <trkpt lat="45.55926" lon="6.73538">
        <ele>1227.5682</ele>
        <time>2015-08-20T13:32:31Z</time>
      </trkpt>
      <trkpt lat="45.55934" lon="6.73544">
        <ele>1228.9897</ele>
        <time>2015-08-20T13:32:41Z</time>
      </trkpt>
      <trkpt lat="45.55931" lon="6.73544">
        <ele>1228.9897</ele>
        <time>2015-08-20T13:32:46Z</time>
      </trkpt>
      <trkpt lat="45.55927" lon="6.73541">
        <ele>1228.9897</ele>
        <time>2015-08-20T13:33:01Z</time>
      </trkpt>
      <trkpt lat="45.55928" lon="6.7354">
        <ele>1228.9897</ele>
        <time>2015-08-20T13:33:06Z</time>
      </trkpt>
      <trkpt lat="45.55927" lon="6.73541">
        <ele>1230.178</ele>
        <time>2015-08-20T13:33:16Z</time>
      </trkpt>
      <trkpt lat="45.55926" lon="6.73541">
        <ele>1230.178</ele>
        <time>2015-08-20T13:33:21Z</time>
      </trkpt>
      <trkpt lat="45.55923" lon="6.73537">
        <ele>1230.178</ele>
        <time>2015-08-20T13:34:16Z</time>
      </trkpt>
      <trkpt lat="45.55922" lon="6.73537">
        <ele>1230.178</ele>
        <time>2015-08-20T13:34:21Z</time>
      </trkpt>
      <trkpt lat="45.55916" lon="6.73527">
        <ele>1231.4264</ele>
        <time>2015-08-20T13:34:31Z</time>
      </trkpt>
      <trkpt lat="45.55912" lon="6.73525">
        <ele>1231.4264</ele>
        <time>2015-08-20T13:34:36Z</time>
      </trkpt>
      <trkpt lat="45.55906" lon="6.73522">
        <ele>1232.4739</ele>
        <time>2015-08-20T13:34:46Z</time>
      </trkpt>
      <trkpt lat="45.55903" lon="6.73519">
        <ele>1232.4739</ele>
        <time>2015-08-20T13:34:51Z</time>
      </trkpt>
      <trkpt lat="45.55898" lon="6.73514">
        <ele>1233.4677</ele>
        <time>2015-08-20T13:35:01Z</time>
      </trkpt>
      <trkpt lat="45.55896" lon="6.73513">
        <ele>1233.4677</ele>
        <time>2015-08-20T13:35:06Z</time>
      </trkpt>
      <trkpt lat="45.55892" lon="6.73509">
        <ele>1233.4677</ele>
        <time>2015-08-20T13:35:16Z</time>
      </trkpt>
      <trkpt lat="45.55889" lon="6.73508">
        <ele>1234.3429</ele>
        <time>2015-08-20T13:35:21Z</time>
      </trkpt>
      <trkpt lat="45.5588" lon="6.73495">
        <ele>1235.3276</ele>
        <time>2015-08-20T13:35:36Z</time>
      </trkpt>
      <trkpt lat="45.55879" lon="6.73492">
        <ele>1235.3276</ele>
        <time>2015-08-20T13:35:41Z</time>
      </trkpt>
      <trkpt lat="45.55877" lon="6.73483">
        <ele>1236.4026</ele>
        <time>2015-08-20T13:35:51Z</time>
      </trkpt>
      <trkpt lat="45.55875" lon="6.73482">
        <ele>1236.4026</ele>
        <time>2015-08-20T13:35:56Z</time>
      </trkpt>
      <trkpt lat="45.55873" lon="6.73476">
        <ele>1236.4026</ele>
        <time>2015-08-20T13:36:06Z</time>
      </trkpt>
      <trkpt lat="45.55873" lon="6.73472">
        <ele>1237.5782</ele>
        <time>2015-08-20T13:36:11Z</time>
      </trkpt>
      <trkpt lat="45.55872" lon="6.73469">
        <ele>1237.5782</ele>
        <time>2015-08-20T13:36:21Z</time>
      </trkpt>
      <trkpt lat="45.55869" lon="6.73468">
        <ele>1237.5782</ele>
        <time>2015-08-20T13:36:26Z</time>
      </trkpt>
      <trkpt lat="45.55866" lon="6.73464">
        <ele>1239.0367</ele>
        <time>2015-08-20T13:36:36Z</time>
      </trkpt>
      <trkpt lat="45.55863" lon="6.73463">
        <ele>1239.0367</ele>
        <time>2015-08-20T13:36:41Z</time>
      </trkpt>
      <trkpt lat="45.55859" lon="6.73465">
        <ele>1239.0367</ele>
        <time>2015-08-20T13:36:51Z</time>
      </trkpt>
      <trkpt lat="45.55856" lon="6.73465">
        <ele>1240.7158</ele>
        <time>2015-08-20T13:36:56Z</time>
      </trkpt>
      <trkpt lat="45.55855" lon="6.73462">
        <ele>1240.7158</ele>
        <time>2015-08-20T13:37:06Z</time>
      </trkpt>
      <trkpt lat="45.55855" lon="6.7346">
        <ele>1240.7158</ele>
        <time>2015-08-20T13:37:11Z</time>
      </trkpt>
      <trkpt lat="45.55855" lon="6.73467">
        <ele>1240.7158</ele>
        <time>2015-08-20T13:37:21Z</time>
      </trkpt>
      <trkpt lat="45.55856" lon="6.73474">
        <ele>1242.5278</ele>
        <time>2015-08-20T13:37:26Z</time>
      </trkpt>
      <trkpt lat="45.55858" lon="6.73483">
        <ele>1242.5278</ele>
        <time>2015-08-20T13:37:36Z</time>
      </trkpt>
      <trkpt lat="45.55857" lon="6.73488">
        <ele>1244.4203</ele>
        <time>2015-08-20T13:37:41Z</time>
      </trkpt>
      <trkpt lat="45.55851" lon="6.73483">
        <ele>1244.4203</ele>
        <time>2015-08-20T13:37:56Z</time>
      </trkpt>
      <trkpt lat="45.55848" lon="6.73482">
        <ele>1246.2721</ele>
        <time>2015-08-20T13:38:01Z</time>
      </trkpt>
      <trkpt lat="45.55846" lon="6.73477">
        <ele>1246.2721</ele>
        <time>2015-08-20T13:38:11Z</time>
      </trkpt>
      <trkpt lat="45.55844" lon="6.73476">
        <ele>1246.2721</ele>
        <time>2015-08-20T13:38:16Z</time>
      </trkpt>
      <trkpt lat="45.55838" lon="6.73475">
        <ele>1248.288</ele>
        <time>2015-08-20T13:38:26Z</time>
      </trkpt>
      <trkpt lat="45.55837" lon="6.73478">
        <ele>1248.288</ele>
        <time>2015-08-20T13:38:31Z</time>
      </trkpt>
      <trkpt lat="45.55833" lon="6.7348">
        <ele>1248.288</ele>
        <time>2015-08-20T13:38:41Z</time>
      </trkpt>
      <trkpt lat="45.55832" lon="6.7348">
        <ele>1248.288</ele>
        <time>2015-08-20T13:38:46Z</time>
      </trkpt>
      <trkpt lat="45.55829" lon="6.73483">
        <ele>1250.4269</ele>
        <time>2015-08-20T13:38:56Z</time>
      </trkpt>
      <trkpt lat="45.55825" lon="6.73483">
        <ele>1250.4269</ele>
        <time>2015-08-20T13:39:01Z</time>
      </trkpt>
      <trkpt lat="45.55819" lon="6.73478">
        <ele>1252.6069</ele>
        <time>2015-08-20T13:39:11Z</time>
      </trkpt>
      <trkpt lat="45.55818" lon="6.73475">
        <ele>1252.6069</ele>
        <time>2015-08-20T13:39:16Z</time>
      </trkpt>
      <trkpt lat="45.55812" lon="6.73478">
        <ele>1252.6069</ele>
        <time>2015-08-20T13:39:26Z</time>
      </trkpt>
      <trkpt lat="45.55811" lon="6.7348">
        <ele>1255.1989</ele>
        <time>2015-08-20T13:39:31Z</time>
      </trkpt>
      <trkpt lat="45.55811" lon="6.73478">
        <ele>1255.1989</ele>
        <time>2015-08-20T13:39:41Z</time>
      </trkpt>
      <trkpt lat="45.5581" lon="6.73478">
        <ele>1255.1989</ele>
        <time>2015-08-20T13:39:46Z</time>
      </trkpt>
      <trkpt lat="45.55805" lon="6.73483">
        <ele>1255.1989</ele>
        <time>2015-08-20T13:39:56Z</time>
      </trkpt>
      <trkpt lat="45.55803" lon="6.73484">
        <ele>1257.9542</ele>
        <time>2015-08-20T13:40:01Z</time>
      </trkpt>
      <trkpt lat="45.55801" lon="6.73486">
        <ele>1257.9542</ele>
        <time>2015-08-20T13:40:11Z</time>
      </trkpt>
      <trkpt lat="45.55799" lon="6.73487">
        <ele>1257.9542</ele>
        <time>2015-08-20T13:40:16Z</time>
      </trkpt>
      <trkpt lat="45.55796" lon="6.73488">
        <ele>1257.9542</ele>
        <time>2015-08-20T13:40:26Z</time>
      </trkpt>
      <trkpt lat="45.55796" lon="6.73489">
        <ele>1257.9542</ele>
        <time>2015-08-20T13:40:31Z</time>
      </trkpt>
      <trkpt lat="45.55789" lon="6.73494">
        <ele>1260.9592</ele>
        <time>2015-08-20T13:40:46Z</time>
      </trkpt>
      <trkpt lat="45.55786" lon="6.73494">
        <ele>1260.9592</ele>
        <time>2015-08-20T13:40:51Z</time>
      </trkpt>
      <trkpt lat="45.5578" lon="6.73499">
        <ele>1264.0193</ele>
        <time>2015-08-20T13:41:01Z</time>
      </trkpt>
      <trkpt lat="45.55776" lon="6.73503">
        <ele>1264.0193</ele>
        <time>2015-08-20T13:41:06Z</time>
      </trkpt>
      <trkpt lat="45.55771" lon="6.73513">
        <ele>1266.8677</ele>
        <time>2015-08-20T13:41:16Z</time>
      </trkpt>
      <trkpt lat="45.55768" lon="6.73514">
        <ele>1266.8677</ele>
        <time>2015-08-20T13:41:21Z</time>
      </trkpt>
      <trkpt lat="45.55765" lon="6.73518">
        <ele>1266.8677</ele>
        <time>2015-08-20T13:41:31Z</time>
      </trkpt>
      <trkpt lat="45.55765" lon="6.7352">
        <ele>1266.8677</ele>
        <time>2015-08-20T13:41:36Z</time>
      </trkpt>
      <trkpt lat="45.5576" lon="6.73524">
        <ele>1269.906</ele>
        <time>2015-08-20T13:41:46Z</time>
      </trkpt>
      <trkpt lat="45.55759" lon="6.73525">
        <ele>1269.906</ele>
        <time>2015-08-20T13:41:51Z</time>
      </trkpt>
      <trkpt lat="45.55758" lon="6.73528">
        <ele>1269.906</ele>
        <time>2015-08-20T13:42:01Z</time>
      </trkpt>
      <trkpt lat="45.55756" lon="6.7353">
        <ele>1269.906</ele>
        <time>2015-08-20T13:42:06Z</time>
      </trkpt>
      <trkpt lat="45.5575" lon="6.73533">
        <ele>1272.8722</ele>
        <time>2015-08-20T13:42:16Z</time>
      </trkpt>
      <trkpt lat="45.55747" lon="6.73535">
        <ele>1272.8722</ele>
        <time>2015-08-20T13:42:21Z</time>
      </trkpt>
      <trkpt lat="45.55744" lon="6.7354">
        <ele>1272.8722</ele>
        <time>2015-08-20T13:42:31Z</time>
      </trkpt>
      <trkpt lat="45.55744" lon="6.73542">
        <ele>1275.6816</ele>
        <time>2015-08-20T13:42:36Z</time>
      </trkpt>
      <trkpt lat="45.55736" lon="6.73549">
        <ele>1275.6816</ele>
        <time>2015-08-20T13:42:51Z</time>
      </trkpt>
      <trkpt lat="45.55735" lon="6.73551">
        <ele>1278.4299</ele>
        <time>2015-08-20T13:42:56Z</time>
      </trkpt>
      <trkpt lat="45.55731" lon="6.73551">
        <ele>1278.4299</ele>
        <time>2015-08-20T13:43:06Z</time>
      </trkpt>
      <trkpt lat="45.55728" lon="6.73552">
        <ele>1278.4299</ele>
        <time>2015-08-20T13:43:11Z</time>
      </trkpt>
      <trkpt lat="45.55722" lon="6.73555">
        <ele>1281.2773</ele>
        <time>2015-08-20T13:43:21Z</time>
      </trkpt>
      <trkpt lat="45.55721" lon="6.73558">
        <ele>1281.2773</ele>
        <time>2015-08-20T13:43:26Z</time>
      </trkpt>
      <trkpt lat="45.55718" lon="6.73566">
        <ele>1281.2773</ele>
        <time>2015-08-20T13:43:36Z</time>
      </trkpt>
      <trkpt lat="45.55717" lon="6.73569">
        <ele>1283.9691</ele>
        <time>2015-08-20T13:43:41Z</time>
      </trkpt>
      <trkpt lat="45.55713" lon="6.73571">
        <ele>1283.9691</ele>
        <time>2015-08-20T13:43:51Z</time>
      </trkpt>
      <trkpt lat="45.55711" lon="6.73572">
        <ele>1283.9691</ele>
        <time>2015-08-20T13:43:56Z</time>
      </trkpt>
      <trkpt lat="45.55708" lon="6.73573">
        <ele>1286.673</ele>
        <time>2015-08-20T13:44:06Z</time>
      </trkpt>
      <trkpt lat="45.55705" lon="6.73575">
        <ele>1286.673</ele>
        <time>2015-08-20T13:44:11Z</time>
      </trkpt>
      <trkpt lat="45.55702" lon="6.7358">
        <ele>1286.673</ele>
        <time>2015-08-20T13:44:21Z</time>
      </trkpt>
      <trkpt lat="45.55701" lon="6.73581">
        <ele>1289.3713</ele>
        <time>2015-08-20T13:44:26Z</time>
      </trkpt>
      <trkpt lat="45.55697" lon="6.73581">
        <ele>1289.3713</ele>
        <time>2015-08-20T13:44:36Z</time>
      </trkpt>
      <trkpt lat="45.55696" lon="6.73583">
        <ele>1289.3713</ele>
        <time>2015-08-20T13:44:41Z</time>
      </trkpt>
      <trkpt lat="45.55692" lon="6.73585">
        <ele>1292.0049</ele>
        <time>2015-08-20T13:44:51Z</time>
      </trkpt>
      <trkpt lat="45.55691" lon="6.73586">
        <ele>1292.0049</ele>
        <time>2015-08-20T13:44:56Z</time>
      </trkpt>
      <trkpt lat="45.55686" lon="6.73588">
        <ele>1292.0049</ele>
        <time>2015-08-20T13:45:11Z</time>
      </trkpt>
      <trkpt lat="45.55683" lon="6.73589">
        <ele>1294.7493</ele>
        <time>2015-08-20T13:45:16Z</time>
      </trkpt>
      <trkpt lat="45.55678" lon="6.73593">
        <ele>1294.7493</ele>
        <time>2015-08-20T13:45:26Z</time>
      </trkpt>
      <trkpt lat="45.55676" lon="6.73593">
        <ele>1294.7493</ele>
        <time>2015-08-20T13:45:31Z</time>
      </trkpt>
      <trkpt lat="45.55669" lon="6.73595">
        <ele>1297.4934</ele>
        <time>2015-08-20T13:45:41Z</time>
      </trkpt>
      <trkpt lat="45.55668" lon="6.73595">
        <ele>1297.4934</ele>
        <time>2015-08-20T13:45:46Z</time>
      </trkpt>
      <trkpt lat="45.55665" lon="6.73597">
        <ele>1297.4934</ele>
        <time>2015-08-20T13:45:56Z</time>
      </trkpt>
      <trkpt lat="45.55661" lon="6.73598">
        <ele>1297.4934</ele>
        <time>2015-08-20T13:46:01Z</time>
      </trkpt>
      <trkpt lat="45.55657" lon="6.736">
        <ele>1300.5812</ele>
        <time>2015-08-20T13:46:11Z</time>
      </trkpt>
      <trkpt lat="45.55654" lon="6.73602">
        <ele>1300.5812</ele>
        <time>2015-08-20T13:46:16Z</time>
      </trkpt>
      <trkpt lat="45.55651" lon="6.7361">
        <ele>1303.5231</ele>
        <time>2015-08-20T13:46:26Z</time>
      </trkpt>
      <trkpt lat="45.5565" lon="6.73614">
        <ele>1303.5231</ele>
        <time>2015-08-20T13:46:31Z</time>
      </trkpt>
      <trkpt lat="45.55648" lon="6.73618">
        <ele>1303.5231</ele>
        <time>2015-08-20T13:46:41Z</time>
      </trkpt>
      <trkpt lat="45.55645" lon="6.73619">
        <ele>1306.3274</ele>
        <time>2015-08-20T13:46:46Z</time>
      </trkpt>
      <trkpt lat="45.55642" lon="6.73624">
        <ele>1306.3274</ele>
        <time>2015-08-20T13:46:56Z</time>
      </trkpt>
      <trkpt lat="45.5564" lon="6.73627">
        <ele>1306.3274</ele>
        <time>2015-08-20T13:47:01Z</time>
      </trkpt>
      <trkpt lat="45.55632" lon="6.7363">
        <ele>1309.2758</ele>
        <time>2015-08-20T13:47:11Z</time>
      </trkpt>
      <trkpt lat="45.5563" lon="6.73632">
        <ele>1309.2758</ele>
        <time>2015-08-20T13:47:16Z</time>
      </trkpt>
      <trkpt lat="45.55627" lon="6.73634">
        <ele>1309.2758</ele>
        <time>2015-08-20T13:47:26Z</time>
      </trkpt>
      <trkpt lat="45.55624" lon="6.73636">
        <ele>1309.2758</ele>
        <time>2015-08-20T13:47:31Z</time>
      </trkpt>
      <trkpt lat="45.55618" lon="6.73639">
        <ele>1312.4563</ele>
        <time>2015-08-20T13:47:41Z</time>
      </trkpt>
      <trkpt lat="45.55614" lon="6.7364">
        <ele>1312.4563</ele>
        <time>2015-08-20T13:47:46Z</time>
      </trkpt>
      <trkpt lat="45.55611" lon="6.73642">
        <ele>1312.4563</ele>
        <time>2015-08-20T13:47:56Z</time>
      </trkpt>
      <trkpt lat="45.55608" lon="6.73643">
        <ele>1315.4885</ele>
        <time>2015-08-20T13:48:01Z</time>
      </trkpt>
      <trkpt lat="45.55607" lon="6.73651">
        <ele>1315.4885</ele>
        <time>2015-08-20T13:48:11Z</time>
      </trkpt>
      <trkpt lat="45.55607" lon="6.73651">
        <ele>1315.4885</ele>
        <time>2015-08-20T13:48:16Z</time>
      </trkpt>
      <trkpt lat="45.55609" lon="6.73647">
        <ele>1318.381</ele>
        <time>2015-08-20T13:48:26Z</time>
      </trkpt>
      <trkpt lat="45.55609" lon="6.73647">
        <ele>1318.381</ele>
        <time>2015-08-20T13:48:31Z</time>
      </trkpt>
      <trkpt lat="45.55611" lon="6.73647">
        <ele>1318.381</ele>
        <time>2015-08-20T13:48:41Z</time>
      </trkpt>
      <trkpt lat="45.5561" lon="6.7365">
        <ele>1318.381</ele>
        <time>2015-08-20T13:48:46Z</time>
      </trkpt>
      <trkpt lat="45.55612" lon="6.73647">
        <ele>1318.381</ele>
        <time>2015-08-20T13:48:56Z</time>
      </trkpt>
      <trkpt lat="45.55613" lon="6.73646">
        <ele>1318.381</ele>
        <time>2015-08-20T13:49:01Z</time>
      </trkpt>
      <trkpt lat="45.55614" lon="6.73645">
        <ele>1318.381</ele>
        <time>2015-08-20T13:49:16Z</time>
      </trkpt>
      <trkpt lat="45.55614" lon="6.73645">
        <ele>1320.8392</ele>
        <time>2015-08-20T13:49:21Z</time>
      </trkpt>
      <trkpt lat="45.55605" lon="6.73645">
        <ele>1320.8392</ele>
        <time>2015-08-20T13:49:31Z</time>
      </trkpt>
      <trkpt lat="45.55603" lon="6.73645">
        <ele>1323.0673</ele>
        <time>2015-08-20T13:49:36Z</time>
      </trkpt>
      <trkpt lat="45.55602" lon="6.73645">
        <ele>1323.0673</ele>
        <time>2015-08-20T13:49:46Z</time>
      </trkpt>
      <trkpt lat="45.55598" lon="6.73646">
        <ele>1323.0673</ele>
        <time>2015-08-20T13:49:51Z</time>
      </trkpt>
      <trkpt lat="45.55594" lon="6.73646">
        <ele>1323.0673</ele>
        <time>2015-08-20T13:50:01Z</time>
      </trkpt>
      <trkpt lat="45.55592" lon="6.73645">
        <ele>1325.9036</ele>
        <time>2015-08-20T13:50:06Z</time>
      </trkpt>
      <trkpt lat="45.55582" lon="6.73646">
        <ele>1328.4946</ele>
        <time>2015-08-20T13:50:16Z</time>
      </trkpt>
      <trkpt lat="45.55578" lon="6.73646">
        <ele>1328.4946</ele>
        <time>2015-08-20T13:50:21Z</time>
      </trkpt>
      <trkpt lat="45.55575" lon="6.73647">
        <ele>1328.4946</ele>
        <time>2015-08-20T13:50:31Z</time>
      </trkpt>
      <trkpt lat="45.55574" lon="6.73646">
        <ele>1328.4946</ele>
        <time>2015-08-20T13:50:36Z</time>
      </trkpt>
      <trkpt lat="45.55572" lon="6.73647">
        <ele>1330.8865</ele>
        <time>2015-08-20T13:50:46Z</time>
      </trkpt>
      <trkpt lat="45.55573" lon="6.73647">
        <ele>1330.8865</ele>
        <time>2015-08-20T13:50:51Z</time>
      </trkpt>
      <trkpt lat="45.55575" lon="6.73647">
        <ele>1330.8865</ele>
        <time>2015-08-20T13:51:01Z</time>
      </trkpt>
      <trkpt lat="45.55578" lon="6.73648">
        <ele>1330.8865</ele>
        <time>2015-08-20T13:51:06Z</time>
      </trkpt>
      <trkpt lat="45.55579" lon="6.73649">
        <ele>1330.8865</ele>
        <time>2015-08-20T13:51:16Z</time>
      </trkpt>
      <trkpt lat="45.55578" lon="6.7365">
        <ele>1330.8865</ele>
        <time>2015-08-20T13:51:56Z</time>
      </trkpt>
      <trkpt lat="45.55574" lon="6.73653">
        <ele>1333.9148</ele>
        <time>2015-08-20T13:52:06Z</time>
      </trkpt>
      <trkpt lat="45.55574" lon="6.73653">
        <ele>1333.9148</ele>
        <time>2015-08-20T13:52:11Z</time>
      </trkpt>
      <trkpt lat="45.55574" lon="6.73653">
        <ele>1333.9148</ele>
        <time>2015-08-20T13:52:21Z</time>
      </trkpt>
      <trkpt lat="45.55572" lon="6.73653">
        <ele>1333.9148</ele>
        <time>2015-08-20T13:52:26Z</time>
      </trkpt>
      <trkpt lat="45.55575" lon="6.73652">
        <ele>1333.9148</ele>
        <time>2015-08-20T13:52:36Z</time>
      </trkpt>
      <trkpt lat="45.55577" lon="6.73653">
        <ele>1336.724</ele>
        <time>2015-08-20T13:52:41Z</time>
      </trkpt>
      <trkpt lat="45.55578" lon="6.73654">
        <ele>1336.724</ele>
        <time>2015-08-20T13:52:51Z</time>
      </trkpt>
      <trkpt lat="45.55577" lon="6.73655">
        <ele>1336.724</ele>
        <time>2015-08-20T13:56:01Z</time>
      </trkpt>
      <trkpt lat="45.55575" lon="6.73655">
        <ele>1336.724</ele>
        <time>2015-08-20T13:57:31Z</time>
      </trkpt>
      <trkpt lat="45.55574" lon="6.73655">
        <ele>1336.724</ele>
        <time>2015-08-20T13:59:06Z</time>
      </trkpt>
      <trkpt lat="45.55574" lon="6.73655">
        <ele>1336.724</ele>
        <time>2015-08-20T13:59:11Z</time>
      </trkpt>
      <trkpt lat="45.55571" lon="6.73655">
        <ele>1336.724</ele>
        <time>2015-08-20T13:59:21Z</time>
      </trkpt>
      <trkpt lat="45.55571" lon="6.73655">
        <ele>1336.724</ele>
        <time>2015-08-20T13:59:26Z</time>
      </trkpt>
      <trkpt lat="45.55568" lon="6.73657">
        <ele>1339.8186</ele>
        <time>2015-08-20T13:59:36Z</time>
      </trkpt>
      <trkpt lat="45.55568" lon="6.73658">
        <ele>1339.8186</ele>
        <time>2015-08-20T13:59:41Z</time>
      </trkpt>
      <trkpt lat="45.55559" lon="6.73661">
        <ele>1342.7146</ele>
        <time>2015-08-20T13:59:51Z</time>
      </trkpt>
      <trkpt lat="45.55551" lon="6.73664">
        <ele>1342.7146</ele>
        <time>2015-08-20T13:59:56Z</time>
      </trkpt>
      <trkpt lat="45.55543" lon="6.73668">
        <ele>1345.4684</ele>
        <time>2015-08-20T14:00:11Z</time>
      </trkpt>
      <trkpt lat="45.5553" lon="6.73677">
        <ele>1348.3198</ele>
        <time>2015-08-20T14:00:41Z</time>
      </trkpt>
      <trkpt lat="45.5552" lon="6.73683">
        <ele>1350.9149</ele>
        <time>2015-08-20T14:00:46Z</time>
      </trkpt>
      <trkpt lat="45.5552" lon="6.73683">
        <ele>1350.9149</ele>
        <time>2015-08-20T14:00:56Z</time>
      </trkpt>
      <trkpt lat="45.55517" lon="6.73685">
        <ele>1350.9149</ele>
        <time>2015-08-20T14:01:01Z</time>
      </trkpt>
      <trkpt lat="45.5551" lon="6.73693">
        <ele>1353.5457</ele>
        <time>2015-08-20T14:01:11Z</time>
      </trkpt>
      <trkpt lat="45.5551" lon="6.73693">
        <ele>1353.5457</ele>
        <time>2015-08-20T14:01:16Z</time>
      </trkpt>
      <trkpt lat="45.55509" lon="6.73693">
        <ele>1353.5457</ele>
        <time>2015-08-20T14:01:26Z</time>
      </trkpt>
      <trkpt lat="45.55508" lon="6.73694">
        <ele>1353.5457</ele>
        <time>2015-08-20T14:01:31Z</time>
      </trkpt>
      <trkpt lat="45.55506" lon="6.73695">
        <ele>1353.5457</ele>
        <time>2015-08-20T14:01:41Z</time>
      </trkpt>
      <trkpt lat="45.55505" lon="6.73696">
        <ele>1353.5457</ele>
        <time>2015-08-20T14:01:46Z</time>
      </trkpt>
      <trkpt lat="45.55502" lon="6.737">
        <ele>1356.7423</ele>
        <time>2015-08-20T14:01:56Z</time>
      </trkpt>
      <trkpt lat="45.55501" lon="6.73701">
        <ele>1356.7423</ele>
        <time>2015-08-20T14:02:01Z</time>
      </trkpt>
      <trkpt lat="45.55496" lon="6.73704">
        <ele>1356.7423</ele>
        <time>2015-08-20T14:02:16Z</time>
      </trkpt>
      <trkpt lat="45.55493" lon="6.73706">
        <ele>1360.1875</ele>
        <time>2015-08-20T14:02:21Z</time>
      </trkpt>
      <trkpt lat="45.55485" lon="6.73707">
        <ele>1360.1875</ele>
        <time>2015-08-20T14:02:31Z</time>
      </trkpt>
      <trkpt lat="45.55483" lon="6.73709">
        <ele>1363.5001</ele>
        <time>2015-08-20T14:02:36Z</time>
      </trkpt>
      <trkpt lat="45.55471" lon="6.73714">
        <ele>1366.8461</ele>
        <time>2015-08-20T14:02:46Z</time>
      </trkpt>
      <trkpt lat="45.55469" lon="6.73715">
        <ele>1366.8461</ele>
        <time>2015-08-20T14:02:51Z</time>
      </trkpt>
      <trkpt lat="45.55464" lon="6.73719">
        <ele>1366.8461</ele>
        <time>2015-08-20T14:03:01Z</time>
      </trkpt>
      <trkpt lat="45.55462" lon="6.73722">
        <ele>1370.5953</ele>
        <time>2015-08-20T14:03:06Z</time>
      </trkpt>
      <trkpt lat="45.55452" lon="6.73727">
        <ele>1373.9948</ele>
        <time>2015-08-20T14:03:16Z</time>
      </trkpt>
      <trkpt lat="45.55452" lon="6.73729">
        <ele>1373.9948</ele>
        <time>2015-08-20T14:03:21Z</time>
      </trkpt>
      <trkpt lat="45.55452" lon="6.73729">
        <ele>1373.9948</ele>
        <time>2015-08-20T14:03:31Z</time>
      </trkpt>
      <trkpt lat="45.55453" lon="6.7373">
        <ele>1373.9948</ele>
        <time>2015-08-20T14:03:51Z</time>
      </trkpt>
      <trkpt lat="45.55453" lon="6.7373">
        <ele>1373.9948</ele>
        <time>2015-08-20T14:04:06Z</time>
      </trkpt>
      <trkpt lat="45.55452" lon="6.73733">
        <ele>1373.9948</ele>
        <time>2015-08-20T14:04:11Z</time>
      </trkpt>
      <trkpt lat="45.5545" lon="6.7374">
        <ele>1377.3124</ele>
        <time>2015-08-20T14:04:21Z</time>
      </trkpt>
      <trkpt lat="45.55448" lon="6.73748">
        <ele>1377.3124</ele>
        <time>2015-08-20T14:04:26Z</time>
      </trkpt>
      <trkpt lat="45.5545" lon="6.73752">
        <ele>1380.0193</ele>
        <time>2015-08-20T14:04:36Z</time>
      </trkpt>
      <trkpt lat="45.55451" lon="6.73756">
        <ele>1380.0193</ele>
        <time>2015-08-20T14:04:41Z</time>
      </trkpt>
      <trkpt lat="45.55451" lon="6.73759">
        <ele>1380.0193</ele>
        <time>2015-08-20T14:04:51Z</time>
      </trkpt>
      <trkpt lat="45.55452" lon="6.73764">
        <ele>1380.0193</ele>
        <time>2015-08-20T14:04:56Z</time>
      </trkpt>
      <trkpt lat="45.55452" lon="6.73776">
        <ele>1382.996</ele>
        <time>2015-08-20T14:05:06Z</time>
      </trkpt>
      <trkpt lat="45.55448" lon="6.73788">
        <ele>1385.7462</ele>
        <time>2015-08-20T14:05:11Z</time>
      </trkpt>
      <trkpt lat="45.55438" lon="6.738">
        <ele>1388.3728</ele>
        <time>2015-08-20T14:05:21Z</time>
      </trkpt>
      <trkpt lat="45.55436" lon="6.73801">
        <ele>1388.3728</ele>
        <time>2015-08-20T14:05:26Z</time>
      </trkpt>
      <trkpt lat="45.55436" lon="6.73807">
        <ele>1388.3728</ele>
        <time>2015-08-20T14:05:41Z</time>
      </trkpt>
      <trkpt lat="45.55436" lon="6.73807">
        <ele>1388.3728</ele>
        <time>2015-08-20T14:05:46Z</time>
      </trkpt>
      <trkpt lat="45.55434" lon="6.73816">
        <ele>1390.8564</ele>
        <time>2015-08-20T14:05:56Z</time>
      </trkpt>
      <trkpt lat="45.55434" lon="6.73821">
        <ele>1390.8564</ele>
        <time>2015-08-20T14:06:01Z</time>
      </trkpt>
      <trkpt lat="45.55435" lon="6.73823">
        <ele>1390.8564</ele>
        <time>2015-08-20T14:06:11Z</time>
      </trkpt>
      <trkpt lat="45.55434" lon="6.73827">
        <ele>1390.8564</ele>
        <time>2015-08-20T14:06:16Z</time>
      </trkpt>
      <trkpt lat="45.55431" lon="6.73833">
        <ele>1393.1073</ele>
        <time>2015-08-20T14:06:26Z</time>
      </trkpt>
      <trkpt lat="45.5543" lon="6.73838">
        <ele>1393.1073</ele>
        <time>2015-08-20T14:06:31Z</time>
      </trkpt>
      <trkpt lat="45.55431" lon="6.73848">
        <ele>1395.1439</ele>
        <time>2015-08-20T14:06:41Z</time>
      </trkpt>
      <trkpt lat="45.55431" lon="6.73853">
        <ele>1395.1439</ele>
        <time>2015-08-20T14:06:46Z</time>
      </trkpt>
      <trkpt lat="45.5543" lon="6.73856">
        <ele>1395.1439</ele>
        <time>2015-08-20T14:06:56Z</time>
      </trkpt>
      <trkpt lat="45.5543" lon="6.73856">
        <ele>1395.1439</ele>
        <time>2015-08-20T14:07:01Z</time>
      </trkpt>
      <trkpt lat="45.5543" lon="6.73861">
        <ele>1396.6958</ele>
        <time>2015-08-20T14:07:11Z</time>
      </trkpt>
      <trkpt lat="45.5543" lon="6.73865">
        <ele>1396.6958</ele>
        <time>2015-08-20T14:07:16Z</time>
      </trkpt>
      <trkpt lat="45.55434" lon="6.73875">
        <ele>1398.0327</ele>
        <time>2015-08-20T14:07:31Z</time>
      </trkpt>
      <trkpt lat="45.55435" lon="6.73877">
        <ele>1398.0327</ele>
        <time>2015-08-20T14:07:36Z</time>
      </trkpt>
      <trkpt lat="45.55437" lon="6.73884">
        <ele>1398.0327</ele>
        <time>2015-08-20T14:07:46Z</time>
      </trkpt>
      <trkpt lat="45.55435" lon="6.73886">
        <ele>1399.3473</ele>
        <time>2015-08-20T14:07:51Z</time>
      </trkpt>
      <trkpt lat="45.5543" lon="6.73889">
        <ele>1399.3473</ele>
        <time>2015-08-20T14:08:01Z</time>
      </trkpt>
      <trkpt lat="45.5543" lon="6.73891">
        <ele>1399.3473</ele>
        <time>2015-08-20T14:08:06Z</time>
      </trkpt>
      <trkpt lat="45.55431" lon="6.73894">
        <ele>1400.5587</ele>
        <time>2015-08-20T14:08:16Z</time>
      </trkpt>
      <trkpt lat="45.55431" lon="6.73893">
        <ele>1400.5587</ele>
        <time>2015-08-20T14:08:21Z</time>
      </trkpt>
      <trkpt lat="45.55428" lon="6.73894">
        <ele>1400.5587</ele>
        <time>2015-08-20T14:09:01Z</time>
      </trkpt>
      <trkpt lat="45.55428" lon="6.73894">
        <ele>1400.5587</ele>
        <time>2015-08-20T14:09:06Z</time>
      </trkpt>
      <trkpt lat="45.5542" lon="6.73903">
        <ele>1402.5583</ele>
        <time>2015-08-20T14:09:21Z</time>
      </trkpt>
      <trkpt lat="45.55418" lon="6.73905">
        <ele>1402.5583</ele>
        <time>2015-08-20T14:09:26Z</time>
      </trkpt>
      <trkpt lat="45.55414" lon="6.73908">
        <ele>1402.5583</ele>
        <time>2015-08-20T14:09:36Z</time>
      </trkpt>
      <trkpt lat="45.55412" lon="6.7391">
        <ele>1404.6992</ele>
        <time>2015-08-20T14:09:41Z</time>
      </trkpt>
      <trkpt lat="45.55412" lon="6.73911">
        <ele>1404.6992</ele>
        <time>2015-08-20T14:09:51Z</time>
      </trkpt>
      <trkpt lat="45.55405" lon="6.73913">
        <ele>1404.6992</ele>
        <time>2015-08-20T14:10:06Z</time>
      </trkpt>
      <trkpt lat="45.55399" lon="6.73913">
        <ele>1407.1459</ele>
        <time>2015-08-20T14:10:11Z</time>
      </trkpt>
      <trkpt lat="45.55391" lon="6.73919">
        <ele>1407.1459</ele>
        <time>2015-08-20T14:10:21Z</time>
      </trkpt>
      <trkpt lat="45.55388" lon="6.73924">
        <ele>1409.1417</ele>
        <time>2015-08-20T14:10:26Z</time>
      </trkpt>
      <trkpt lat="45.55382" lon="6.73928">
        <ele>1409.1417</ele>
        <time>2015-08-20T14:10:36Z</time>
      </trkpt>
      <trkpt lat="45.55378" lon="6.73931">
        <ele>1410.8516</ele>
        <time>2015-08-20T14:10:41Z</time>
      </trkpt>
      <trkpt lat="45.55368" lon="6.73935">
        <ele>1412.2993</ele>
        <time>2015-08-20T14:10:51Z</time>
      </trkpt>
      <trkpt lat="45.55369" lon="6.73936">
        <ele>1412.2993</ele>
        <time>2015-08-20T14:10:56Z</time>
      </trkpt>
      <trkpt lat="45.55368" lon="6.73936">
        <ele>1412.2993</ele>
        <time>2015-08-20T14:11:06Z</time>
      </trkpt>
      <trkpt lat="45.55361" lon="6.7394">
        <ele>1412.2993</ele>
        <time>2015-08-20T14:11:21Z</time>
      </trkpt>
      <trkpt lat="45.55348" lon="6.73948">
        <ele>1414.0844</ele>
        <time>2015-08-20T14:11:26Z</time>
      </trkpt>
      <trkpt lat="45.55333" lon="6.73956">
        <ele>1415.7662</ele>
        <time>2015-08-20T14:11:41Z</time>
      </trkpt>
      <trkpt lat="45.55333" lon="6.73957">
        <ele>1415.7662</ele>
        <time>2015-08-20T14:11:46Z</time>
      </trkpt>
      <trkpt lat="45.55331" lon="6.7396">
        <ele>1415.7662</ele>
        <time>2015-08-20T14:11:56Z</time>
      </trkpt>
      <trkpt lat="45.55327" lon="6.73963">
        <ele>1415.7662</ele>
        <time>2015-08-20T14:12:01Z</time>
      </trkpt>
      <trkpt lat="45.55308" lon="6.73976">
        <ele>1418.177</ele>
        <time>2015-08-20T14:12:11Z</time>
      </trkpt>
      <trkpt lat="45.55302" lon="6.73979">
        <ele>1418.177</ele>
        <time>2015-08-20T14:12:16Z</time>
      </trkpt>
      <trkpt lat="45.55298" lon="6.73979">
        <ele>1420.3127</ele>
        <time>2015-08-20T14:12:26Z</time>
      </trkpt>
      <trkpt lat="45.55298" lon="6.73979">
        <ele>1420.3127</ele>
        <time>2015-08-20T14:12:31Z</time>
      </trkpt>
      <trkpt lat="45.55293" lon="6.73982">
        <ele>1420.3127</ele>
        <time>2015-08-20T14:12:41Z</time>
      </trkpt>
      <trkpt lat="45.55293" lon="6.73982">
        <ele>1420.3127</ele>
        <time>2015-08-20T14:12:46Z</time>
      </trkpt>
      <trkpt lat="45.55278" lon="6.73995">
        <ele>1422.6128</ele>
        <time>2015-08-20T14:12:56Z</time>
      </trkpt>
      <trkpt lat="45.55273" lon="6.73999">
        <ele>1422.6128</ele>
        <time>2015-08-20T14:13:01Z</time>
      </trkpt>
      <trkpt lat="45.55267" lon="6.74005">
        <ele>1424.8499</ele>
        <time>2015-08-20T14:13:11Z</time>
      </trkpt>
      <trkpt lat="45.55262" lon="6.74009">
        <ele>1424.8499</ele>
        <time>2015-08-20T14:13:16Z</time>
      </trkpt>
      <trkpt lat="45.55253" lon="6.74014">
        <ele>1426.9576</ele>
        <time>2015-08-20T14:13:26Z</time>
      </trkpt>
      <trkpt lat="45.55247" lon="6.7402">
        <ele>1426.9576</ele>
        <time>2015-08-20T14:13:31Z</time>
      </trkpt>
      <trkpt lat="45.5523" lon="6.74033">
        <ele>1428.8605</ele>
        <time>2015-08-20T14:13:46Z</time>
      </trkpt>
      <trkpt lat="45.55228" lon="6.74037">
        <ele>1428.8605</ele>
        <time>2015-08-20T14:13:51Z</time>
      </trkpt>
      <trkpt lat="45.55225" lon="6.7404">
        <ele>1428.8605</ele>
        <time>2015-08-20T14:14:01Z</time>
      </trkpt>
      <trkpt lat="45.55219" lon="6.74041">
        <ele>1430.604</ele>
        <time>2015-08-20T14:14:06Z</time>
      </trkpt>
      <trkpt lat="45.55213" lon="6.74045">
        <ele>1430.604</ele>
        <time>2015-08-20T14:14:16Z</time>
      </trkpt>
      <trkpt lat="45.55213" lon="6.74045">
        <ele>1430.604</ele>
        <time>2015-08-20T14:14:21Z</time>
      </trkpt>
      <trkpt lat="45.55208" lon="6.74049">
        <ele>1432.2455</ele>
        <time>2015-08-20T14:14:31Z</time>
      </trkpt>
      <trkpt lat="45.55208" lon="6.74049">
        <ele>1432.2455</ele>
        <time>2015-08-20T14:14:36Z</time>
      </trkpt>
      <trkpt lat="45.55206" lon="6.74051">
        <ele>1432.2455</ele>
        <time>2015-08-20T14:14:46Z</time>
      </trkpt>
      <trkpt lat="45.55204" lon="6.74051">
        <ele>1432.2455</ele>
        <time>2015-08-20T14:14:51Z</time>
      </trkpt>
      <trkpt lat="45.55199" lon="6.74055">
        <ele>1434.1263</ele>
        <time>2015-08-20T14:15:06Z</time>
      </trkpt>
      <trkpt lat="45.55195" lon="6.74057">
        <ele>1434.1263</ele>
        <time>2015-08-20T14:15:21Z</time>
      </trkpt>
      <trkpt lat="45.55193" lon="6.74059">
        <ele>1434.1263</ele>
        <time>2015-08-20T14:15:26Z</time>
      </trkpt>
      <trkpt lat="45.55186" lon="6.74066">
        <ele>1436.5911</ele>
        <time>2015-08-20T14:15:36Z</time>
      </trkpt>
      <trkpt lat="45.55184" lon="6.74069">
        <ele>1436.5911</ele>
        <time>2015-08-20T14:15:41Z</time>
      </trkpt>
      <trkpt lat="45.55175" lon="6.74075">
        <ele>1439.0923</ele>
        <time>2015-08-20T14:15:51Z</time>
      </trkpt>
      <trkpt lat="45.55171" lon="6.7408">
        <ele>1439.0923</ele>
        <time>2015-08-20T14:15:56Z</time>
      </trkpt>
      <trkpt lat="45.5517" lon="6.74081">
        <ele>1439.0923</ele>
        <time>2015-08-20T14:16:06Z</time>
      </trkpt>
      <trkpt lat="45.5517" lon="6.74081">
        <ele>1439.0923</ele>
        <time>2015-08-20T14:16:11Z</time>
      </trkpt>
      <trkpt lat="45.55162" lon="6.74086">
        <ele>1441.8436</ele>
        <time>2015-08-20T14:16:21Z</time>
      </trkpt>
      <trkpt lat="45.55157" lon="6.74089">
        <ele>1441.8436</ele>
        <time>2015-08-20T14:16:26Z</time>
      </trkpt>
      <trkpt lat="45.55157" lon="6.74089">
        <ele>1441.8436</ele>
        <time>2015-08-20T14:16:36Z</time>
      </trkpt>
      <trkpt lat="45.55143" lon="6.74093">
        <ele>1444.8112</ele>
        <time>2015-08-20T14:16:51Z</time>
      </trkpt>
      <trkpt lat="45.5514" lon="6.74095">
        <ele>1444.8112</ele>
        <time>2015-08-20T14:16:56Z</time>
      </trkpt>
      <trkpt lat="45.55137" lon="6.74097">
        <ele>1444.8112</ele>
        <time>2015-08-20T14:17:06Z</time>
      </trkpt>
      <trkpt lat="45.55133" lon="6.74098">
        <ele>1447.9778</ele>
        <time>2015-08-20T14:17:11Z</time>
      </trkpt>
      <trkpt lat="45.55133" lon="6.74098">
        <ele>1447.9778</ele>
        <time>2015-08-20T14:17:21Z</time>
      </trkpt>
      <trkpt lat="45.55129" lon="6.74102">
        <ele>1447.9778</ele>
        <time>2015-08-20T14:17:41Z</time>
      </trkpt>
      <trkpt lat="45.55124" lon="6.74108">
        <ele>1451.1248</ele>
        <time>2015-08-20T14:17:56Z</time>
      </trkpt>
      <trkpt lat="45.5511" lon="6.74118">
        <ele>1454.3093</ele>
        <time>2015-08-20T14:18:26Z</time>
      </trkpt>
      <trkpt lat="45.5511" lon="6.74118">
        <ele>1454.3093</ele>
        <time>2015-08-20T14:18:31Z</time>
      </trkpt>
      <trkpt lat="45.55109" lon="6.74118">
        <ele>1454.3093</ele>
        <time>2015-08-20T14:19:31Z</time>
      </trkpt>
      <trkpt lat="45.55104" lon="6.74121">
        <ele>1454.3093</ele>
        <time>2015-08-20T14:19:51Z</time>
      </trkpt>
      <trkpt lat="45.55101" lon="6.74124">
        <ele>1457.4832</ele>
        <time>2015-08-20T14:20:01Z</time>
      </trkpt>
      <trkpt lat="45.55094" lon="6.74126">
        <ele>1457.4832</ele>
        <time>2015-08-20T14:20:06Z</time>
      </trkpt>
      <trkpt lat="45.55092" lon="6.74127">
        <ele>1460.1406</ele>
        <time>2015-08-20T14:20:16Z</time>
      </trkpt>
      <trkpt lat="45.55087" lon="6.74129">
        <ele>1460.1406</ele>
        <time>2015-08-20T14:20:31Z</time>
      </trkpt>
      <trkpt lat="45.55087" lon="6.74129">
        <ele>1460.1406</ele>
        <time>2015-08-20T14:20:36Z</time>
      </trkpt>
      <trkpt lat="45.55083" lon="6.74131">
        <ele>1462.7942</ele>
        <time>2015-08-20T14:20:46Z</time>
      </trkpt>
      <trkpt lat="45.55083" lon="6.74131">
        <ele>1462.7942</ele>
        <time>2015-08-20T14:20:51Z</time>
      </trkpt>
      <trkpt lat="45.55067" lon="6.74144">
        <ele>1465.5591</ele>
        <time>2015-08-20T14:21:01Z</time>
      </trkpt>
      <trkpt lat="45.55065" lon="6.74145">
        <ele>1465.5591</ele>
        <time>2015-08-20T14:21:06Z</time>
      </trkpt>
      <trkpt lat="45.55063" lon="6.74146">
        <ele>1465.5591</ele>
        <time>2015-08-20T14:21:16Z</time>
      </trkpt>
      <trkpt lat="45.55063" lon="6.74146">
        <ele>1465.5591</ele>
        <time>2015-08-20T14:21:21Z</time>
      </trkpt>
      <trkpt lat="45.55056" lon="6.74148">
        <ele>1468.152</ele>
        <time>2015-08-20T14:21:31Z</time>
      </trkpt>
      <trkpt lat="45.55048" lon="6.74155">
        <ele>1470.4987</ele>
        <time>2015-08-20T14:21:36Z</time>
      </trkpt>
      <trkpt lat="45.55035" lon="6.74164">
        <ele>1472.8911</ele>
        <time>2015-08-20T14:21:51Z</time>
      </trkpt>
      <trkpt lat="45.5503" lon="6.74166">
        <ele>1472.8911</ele>
        <time>2015-08-20T14:21:56Z</time>
      </trkpt>
      <trkpt lat="45.55026" lon="6.74168">
        <ele>1475.2107</ele>
        <time>2015-08-20T14:22:06Z</time>
      </trkpt>
      <trkpt lat="45.55026" lon="6.74168">
        <ele>1475.2107</ele>
        <time>2015-08-20T14:22:11Z</time>
      </trkpt>
      <trkpt lat="45.55001" lon="6.74178">
        <ele>1477.2467</ele>
        <time>2015-08-20T14:22:21Z</time>
      </trkpt>
      <trkpt lat="45.54996" lon="6.74181">
        <ele>1477.2467</ele>
        <time>2015-08-20T14:22:26Z</time>
      </trkpt>
      <trkpt lat="45.54988" lon="6.74189">
        <ele>1479.0212</ele>
        <time>2015-08-20T14:22:36Z</time>
      </trkpt>
      <trkpt lat="45.54986" lon="6.74191">
        <ele>1479.0212</ele>
        <time>2015-08-20T14:22:41Z</time>
      </trkpt>
      <trkpt lat="45.54982" lon="6.74197">
        <ele>1479.0212</ele>
        <time>2015-08-20T14:22:51Z</time>
      </trkpt>
      <trkpt lat="45.54981" lon="6.74195">
        <ele>1480.3246</ele>
        <time>2015-08-20T14:22:56Z</time>
      </trkpt>
      <trkpt lat="45.54985" lon="6.74188">
        <ele>1480.3246</ele>
        <time>2015-08-20T14:23:06Z</time>
      </trkpt>
      <trkpt lat="45.54983" lon="6.74191">
        <ele>1481.1943</ele>
        <time>2015-08-20T14:23:11Z</time>
      </trkpt>
      <trkpt lat="45.54978" lon="6.74191">
        <ele>1481.1943</ele>
        <time>2015-08-20T14:23:21Z</time>
      </trkpt>
      <trkpt lat="45.54978" lon="6.74191">
        <ele>1481.1943</ele>
        <time>2015-08-20T14:23:26Z</time>
      </trkpt>
      <trkpt lat="45.54978" lon="6.74192">
        <ele>1481.1943</ele>
        <time>2015-08-20T14:23:56Z</time>
      </trkpt>
      <trkpt lat="45.54978" lon="6.74192">
        <ele>1481.1943</ele>
        <time>2015-08-20T14:24:11Z</time>
      </trkpt>
      <trkpt lat="45.54977" lon="6.74193">
        <ele>1481.1943</ele>
        <time>2015-08-20T14:24:31Z</time>
      </trkpt>
      <trkpt lat="45.54975" lon="6.74194">
        <ele>1482.8341</ele>
        <time>2015-08-20T14:24:41Z</time>
      </trkpt>
      <trkpt lat="45.54967" lon="6.74204">
        <ele>1484.9009</ele>
        <time>2015-08-20T14:24:56Z</time>
      </trkpt>
      <trkpt lat="45.54957" lon="6.7422">
        <ele>1486.6439</ele>
        <time>2015-08-20T14:25:01Z</time>
      </trkpt>
      <trkpt lat="45.54954" lon="6.74226">
        <ele>1486.6439</ele>
        <time>2015-08-20T14:25:11Z</time>
      </trkpt>
      <trkpt lat="45.5495" lon="6.74233">
        <ele>1487.8004</ele>
        <time>2015-08-20T14:25:16Z</time>
      </trkpt>
      <trkpt lat="45.54943" lon="6.74244">
        <ele>1488.6184</ele>
        <time>2015-08-20T14:25:26Z</time>
      </trkpt>
      <trkpt lat="45.54938" lon="6.74251">
        <ele>1488.6184</ele>
        <time>2015-08-20T14:25:31Z</time>
      </trkpt>
      <trkpt lat="45.54929" lon="6.74261">
        <ele>1489.2281</ele>
        <time>2015-08-20T14:25:41Z</time>
      </trkpt>
      <trkpt lat="45.54922" lon="6.74266">
        <ele>1489.2281</ele>
        <time>2015-08-20T14:25:46Z</time>
      </trkpt>
      <trkpt lat="45.54915" lon="6.74274">
        <ele>1489.3612</ele>
        <time>2015-08-20T14:25:56Z</time>
      </trkpt>
      <trkpt lat="45.54911" lon="6.74279">
        <ele>1489.3612</ele>
        <time>2015-08-20T14:26:01Z</time>
      </trkpt>
      <trkpt lat="45.54907" lon="6.74282">
        <ele>1489.131</ele>
        <time>2015-08-20T14:26:11Z</time>
      </trkpt>
      <trkpt lat="45.54902" lon="6.74286">
        <ele>1489.131</ele>
        <time>2015-08-20T14:26:16Z</time>
      </trkpt>
      <trkpt lat="45.54894" lon="6.74292">
        <ele>1488.6143</ele>
        <time>2015-08-20T14:26:31Z</time>
      </trkpt>
      <trkpt lat="45.54892" lon="6.74293">
        <ele>1488.6143</ele>
        <time>2015-08-20T14:26:36Z</time>
      </trkpt>
      <trkpt lat="45.5489" lon="6.74293">
        <ele>1488.6143</ele>
        <time>2015-08-20T14:26:46Z</time>
      </trkpt>
      <trkpt lat="45.5489" lon="6.74294">
        <ele>1488.6143</ele>
        <time>2015-08-20T14:26:51Z</time>
      </trkpt>
      <trkpt lat="45.54894" lon="6.74293">
        <ele>1488.6143</ele>
        <time>2015-08-20T14:27:01Z</time>
      </trkpt>
      <trkpt lat="45.54896" lon="6.7429">
        <ele>1487.3065</ele>
        <time>2015-08-20T14:27:06Z</time>
      </trkpt>
      <trkpt lat="45.54894" lon="6.74287">
        <ele>1487.3065</ele>
        <time>2015-08-20T14:27:16Z</time>
      </trkpt>
      <trkpt lat="45.54893" lon="6.74288">
        <ele>1487.3065</ele>
        <time>2015-08-20T14:27:21Z</time>
      </trkpt>
      <trkpt lat="45.54891" lon="6.74289">
        <ele>1487.3065</ele>
        <time>2015-08-20T14:27:31Z</time>
      </trkpt>
      <trkpt lat="45.54889" lon="6.74289">
        <ele>1487.3065</ele>
        <time>2015-08-20T14:27:36Z</time>
      </trkpt>
      <trkpt lat="45.54885" lon="6.74286">
        <ele>1485.6938</ele>
        <time>2015-08-20T14:27:46Z</time>
      </trkpt>
      <trkpt lat="45.54883" lon="6.74289">
        <ele>1485.6938</ele>
        <time>2015-08-20T14:27:51Z</time>
      </trkpt>
      <trkpt lat="45.54875" lon="6.74294">
        <ele>1483.9818</ele>
        <time>2015-08-20T14:28:01Z</time>
      </trkpt>
      <trkpt lat="45.54872" lon="6.74295">
        <ele>1483.9818</ele>
        <time>2015-08-20T14:28:06Z</time>
      </trkpt>
      <trkpt lat="45.54863" lon="6.74299">
        <ele>1482.549</ele>
        <time>2015-08-20T14:28:16Z</time>
      </trkpt>
      <trkpt lat="45.54863" lon="6.74299">
        <ele>1482.549</ele>
        <time>2015-08-20T14:28:21Z</time>
      </trkpt>
      <trkpt lat="45.54862" lon="6.74299">
        <ele>1482.549</ele>
        <time>2015-08-20T14:28:36Z</time>
      </trkpt>
      <trkpt lat="45.54862" lon="6.74299">
        <ele>1482.549</ele>
        <time>2015-08-20T14:28:46Z</time>
      </trkpt>
      <trkpt lat="45.54861" lon="6.74299">
        <ele>1482.549</ele>
        <time>2015-08-20T14:29:01Z</time>
      </trkpt>
      <trkpt lat="45.54856" lon="6.74301">
        <ele>1482.549</ele>
        <time>2015-08-20T14:29:56Z</time>
      </trkpt>
      <trkpt lat="45.54855" lon="6.74302">
        <ele>1482.549</ele>
        <time>2015-08-20T14:30:01Z</time>
      </trkpt>
      <trkpt lat="45.54853" lon="6.74303">
        <ele>1482.0471</ele>
        <time>2015-08-20T14:30:11Z</time>
      </trkpt>
      <trkpt lat="45.54852" lon="6.74304">
        <ele>1482.0471</ele>
        <time>2015-08-20T14:30:16Z</time>
      </trkpt>
      <trkpt lat="45.5485" lon="6.74305">
        <ele>1482.0471</ele>
        <time>2015-08-20T14:30:26Z</time>
      </trkpt>
      <trkpt lat="45.54848" lon="6.74305">
        <ele>1482.0471</ele>
        <time>2015-08-20T14:30:31Z</time>
      </trkpt>
      <trkpt lat="45.54848" lon="6.74305">
        <ele>1482.0471</ele>
        <time>2015-08-20T14:30:46Z</time>
      </trkpt>
      <trkpt lat="45.54845" lon="6.74305">
        <ele>1482.0471</ele>
        <time>2015-08-20T14:31:01Z</time>
      </trkpt>
      <trkpt lat="45.54836" lon="6.74307">
        <ele>1481.0028</ele>
        <time>2015-08-20T14:31:06Z</time>
      </trkpt>
      <trkpt lat="45.54833" lon="6.74308">
        <ele>1481.0028</ele>
        <time>2015-08-20T14:31:16Z</time>
      </trkpt>
      <trkpt lat="45.54808" lon="6.74315">
        <ele>1479.7522</ele>
        <time>2015-08-20T14:31:21Z</time>
      </trkpt>
      <trkpt lat="45.54782" lon="6.74328">
        <ele>1478.2903</ele>
        <time>2015-08-20T14:31:31Z</time>
      </trkpt>
      <trkpt lat="45.5478" lon="6.7433">
        <ele>1478.2903</ele>
        <time>2015-08-20T14:31:36Z</time>
      </trkpt>
      <trkpt lat="45.54773" lon="6.74337">
        <ele>1476.483</ele>
        <time>2015-08-20T14:31:46Z</time>
      </trkpt>
      <trkpt lat="45.54771" lon="6.74338">
        <ele>1476.483</ele>
        <time>2015-08-20T14:31:51Z</time>
      </trkpt>
      <trkpt lat="45.54767" lon="6.74341">
        <ele>1476.483</ele>
        <time>2015-08-20T14:32:01Z</time>
      </trkpt>
      <trkpt lat="45.54767" lon="6.74341">
        <ele>1476.483</ele>
        <time>2015-08-20T14:32:06Z</time>
      </trkpt>
      <trkpt lat="45.54764" lon="6.74342">
        <ele>1474.4952</ele>
        <time>2015-08-20T14:32:16Z</time>
      </trkpt>
      <trkpt lat="45.54764" lon="6.74342">
        <ele>1474.4952</ele>
        <time>2015-08-20T14:32:21Z</time>
      </trkpt>
      <trkpt lat="45.5476" lon="6.74344">
        <ele>1474.4952</ele>
        <time>2015-08-20T14:32:36Z</time>
      </trkpt>
      <trkpt lat="45.54754" lon="6.74343">
        <ele>1472.6241</ele>
        <time>2015-08-20T14:32:46Z</time>
      </trkpt>
      <trkpt lat="45.54752" lon="6.74344">
        <ele>1472.6241</ele>
        <time>2015-08-20T14:32:51Z</time>
      </trkpt>
      <trkpt lat="45.5474" lon="6.74351">
        <ele>1470.7695</ele>
        <time>2015-08-20T14:33:01Z</time>
      </trkpt>
      <trkpt lat="45.54735" lon="6.74353">
        <ele>1470.7695</ele>
        <time>2015-08-20T14:33:06Z</time>
      </trkpt>
      <trkpt lat="45.54722" lon="6.74369">
        <ele>1468.9539</ele>
        <time>2015-08-20T14:33:16Z</time>
      </trkpt>
      <trkpt lat="45.54719" lon="6.7437">
        <ele>1468.9539</ele>
        <time>2015-08-20T14:33:21Z</time>
      </trkpt>
      <trkpt lat="45.54713" lon="6.74372">
        <ele>1467.1686</ele>
        <time>2015-08-20T14:33:31Z</time>
      </trkpt>
      <trkpt lat="45.54708" lon="6.74374">
        <ele>1467.1686</ele>
        <time>2015-08-20T14:33:36Z</time>
      </trkpt>
      <trkpt lat="45.547" lon="6.74387">
        <ele>1465.1893</ele>
        <time>2015-08-20T14:33:51Z</time>
      </trkpt>
      <trkpt lat="45.54696" lon="6.74394">
        <ele>1465.1893</ele>
        <time>2015-08-20T14:33:56Z</time>
      </trkpt>
      <trkpt lat="45.5469" lon="6.74398">
        <ele>1463.0101</ele>
        <time>2015-08-20T14:34:06Z</time>
      </trkpt>
      <trkpt lat="45.54687" lon="6.74399">
        <ele>1463.0101</ele>
        <time>2015-08-20T14:34:11Z</time>
      </trkpt>
      <trkpt lat="45.54678" lon="6.74406">
        <ele>1460.5681</ele>
        <time>2015-08-20T14:34:21Z</time>
      </trkpt>
      <trkpt lat="45.54672" lon="6.74408">
        <ele>1460.5681</ele>
        <time>2015-08-20T14:34:26Z</time>
      </trkpt>
      <trkpt lat="45.54662" lon="6.74411">
        <ele>1457.6471</ele>
        <time>2015-08-20T14:34:36Z</time>
      </trkpt>
      <trkpt lat="45.54661" lon="6.74412">
        <ele>1457.6471</ele>
        <time>2015-08-20T14:34:41Z</time>
      </trkpt>
      <trkpt lat="45.54657" lon="6.74416">
        <ele>1457.6471</ele>
        <time>2015-08-20T14:34:51Z</time>
      </trkpt>
      <trkpt lat="45.54654" lon="6.74422">
        <ele>1455.0708</ele>
        <time>2015-08-20T14:34:56Z</time>
      </trkpt>
      <trkpt lat="45.54652" lon="6.7444">
        <ele>1452.9384</ele>
        <time>2015-08-20T14:35:06Z</time>
      </trkpt>
      <trkpt lat="45.54651" lon="6.74448">
        <ele>1452.9384</ele>
        <time>2015-08-20T14:35:11Z</time>
      </trkpt>
      <trkpt lat="45.54651" lon="6.74449">
        <ele>1452.9384</ele>
        <time>2015-08-20T14:35:21Z</time>
      </trkpt>
      <trkpt lat="45.54649" lon="6.7445">
        <ele>1451.196</ele>
        <time>2015-08-20T14:35:26Z</time>
      </trkpt>
      <trkpt lat="45.54645" lon="6.74453">
        <ele>1451.196</ele>
        <time>2015-08-20T14:35:36Z</time>
      </trkpt>
      <trkpt lat="45.54644" lon="6.74456">
        <ele>1451.196</ele>
        <time>2015-08-20T14:35:41Z</time>
      </trkpt>
      <trkpt lat="45.54638" lon="6.74479">
        <ele>1449.7493</ele>
        <time>2015-08-20T14:35:51Z</time>
      </trkpt>
      <trkpt lat="45.54636" lon="6.74483">
        <ele>1449.7493</ele>
        <time>2015-08-20T14:35:56Z</time>
      </trkpt>
      <trkpt lat="45.5463" lon="6.74503">
        <ele>1448.1058</ele>
        <time>2015-08-20T14:36:11Z</time>
      </trkpt>
      <trkpt lat="45.54628" lon="6.74509">
        <ele>1448.1058</ele>
        <time>2015-08-20T14:36:16Z</time>
      </trkpt>
      <trkpt lat="45.54626" lon="6.7452">
        <ele>1446.4585</ele>
        <time>2015-08-20T14:36:26Z</time>
      </trkpt>
      <trkpt lat="45.54624" lon="6.74525">
        <ele>1446.4585</ele>
        <time>2015-08-20T14:36:31Z</time>
      </trkpt>
      <trkpt lat="45.54621" lon="6.74533">
        <ele>1444.8702</ele>
        <time>2015-08-20T14:36:41Z</time>
      </trkpt>
      <trkpt lat="45.5462" lon="6.74539">
        <ele>1444.8702</ele>
        <time>2015-08-20T14:36:46Z</time>
      </trkpt>
      <trkpt lat="45.54615" lon="6.74547">
        <ele>1443.4999</ele>
        <time>2015-08-20T14:36:56Z</time>
      </trkpt>
      <trkpt lat="45.54613" lon="6.7455">
        <ele>1443.4999</ele>
        <time>2015-08-20T14:37:01Z</time>
      </trkpt>
      <trkpt lat="45.54609" lon="6.74554">
        <ele>1443.4999</ele>
        <time>2015-08-20T14:37:11Z</time>
      </trkpt>
      <trkpt lat="45.54606" lon="6.74557">
        <ele>1442.4072</ele>
        <time>2015-08-20T14:37:16Z</time>
      </trkpt>
      <trkpt lat="45.54603" lon="6.7456">
        <ele>1442.4072</ele>
        <time>2015-08-20T14:37:26Z</time>
      </trkpt>
      <trkpt lat="45.54602" lon="6.74561">
        <ele>1442.4072</ele>
        <time>2015-08-20T14:37:31Z</time>
      </trkpt>
      <trkpt lat="45.546" lon="6.74564">
        <ele>1442.4072</ele>
        <time>2015-08-20T14:37:41Z</time>
      </trkpt>
      <trkpt lat="45.54597" lon="6.74565">
        <ele>1441.2863</ele>
        <time>2015-08-20T14:37:46Z</time>
      </trkpt>
      <trkpt lat="45.54591" lon="6.7457">
        <ele>1441.2863</ele>
        <time>2015-08-20T14:37:56Z</time>
      </trkpt>
      <trkpt lat="45.54589" lon="6.74572">
        <ele>1440.1993</ele>
        <time>2015-08-20T14:38:01Z</time>
      </trkpt>
      <trkpt lat="45.54586" lon="6.74576">
        <ele>1440.1993</ele>
        <time>2015-08-20T14:38:11Z</time>
      </trkpt>
      <trkpt lat="45.54585" lon="6.74575">
        <ele>1440.1993</ele>
        <time>2015-08-20T14:38:16Z</time>
      </trkpt>
      <trkpt lat="45.54582" lon="6.74571">
        <ele>1439.1748</ele>
        <time>2015-08-20T14:38:26Z</time>
      </trkpt>
      <trkpt lat="45.5458" lon="6.74574">
        <ele>1439.1748</ele>
        <time>2015-08-20T14:38:31Z</time>
      </trkpt>
      <trkpt lat="45.54578" lon="6.74578">
        <ele>1439.1748</ele>
        <time>2015-08-20T14:38:46Z</time>
      </trkpt>
      <trkpt lat="45.54578" lon="6.7458">
        <ele>1439.1748</ele>
        <time>2015-08-20T14:38:51Z</time>
      </trkpt>
      <trkpt lat="45.54577" lon="6.74581">
        <ele>1439.1748</ele>
        <time>2015-08-20T14:39:01Z</time>
      </trkpt>
      <trkpt lat="45.54575" lon="6.74585">
        <ele>1438.2676</ele>
        <time>2015-08-20T14:39:06Z</time>
      </trkpt>
      <trkpt lat="45.54575" lon="6.74586">
        <ele>1438.2676</ele>
        <time>2015-08-20T14:39:16Z</time>
      </trkpt>
      <trkpt lat="45.54572" lon="6.74587">
        <ele>1438.2676</ele>
        <time>2015-08-20T14:39:21Z</time>
      </trkpt>
      <trkpt lat="45.54572" lon="6.74588">
        <ele>1438.2676</ele>
        <time>2015-08-20T14:39:31Z</time>
      </trkpt>
      <trkpt lat="45.54569" lon="6.7459">
        <ele>1438.2676</ele>
        <time>2015-08-20T14:39:36Z</time>
      </trkpt>
      <trkpt lat="45.54569" lon="6.74591">
        <ele>1438.2676</ele>
        <time>2015-08-20T14:39:46Z</time>
      </trkpt>
      <trkpt lat="45.54566" lon="6.74597">
        <ele>1437.182</ele>
        <time>2015-08-20T14:39:51Z</time>
      </trkpt>
      <trkpt lat="45.54564" lon="6.74603">
        <ele>1437.182</ele>
        <time>2015-08-20T14:40:01Z</time>
      </trkpt>
      <trkpt lat="45.54563" lon="6.74605">
        <ele>1437.182</ele>
        <time>2015-08-20T14:40:06Z</time>
      </trkpt>
      <trkpt lat="45.54557" lon="6.74611">
        <ele>1436.1489</ele>
        <time>2015-08-20T14:40:16Z</time>
      </trkpt>
      <trkpt lat="45.54555" lon="6.74612">
        <ele>1436.1489</ele>
        <time>2015-08-20T14:40:21Z</time>
      </trkpt>
      <trkpt lat="45.54551" lon="6.74616">
        <ele>1436.1489</ele>
        <time>2015-08-20T14:40:31Z</time>
      </trkpt>
      <trkpt lat="45.54549" lon="6.74617">
        <ele>1434.9639</ele>
        <time>2015-08-20T14:40:36Z</time>
      </trkpt>
      <trkpt lat="45.54546" lon="6.74615">
        <ele>1434.9639</ele>
        <time>2015-08-20T14:40:46Z</time>
      </trkpt>
      <trkpt lat="45.54548" lon="6.74615">
        <ele>1434.9639</ele>
        <time>2015-08-20T14:40:51Z</time>
      </trkpt>
      <trkpt lat="45.54552" lon="6.74616">
        <ele>1432.6019</ele>
        <time>2015-08-20T14:41:06Z</time>
      </trkpt>
      <trkpt lat="45.54552" lon="6.74616">
        <ele>1432.6019</ele>
        <time>2015-08-20T14:41:11Z</time>
      </trkpt>
      <trkpt lat="45.5455" lon="6.74616">
        <ele>1432.6019</ele>
        <time>2015-08-20T14:41:21Z</time>
      </trkpt>
      <trkpt lat="45.54548" lon="6.74617">
        <ele>1432.6019</ele>
        <time>2015-08-20T14:41:26Z</time>
      </trkpt>
      <trkpt lat="45.54546" lon="6.74619">
        <ele>1432.6019</ele>
        <time>2015-08-20T14:41:36Z</time>
      </trkpt>
      <trkpt lat="45.54545" lon="6.7462">
        <ele>1432.6019</ele>
        <time>2015-08-20T14:41:41Z</time>
      </trkpt>
      <trkpt lat="45.54542" lon="6.74621">
        <ele>1429.5142</ele>
        <time>2015-08-20T14:41:51Z</time>
      </trkpt>
      <trkpt lat="45.54542" lon="6.74621">
        <ele>1429.5142</ele>
        <time>2015-08-20T14:41:56Z</time>
      </trkpt>
      <trkpt lat="45.54542" lon="6.74627">
        <ele>1429.5142</ele>
        <time>2015-08-20T14:42:06Z</time>
      </trkpt>
      <trkpt lat="45.54542" lon="6.74627">
        <ele>1429.5142</ele>
        <time>2015-08-20T14:42:11Z</time>
      </trkpt>
      <trkpt lat="45.54539" lon="6.74631">
        <ele>1429.5142</ele>
        <time>2015-08-20T14:42:26Z</time>
      </trkpt>
      <trkpt lat="45.54539" lon="6.74631">
        <ele>1429.5142</ele>
        <time>2015-08-20T14:42:36Z</time>
      </trkpt>
      <trkpt lat="45.54538" lon="6.74631">
        <ele>1429.5142</ele>
        <time>2015-08-20T14:42:41Z</time>
      </trkpt>
      <trkpt lat="45.54537" lon="6.74631">
        <ele>1426.0775</ele>
        <time>2015-08-20T14:42:51Z</time>
      </trkpt>
      <trkpt lat="45.54533" lon="6.74645">
        <ele>1422.8579</ele>
        <time>2015-08-20T14:43:06Z</time>
      </trkpt>
      <trkpt lat="45.54532" lon="6.74653">
        <ele>1422.8579</ele>
        <time>2015-08-20T14:43:11Z</time>
      </trkpt>
      <trkpt lat="45.54531" lon="6.74654">
        <ele>1422.8579</ele>
        <time>2015-08-20T14:43:21Z</time>
      </trkpt>
      <trkpt lat="45.5453" lon="6.74656">
        <ele>1419.6442</ele>
        <time>2015-08-20T14:43:26Z</time>
      </trkpt>
      <trkpt lat="45.54519" lon="6.7467">
        <ele>1416.514</ele>
        <time>2015-08-20T14:43:41Z</time>
      </trkpt>
      <trkpt lat="45.54515" lon="6.74678">
        <ele>1416.514</ele>
        <time>2015-08-20T14:43:46Z</time>
      </trkpt>
      <trkpt lat="45.54514" lon="6.74679">
        <ele>1416.514</ele>
        <time>2015-08-20T14:43:56Z</time>
      </trkpt>
      <trkpt lat="45.54513" lon="6.74682">
        <ele>1412.8762</ele>
        <time>2015-08-20T14:44:01Z</time>
      </trkpt>
      <trkpt lat="45.54504" lon="6.74698">
        <ele>1409.366</ele>
        <time>2015-08-20T14:44:11Z</time>
      </trkpt>
      <trkpt lat="45.54504" lon="6.74703">
        <ele>1409.366</ele>
        <time>2015-08-20T14:44:16Z</time>
      </trkpt>
      <trkpt lat="45.54504" lon="6.74718">
        <ele>1405.8218</ele>
        <time>2015-08-20T14:44:26Z</time>
      </trkpt>
      <trkpt lat="45.54499" lon="6.7473">
        <ele>1402.5839</ele>
        <time>2015-08-20T14:44:31Z</time>
      </trkpt>
      <trkpt lat="45.54496" lon="6.74742">
        <ele>1399.5342</ele>
        <time>2015-08-20T14:44:41Z</time>
      </trkpt>
      <trkpt lat="45.54495" lon="6.74744">
        <ele>1399.5342</ele>
        <time>2015-08-20T14:44:46Z</time>
      </trkpt>
      <trkpt lat="45.54491" lon="6.74754">
        <ele>1396.4327</ele>
        <time>2015-08-20T14:44:56Z</time>
      </trkpt>
      <trkpt lat="45.54489" lon="6.74756">
        <ele>1396.4327</ele>
        <time>2015-08-20T14:45:01Z</time>
      </trkpt>
      <trkpt lat="45.54487" lon="6.74759">
        <ele>1396.4327</ele>
        <time>2015-08-20T14:45:11Z</time>
      </trkpt>
      <trkpt lat="45.54485" lon="6.74761">
        <ele>1396.4327</ele>
        <time>2015-08-20T14:45:16Z</time>
      </trkpt>
      <trkpt lat="45.54485" lon="6.74768">
        <ele>1393.3021</ele>
        <time>2015-08-20T14:45:31Z</time>
      </trkpt>
      <trkpt lat="45.54485" lon="6.74768">
        <ele>1393.3021</ele>
        <time>2015-08-20T14:46:21Z</time>
      </trkpt>
      <trkpt lat="45.54483" lon="6.74769">
        <ele>1393.3021</ele>
        <time>2015-08-20T14:46:31Z</time>
      </trkpt>
      <trkpt lat="45.54482" lon="6.74774">
        <ele>1393.3021</ele>
        <time>2015-08-20T14:46:46Z</time>
      </trkpt>
      <trkpt lat="45.54481" lon="6.74779">
        <ele>1390.5093</ele>
        <time>2015-08-20T14:46:51Z</time>
      </trkpt>
      <trkpt lat="45.54476" lon="6.74787">
        <ele>1390.5093</ele>
        <time>2015-08-20T14:47:01Z</time>
      </trkpt>
      <trkpt lat="45.54471" lon="6.74796">
        <ele>1388.0181</ele>
        <time>2015-08-20T14:47:06Z</time>
      </trkpt>
      <trkpt lat="45.54464" lon="6.748">
        <ele>1388.0181</ele>
        <time>2015-08-20T14:47:16Z</time>
      </trkpt>
      <trkpt lat="45.54461" lon="6.74804">
        <ele>1385.6931</ele>
        <time>2015-08-20T14:47:21Z</time>
      </trkpt>
      <trkpt lat="45.54452" lon="6.7481">
        <ele>1383.4805</ele>
        <time>2015-08-20T14:47:31Z</time>
      </trkpt>
      <trkpt lat="45.54446" lon="6.74812">
        <ele>1383.4805</ele>
        <time>2015-08-20T14:47:36Z</time>
      </trkpt>
      <trkpt lat="45.54436" lon="6.74823">
        <ele>1381.2</ele>
        <time>2015-08-20T14:47:51Z</time>
      </trkpt>
      <trkpt lat="45.54433" lon="6.74826">
        <ele>1381.2</ele>
        <time>2015-08-20T14:47:56Z</time>
      </trkpt>
      <trkpt lat="45.54424" lon="6.74832">
        <ele>1379.0592</ele>
        <time>2015-08-20T14:48:06Z</time>
      </trkpt>
      <trkpt lat="45.5442" lon="6.74832">
        <ele>1379.0592</ele>
        <time>2015-08-20T14:48:11Z</time>
      </trkpt>
      <trkpt lat="45.54411" lon="6.74833">
        <ele>1376.9188</ele>
        <time>2015-08-20T14:48:21Z</time>
      </trkpt>
      <trkpt lat="45.54409" lon="6.74835">
        <ele>1376.9188</ele>
        <time>2015-08-20T14:48:26Z</time>
      </trkpt>
      <trkpt lat="45.54408" lon="6.74846">
        <ele>1374.9376</ele>
        <time>2015-08-20T14:48:36Z</time>
      </trkpt>
      <trkpt lat="45.54408" lon="6.74847">
        <ele>1374.9376</ele>
        <time>2015-08-20T14:48:41Z</time>
      </trkpt>
      <trkpt lat="45.54408" lon="6.74847">
        <ele>1374.9376</ele>
        <time>2015-08-20T14:48:51Z</time>
      </trkpt>
      <trkpt lat="45.54409" lon="6.74848">
        <ele>1374.9376</ele>
        <time>2015-08-20T14:49:06Z</time>
      </trkpt>
      <trkpt lat="45.54409" lon="6.74845">
        <ele>1374.9376</ele>
        <time>2015-08-20T14:49:41Z</time>
      </trkpt>
      <trkpt lat="45.5441" lon="6.74846">
        <ele>1374.9376</ele>
        <time>2015-08-20T14:49:46Z</time>
      </trkpt>
      <trkpt lat="45.5441" lon="6.74846">
        <ele>1374.9376</ele>
        <time>2015-08-20T14:49:51Z</time>
      </trkpt>
      <trkpt lat="45.5441" lon="6.74846">
        <ele>1374.9376</ele>
        <time>2015-08-20T14:50:41Z</time>
      </trkpt>
      <trkpt lat="45.54411" lon="6.74848">
        <ele>1374.9376</ele>
        <time>2015-08-20T14:50:56Z</time>
      </trkpt>
      <trkpt lat="45.54412" lon="6.74849">
        <ele>1374.9376</ele>
        <time>2015-08-20T14:51:01Z</time>
      </trkpt>
      <trkpt lat="45.54412" lon="6.74849">
        <ele>1374.9376</ele>
        <time>2015-08-20T14:51:06Z</time>
      </trkpt>
      <trkpt lat="45.54412" lon="6.74849">
        <ele>1374.9376</ele>
        <time>2015-08-20T14:51:21Z</time>
      </trkpt>
      <trkpt lat="45.54412" lon="6.74848">
        <ele>1374.9376</ele>
        <time>2015-08-20T14:51:26Z</time>
      </trkpt>
      <trkpt lat="45.54412" lon="6.74846">
        <ele>1372.7721</ele>
        <time>2015-08-20T14:51:31Z</time>
      </trkpt>
      <trkpt lat="45.54406" lon="6.74839">
        <ele>1372.7721</ele>
        <time>2015-08-20T14:51:41Z</time>
      </trkpt>
      <trkpt lat="45.54403" lon="6.74831">
        <ele>1369.5568</ele>
        <time>2015-08-20T14:51:46Z</time>
      </trkpt>
      <trkpt lat="45.54397" lon="6.74805">
        <ele>1365.7753</ele>
        <time>2015-08-20T14:51:56Z</time>
      </trkpt>
      <trkpt lat="45.54397" lon="6.74805">
        <ele>1365.7753</ele>
        <time>2015-08-20T14:52:01Z</time>
      </trkpt>
      <trkpt lat="45.54398" lon="6.74807">
        <ele>1365.7753</ele>
        <time>2015-08-20T14:53:01Z</time>
      </trkpt>
      <trkpt lat="45.54399" lon="6.74814">
        <ele>1365.7753</ele>
        <time>2015-08-20T14:53:06Z</time>
      </trkpt>
      <trkpt lat="45.54399" lon="6.74821">
        <ele>1363.7938</ele>
        <time>2015-08-20T14:53:16Z</time>
      </trkpt>
      <trkpt lat="45.54399" lon="6.74826">
        <ele>1363.7938</ele>
        <time>2015-08-20T14:53:21Z</time>
      </trkpt>
      <trkpt lat="45.54397" lon="6.74831">
        <ele>1363.7938</ele>
        <time>2015-08-20T14:53:31Z</time>
      </trkpt>
      <trkpt lat="45.54393" lon="6.74837">
        <ele>1362.8596</ele>
        <time>2015-08-20T14:53:36Z</time>
      </trkpt>
      <trkpt lat="45.54387" lon="6.74846">
        <ele>1362.8596</ele>
        <time>2015-08-20T14:53:46Z</time>
      </trkpt>
      <trkpt lat="45.54386" lon="6.74848">
        <ele>1362.2723</ele>
        <time>2015-08-20T14:53:51Z</time>
      </trkpt>
      <trkpt lat="45.54375" lon="6.74859">
        <ele>1361.9728</ele>
        <time>2015-08-20T14:54:01Z</time>
      </trkpt>
      <trkpt lat="45.54374" lon="6.7486">
        <ele>1361.9728</ele>
        <time>2015-08-20T14:54:06Z</time>
      </trkpt>
      <trkpt lat="45.54369" lon="6.74856">
        <ele>1361.9728</ele>
        <time>2015-08-20T14:54:16Z</time>
      </trkpt>
      <trkpt lat="45.54366" lon="6.74855">
        <ele>1361.8909</ele>
        <time>2015-08-20T14:54:21Z</time>
      </trkpt>
      <trkpt lat="45.54359" lon="6.74851">
        <ele>1361.8909</ele>
        <time>2015-08-20T14:54:31Z</time>
      </trkpt>
      <trkpt lat="45.54358" lon="6.74851">
        <ele>1361.8909</ele>
        <time>2015-08-20T14:54:36Z</time>
      </trkpt>
      <trkpt lat="45.54354" lon="6.74854">
        <ele>1362.1771</ele>
        <time>2015-08-20T14:54:46Z</time>
      </trkpt>
      <trkpt lat="45.54353" lon="6.74855">
        <ele>1362.1771</ele>
        <time>2015-08-20T14:54:51Z</time>
      </trkpt>
      <trkpt lat="45.54352" lon="6.74858">
        <ele>1362.1771</ele>
        <time>2015-08-20T14:55:01Z</time>
      </trkpt>
      <trkpt lat="45.54352" lon="6.74859">
        <ele>1362.1771</ele>
        <time>2015-08-20T14:55:06Z</time>
      </trkpt>
      <trkpt lat="45.54351" lon="6.74862">
        <ele>1362.1771</ele>
        <time>2015-08-20T14:55:16Z</time>
      </trkpt>
      <trkpt lat="45.54351" lon="6.74862">
        <ele>1362.1771</ele>
        <time>2015-08-20T14:55:21Z</time>
      </trkpt>
      <trkpt lat="45.54349" lon="6.74869">
        <ele>1362.0332</ele>
        <time>2015-08-20T14:55:36Z</time>
      </trkpt>
      <trkpt lat="45.54349" lon="6.74869">
        <ele>1362.0332</ele>
        <time>2015-08-20T14:55:41Z</time>
      </trkpt>
      <trkpt lat="45.54349" lon="6.74869">
        <ele>1362.0332</ele>
        <time>2015-08-20T14:55:51Z</time>
      </trkpt>
      <trkpt lat="45.54347" lon="6.74872">
        <ele>1362.0332</ele>
        <time>2015-08-20T14:55:56Z</time>
      </trkpt>
      <trkpt lat="45.54344" lon="6.74876">
        <ele>1362.0332</ele>
        <time>2015-08-20T14:56:06Z</time>
      </trkpt>
      <trkpt lat="45.54344" lon="6.74876">
        <ele>1362.0332</ele>
        <time>2015-08-20T14:56:11Z</time>
      </trkpt>
      <trkpt lat="45.54345" lon="6.74878">
        <ele>1362.0332</ele>
        <time>2015-08-20T14:56:51Z</time>
      </trkpt>
      <trkpt lat="45.54344" lon="6.74881">
        <ele>1361.7008</ele>
        <time>2015-08-20T14:57:26Z</time>
      </trkpt>
      <trkpt lat="45.5434" lon="6.74883">
        <ele>1361.7008</ele>
        <time>2015-08-20T14:57:41Z</time>
      </trkpt>
      <trkpt lat="45.54335" lon="6.74889">
        <ele>1361.3752</ele>
        <time>2015-08-20T14:57:46Z</time>
      </trkpt>
      <trkpt lat="45.54334" lon="6.7489">
        <ele>1361.3752</ele>
        <time>2015-08-20T14:57:56Z</time>
      </trkpt>
      <trkpt lat="45.54332" lon="6.74892">
        <ele>1361.3752</ele>
        <time>2015-08-20T14:58:01Z</time>
      </trkpt>
      <trkpt lat="45.54328" lon="6.74895">
        <ele>1361.3752</ele>
        <time>2015-08-20T14:58:11Z</time>
      </trkpt>
      <trkpt lat="45.54324" lon="6.74894">
        <ele>1360.6757</ele>
        <time>2015-08-20T14:58:16Z</time>
      </trkpt>
      <trkpt lat="45.54316" lon="6.74899">
        <ele>1360.6757</ele>
        <time>2015-08-20T14:58:26Z</time>
      </trkpt>
      <trkpt lat="45.54311" lon="6.74905">
        <ele>1359.236</ele>
        <time>2015-08-20T14:58:31Z</time>
      </trkpt>
      <trkpt lat="45.54308" lon="6.74912">
        <ele>1359.236</ele>
        <time>2015-08-20T14:58:41Z</time>
      </trkpt>
      <trkpt lat="45.54307" lon="6.74914">
        <ele>1359.236</ele>
        <time>2015-08-20T14:58:46Z</time>
      </trkpt>
      <trkpt lat="45.54306" lon="6.74918">
        <ele>1356.6469</ele>
        <time>2015-08-20T14:58:56Z</time>
      </trkpt>
      <trkpt lat="45.54306" lon="6.74917">
        <ele>1356.6469</ele>
        <time>2015-08-20T14:59:01Z</time>
      </trkpt>
      <trkpt lat="45.54312" lon="6.74918">
        <ele>1356.6469</ele>
        <time>2015-08-20T14:59:11Z</time>
      </trkpt>
      <trkpt lat="45.54313" lon="6.74917">
        <ele>1356.6469</ele>
        <time>2015-08-20T14:59:16Z</time>
      </trkpt>
      <trkpt lat="45.54318" lon="6.74917">
        <ele>1353.5989</ele>
        <time>2015-08-20T14:59:26Z</time>
      </trkpt>
      <trkpt lat="45.54318" lon="6.74917">
        <ele>1353.5989</ele>
        <time>2015-08-20T14:59:31Z</time>
      </trkpt>
      <trkpt lat="45.54317" lon="6.7492">
        <ele>1353.5989</ele>
        <time>2015-08-20T14:59:46Z</time>
      </trkpt>
      <trkpt lat="45.54315" lon="6.74926">
        <ele>1353.5989</ele>
        <time>2015-08-20T14:59:51Z</time>
      </trkpt>
      <trkpt lat="45.54315" lon="6.74926">
        <ele>1353.5989</ele>
        <time>2015-08-20T15:00:01Z</time>
      </trkpt>
      <trkpt lat="45.54315" lon="6.74929">
        <ele>1353.5989</ele>
        <time>2015-08-20T15:00:16Z</time>
      </trkpt>
      <trkpt lat="45.54314" lon="6.74931">
        <ele>1350.416</ele>
        <time>2015-08-20T15:00:21Z</time>
      </trkpt>
      <trkpt lat="45.54314" lon="6.74931">
        <ele>1350.416</ele>
        <time>2015-08-20T15:00:26Z</time>
      </trkpt>
      <trkpt lat="45.54313" lon="6.74931">
        <ele>1350.416</ele>
        <time>2015-08-20T15:00:56Z</time>
      </trkpt>
      <trkpt lat="45.54313" lon="6.74931">
        <ele>1350.416</ele>
        <time>2015-08-20T15:01:01Z</time>
      </trkpt>
      <trkpt lat="45.54316" lon="6.7493">
        <ele>1350.416</ele>
        <time>2015-08-20T15:01:16Z</time>
      </trkpt>
      <trkpt lat="45.54317" lon="6.74931">
        <ele>1350.416</ele>
        <time>2015-08-20T15:01:51Z</time>
      </trkpt>
      <trkpt lat="45.54319" lon="6.74933">
        <ele>1350.416</ele>
        <time>2015-08-20T15:02:01Z</time>
      </trkpt>
      <trkpt lat="45.54318" lon="6.74935">
        <ele>1346.3615</ele>
        <time>2015-08-20T15:02:06Z</time>
      </trkpt>
      <trkpt lat="45.54318" lon="6.74938">
        <ele>1346.3615</ele>
        <time>2015-08-20T15:02:16Z</time>
      </trkpt>
      <trkpt lat="45.5432" lon="6.74941">
        <ele>1346.3615</ele>
        <time>2015-08-20T15:02:31Z</time>
      </trkpt>
      <trkpt lat="45.54321" lon="6.7494">
        <ele>1346.3615</ele>
        <time>2015-08-20T15:02:36Z</time>
      </trkpt>
      <trkpt lat="45.54322" lon="6.74943">
        <ele>1346.3615</ele>
        <time>2015-08-20T15:02:46Z</time>
      </trkpt>
      <trkpt lat="45.54323" lon="6.74952">
        <ele>1341.5332</ele>
        <time>2015-08-20T15:02:51Z</time>
      </trkpt>
      <trkpt lat="45.54325" lon="6.74963">
        <ele>1341.5332</ele>
        <time>2015-08-20T15:03:01Z</time>
      </trkpt>
      <trkpt lat="45.54324" lon="6.74967">
        <ele>1336.7301</ele>
        <time>2015-08-20T15:03:06Z</time>
      </trkpt>
      <trkpt lat="45.54323" lon="6.74972">
        <ele>1336.7301</ele>
        <time>2015-08-20T15:03:16Z</time>
      </trkpt>
      <trkpt lat="45.54319" lon="6.74978">
        <ele>1332.0874</ele>
        <time>2015-08-20T15:03:21Z</time>
      </trkpt>
      <trkpt lat="45.54311" lon="6.74994">
        <ele>1327.8593</ele>
        <time>2015-08-20T15:03:36Z</time>
      </trkpt>
      <trkpt lat="45.5431" lon="6.74995">
        <ele>1327.8593</ele>
        <time>2015-08-20T15:03:41Z</time>
      </trkpt>
      <trkpt lat="45.54306" lon="6.74997">
        <ele>1327.8593</ele>
        <time>2015-08-20T15:03:51Z</time>
      </trkpt>
      <trkpt lat="45.54301" lon="6.75001">
        <ele>1323.8766</ele>
        <time>2015-08-20T15:03:56Z</time>
      </trkpt>
      <trkpt lat="45.54295" lon="6.75009">
        <ele>1323.8766</ele>
        <time>2015-08-20T15:04:06Z</time>
      </trkpt>
      <trkpt lat="45.54293" lon="6.75011">
        <ele>1320.083</ele>
        <time>2015-08-20T15:04:11Z</time>
      </trkpt>
      <trkpt lat="45.54282" lon="6.75016">
        <ele>1316.3965</ele>
        <time>2015-08-20T15:04:21Z</time>
      </trkpt>
      <trkpt lat="45.54277" lon="6.75022">
        <ele>1316.3965</ele>
        <time>2015-08-20T15:04:26Z</time>
      </trkpt>
      <trkpt lat="45.54268" lon="6.75028">
        <ele>1312.8708</ele>
        <time>2015-08-20T15:04:36Z</time>
      </trkpt>
      <trkpt lat="45.54264" lon="6.7503">
        <ele>1312.8708</ele>
        <time>2015-08-20T15:04:41Z</time>
      </trkpt>
      <trkpt lat="45.54256" lon="6.75034">
        <ele>1309.4396</ele>
        <time>2015-08-20T15:04:51Z</time>
      </trkpt>
      <trkpt lat="45.5425" lon="6.75042">
        <ele>1309.4396</ele>
        <time>2015-08-20T15:04:56Z</time>
      </trkpt>
      <trkpt lat="45.54242" lon="6.75049">
        <ele>1306.0123</ele>
        <time>2015-08-20T15:05:06Z</time>
      </trkpt>
      <trkpt lat="45.5424" lon="6.75051">
        <ele>1306.0123</ele>
        <time>2015-08-20T15:05:11Z</time>
      </trkpt>
      <trkpt lat="45.54234" lon="6.75061">
        <ele>1302.7645</ele>
        <time>2015-08-20T15:05:21Z</time>
      </trkpt>
      <trkpt lat="45.54233" lon="6.75061">
        <ele>1302.7645</ele>
        <time>2015-08-20T15:05:26Z</time>
      </trkpt>
      <trkpt lat="45.54228" lon="6.75067">
        <ele>1302.7645</ele>
        <time>2015-08-20T15:05:36Z</time>
      </trkpt>
      <trkpt lat="45.54225" lon="6.7507">
        <ele>1299.7572</ele>
        <time>2015-08-20T15:05:41Z</time>
      </trkpt>
      <trkpt lat="45.54217" lon="6.75078">
        <ele>1297.2334</ele>
        <time>2015-08-20T15:05:56Z</time>
      </trkpt>
      <trkpt lat="45.54211" lon="6.75084">
        <ele>1297.2334</ele>
        <time>2015-08-20T15:06:01Z</time>
      </trkpt>
      <trkpt lat="45.54205" lon="6.75091">
        <ele>1295.1722</ele>
        <time>2015-08-20T15:06:11Z</time>
      </trkpt>
      <trkpt lat="45.542" lon="6.75098">
        <ele>1295.1722</ele>
        <time>2015-08-20T15:06:16Z</time>
      </trkpt>
      <trkpt lat="45.54198" lon="6.751">
        <ele>1293.1636</ele>
        <time>2015-08-20T15:06:26Z</time>
      </trkpt>
      <trkpt lat="45.54197" lon="6.75104">
        <ele>1293.1636</ele>
        <time>2015-08-20T15:06:31Z</time>
      </trkpt>
      <trkpt lat="45.5419" lon="6.75111">
        <ele>1291.0577</ele>
        <time>2015-08-20T15:06:41Z</time>
      </trkpt>
      <trkpt lat="45.54189" lon="6.75112">
        <ele>1291.0577</ele>
        <time>2015-08-20T15:06:46Z</time>
      </trkpt>
      <trkpt lat="45.54182" lon="6.75122">
        <ele>1289.3938</ele>
        <time>2015-08-20T15:06:56Z</time>
      </trkpt>
      <trkpt lat="45.54182" lon="6.75123">
        <ele>1289.3938</ele>
        <time>2015-08-20T15:07:01Z</time>
      </trkpt>
      <trkpt lat="45.54177" lon="6.75129">
        <ele>1289.3938</ele>
        <time>2015-08-20T15:07:11Z</time>
      </trkpt>
      <trkpt lat="45.54168" lon="6.7514">
        <ele>1287.834</ele>
        <time>2015-08-20T15:07:16Z</time>
      </trkpt>
      <trkpt lat="45.54162" lon="6.75143">
        <ele>1287.834</ele>
        <time>2015-08-20T15:07:26Z</time>
      </trkpt>
      <trkpt lat="45.54157" lon="6.75146">
        <ele>1286.7135</ele>
        <time>2015-08-20T15:07:31Z</time>
      </trkpt>
      <trkpt lat="45.54151" lon="6.75146">
        <ele>1286.7135</ele>
        <time>2015-08-20T15:07:41Z</time>
      </trkpt>
      <trkpt lat="45.54144" lon="6.75149">
        <ele>1286.1687</ele>
        <time>2015-08-20T15:07:46Z</time>
      </trkpt>
      <trkpt lat="45.54132" lon="6.75157">
        <ele>1286.0507</ele>
        <time>2015-08-20T15:07:56Z</time>
      </trkpt>
      <trkpt lat="45.5413" lon="6.7516">
        <ele>1286.0507</ele>
        <time>2015-08-20T15:08:01Z</time>
      </trkpt>
      <trkpt lat="45.54129" lon="6.75171">
        <ele>1286.3063</ele>
        <time>2015-08-20T15:08:16Z</time>
      </trkpt>
      <trkpt lat="45.54128" lon="6.75174">
        <ele>1286.3063</ele>
        <time>2015-08-20T15:08:21Z</time>
      </trkpt>
      <trkpt lat="45.54129" lon="6.75174">
        <ele>1286.3063</ele>
        <time>2015-08-20T15:08:31Z</time>
      </trkpt>
      <trkpt lat="45.54133" lon="6.75184">
        <ele>1286.0789</ele>
        <time>2015-08-20T15:08:46Z</time>
      </trkpt>
      <trkpt lat="45.54132" lon="6.75186">
        <ele>1286.0789</ele>
        <time>2015-08-20T15:08:51Z</time>
      </trkpt>
      <trkpt lat="45.54134" lon="6.75191">
        <ele>1286.0789</ele>
        <time>2015-08-20T15:09:01Z</time>
      </trkpt>
      <trkpt lat="45.54133" lon="6.75198">
        <ele>1285.2529</ele>
        <time>2015-08-20T15:09:06Z</time>
      </trkpt>
      <trkpt lat="45.54131" lon="6.75209">
        <ele>1285.2529</ele>
        <time>2015-08-20T15:09:16Z</time>
      </trkpt>
      <trkpt lat="45.54131" lon="6.75213">
        <ele>1283.8964</ele>
        <time>2015-08-20T15:09:21Z</time>
      </trkpt>
      <trkpt lat="45.54129" lon="6.75221">
        <ele>1283.8964</ele>
        <time>2015-08-20T15:09:31Z</time>
      </trkpt>
      <trkpt lat="45.54127" lon="6.75237">
        <ele>1282.333</ele>
        <time>2015-08-20T15:09:36Z</time>
      </trkpt>
      <trkpt lat="45.54123" lon="6.75254">
        <ele>1280.7915</ele>
        <time>2015-08-20T15:09:46Z</time>
      </trkpt>
      <trkpt lat="45.54123" lon="6.75254">
        <ele>1280.7915</ele>
        <time>2015-08-20T15:09:51Z</time>
      </trkpt>
      <trkpt lat="45.54119" lon="6.7526">
        <ele>1280.7915</ele>
        <time>2015-08-20T15:10:01Z</time>
      </trkpt>
      <trkpt lat="45.54113" lon="6.75269">
        <ele>1278.9215</ele>
        <time>2015-08-20T15:10:06Z</time>
      </trkpt>
      <trkpt lat="45.5411" lon="6.75274">
        <ele>1278.9215</ele>
        <time>2015-08-20T15:10:21Z</time>
      </trkpt>
      <trkpt lat="45.54109" lon="6.75276">
        <ele>1278.9215</ele>
        <time>2015-08-20T15:10:26Z</time>
      </trkpt>
      <trkpt lat="45.54099" lon="6.75302">
        <ele>1276.6736</ele>
        <time>2015-08-20T15:10:36Z</time>
      </trkpt>
      <trkpt lat="45.54098" lon="6.75304">
        <ele>1276.6736</ele>
        <time>2015-08-20T15:10:41Z</time>
      </trkpt>
      <trkpt lat="45.54094" lon="6.75317">
        <ele>1274.2621</ele>
        <time>2015-08-20T15:10:51Z</time>
      </trkpt>
      <trkpt lat="45.54094" lon="6.75321">
        <ele>1274.2621</ele>
        <time>2015-08-20T15:10:56Z</time>
      </trkpt>
      <trkpt lat="45.54087" lon="6.75338">
        <ele>1271.8</ele>
        <time>2015-08-20T15:11:06Z</time>
      </trkpt>
      <trkpt lat="45.54085" lon="6.75342">
        <ele>1271.8</ele>
        <time>2015-08-20T15:11:11Z</time>
      </trkpt>
      <trkpt lat="45.54074" lon="6.75355">
        <ele>1269.4066</ele>
        <time>2015-08-20T15:11:21Z</time>
      </trkpt>
      <trkpt lat="45.5407" lon="6.75359">
        <ele>1269.4066</ele>
        <time>2015-08-20T15:11:26Z</time>
      </trkpt>
      <trkpt lat="45.54069" lon="6.7536">
        <ele>1269.4066</ele>
        <time>2015-08-20T15:11:36Z</time>
      </trkpt>
      <trkpt lat="45.54068" lon="6.75364">
        <ele>1266.875</ele>
        <time>2015-08-20T15:11:41Z</time>
      </trkpt>
      <trkpt lat="45.54059" lon="6.75382">
        <ele>1264.3456</ele>
        <time>2015-08-20T15:11:51Z</time>
      </trkpt>
      <trkpt lat="45.54059" lon="6.75383">
        <ele>1264.3456</ele>
        <time>2015-08-20T15:11:56Z</time>
      </trkpt>
      <trkpt lat="45.54052" lon="6.75386">
        <ele>1264.3456</ele>
        <time>2015-08-20T15:12:06Z</time>
      </trkpt>
      <trkpt lat="45.54049" lon="6.75389">
        <ele>1262.3087</ele>
        <time>2015-08-20T15:12:11Z</time>
      </trkpt>
      <trkpt lat="45.54045" lon="6.75396">
        <ele>1262.3087</ele>
        <time>2015-08-20T15:12:21Z</time>
      </trkpt>
      <trkpt lat="45.5404" lon="6.75407">
        <ele>1260.2231</ele>
        <time>2015-08-20T15:12:26Z</time>
      </trkpt>
      <trkpt lat="45.54025" lon="6.75432">
        <ele>1257.991</ele>
        <time>2015-08-20T15:12:41Z</time>
      </trkpt>
      <trkpt lat="45.54022" lon="6.75437">
        <ele>1257.991</ele>
        <time>2015-08-20T15:12:46Z</time>
      </trkpt>
      <trkpt lat="45.54016" lon="6.7544">
        <ele>1255.4209</ele>
        <time>2015-08-20T15:12:56Z</time>
      </trkpt>
      <trkpt lat="45.54016" lon="6.7544">
        <ele>1255.4209</ele>
        <time>2015-08-20T15:13:01Z</time>
      </trkpt>
      <trkpt lat="45.54013" lon="6.7544">
        <ele>1255.4209</ele>
        <time>2015-08-20T15:14:46Z</time>
      </trkpt>
      <trkpt lat="45.54003" lon="6.75442">
        <ele>1252.5388</ele>
        <time>2015-08-20T15:15:01Z</time>
      </trkpt>
      <trkpt lat="45.54001" lon="6.75442">
        <ele>1252.5388</ele>
        <time>2015-08-20T15:15:06Z</time>
      </trkpt>
      <trkpt lat="45.5399" lon="6.75448">
        <ele>1250.6086</ele>
        <time>2015-08-20T15:15:16Z</time>
      </trkpt>
      <trkpt lat="45.53989" lon="6.75449">
        <ele>1250.6086</ele>
        <time>2015-08-20T15:15:21Z</time>
      </trkpt>
      <trkpt lat="45.53984" lon="6.75462">
        <ele>1249.5453</ele>
        <time>2015-08-20T15:15:31Z</time>
      </trkpt>
      <trkpt lat="45.53983" lon="6.75464">
        <ele>1249.5453</ele>
        <time>2015-08-20T15:15:36Z</time>
      </trkpt>
      <trkpt lat="45.53973" lon="6.75475">
        <ele>1248.7916</ele>
        <time>2015-08-20T15:15:46Z</time>
      </trkpt>
      <trkpt lat="45.53972" lon="6.75476">
        <ele>1248.7916</ele>
        <time>2015-08-20T15:15:51Z</time>
      </trkpt>
      <trkpt lat="45.53967" lon="6.7548">
        <ele>1248.7916</ele>
        <time>2015-08-20T15:16:01Z</time>
      </trkpt>
      <trkpt lat="45.53965" lon="6.75482">
        <ele>1247.37</ele>
        <time>2015-08-20T15:16:06Z</time>
      </trkpt>
      <trkpt lat="45.53959" lon="6.75496">
        <ele>1246.2926</ele>
        <time>2015-08-20T15:16:16Z</time>
      </trkpt>
      <trkpt lat="45.53957" lon="6.75502">
        <ele>1246.2926</ele>
        <time>2015-08-20T15:16:21Z</time>
      </trkpt>
      <trkpt lat="45.53953" lon="6.75523">
        <ele>1245.6896</ele>
        <time>2015-08-20T15:16:31Z</time>
      </trkpt>
      <trkpt lat="45.53953" lon="6.75529">
        <ele>1245.6896</ele>
        <time>2015-08-20T15:16:36Z</time>
      </trkpt>
      <trkpt lat="45.53948" lon="6.75542">
        <ele>1245.104</ele>
        <time>2015-08-20T15:16:46Z</time>
      </trkpt>
      <trkpt lat="45.53942" lon="6.7555">
        <ele>1245.104</ele>
        <time>2015-08-20T15:16:51Z</time>
      </trkpt>
      <trkpt lat="45.53933" lon="6.75566">
        <ele>1244.8326</ele>
        <time>2015-08-20T15:17:06Z</time>
      </trkpt>
      <trkpt lat="45.53932" lon="6.7557">
        <ele>1244.8326</ele>
        <time>2015-08-20T15:17:11Z</time>
      </trkpt>
      <trkpt lat="45.53929" lon="6.75574">
        <ele>1244.8326</ele>
        <time>2015-08-20T15:17:21Z</time>
      </trkpt>
      <trkpt lat="45.53928" lon="6.75575">
        <ele>1244.8326</ele>
        <time>2015-08-20T15:17:26Z</time>
      </trkpt>
      <trkpt lat="45.5392" lon="6.7558">
        <ele>1244.6888</ele>
        <time>2015-08-20T15:17:36Z</time>
      </trkpt>
      <trkpt lat="45.53913" lon="6.75586">
        <ele>1244.6888</ele>
        <time>2015-08-20T15:17:41Z</time>
      </trkpt>
      <trkpt lat="45.53908" lon="6.7559">
        <ele>1244.8452</ele>
        <time>2015-08-20T15:17:51Z</time>
      </trkpt>
      <trkpt lat="45.53903" lon="6.75593">
        <ele>1244.8452</ele>
        <time>2015-08-20T15:17:56Z</time>
      </trkpt>
      <trkpt lat="45.53896" lon="6.75594">
        <ele>1245.331</ele>
        <time>2015-08-20T15:18:06Z</time>
      </trkpt>
      <trkpt lat="45.53892" lon="6.75595">
        <ele>1245.331</ele>
        <time>2015-08-20T15:18:11Z</time>
      </trkpt>
      <trkpt lat="45.53882" lon="6.75598">
        <ele>1245.8126</ele>
        <time>2015-08-20T15:18:21Z</time>
      </trkpt>
      <trkpt lat="45.53879" lon="6.756">
        <ele>1245.8126</ele>
        <time>2015-08-20T15:18:26Z</time>
      </trkpt>
      <trkpt lat="45.53869" lon="6.75613">
        <ele>1246.658</ele>
        <time>2015-08-20T15:18:41Z</time>
      </trkpt>
      <trkpt lat="45.53864" lon="6.75621">
        <ele>1246.658</ele>
        <time>2015-08-20T15:18:46Z</time>
      </trkpt>
      <trkpt lat="45.53855" lon="6.75631">
        <ele>1248.1498</ele>
        <time>2015-08-20T15:18:56Z</time>
      </trkpt>
      <trkpt lat="45.53846" lon="6.75639">
        <ele>1249.8707</ele>
        <time>2015-08-20T15:19:01Z</time>
      </trkpt>
      <trkpt lat="45.53838" lon="6.75651">
        <ele>1251.8806</ele>
        <time>2015-08-20T15:19:11Z</time>
      </trkpt>
      <trkpt lat="45.53833" lon="6.75656">
        <ele>1251.8806</ele>
        <time>2015-08-20T15:19:16Z</time>
      </trkpt>
      <trkpt lat="45.53827" lon="6.75664">
        <ele>1254.1765</ele>
        <time>2015-08-20T15:19:26Z</time>
      </trkpt>
      <trkpt lat="45.53827" lon="6.75665">
        <ele>1254.1765</ele>
        <time>2015-08-20T15:19:31Z</time>
      </trkpt>
      <trkpt lat="45.53824" lon="6.75668">
        <ele>1254.1765</ele>
        <time>2015-08-20T15:19:41Z</time>
      </trkpt>
      <trkpt lat="45.53823" lon="6.7567">
        <ele>1254.1765</ele>
        <time>2015-08-20T15:19:46Z</time>
      </trkpt>
      <trkpt lat="45.53815" lon="6.7568">
        <ele>1256.8414</ele>
        <time>2015-08-20T15:19:56Z</time>
      </trkpt>
      <trkpt lat="45.53813" lon="6.75683">
        <ele>1256.8414</ele>
        <time>2015-08-20T15:20:01Z</time>
      </trkpt>
      <trkpt lat="45.53808" lon="6.75693">
        <ele>1259.7068</ele>
        <time>2015-08-20T15:20:11Z</time>
      </trkpt>
      <trkpt lat="45.53808" lon="6.75698">
        <ele>1259.7068</ele>
        <time>2015-08-20T15:20:16Z</time>
      </trkpt>
      <trkpt lat="45.53807" lon="6.75705">
        <ele>1259.7068</ele>
        <time>2015-08-20T15:20:26Z</time>
      </trkpt>
      <trkpt lat="45.53807" lon="6.75707">
        <ele>1262.5294</ele>
        <time>2015-08-20T15:20:31Z</time>
      </trkpt>
      <trkpt lat="45.53807" lon="6.75712">
        <ele>1262.5294</ele>
        <time>2015-08-20T15:20:41Z</time>
      </trkpt>
      <trkpt lat="45.53808" lon="6.75717">
        <ele>1262.5294</ele>
        <time>2015-08-20T15:20:46Z</time>
      </trkpt>
      <trkpt lat="45.53808" lon="6.7572">
        <ele>1264.9833</ele>
        <time>2015-08-20T15:20:56Z</time>
      </trkpt>
      <trkpt lat="45.53806" lon="6.75731">
        <ele>1264.9833</ele>
        <time>2015-08-20T15:21:01Z</time>
      </trkpt>
      <trkpt lat="45.53801" lon="6.75754">
        <ele>1267.4165</ele>
        <time>2015-08-20T15:21:16Z</time>
      </trkpt>
      <trkpt lat="45.538" lon="6.75762">
        <ele>1267.4165</ele>
        <time>2015-08-20T15:21:21Z</time>
      </trkpt>
      <trkpt lat="45.53798" lon="6.75773">
        <ele>1270.1085</ele>
        <time>2015-08-20T15:21:31Z</time>
      </trkpt>
      <trkpt lat="45.53797" lon="6.75777">
        <ele>1270.1085</ele>
        <time>2015-08-20T15:21:36Z</time>
      </trkpt>
      <trkpt lat="45.53796" lon="6.75787">
        <ele>1273.1881</ele>
        <time>2015-08-20T15:21:46Z</time>
      </trkpt>
      <trkpt lat="45.53795" lon="6.7579">
        <ele>1273.1881</ele>
        <time>2015-08-20T15:21:51Z</time>
      </trkpt>
      <trkpt lat="45.53792" lon="6.75812">
        <ele>1276.0532</ele>
        <time>2015-08-20T15:22:01Z</time>
      </trkpt>
      <trkpt lat="45.53791" lon="6.75816">
        <ele>1276.0532</ele>
        <time>2015-08-20T15:22:06Z</time>
      </trkpt>
      <trkpt lat="45.53793" lon="6.75825">
        <ele>1278.7091</ele>
        <time>2015-08-20T15:22:16Z</time>
      </trkpt>
      <trkpt lat="45.53794" lon="6.75829">
        <ele>1278.7091</ele>
        <time>2015-08-20T15:22:21Z</time>
      </trkpt>
      <trkpt lat="45.538" lon="6.75841">
        <ele>1281.2911</ele>
        <time>2015-08-20T15:22:31Z</time>
      </trkpt>
      <trkpt lat="45.53801" lon="6.75843">
        <ele>1281.2911</ele>
        <time>2015-08-20T15:22:36Z</time>
      </trkpt>
      <trkpt lat="45.538" lon="6.75854">
        <ele>1283.4065</ele>
        <time>2015-08-20T15:22:46Z</time>
      </trkpt>
      <trkpt lat="45.538" lon="6.75858">
        <ele>1283.4065</ele>
        <time>2015-08-20T15:22:51Z</time>
      </trkpt>
      <trkpt lat="45.538" lon="6.75866">
        <ele>1283.4065</ele>
        <time>2015-08-20T15:23:01Z</time>
      </trkpt>
      <trkpt lat="45.53803" lon="6.75875">
        <ele>1285.7017</ele>
        <time>2015-08-20T15:23:06Z</time>
      </trkpt>
      <trkpt lat="45.53809" lon="6.75886">
        <ele>1288.1558</ele>
        <time>2015-08-20T15:23:21Z</time>
      </trkpt>
      <trkpt lat="45.53815" lon="6.75893">
        <ele>1288.1558</ele>
        <time>2015-08-20T15:23:26Z</time>
      </trkpt>
      <trkpt lat="45.53823" lon="6.75909">
        <ele>1290.8357</ele>
        <time>2015-08-20T15:23:36Z</time>
      </trkpt>
      <trkpt lat="45.53824" lon="6.75916">
        <ele>1290.8357</ele>
        <time>2015-08-20T15:23:41Z</time>
      </trkpt>
      <trkpt lat="45.53825" lon="6.75922">
        <ele>1293.4431</ele>
        <time>2015-08-20T15:23:51Z</time>
      </trkpt>
      <trkpt lat="45.53824" lon="6.7593">
        <ele>1293.4431</ele>
        <time>2015-08-20T15:23:56Z</time>
      </trkpt>
      <trkpt lat="45.53825" lon="6.75943">
        <ele>1295.6298</ele>
        <time>2015-08-20T15:24:06Z</time>
      </trkpt>
      <trkpt lat="45.53825" lon="6.75948">
        <ele>1295.6298</ele>
        <time>2015-08-20T15:24:11Z</time>
      </trkpt>
      <trkpt lat="45.53824" lon="6.7596">
        <ele>1297.334</ele>
        <time>2015-08-20T15:24:21Z</time>
      </trkpt>
      <trkpt lat="45.53823" lon="6.75963">
        <ele>1297.334</ele>
        <time>2015-08-20T15:24:26Z</time>
      </trkpt>
      <trkpt lat="45.53822" lon="6.75977">
        <ele>1298.4285</ele>
        <time>2015-08-20T15:24:36Z</time>
      </trkpt>
      <trkpt lat="45.5382" lon="6.75983">
        <ele>1298.4285</ele>
        <time>2015-08-20T15:24:41Z</time>
      </trkpt>
      <trkpt lat="45.53818" lon="6.75988">
        <ele>1298.4285</ele>
        <time>2015-08-20T15:24:51Z</time>
      </trkpt>
      <trkpt lat="45.53818" lon="6.75993">
        <ele>1299.0995</ele>
        <time>2015-08-20T15:24:56Z</time>
      </trkpt>
      <trkpt lat="45.53811" lon="6.76003">
        <ele>1299.7809</ele>
        <time>2015-08-20T15:25:11Z</time>
      </trkpt>
      <trkpt lat="45.53811" lon="6.76003">
        <ele>1299.7809</ele>
        <time>2015-08-20T15:25:16Z</time>
      </trkpt>
      <trkpt lat="45.53812" lon="6.76004">
        <ele>1299.7809</ele>
        <time>2015-08-20T15:27:51Z</time>
      </trkpt>
      <trkpt lat="45.53812" lon="6.76004">
        <ele>1299.7809</ele>
        <time>2015-08-20T15:28:01Z</time>
      </trkpt>
      <trkpt lat="45.53811" lon="6.76004">
        <ele>1299.7809</ele>
        <time>2015-08-20T15:28:16Z</time>
      </trkpt>
      <trkpt lat="45.53807" lon="6.76011">
        <ele>1299.7809</ele>
        <time>2015-08-20T15:28:21Z</time>
      </trkpt>
      <trkpt lat="45.53797" lon="6.76028">
        <ele>1301.5519</ele>
        <time>2015-08-20T15:28:36Z</time>
      </trkpt>
      <trkpt lat="45.53793" lon="6.76033">
        <ele>1301.5519</ele>
        <time>2015-08-20T15:28:41Z</time>
      </trkpt>
      <trkpt lat="45.53791" lon="6.76044">
        <ele>1302.8304</ele>
        <time>2015-08-20T15:28:51Z</time>
      </trkpt>
      <trkpt lat="45.53791" lon="6.76048">
        <ele>1302.8304</ele>
        <time>2015-08-20T15:28:56Z</time>
      </trkpt>
      <trkpt lat="45.53788" lon="6.76058">
        <ele>1303.9244</ele>
        <time>2015-08-20T15:29:06Z</time>
      </trkpt>
      <trkpt lat="45.53787" lon="6.7606">
        <ele>1303.9244</ele>
        <time>2015-08-20T15:29:11Z</time>
      </trkpt>
      <trkpt lat="45.53785" lon="6.76063">
        <ele>1303.9244</ele>
        <time>2015-08-20T15:29:21Z</time>
      </trkpt>
      <trkpt lat="45.53783" lon="6.76066">
        <ele>1303.9244</ele>
        <time>2015-08-20T15:29:26Z</time>
      </trkpt>
      <trkpt lat="45.53779" lon="6.76077">
        <ele>1305.639</ele>
        <time>2015-08-20T15:29:36Z</time>
      </trkpt>
      <trkpt lat="45.53775" lon="6.76082">
        <ele>1305.639</ele>
        <time>2015-08-20T15:29:41Z</time>
      </trkpt>
      <trkpt lat="45.5377" lon="6.76086">
        <ele>1307.5945</ele>
        <time>2015-08-20T15:29:51Z</time>
      </trkpt>
      <trkpt lat="45.53769" lon="6.76088">
        <ele>1307.5945</ele>
        <time>2015-08-20T15:29:56Z</time>
      </trkpt>
      <trkpt lat="45.53763" lon="6.76092">
        <ele>1307.5945</ele>
        <time>2015-08-20T15:30:06Z</time>
      </trkpt>
      <trkpt lat="45.5376" lon="6.76093">
        <ele>1309.5394</ele>
        <time>2015-08-20T15:30:11Z</time>
      </trkpt>
      <trkpt lat="45.53753" lon="6.76095">
        <ele>1309.5394</ele>
        <time>2015-08-20T15:30:21Z</time>
      </trkpt>
      <trkpt lat="45.53749" lon="6.76098">
        <ele>1311.1548</ele>
        <time>2015-08-20T15:30:26Z</time>
      </trkpt>
      <trkpt lat="45.53745" lon="6.76103">
        <ele>1311.1548</ele>
        <time>2015-08-20T15:30:36Z</time>
      </trkpt>
      <trkpt lat="45.53745" lon="6.76108">
        <ele>1311.1548</ele>
        <time>2015-08-20T15:30:41Z</time>
      </trkpt>
      <trkpt lat="45.5374" lon="6.76117">
        <ele>1312.8234</ele>
        <time>2015-08-20T15:30:51Z</time>
      </trkpt>
      <trkpt lat="45.53737" lon="6.7612">
        <ele>1312.8234</ele>
        <time>2015-08-20T15:30:56Z</time>
      </trkpt>
      <trkpt lat="45.53734" lon="6.76123">
        <ele>1312.8234</ele>
        <time>2015-08-20T15:31:06Z</time>
      </trkpt>
      <trkpt lat="45.53732" lon="6.76125">
        <ele>1314.741</ele>
        <time>2015-08-20T15:31:11Z</time>
      </trkpt>
      <trkpt lat="45.53732" lon="6.76127">
        <ele>1314.741</ele>
        <time>2015-08-20T15:31:21Z</time>
      </trkpt>
      <trkpt lat="45.53727" lon="6.76134">
        <ele>1314.741</ele>
        <time>2015-08-20T15:31:26Z</time>
      </trkpt>
      <trkpt lat="45.53721" lon="6.76143">
        <ele>1316.9451</ele>
        <time>2015-08-20T15:31:36Z</time>
      </trkpt>
      <trkpt lat="45.5372" lon="6.76145">
        <ele>1316.9451</ele>
        <time>2015-08-20T15:31:41Z</time>
      </trkpt>
      <trkpt lat="45.53715" lon="6.76148">
        <ele>1316.9451</ele>
        <time>2015-08-20T15:31:51Z</time>
      </trkpt>
      <trkpt lat="45.53712" lon="6.76148">
        <ele>1318.5468</ele>
        <time>2015-08-20T15:31:56Z</time>
      </trkpt>
      <trkpt lat="45.53707" lon="6.76151">
        <ele>1318.5468</ele>
        <time>2015-08-20T15:32:06Z</time>
      </trkpt>
      <trkpt lat="45.53703" lon="6.76152">
        <ele>1319.5895</ele>
        <time>2015-08-20T15:32:11Z</time>
      </trkpt>
      <trkpt lat="45.53696" lon="6.76155">
        <ele>1319.5895</ele>
        <time>2015-08-20T15:32:26Z</time>
      </trkpt>
      <trkpt lat="45.53696" lon="6.76156">
        <ele>1319.5895</ele>
        <time>2015-08-20T15:32:31Z</time>
      </trkpt>
      <trkpt lat="45.53695" lon="6.76157">
        <ele>1320.6194</ele>
        <time>2015-08-20T15:32:41Z</time>
      </trkpt>
      <trkpt lat="45.5368" lon="6.76167">
        <ele>1321.9984</ele>
        <time>2015-08-20T15:33:11Z</time>
      </trkpt>
      <trkpt lat="45.53677" lon="6.76168">
        <ele>1321.9984</ele>
        <time>2015-08-20T15:33:16Z</time>
      </trkpt>
      <trkpt lat="45.53672" lon="6.76168">
        <ele>1321.9984</ele>
        <time>2015-08-20T15:33:26Z</time>
      </trkpt>
      <trkpt lat="45.53671" lon="6.76167">
        <ele>1323.2255</ele>
        <time>2015-08-20T15:33:31Z</time>
      </trkpt>
      <trkpt lat="45.53667" lon="6.7617">
        <ele>1323.2255</ele>
        <time>2015-08-20T15:33:41Z</time>
      </trkpt>
      <trkpt lat="45.53667" lon="6.7617">
        <ele>1323.2255</ele>
        <time>2015-08-20T15:33:46Z</time>
      </trkpt>
      <trkpt lat="45.53665" lon="6.76171">
        <ele>1323.2255</ele>
        <time>2015-08-20T15:34:16Z</time>
      </trkpt>
      <trkpt lat="45.5366" lon="6.76178">
        <ele>1326.1857</ele>
        <time>2015-08-20T15:34:46Z</time>
      </trkpt>
      <trkpt lat="45.53654" lon="6.76181">
        <ele>1326.1857</ele>
        <time>2015-08-20T15:34:51Z</time>
      </trkpt>
      <trkpt lat="45.53654" lon="6.76181">
        <ele>1326.1857</ele>
        <time>2015-08-20T15:35:01Z</time>
      </trkpt>
      <trkpt lat="45.5365" lon="6.76184">
        <ele>1328.9174</ele>
        <time>2015-08-20T15:35:46Z</time>
      </trkpt>
      <trkpt lat="45.53646" lon="6.76185">
        <ele>1328.9174</ele>
        <time>2015-08-20T15:35:51Z</time>
      </trkpt>
      <trkpt lat="45.53636" lon="6.76193">
        <ele>1330.5404</ele>
        <time>2015-08-20T15:36:01Z</time>
      </trkpt>
      <trkpt lat="45.53633" lon="6.76197">
        <ele>1330.5404</ele>
        <time>2015-08-20T15:36:06Z</time>
      </trkpt>
      <trkpt lat="45.53622" lon="6.76212">
        <ele>1332.4907</ele>
        <time>2015-08-20T15:36:16Z</time>
      </trkpt>
      <trkpt lat="45.53616" lon="6.7622">
        <ele>1332.4907</ele>
        <time>2015-08-20T15:36:21Z</time>
      </trkpt>
      <trkpt lat="45.53608" lon="6.76239">
        <ele>1335.5935</ele>
        <time>2015-08-20T15:36:36Z</time>
      </trkpt>
      <trkpt lat="45.53608" lon="6.76244">
        <ele>1335.5935</ele>
        <time>2015-08-20T15:36:41Z</time>
      </trkpt>
      <trkpt lat="45.53607" lon="6.76247">
        <ele>1335.5935</ele>
        <time>2015-08-20T15:36:51Z</time>
      </trkpt>
      <trkpt lat="45.53606" lon="6.76255">
        <ele>1339.1545</ele>
        <time>2015-08-20T15:36:56Z</time>
      </trkpt>
      <trkpt lat="45.53601" lon="6.76269">
        <ele>1342.6162</ele>
        <time>2015-08-20T15:37:06Z</time>
      </trkpt>
      <trkpt lat="45.53601" lon="6.76269">
        <ele>1342.6162</ele>
        <time>2015-08-20T15:37:11Z</time>
      </trkpt>
      <trkpt lat="45.53599" lon="6.76274">
        <ele>1342.6162</ele>
        <time>2015-08-20T15:37:21Z</time>
      </trkpt>
      <trkpt lat="45.53599" lon="6.76277">
        <ele>1342.6162</ele>
        <time>2015-08-20T15:37:26Z</time>
      </trkpt>
      <trkpt lat="45.53597" lon="6.76281">
        <ele>1346.4564</ele>
        <time>2015-08-20T15:37:36Z</time>
      </trkpt>
      <trkpt lat="45.53593" lon="6.7629">
        <ele>1346.4564</ele>
        <time>2015-08-20T15:37:41Z</time>
      </trkpt>
      <trkpt lat="45.53594" lon="6.763">
        <ele>1349.4165</ele>
        <time>2015-08-20T15:37:51Z</time>
      </trkpt>
      <trkpt lat="45.53592" lon="6.76306">
        <ele>1349.4165</ele>
        <time>2015-08-20T15:37:56Z</time>
      </trkpt>
      <trkpt lat="45.53586" lon="6.76322">
        <ele>1351.9037</ele>
        <time>2015-08-20T15:38:06Z</time>
      </trkpt>
      <trkpt lat="45.53584" lon="6.76327">
        <ele>1351.9037</ele>
        <time>2015-08-20T15:38:11Z</time>
      </trkpt>
      <trkpt lat="45.53581" lon="6.76333">
        <ele>1351.9037</ele>
        <time>2015-08-20T15:38:21Z</time>
      </trkpt>
      <trkpt lat="45.5358" lon="6.76336">
        <ele>1353.7347</ele>
        <time>2015-08-20T15:38:26Z</time>
      </trkpt>
      <trkpt lat="45.53577" lon="6.76344">
        <ele>1353.7347</ele>
        <time>2015-08-20T15:38:36Z</time>
      </trkpt>
      <trkpt lat="45.53577" lon="6.76348">
        <ele>1353.7347</ele>
        <time>2015-08-20T15:38:41Z</time>
      </trkpt>
      <trkpt lat="45.53566" lon="6.76357">
        <ele>1355.376</ele>
        <time>2015-08-20T15:38:56Z</time>
      </trkpt>
      <trkpt lat="45.53567" lon="6.7636">
        <ele>1355.376</ele>
        <time>2015-08-20T15:39:01Z</time>
      </trkpt>
      <trkpt lat="45.53567" lon="6.76371">
        <ele>1356.842</ele>
        <time>2015-08-20T15:39:11Z</time>
      </trkpt>
      <trkpt lat="45.53567" lon="6.76376">
        <ele>1356.842</ele>
        <time>2015-08-20T15:39:16Z</time>
      </trkpt>
      <trkpt lat="45.53565" lon="6.76378">
        <ele>1356.842</ele>
        <time>2015-08-20T15:39:26Z</time>
      </trkpt>
      <trkpt lat="45.5356" lon="6.76385">
        <ele>1358.4644</ele>
        <time>2015-08-20T15:39:31Z</time>
      </trkpt>
      <trkpt lat="45.53558" lon="6.76389">
        <ele>1358.4644</ele>
        <time>2015-08-20T15:39:41Z</time>
      </trkpt>
      <trkpt lat="45.53552" lon="6.76392">
        <ele>1360.3331</ele>
        <time>2015-08-20T15:39:46Z</time>
      </trkpt>
      <trkpt lat="45.53549" lon="6.76399">
        <ele>1360.3331</ele>
        <time>2015-08-20T15:39:56Z</time>
      </trkpt>
      <trkpt lat="45.53547" lon="6.76404">
        <ele>1362.6902</ele>
        <time>2015-08-20T15:40:01Z</time>
      </trkpt>
      <trkpt lat="45.53542" lon="6.76411">
        <ele>1362.6902</ele>
        <time>2015-08-20T15:40:11Z</time>
      </trkpt>
      <trkpt lat="45.53541" lon="6.76412">
        <ele>1362.6902</ele>
        <time>2015-08-20T15:40:16Z</time>
      </trkpt>
      <trkpt lat="45.53533" lon="6.76418">
        <ele>1365.6141</ele>
        <time>2015-08-20T15:40:26Z</time>
      </trkpt>
      <trkpt lat="45.53532" lon="6.76419">
        <ele>1365.6141</ele>
        <time>2015-08-20T15:40:31Z</time>
      </trkpt>
      <trkpt lat="45.53523" lon="6.76427">
        <ele>1368.5997</ele>
        <time>2015-08-20T15:40:41Z</time>
      </trkpt>
      <trkpt lat="45.5352" lon="6.76429">
        <ele>1368.5997</ele>
        <time>2015-08-20T15:40:46Z</time>
      </trkpt>
      <trkpt lat="45.53514" lon="6.76434">
        <ele>1371.395</ele>
        <time>2015-08-20T15:40:56Z</time>
      </trkpt>
      <trkpt lat="45.53513" lon="6.76435">
        <ele>1371.395</ele>
        <time>2015-08-20T15:41:01Z</time>
      </trkpt>
      <trkpt lat="45.5351" lon="6.76441">
        <ele>1371.395</ele>
        <time>2015-08-20T15:41:11Z</time>
      </trkpt>
      <trkpt lat="45.53509" lon="6.76447">
        <ele>1374.1416</ele>
        <time>2015-08-20T15:41:16Z</time>
      </trkpt>
      <trkpt lat="45.53497" lon="6.76465">
        <ele>1377.0867</ele>
        <time>2015-08-20T15:41:31Z</time>
      </trkpt>
      <trkpt lat="45.53497" lon="6.76468">
        <ele>1377.0867</ele>
        <time>2015-08-20T15:41:36Z</time>
      </trkpt>
      <trkpt lat="45.53494" lon="6.76474">
        <ele>1377.0867</ele>
        <time>2015-08-20T15:41:46Z</time>
      </trkpt>
      <trkpt lat="45.53493" lon="6.76476">
        <ele>1380.2853</ele>
        <time>2015-08-20T15:41:51Z</time>
      </trkpt>
      <trkpt lat="45.53493" lon="6.76476">
        <ele>1380.2853</ele>
        <time>2015-08-20T15:42:01Z</time>
      </trkpt>
      <trkpt lat="45.53491" lon="6.76481">
        <ele>1380.2853</ele>
        <time>2015-08-20T15:42:06Z</time>
      </trkpt>
      <trkpt lat="45.5349" lon="6.76484">
        <ele>1380.2853</ele>
        <time>2015-08-20T15:42:16Z</time>
      </trkpt>
      <trkpt lat="45.53486" lon="6.7649">
        <ele>1383.5433</ele>
        <time>2015-08-20T15:42:21Z</time>
      </trkpt>
      <trkpt lat="45.53482" lon="6.76498">
        <ele>1383.5433</ele>
        <time>2015-08-20T15:42:31Z</time>
      </trkpt>
      <trkpt lat="45.53478" lon="6.76508">
        <ele>1386.2914</ele>
        <time>2015-08-20T15:42:36Z</time>
      </trkpt>
      <trkpt lat="45.53475" lon="6.76517">
        <ele>1386.2914</ele>
        <time>2015-08-20T15:42:46Z</time>
      </trkpt>
      <trkpt lat="45.53472" lon="6.7652">
        <ele>1388.8104</ele>
        <time>2015-08-20T15:42:51Z</time>
      </trkpt>
      <trkpt lat="45.53465" lon="6.7653">
        <ele>1391.1602</ele>
        <time>2015-08-20T15:43:01Z</time>
      </trkpt>
      <trkpt lat="45.5346" lon="6.76541">
        <ele>1393.2806</ele>
        <time>2015-08-20T15:43:06Z</time>
      </trkpt>
      <trkpt lat="45.53455" lon="6.7655">
        <ele>1393.2806</ele>
        <time>2015-08-20T15:43:16Z</time>
      </trkpt>
      <trkpt lat="45.53453" lon="6.76554">
        <ele>1395.2327</ele>
        <time>2015-08-20T15:43:21Z</time>
      </trkpt>
      <trkpt lat="45.53452" lon="6.76563">
        <ele>1395.2327</ele>
        <time>2015-08-20T15:43:31Z</time>
      </trkpt>
      <trkpt lat="45.53452" lon="6.76573">
        <ele>1396.6693</ele>
        <time>2015-08-20T15:43:36Z</time>
      </trkpt>
      <trkpt lat="45.5345" lon="6.76581">
        <ele>1396.6693</ele>
        <time>2015-08-20T15:43:51Z</time>
      </trkpt>
      <trkpt lat="45.53451" lon="6.76582">
        <ele>1396.6693</ele>
        <time>2015-08-20T15:43:56Z</time>
      </trkpt>
      <trkpt lat="45.53447" lon="6.76594">
        <ele>1397.4152</ele>
        <time>2015-08-20T15:44:06Z</time>
      </trkpt>
      <trkpt lat="45.53447" lon="6.76595">
        <ele>1397.4152</ele>
        <time>2015-08-20T15:44:11Z</time>
      </trkpt>
      <trkpt lat="45.53447" lon="6.76595">
        <ele>1397.4152</ele>
        <time>2015-08-20T15:44:21Z</time>
      </trkpt>
      <trkpt lat="45.53444" lon="6.76598">
        <ele>1397.4152</ele>
        <time>2015-08-20T15:44:41Z</time>
      </trkpt>
      <trkpt lat="45.53443" lon="6.76599">
        <ele>1397.4152</ele>
        <time>2015-08-20T15:44:51Z</time>
      </trkpt>
      <trkpt lat="45.53441" lon="6.766">
        <ele>1397.4152</ele>
        <time>2015-08-20T15:44:56Z</time>
      </trkpt>
      <trkpt lat="45.5344" lon="6.76603">
        <ele>1397.2083</ele>
        <time>2015-08-20T15:45:06Z</time>
      </trkpt>
      <trkpt lat="45.53439" lon="6.76604">
        <ele>1397.2083</ele>
        <time>2015-08-20T15:45:11Z</time>
      </trkpt>
      <trkpt lat="45.53438" lon="6.76606">
        <ele>1397.2083</ele>
        <time>2015-08-20T15:45:21Z</time>
      </trkpt>
      <trkpt lat="45.53435" lon="6.76608">
        <ele>1397.2083</ele>
        <time>2015-08-20T15:45:26Z</time>
      </trkpt>
      <trkpt lat="45.53425" lon="6.76617">
        <ele>1397.6105</ele>
        <time>2015-08-20T15:45:36Z</time>
      </trkpt>
      <trkpt lat="45.53424" lon="6.76618">
        <ele>1397.6105</ele>
        <time>2015-08-20T15:45:41Z</time>
      </trkpt>
      <trkpt lat="45.53418" lon="6.76626">
        <ele>1397.6105</ele>
        <time>2015-08-20T15:45:56Z</time>
      </trkpt>
      <trkpt lat="45.53416" lon="6.7663">
        <ele>1398.424</ele>
        <time>2015-08-20T15:46:01Z</time>
      </trkpt>
      <trkpt lat="45.53415" lon="6.76631">
        <ele>1398.424</ele>
        <time>2015-08-20T15:46:11Z</time>
      </trkpt>
      <trkpt lat="45.53414" lon="6.76632">
        <ele>1398.424</ele>
        <time>2015-08-20T15:46:16Z</time>
      </trkpt>
      <trkpt lat="45.53411" lon="6.76636">
        <ele>1398.424</ele>
        <time>2015-08-20T15:46:26Z</time>
      </trkpt>
      <trkpt lat="45.53408" lon="6.76642">
        <ele>1399.2051</ele>
        <time>2015-08-20T15:46:31Z</time>
      </trkpt>
      <trkpt lat="45.53408" lon="6.76642">
        <ele>1399.2051</ele>
        <time>2015-08-20T15:46:41Z</time>
      </trkpt>
      <trkpt lat="45.53408" lon="6.76644">
        <ele>1399.2051</ele>
        <time>2015-08-20T15:46:56Z</time>
      </trkpt>
      <trkpt lat="45.53408" lon="6.76644">
        <ele>1399.2051</ele>
        <time>2015-08-20T15:47:01Z</time>
      </trkpt>
      <trkpt lat="45.53406" lon="6.76648">
        <ele>1399.2051</ele>
        <time>2015-08-20T15:47:11Z</time>
      </trkpt>
      <trkpt lat="45.53402" lon="6.76655">
        <ele>1399.9175</ele>
        <time>2015-08-20T15:47:16Z</time>
      </trkpt>
      <trkpt lat="45.53396" lon="6.76668">
        <ele>1400.4989</ele>
        <time>2015-08-20T15:47:26Z</time>
      </trkpt>
      <trkpt lat="45.53393" lon="6.76671">
        <ele>1400.4989</ele>
        <time>2015-08-20T15:47:31Z</time>
      </trkpt>
      <trkpt lat="45.53389" lon="6.76675">
        <ele>1400.4989</ele>
        <time>2015-08-20T15:47:46Z</time>
      </trkpt>
      <trkpt lat="45.5339" lon="6.76679">
        <ele>1401.3961</ele>
        <time>2015-08-20T15:47:51Z</time>
      </trkpt>
      <trkpt lat="45.53388" lon="6.76683">
        <ele>1401.3961</ele>
        <time>2015-08-20T15:48:01Z</time>
      </trkpt>
      <trkpt lat="45.53385" lon="6.7669">
        <ele>1402.1288</ele>
        <time>2015-08-20T15:48:06Z</time>
      </trkpt>
      <trkpt lat="45.53382" lon="6.76693">
        <ele>1402.1288</ele>
        <time>2015-08-20T15:48:16Z</time>
      </trkpt>
      <trkpt lat="45.53382" lon="6.76693">
        <ele>1402.1288</ele>
        <time>2015-08-20T15:48:21Z</time>
      </trkpt>
      <trkpt lat="45.53378" lon="6.76693">
        <ele>1402.1288</ele>
        <time>2015-08-20T15:48:31Z</time>
      </trkpt>
      <trkpt lat="45.53377" lon="6.76693">
        <ele>1402.1288</ele>
        <time>2015-08-20T15:48:36Z</time>
      </trkpt>
      <trkpt lat="45.53376" lon="6.76695">
        <ele>1403.535</ele>
        <time>2015-08-20T15:48:46Z</time>
      </trkpt>
      <trkpt lat="45.53366" lon="6.76706">
        <ele>1404.847</ele>
        <time>2015-08-20T15:49:01Z</time>
      </trkpt>
      <trkpt lat="45.53359" lon="6.7671">
        <ele>1404.847</ele>
        <time>2015-08-20T15:49:06Z</time>
      </trkpt>
      <trkpt lat="45.53355" lon="6.76716">
        <ele>1406.233</ele>
        <time>2015-08-20T15:49:16Z</time>
      </trkpt>
      <trkpt lat="45.53355" lon="6.76716">
        <ele>1406.233</ele>
        <time>2015-08-20T15:49:21Z</time>
      </trkpt>
      <trkpt lat="45.53352" lon="6.76718">
        <ele>1406.233</ele>
        <time>2015-08-20T15:49:31Z</time>
      </trkpt>
      <trkpt lat="45.5335" lon="6.76719">
        <ele>1406.233</ele>
        <time>2015-08-20T15:49:36Z</time>
      </trkpt>
      <trkpt lat="45.53347" lon="6.76724">
        <ele>1408.1222</ele>
        <time>2015-08-20T15:49:46Z</time>
      </trkpt>
      <trkpt lat="45.53346" lon="6.76725">
        <ele>1408.1222</ele>
        <time>2015-08-20T15:49:51Z</time>
      </trkpt>
      <trkpt lat="45.53345" lon="6.76727">
        <ele>1408.1222</ele>
        <time>2015-08-20T15:50:01Z</time>
      </trkpt>
      <trkpt lat="45.53343" lon="6.76727">
        <ele>1408.1222</ele>
        <time>2015-08-20T15:50:06Z</time>
      </trkpt>
      <trkpt lat="45.53339" lon="6.7673">
        <ele>1410.1614</ele>
        <time>2015-08-20T15:50:21Z</time>
      </trkpt>
      <trkpt lat="45.53338" lon="6.76731">
        <ele>1410.1614</ele>
        <time>2015-08-20T15:50:26Z</time>
      </trkpt>
      <trkpt lat="45.53332" lon="6.76732">
        <ele>1410.1614</ele>
        <time>2015-08-20T15:51:56Z</time>
      </trkpt>
      <trkpt lat="45.53328" lon="6.76735">
        <ele>1412.6282</ele>
        <time>2015-08-20T15:52:01Z</time>
      </trkpt>
      <trkpt lat="45.53324" lon="6.76735">
        <ele>1412.6282</ele>
        <time>2015-08-20T15:52:11Z</time>
      </trkpt>
      <trkpt lat="45.53323" lon="6.76735">
        <ele>1412.6282</ele>
        <time>2015-08-20T15:52:16Z</time>
      </trkpt>
      <trkpt lat="45.53317" lon="6.76741">
        <ele>1415.3029</ele>
        <time>2015-08-20T15:52:26Z</time>
      </trkpt>
      <trkpt lat="45.53313" lon="6.76741">
        <ele>1415.3029</ele>
        <time>2015-08-20T15:52:31Z</time>
      </trkpt>
      <trkpt lat="45.53312" lon="6.76741">
        <ele>1415.3029</ele>
        <time>2015-08-20T15:52:41Z</time>
      </trkpt>
      <trkpt lat="45.53306" lon="6.76745">
        <ele>1417.9669</ele>
        <time>2015-08-20T15:52:46Z</time>
      </trkpt>
      <trkpt lat="45.53302" lon="6.76747">
        <ele>1417.9669</ele>
        <time>2015-08-20T15:52:56Z</time>
      </trkpt>
      <trkpt lat="45.53302" lon="6.76747">
        <ele>1417.9669</ele>
        <time>2015-08-20T15:53:01Z</time>
      </trkpt>
      <trkpt lat="45.533" lon="6.76747">
        <ele>1417.9669</ele>
        <time>2015-08-20T15:53:11Z</time>
      </trkpt>
      <trkpt lat="45.53295" lon="6.7675">
        <ele>1420.8933</ele>
        <time>2015-08-20T15:53:16Z</time>
      </trkpt>
      <trkpt lat="45.53292" lon="6.76754">
        <ele>1420.8933</ele>
        <time>2015-08-20T15:53:26Z</time>
      </trkpt>
      <trkpt lat="45.53292" lon="6.76758">
        <ele>1420.8933</ele>
        <time>2015-08-20T15:53:31Z</time>
      </trkpt>
      <trkpt lat="45.53292" lon="6.7677">
        <ele>1423.556</ele>
        <time>2015-08-20T15:53:41Z</time>
      </trkpt>
      <trkpt lat="45.53293" lon="6.7677">
        <ele>1423.556</ele>
        <time>2015-08-20T15:53:46Z</time>
      </trkpt>
      <trkpt lat="45.53293" lon="6.7677">
        <ele>1423.556</ele>
        <time>2015-08-20T15:53:56Z</time>
      </trkpt>
      <trkpt lat="45.53293" lon="6.76778">
        <ele>1423.556</ele>
        <time>2015-08-20T15:54:11Z</time>
      </trkpt>
      <trkpt lat="45.53291" lon="6.76786">
        <ele>1426.6646</ele>
        <time>2015-08-20T15:54:16Z</time>
      </trkpt>
      <trkpt lat="45.53284" lon="6.768">
        <ele>1429.2319</ele>
        <time>2015-08-20T15:54:31Z</time>
      </trkpt>
      <trkpt lat="45.53284" lon="6.76806">
        <ele>1429.2319</ele>
        <time>2015-08-20T15:54:36Z</time>
      </trkpt>
      <trkpt lat="45.53288" lon="6.76824">
        <ele>1431.484</ele>
        <time>2015-08-20T15:54:46Z</time>
      </trkpt>
      <trkpt lat="45.53291" lon="6.7683">
        <ele>1431.484</ele>
        <time>2015-08-20T15:54:51Z</time>
      </trkpt>
      <trkpt lat="45.53294" lon="6.76836">
        <ele>1433.5585</ele>
        <time>2015-08-20T15:55:01Z</time>
      </trkpt>
      <trkpt lat="45.53298" lon="6.76841">
        <ele>1433.5585</ele>
        <time>2015-08-20T15:55:06Z</time>
      </trkpt>
      <trkpt lat="45.53299" lon="6.7685">
        <ele>1435.4684</ele>
        <time>2015-08-20T15:55:16Z</time>
      </trkpt>
      <trkpt lat="45.53299" lon="6.76854">
        <ele>1435.4684</ele>
        <time>2015-08-20T15:55:21Z</time>
      </trkpt>
      <trkpt lat="45.53295" lon="6.76873">
        <ele>1436.8948</ele>
        <time>2015-08-20T15:55:31Z</time>
      </trkpt>
      <trkpt lat="45.53292" lon="6.76885">
        <ele>1437.9757</ele>
        <time>2015-08-20T15:55:36Z</time>
      </trkpt>
      <trkpt lat="45.53291" lon="6.76894">
        <ele>1437.9757</ele>
        <time>2015-08-20T15:55:46Z</time>
      </trkpt>
      <trkpt lat="45.53283" lon="6.76902">
        <ele>1438.7681</ele>
        <time>2015-08-20T15:55:51Z</time>
      </trkpt>
      <trkpt lat="45.53279" lon="6.76908">
        <ele>1438.7681</ele>
        <time>2015-08-20T15:56:01Z</time>
      </trkpt>
      <trkpt lat="45.5328" lon="6.7691">
        <ele>1438.7681</ele>
        <time>2015-08-20T15:56:06Z</time>
      </trkpt>
      <trkpt lat="45.53281" lon="6.76912">
        <ele>1439.8297</ele>
        <time>2015-08-20T15:56:16Z</time>
      </trkpt>
      <trkpt lat="45.53274" lon="6.76943">
        <ele>1440.9562</ele>
        <time>2015-08-20T15:56:31Z</time>
      </trkpt>
      <trkpt lat="45.53271" lon="6.76955">
        <ele>1440.9562</ele>
        <time>2015-08-20T15:56:36Z</time>
      </trkpt>
      <trkpt lat="45.53266" lon="6.7697">
        <ele>1441.5974</ele>
        <time>2015-08-20T15:56:46Z</time>
      </trkpt>
      <trkpt lat="45.53264" lon="6.76975">
        <ele>1441.5974</ele>
        <time>2015-08-20T15:56:51Z</time>
      </trkpt>
      <trkpt lat="45.53258" lon="6.76992">
        <ele>1441.7643</ele>
        <time>2015-08-20T15:57:01Z</time>
      </trkpt>
      <trkpt lat="45.53255" lon="6.76996">
        <ele>1441.7643</ele>
        <time>2015-08-20T15:57:06Z</time>
      </trkpt>
      <trkpt lat="45.53248" lon="6.77001">
        <ele>1442.0441</ele>
        <time>2015-08-20T15:57:16Z</time>
      </trkpt>
      <trkpt lat="45.53243" lon="6.77009">
        <ele>1442.0441</ele>
        <time>2015-08-20T15:57:21Z</time>
      </trkpt>
      <trkpt lat="45.53237" lon="6.77016">
        <ele>1442.4766</ele>
        <time>2015-08-20T15:57:31Z</time>
      </trkpt>
      <trkpt lat="45.53237" lon="6.77016">
        <ele>1442.4766</ele>
        <time>2015-08-20T15:57:36Z</time>
      </trkpt>
      <trkpt lat="45.5323" lon="6.77036">
        <ele>1443.4005</ele>
        <time>2015-08-20T15:57:51Z</time>
      </trkpt>
      <trkpt lat="45.53232" lon="6.77042">
        <ele>1443.4005</ele>
        <time>2015-08-20T15:57:56Z</time>
      </trkpt>
      <trkpt lat="45.53233" lon="6.77046">
        <ele>1443.4005</ele>
        <time>2015-08-20T15:58:06Z</time>
      </trkpt>
      <trkpt lat="45.53233" lon="6.77056">
        <ele>1444.6096</ele>
        <time>2015-08-20T15:58:21Z</time>
      </trkpt>
      <trkpt lat="45.5323" lon="6.77061">
        <ele>1444.6096</ele>
        <time>2015-08-20T15:58:26Z</time>
      </trkpt>
      <trkpt lat="45.5323" lon="6.77061">
        <ele>1444.6096</ele>
        <time>2015-08-20T15:58:36Z</time>
      </trkpt>
      <trkpt lat="45.5323" lon="6.77066">
        <ele>1444.6096</ele>
        <time>2015-08-20T15:59:21Z</time>
      </trkpt>
      <trkpt lat="45.5323" lon="6.77081">
        <ele>1446.0704</ele>
        <time>2015-08-20T15:59:26Z</time>
      </trkpt>
      <trkpt lat="45.5323" lon="6.77084">
        <ele>1446.0704</ele>
        <time>2015-08-20T15:59:36Z</time>
      </trkpt>
      <trkpt lat="45.53228" lon="6.77092">
        <ele>1446.0704</ele>
        <time>2015-08-20T15:59:41Z</time>
      </trkpt>
      <trkpt lat="45.53215" lon="6.77125">
        <ele>1446.9152</ele>
        <time>2015-08-20T15:59:51Z</time>
      </trkpt>
      <trkpt lat="45.53214" lon="6.77134">
        <ele>1446.9152</ele>
        <time>2015-08-20T15:59:56Z</time>
      </trkpt>
      <trkpt lat="45.53215" lon="6.77141">
        <ele>1447.1919</ele>
        <time>2015-08-20T16:00:11Z</time>
      </trkpt>
      <trkpt lat="45.53216" lon="6.77145">
        <ele>1447.1919</ele>
        <time>2015-08-20T16:00:16Z</time>
      </trkpt>
      <trkpt lat="45.53213" lon="6.77176">
        <ele>1447.4797</ele>
        <time>2015-08-20T16:00:26Z</time>
      </trkpt>
      <trkpt lat="45.53209" lon="6.7719">
        <ele>1447.638</ele>
        <time>2015-08-20T16:00:31Z</time>
      </trkpt>
      <trkpt lat="45.53203" lon="6.772">
        <ele>1447.638</ele>
        <time>2015-08-20T16:00:41Z</time>
      </trkpt>
      <trkpt lat="45.53201" lon="6.77204">
        <ele>1447.4786</ele>
        <time>2015-08-20T16:00:46Z</time>
      </trkpt>
      <trkpt lat="45.53197" lon="6.77205">
        <ele>1447.4786</ele>
        <time>2015-08-20T16:00:56Z</time>
      </trkpt>
      <trkpt lat="45.53193" lon="6.7721">
        <ele>1447.0736</ele>
        <time>2015-08-20T16:01:01Z</time>
      </trkpt>
      <trkpt lat="45.53188" lon="6.7722">
        <ele>1447.0736</ele>
        <time>2015-08-20T16:01:11Z</time>
      </trkpt>
      <trkpt lat="45.53185" lon="6.77224">
        <ele>1446.7924</ele>
        <time>2015-08-20T16:01:16Z</time>
      </trkpt>
      <trkpt lat="45.53177" lon="6.77239">
        <ele>1446.4872</ele>
        <time>2015-08-20T16:01:26Z</time>
      </trkpt>
      <trkpt lat="45.53176" lon="6.77247">
        <ele>1446.4872</ele>
        <time>2015-08-20T16:01:31Z</time>
      </trkpt>
      <trkpt lat="45.53174" lon="6.77256">
        <ele>1445.9777</ele>
        <time>2015-08-20T16:01:41Z</time>
      </trkpt>
      <trkpt lat="45.53172" lon="6.7726">
        <ele>1445.9777</ele>
        <time>2015-08-20T16:01:46Z</time>
      </trkpt>
      <trkpt lat="45.53161" lon="6.77271">
        <ele>1445.126</ele>
        <time>2015-08-20T16:02:01Z</time>
      </trkpt>
      <trkpt lat="45.53159" lon="6.77276">
        <ele>1445.126</ele>
        <time>2015-08-20T16:02:06Z</time>
      </trkpt>
      <trkpt lat="45.53152" lon="6.77284">
        <ele>1444.1945</ele>
        <time>2015-08-20T16:02:16Z</time>
      </trkpt>
      <trkpt lat="45.53149" lon="6.77286">
        <ele>1444.1945</ele>
        <time>2015-08-20T16:02:21Z</time>
      </trkpt>
      <trkpt lat="45.53143" lon="6.77287">
        <ele>1443.2817</ele>
        <time>2015-08-20T16:02:31Z</time>
      </trkpt>
      <trkpt lat="45.53141" lon="6.7729">
        <ele>1443.2817</ele>
        <time>2015-08-20T16:02:36Z</time>
      </trkpt>
      <trkpt lat="45.53137" lon="6.77303">
        <ele>1442.3066</ele>
        <time>2015-08-20T16:02:46Z</time>
      </trkpt>
      <trkpt lat="45.53136" lon="6.77311">
        <ele>1442.3066</ele>
        <time>2015-08-20T16:02:51Z</time>
      </trkpt>
      <trkpt lat="45.53136" lon="6.77321">
        <ele>1441.381</ele>
        <time>2015-08-20T16:03:01Z</time>
      </trkpt>
      <trkpt lat="45.53134" lon="6.77324">
        <ele>1441.381</ele>
        <time>2015-08-20T16:03:06Z</time>
      </trkpt>
      <trkpt lat="45.53134" lon="6.77332">
        <ele>1441.381</ele>
        <time>2015-08-20T16:03:16Z</time>
      </trkpt>
      <trkpt lat="45.53133" lon="6.77338">
        <ele>1440.4205</ele>
        <time>2015-08-20T16:03:21Z</time>
      </trkpt>
      <trkpt lat="45.53134" lon="6.77351">
        <ele>1439.6504</ele>
        <time>2015-08-20T16:03:31Z</time>
      </trkpt>
      <trkpt lat="45.53136" lon="6.77353">
        <ele>1439.6504</ele>
        <time>2015-08-20T16:03:36Z</time>
      </trkpt>
      <trkpt lat="45.53139" lon="6.77373">
        <ele>1439.3065</ele>
        <time>2015-08-20T16:03:51Z</time>
      </trkpt>
      <trkpt lat="45.53141" lon="6.77377">
        <ele>1439.3065</ele>
        <time>2015-08-20T16:03:56Z</time>
      </trkpt>
      <trkpt lat="45.53141" lon="6.7739">
        <ele>1439.3473</ele>
        <time>2015-08-20T16:04:06Z</time>
      </trkpt>
      <trkpt lat="45.53139" lon="6.77396">
        <ele>1439.3473</ele>
        <time>2015-08-20T16:04:11Z</time>
      </trkpt>
      <trkpt lat="45.53133" lon="6.77408">
        <ele>1439.7472</ele>
        <time>2015-08-20T16:04:21Z</time>
      </trkpt>
      <trkpt lat="45.53131" lon="6.7741">
        <ele>1439.7472</ele>
        <time>2015-08-20T16:04:26Z</time>
      </trkpt>
      <trkpt lat="45.5313" lon="6.77409">
        <ele>1439.7472</ele>
        <time>2015-08-20T16:04:36Z</time>
      </trkpt>
      <trkpt lat="45.53128" lon="6.7741">
        <ele>1439.7472</ele>
        <time>2015-08-20T16:04:41Z</time>
      </trkpt>
      <trkpt lat="45.5313" lon="6.77408">
        <ele>1439.7472</ele>
        <time>2015-08-20T16:04:51Z</time>
      </trkpt>
      <trkpt lat="45.53129" lon="6.77408">
        <ele>1439.7472</ele>
        <time>2015-08-20T16:04:56Z</time>
      </trkpt>
      <trkpt lat="45.53128" lon="6.77407">
        <ele>1440.4811</ele>
        <time>2015-08-20T16:05:06Z</time>
      </trkpt>
      <trkpt lat="45.53129" lon="6.77406">
        <ele>1440.4811</ele>
        <time>2015-08-20T16:05:11Z</time>
      </trkpt>
      <trkpt lat="45.53129" lon="6.77405">
        <ele>1440.4811</ele>
        <time>2015-08-20T16:05:26Z</time>
      </trkpt>
      <trkpt lat="45.53127" lon="6.77407">
        <ele>1440.4811</ele>
        <time>2015-08-20T16:05:31Z</time>
      </trkpt>
      <trkpt lat="45.53123" lon="6.7741">
        <ele>1440.4811</ele>
        <time>2015-08-20T16:05:41Z</time>
      </trkpt>
      <trkpt lat="45.53127" lon="6.77412">
        <ele>1441.2802</ele>
        <time>2015-08-20T16:05:46Z</time>
      </trkpt>
      <trkpt lat="45.5313" lon="6.77412">
        <ele>1441.2802</ele>
        <time>2015-08-20T16:05:56Z</time>
      </trkpt>
      <trkpt lat="45.53131" lon="6.77409">
        <ele>1441.2802</ele>
        <time>2015-08-20T16:06:01Z</time>
      </trkpt>
      <trkpt lat="45.53131" lon="6.77407">
        <ele>1441.2802</ele>
        <time>2015-08-20T16:06:11Z</time>
      </trkpt>
      <trkpt lat="45.53131" lon="6.77406">
        <ele>1441.2802</ele>
        <time>2015-08-20T16:06:16Z</time>
      </trkpt>
      <trkpt lat="45.53131" lon="6.77406">
        <ele>1441.2802</ele>
        <time>2015-08-20T16:06:26Z</time>
      </trkpt>
      <trkpt lat="45.53131" lon="6.77407">
        <ele>1442.2114</ele>
        <time>2015-08-20T16:06:31Z</time>
      </trkpt>
      <trkpt lat="45.53128" lon="6.77403">
        <ele>1442.2114</ele>
        <time>2015-08-20T16:06:41Z</time>
      </trkpt>
      <trkpt lat="45.53128" lon="6.77409">
        <ele>1442.2114</ele>
        <time>2015-08-20T16:06:46Z</time>
      </trkpt>
      <trkpt lat="45.53121" lon="6.77418">
        <ele>1443.1354</ele>
        <time>2015-08-20T16:06:56Z</time>
      </trkpt>
      <trkpt lat="45.53115" lon="6.77417">
        <ele>1443.1354</ele>
        <time>2015-08-20T16:07:01Z</time>
      </trkpt>
      <trkpt lat="45.53104" lon="6.77413">
        <ele>1444.0372</ele>
        <time>2015-08-20T16:07:11Z</time>
      </trkpt>
      <trkpt lat="45.53098" lon="6.77411">
        <ele>1444.0372</ele>
        <time>2015-08-20T16:07:16Z</time>
      </trkpt>
      <trkpt lat="45.53083" lon="6.7741">
        <ele>1445.3793</ele>
        <time>2015-08-20T16:07:31Z</time>
      </trkpt>
      <trkpt lat="45.53078" lon="6.77412">
        <ele>1445.3793</ele>
        <time>2015-08-20T16:07:36Z</time>
      </trkpt>
      <trkpt lat="45.53068" lon="6.77413">
        <ele>1446.9255</ele>
        <time>2015-08-20T16:07:46Z</time>
      </trkpt>
      <trkpt lat="45.53065" lon="6.77417">
        <ele>1446.9255</ele>
        <time>2015-08-20T16:07:51Z</time>
      </trkpt>
      <trkpt lat="45.53054" lon="6.77429">
        <ele>1448.7014</ele>
        <time>2015-08-20T16:08:01Z</time>
      </trkpt>
      <trkpt lat="45.53049" lon="6.77436">
        <ele>1448.7014</ele>
        <time>2015-08-20T16:08:06Z</time>
      </trkpt>
      <trkpt lat="45.53044" lon="6.77444">
        <ele>1450.514</ele>
        <time>2015-08-20T16:08:16Z</time>
      </trkpt>
      <trkpt lat="45.53039" lon="6.77448">
        <ele>1450.514</ele>
        <time>2015-08-20T16:08:21Z</time>
      </trkpt>
      <trkpt lat="45.53032" lon="6.77455">
        <ele>1452.0255</ele>
        <time>2015-08-20T16:08:31Z</time>
      </trkpt>
      <trkpt lat="45.53028" lon="6.77459">
        <ele>1452.0255</ele>
        <time>2015-08-20T16:08:36Z</time>
      </trkpt>
      <trkpt lat="45.53018" lon="6.77467">
        <ele>1453.4283</ele>
        <time>2015-08-20T16:08:46Z</time>
      </trkpt>
      <trkpt lat="45.53013" lon="6.77472">
        <ele>1453.4283</ele>
        <time>2015-08-20T16:08:51Z</time>
      </trkpt>
      <trkpt lat="45.53002" lon="6.77489">
        <ele>1454.5549</ele>
        <time>2015-08-20T16:09:06Z</time>
      </trkpt>
      <trkpt lat="45.53" lon="6.77494">
        <ele>1454.5549</ele>
        <time>2015-08-20T16:09:11Z</time>
      </trkpt>
      <trkpt lat="45.52995" lon="6.77508">
        <ele>1455.3953</ele>
        <time>2015-08-20T16:09:21Z</time>
      </trkpt>
      <trkpt lat="45.5299" lon="6.77515">
        <ele>1455.3953</ele>
        <time>2015-08-20T16:09:26Z</time>
      </trkpt>
      <trkpt lat="45.52983" lon="6.77523">
        <ele>1456.1133</ele>
        <time>2015-08-20T16:09:36Z</time>
      </trkpt>
      <trkpt lat="45.52975" lon="6.7753">
        <ele>1456.1133</ele>
        <time>2015-08-20T16:09:41Z</time>
      </trkpt>
      <trkpt lat="45.52964" lon="6.77541">
        <ele>1456.7753</ele>
        <time>2015-08-20T16:09:51Z</time>
      </trkpt>
      <trkpt lat="45.52962" lon="6.77546">
        <ele>1456.7753</ele>
        <time>2015-08-20T16:09:56Z</time>
      </trkpt>
      <trkpt lat="45.52959" lon="6.77556">
        <ele>1457.1255</ele>
        <time>2015-08-20T16:10:06Z</time>
      </trkpt>
      <trkpt lat="45.52955" lon="6.77561">
        <ele>1457.1255</ele>
        <time>2015-08-20T16:10:11Z</time>
      </trkpt>
      <trkpt lat="45.52952" lon="6.77576">
        <ele>1457.288</ele>
        <time>2015-08-20T16:10:21Z</time>
      </trkpt>
      <trkpt lat="45.5295" lon="6.77583">
        <ele>1457.288</ele>
        <time>2015-08-20T16:10:26Z</time>
      </trkpt>
      <trkpt lat="45.52948" lon="6.77598">
        <ele>1457.1334</ele>
        <time>2015-08-20T16:10:36Z</time>
      </trkpt>
      <trkpt lat="45.52945" lon="6.77606">
        <ele>1457.1334</ele>
        <time>2015-08-20T16:10:41Z</time>
      </trkpt>
      <trkpt lat="45.5294" lon="6.77623">
        <ele>1457.076</ele>
        <time>2015-08-20T16:10:51Z</time>
      </trkpt>
      <trkpt lat="45.52938" lon="6.77631">
        <ele>1457.076</ele>
        <time>2015-08-20T16:10:56Z</time>
      </trkpt>
      <trkpt lat="45.52933" lon="6.77649">
        <ele>1457.139</ele>
        <time>2015-08-20T16:11:06Z</time>
      </trkpt>
      <trkpt lat="45.52931" lon="6.77656">
        <ele>1457.139</ele>
        <time>2015-08-20T16:11:11Z</time>
      </trkpt>
      <trkpt lat="45.52931" lon="6.77666">
        <ele>1456.9977</ele>
        <time>2015-08-20T16:11:21Z</time>
      </trkpt>
      <trkpt lat="45.52931" lon="6.77666">
        <ele>1456.9977</ele>
        <time>2015-08-20T16:11:26Z</time>
      </trkpt>
      <trkpt lat="45.52927" lon="6.77688">
        <ele>1457.101</ele>
        <time>2015-08-20T16:11:36Z</time>
      </trkpt>
      <trkpt lat="45.52927" lon="6.77689">
        <ele>1457.101</ele>
        <time>2015-08-20T16:11:41Z</time>
      </trkpt>
      <trkpt lat="45.52925" lon="6.77695">
        <ele>1457.101</ele>
        <time>2015-08-20T16:11:51Z</time>
      </trkpt>
      <trkpt lat="45.52926" lon="6.77698">
        <ele>1457.101</ele>
        <time>2015-08-20T16:11:56Z</time>
      </trkpt>
      <trkpt lat="45.52929" lon="6.77715">
        <ele>1457.8644</ele>
        <time>2015-08-20T16:12:11Z</time>
      </trkpt>
      <trkpt lat="45.52928" lon="6.77717">
        <ele>1457.8644</ele>
        <time>2015-08-20T16:12:16Z</time>
      </trkpt>
      <trkpt lat="45.5293" lon="6.77736">
        <ele>1459.0079</ele>
        <time>2015-08-20T16:12:26Z</time>
      </trkpt>
      <trkpt lat="45.52928" lon="6.77745">
        <ele>1459.0079</ele>
        <time>2015-08-20T16:12:31Z</time>
      </trkpt>
      <trkpt lat="45.52924" lon="6.77756">
        <ele>1460.1127</ele>
        <time>2015-08-20T16:12:41Z</time>
      </trkpt>
      <trkpt lat="45.5292" lon="6.77765">
        <ele>1460.1127</ele>
        <time>2015-08-20T16:12:46Z</time>
      </trkpt>
      <trkpt lat="45.52914" lon="6.77779">
        <ele>1461.0498</ele>
        <time>2015-08-20T16:12:56Z</time>
      </trkpt>
      <trkpt lat="45.52911" lon="6.77786">
        <ele>1461.0498</ele>
        <time>2015-08-20T16:13:01Z</time>
      </trkpt>
      <trkpt lat="45.52911" lon="6.77796">
        <ele>1461.6431</ele>
        <time>2015-08-20T16:13:11Z</time>
      </trkpt>
      <trkpt lat="45.5291" lon="6.77803">
        <ele>1461.6431</ele>
        <time>2015-08-20T16:13:16Z</time>
      </trkpt>
      <trkpt lat="45.5291" lon="6.77812">
        <ele>1462.1765</ele>
        <time>2015-08-20T16:13:26Z</time>
      </trkpt>
      <trkpt lat="45.52909" lon="6.77813">
        <ele>1462.1765</ele>
        <time>2015-08-20T16:13:31Z</time>
      </trkpt>
      <trkpt lat="45.52903" lon="6.77817">
        <ele>1462.1765</ele>
        <time>2015-08-20T16:14:01Z</time>
      </trkpt>
      <trkpt lat="45.52893" lon="6.77821">
        <ele>1463.3749</ele>
        <time>2015-08-20T16:14:16Z</time>
      </trkpt>
      <trkpt lat="45.52894" lon="6.77822">
        <ele>1463.3749</ele>
        <time>2015-08-20T16:14:31Z</time>
      </trkpt>
      <trkpt lat="45.52898" lon="6.77829">
        <ele>1463.3749</ele>
        <time>2015-08-20T16:14:36Z</time>
      </trkpt>
      <trkpt lat="45.52898" lon="6.77829">
        <ele>1463.3749</ele>
        <time>2015-08-20T16:14:46Z</time>
      </trkpt>
      <trkpt lat="45.52901" lon="6.77838">
        <ele>1464.9279</ele>
        <time>2015-08-20T16:15:01Z</time>
      </trkpt>
      <trkpt lat="45.52902" lon="6.77841">
        <ele>1464.9279</ele>
        <time>2015-08-20T16:15:06Z</time>
      </trkpt>
      <trkpt lat="45.529" lon="6.77861">
        <ele>1466.835</ele>
        <time>2015-08-20T16:15:16Z</time>
      </trkpt>
      <trkpt lat="45.52898" lon="6.77869">
        <ele>1466.835</ele>
        <time>2015-08-20T16:15:21Z</time>
      </trkpt>
      <trkpt lat="45.52893" lon="6.77879">
        <ele>1468.6051</ele>
        <time>2015-08-20T16:15:31Z</time>
      </trkpt>
      <trkpt lat="45.52892" lon="6.77887">
        <ele>1468.6051</ele>
        <time>2015-08-20T16:15:36Z</time>
      </trkpt>
      <trkpt lat="45.52887" lon="6.77903">
        <ele>1470.2157</ele>
        <time>2015-08-20T16:15:46Z</time>
      </trkpt>
      <trkpt lat="45.52884" lon="6.77906">
        <ele>1470.2157</ele>
        <time>2015-08-20T16:15:51Z</time>
      </trkpt>
      <trkpt lat="45.52871" lon="6.77916">
        <ele>1471.6897</ele>
        <time>2015-08-20T16:16:06Z</time>
      </trkpt>
      <trkpt lat="45.52868" lon="6.77919">
        <ele>1471.6897</ele>
        <time>2015-08-20T16:16:11Z</time>
      </trkpt>
      <trkpt lat="45.52861" lon="6.77926">
        <ele>1473.0056</ele>
        <time>2015-08-20T16:16:21Z</time>
      </trkpt>
      <trkpt lat="45.52859" lon="6.77932">
        <ele>1473.0056</ele>
        <time>2015-08-20T16:16:26Z</time>
      </trkpt>
      <trkpt lat="45.52853" lon="6.77945">
        <ele>1474.216</ele>
        <time>2015-08-20T16:16:36Z</time>
      </trkpt>
      <trkpt lat="45.52848" lon="6.77951">
        <ele>1474.216</ele>
        <time>2015-08-20T16:16:41Z</time>
      </trkpt>
      <trkpt lat="45.52845" lon="6.77959">
        <ele>1475.4418</ele>
        <time>2015-08-20T16:16:51Z</time>
      </trkpt>
      <trkpt lat="45.52843" lon="6.77966">
        <ele>1475.4418</ele>
        <time>2015-08-20T16:16:56Z</time>
      </trkpt>
      <trkpt lat="45.5284" lon="6.77968">
        <ele>1475.4418</ele>
        <time>2015-08-20T16:17:06Z</time>
      </trkpt>
      <trkpt lat="45.52839" lon="6.77968">
        <ele>1476.9108</ele>
        <time>2015-08-20T16:17:11Z</time>
      </trkpt>
      <trkpt lat="45.52842" lon="6.7798">
        <ele>1478.1699</ele>
        <time>2015-08-20T16:17:21Z</time>
      </trkpt>
      <trkpt lat="45.52841" lon="6.77991">
        <ele>1478.1699</ele>
        <time>2015-08-20T16:17:26Z</time>
      </trkpt>
      <trkpt lat="45.5284" lon="6.78002">
        <ele>1479.2041</ele>
        <time>2015-08-20T16:17:36Z</time>
      </trkpt>
      <trkpt lat="45.52838" lon="6.78007">
        <ele>1479.2041</ele>
        <time>2015-08-20T16:17:41Z</time>
      </trkpt>
      <trkpt lat="45.52833" lon="6.78019">
        <ele>1480.3024</ele>
        <time>2015-08-20T16:17:51Z</time>
      </trkpt>
      <trkpt lat="45.5283" lon="6.78024">
        <ele>1480.3024</ele>
        <time>2015-08-20T16:17:56Z</time>
      </trkpt>
      <trkpt lat="45.52827" lon="6.78035">
        <ele>1481.1416</ele>
        <time>2015-08-20T16:18:06Z</time>
      </trkpt>
      <trkpt lat="45.52827" lon="6.7804">
        <ele>1481.1416</ele>
        <time>2015-08-20T16:18:11Z</time>
      </trkpt>
      <trkpt lat="45.5283" lon="6.78065">
        <ele>1481.8268</ele>
        <time>2015-08-20T16:18:26Z</time>
      </trkpt>
      <trkpt lat="45.52831" lon="6.78075">
        <ele>1481.8268</ele>
        <time>2015-08-20T16:18:31Z</time>
      </trkpt>
      <trkpt lat="45.52833" lon="6.78091">
        <ele>1482.7006</ele>
        <time>2015-08-20T16:18:41Z</time>
      </trkpt>
      <trkpt lat="45.52833" lon="6.78099">
        <ele>1482.7006</ele>
        <time>2015-08-20T16:18:46Z</time>
      </trkpt>
      <trkpt lat="45.52833" lon="6.78099">
        <ele>1482.7006</ele>
        <time>2015-08-20T16:18:56Z</time>
      </trkpt>
      <trkpt lat="45.52831" lon="6.78097">
        <ele>1482.7006</ele>
        <time>2015-08-20T16:19:11Z</time>
      </trkpt>
      <trkpt lat="45.52831" lon="6.78097">
        <ele>1482.7006</ele>
        <time>2015-08-20T16:19:16Z</time>
      </trkpt>
      <trkpt lat="45.52832" lon="6.78096">
        <ele>1483.7485</ele>
        <time>2015-08-20T16:19:26Z</time>
      </trkpt>
      <trkpt lat="45.52831" lon="6.78092">
        <ele>1483.7485</ele>
        <time>2015-08-20T16:19:31Z</time>
      </trkpt>
      <trkpt lat="45.5283" lon="6.78089">
        <ele>1483.7485</ele>
        <time>2015-08-20T16:19:41Z</time>
      </trkpt>
      <trkpt lat="45.52829" lon="6.78084">
        <ele>1483.7485</ele>
        <time>2015-08-20T16:19:46Z</time>
      </trkpt>
      <trkpt lat="45.52827" lon="6.78067">
        <ele>1484.8273</ele>
        <time>2015-08-20T16:19:56Z</time>
      </trkpt>
      <trkpt lat="45.52827" lon="6.78055">
        <ele>1484.8273</ele>
        <time>2015-08-20T16:20:01Z</time>
      </trkpt>
      <trkpt lat="45.52828" lon="6.78031">
        <ele>1485.7605</ele>
        <time>2015-08-20T16:20:11Z</time>
      </trkpt>
      <trkpt lat="45.52828" lon="6.78021">
        <ele>1485.7605</ele>
        <time>2015-08-20T16:20:16Z</time>
      </trkpt>
      <trkpt lat="45.52827" lon="6.7801">
        <ele>1486.6448</ele>
        <time>2015-08-20T16:20:26Z</time>
      </trkpt>
      <trkpt lat="45.52826" lon="6.78005">
        <ele>1486.6448</ele>
        <time>2015-08-20T16:20:31Z</time>
      </trkpt>
      <trkpt lat="45.52823" lon="6.77989">
        <ele>1487.642</ele>
        <time>2015-08-20T16:20:46Z</time>
      </trkpt>
      <trkpt lat="45.52818" lon="6.77986">
        <ele>1487.642</ele>
        <time>2015-08-20T16:20:51Z</time>
      </trkpt>
      <trkpt lat="45.52808" lon="6.77983">
        <ele>1488.3683</ele>
        <time>2015-08-20T16:21:01Z</time>
      </trkpt>
      <trkpt lat="45.52806" lon="6.77984">
        <ele>1488.3683</ele>
        <time>2015-08-20T16:21:06Z</time>
      </trkpt>
      <trkpt lat="45.52802" lon="6.77997">
        <ele>1488.8727</ele>
        <time>2015-08-20T16:21:16Z</time>
      </trkpt>
      <trkpt lat="45.528" lon="6.78003">
        <ele>1488.8727</ele>
        <time>2015-08-20T16:21:21Z</time>
      </trkpt>
      <trkpt lat="45.52797" lon="6.78011">
        <ele>1489.4316</ele>
        <time>2015-08-20T16:21:31Z</time>
      </trkpt>
      <trkpt lat="45.52795" lon="6.78018">
        <ele>1489.4316</ele>
        <time>2015-08-20T16:21:36Z</time>
      </trkpt>
      <trkpt lat="45.5279" lon="6.78025">
        <ele>1490.0563</ele>
        <time>2015-08-20T16:21:46Z</time>
      </trkpt>
      <trkpt lat="45.52785" lon="6.78029">
        <ele>1490.0563</ele>
        <time>2015-08-20T16:21:51Z</time>
      </trkpt>
      <trkpt lat="45.52782" lon="6.78039">
        <ele>1490.627</ele>
        <time>2015-08-20T16:22:01Z</time>
      </trkpt>
      <trkpt lat="45.52781" lon="6.78044">
        <ele>1490.627</ele>
        <time>2015-08-20T16:22:06Z</time>
      </trkpt>
      <trkpt lat="45.52778" lon="6.78057">
        <ele>1491.2924</ele>
        <time>2015-08-20T16:22:16Z</time>
      </trkpt>
      <trkpt lat="45.52777" lon="6.78059">
        <ele>1491.2924</ele>
        <time>2015-08-20T16:22:21Z</time>
      </trkpt>
      <trkpt lat="45.52774" lon="6.78069">
        <ele>1492.0029</ele>
        <time>2015-08-20T16:22:31Z</time>
      </trkpt>
      <trkpt lat="45.52772" lon="6.78074">
        <ele>1492.0029</ele>
        <time>2015-08-20T16:22:36Z</time>
      </trkpt>
      <trkpt lat="45.5277" lon="6.78082">
        <ele>1492.9862</ele>
        <time>2015-08-20T16:22:46Z</time>
      </trkpt>
      <trkpt lat="45.52766" lon="6.78088">
        <ele>1492.9862</ele>
        <time>2015-08-20T16:22:51Z</time>
      </trkpt>
      <trkpt lat="45.52762" lon="6.78097">
        <ele>1493.9624</ele>
        <time>2015-08-20T16:23:01Z</time>
      </trkpt>
      <trkpt lat="45.52762" lon="6.78101">
        <ele>1493.9624</ele>
        <time>2015-08-20T16:23:06Z</time>
      </trkpt>
      <trkpt lat="45.52755" lon="6.7811">
        <ele>1494.8451</ele>
        <time>2015-08-20T16:23:16Z</time>
      </trkpt>
      <trkpt lat="45.52752" lon="6.78115">
        <ele>1494.8451</ele>
        <time>2015-08-20T16:23:21Z</time>
      </trkpt>
      <trkpt lat="45.52743" lon="6.78127">
        <ele>1495.8718</ele>
        <time>2015-08-20T16:23:36Z</time>
      </trkpt>
      <trkpt lat="45.52736" lon="6.78132">
        <ele>1495.8718</ele>
        <time>2015-08-20T16:23:41Z</time>
      </trkpt>
      <trkpt lat="45.52731" lon="6.78138">
        <ele>1496.9594</ele>
        <time>2015-08-20T16:23:51Z</time>
      </trkpt>
      <trkpt lat="45.5273" lon="6.7814">
        <ele>1496.9594</ele>
        <time>2015-08-20T16:23:56Z</time>
      </trkpt>
      <trkpt lat="45.52727" lon="6.78142">
        <ele>1496.9594</ele>
        <time>2015-08-20T16:24:06Z</time>
      </trkpt>
      <trkpt lat="45.52722" lon="6.78145">
        <ele>1498.5925</ele>
        <time>2015-08-20T16:24:11Z</time>
      </trkpt>
      <trkpt lat="45.52717" lon="6.78151">
        <ele>1498.5925</ele>
        <time>2015-08-20T16:24:21Z</time>
      </trkpt>
      <trkpt lat="45.52709" lon="6.78156">
        <ele>1500.3977</ele>
        <time>2015-08-20T16:24:26Z</time>
      </trkpt>
      <trkpt lat="45.52702" lon="6.78162">
        <ele>1500.3977</ele>
        <time>2015-08-20T16:24:36Z</time>
      </trkpt>
      <trkpt lat="45.52697" lon="6.78166">
        <ele>1502.4318</ele>
        <time>2015-08-20T16:24:41Z</time>
      </trkpt>
      <trkpt lat="45.5269" lon="6.78175">
        <ele>1504.5739</ele>
        <time>2015-08-20T16:24:51Z</time>
      </trkpt>
      <trkpt lat="45.52689" lon="6.78176">
        <ele>1504.5739</ele>
        <time>2015-08-20T16:24:56Z</time>
      </trkpt>
      <trkpt lat="45.52683" lon="6.78182">
        <ele>1504.5739</ele>
        <time>2015-08-20T16:25:06Z</time>
      </trkpt>
      <trkpt lat="45.52679" lon="6.78186">
        <ele>1506.9133</ele>
        <time>2015-08-20T16:25:11Z</time>
      </trkpt>
      <trkpt lat="45.52676" lon="6.78189">
        <ele>1506.9133</ele>
        <time>2015-08-20T16:25:21Z</time>
      </trkpt>
      <trkpt lat="45.5267" lon="6.78191">
        <ele>1509.2155</ele>
        <time>2015-08-20T16:25:36Z</time>
      </trkpt>
      <trkpt lat="45.52667" lon="6.78194">
        <ele>1509.2155</ele>
        <time>2015-08-20T16:25:41Z</time>
      </trkpt>
      <trkpt lat="45.5266" lon="6.78199">
        <ele>1511.6234</ele>
        <time>2015-08-20T16:25:51Z</time>
      </trkpt>
      <trkpt lat="45.52656" lon="6.782">
        <ele>1511.6234</ele>
        <time>2015-08-20T16:25:56Z</time>
      </trkpt>
      <trkpt lat="45.52641" lon="6.78203">
        <ele>1514.111</ele>
        <time>2015-08-20T16:26:11Z</time>
      </trkpt>
      <trkpt lat="45.52635" lon="6.78205">
        <ele>1514.111</ele>
        <time>2015-08-20T16:26:16Z</time>
      </trkpt>
      <trkpt lat="45.5263" lon="6.78208">
        <ele>1516.5382</ele>
        <time>2015-08-20T16:26:26Z</time>
      </trkpt>
      <trkpt lat="45.52621" lon="6.78209">
        <ele>1518.7759</ele>
        <time>2015-08-20T16:26:31Z</time>
      </trkpt>
      <trkpt lat="45.52614" lon="6.7821">
        <ele>1518.7759</ele>
        <time>2015-08-20T16:26:41Z</time>
      </trkpt>
      <trkpt lat="45.52608" lon="6.7821">
        <ele>1520.9642</ele>
        <time>2015-08-20T16:26:46Z</time>
      </trkpt>
      <trkpt lat="45.52606" lon="6.7821">
        <ele>1520.9642</ele>
        <time>2015-08-20T16:26:56Z</time>
      </trkpt>
      <trkpt lat="45.52605" lon="6.7821">
        <ele>1520.9642</ele>
        <time>2015-08-20T16:27:01Z</time>
      </trkpt>
      <trkpt lat="45.52605" lon="6.7821">
        <ele>1520.9642</ele>
        <time>2015-08-20T16:27:11Z</time>
      </trkpt>
      <trkpt lat="45.52604" lon="6.7821">
        <ele>1520.9642</ele>
        <time>2015-08-20T16:27:26Z</time>
      </trkpt>
      <trkpt lat="45.52602" lon="6.7821">
        <ele>1520.9642</ele>
        <time>2015-08-20T16:28:01Z</time>
      </trkpt>
      <trkpt lat="45.526" lon="6.7821">
        <ele>1520.9642</ele>
        <time>2015-08-20T16:28:06Z</time>
      </trkpt>
      <trkpt lat="45.52588" lon="6.78215">
        <ele>1523.7092</ele>
        <time>2015-08-20T16:28:16Z</time>
      </trkpt>
      <trkpt lat="45.52587" lon="6.78217">
        <ele>1523.7092</ele>
        <time>2015-08-20T16:28:21Z</time>
      </trkpt>
      <trkpt lat="45.52581" lon="6.78231">
        <ele>1526.158</ele>
        <time>2015-08-20T16:28:31Z</time>
      </trkpt>
      <trkpt lat="45.52579" lon="6.78237">
        <ele>1526.158</ele>
        <time>2015-08-20T16:28:36Z</time>
      </trkpt>
      <trkpt lat="45.52577" lon="6.78248">
        <ele>1528.2424</ele>
        <time>2015-08-20T16:28:46Z</time>
      </trkpt>
      <trkpt lat="45.52576" lon="6.78255">
        <ele>1528.2424</ele>
        <time>2015-08-20T16:28:51Z</time>
      </trkpt>
      <trkpt lat="45.52573" lon="6.78269">
        <ele>1529.7847</ele>
        <time>2015-08-20T16:29:01Z</time>
      </trkpt>
      <trkpt lat="45.52571" lon="6.78277">
        <ele>1529.7847</ele>
        <time>2015-08-20T16:29:06Z</time>
      </trkpt>
      <trkpt lat="45.52568" lon="6.78282">
        <ele>1530.9968</ele>
        <time>2015-08-20T16:29:16Z</time>
      </trkpt>
      <trkpt lat="45.52567" lon="6.78284">
        <ele>1530.9968</ele>
        <time>2015-08-20T16:29:21Z</time>
      </trkpt>
      <trkpt lat="45.52559" lon="6.78291">
        <ele>1532.1768</ele>
        <time>2015-08-20T16:29:31Z</time>
      </trkpt>
      <trkpt lat="45.52554" lon="6.78303">
        <ele>1533.1398</ele>
        <time>2015-08-20T16:29:36Z</time>
      </trkpt>
      <trkpt lat="45.52539" lon="6.78319">
        <ele>1533.802</ele>
        <time>2015-08-20T16:29:51Z</time>
      </trkpt>
      <trkpt lat="45.52537" lon="6.78322">
        <ele>1533.802</ele>
        <time>2015-08-20T16:29:56Z</time>
      </trkpt>
      <trkpt lat="45.52535" lon="6.78326">
        <ele>1533.802</ele>
        <time>2015-08-20T16:30:06Z</time>
      </trkpt>
      <trkpt lat="45.52534" lon="6.78331">
        <ele>1534.6051</ele>
        <time>2015-08-20T16:30:11Z</time>
      </trkpt>
      <trkpt lat="45.5253" lon="6.78341">
        <ele>1534.6051</ele>
        <time>2015-08-20T16:30:21Z</time>
      </trkpt>
      <trkpt lat="45.52525" lon="6.78347">
        <ele>1535.5115</ele>
        <time>2015-08-20T16:30:26Z</time>
      </trkpt>
      <trkpt lat="45.52522" lon="6.78354">
        <ele>1535.5115</ele>
        <time>2015-08-20T16:30:36Z</time>
      </trkpt>
      <trkpt lat="45.52522" lon="6.7836">
        <ele>1536.2699</ele>
        <time>2015-08-20T16:30:41Z</time>
      </trkpt>
      <trkpt lat="45.52518" lon="6.78365">
        <ele>1536.2699</ele>
        <time>2015-08-20T16:30:51Z</time>
      </trkpt>
      <trkpt lat="45.52517" lon="6.78367">
        <ele>1536.2699</ele>
        <time>2015-08-20T16:30:56Z</time>
      </trkpt>
      <trkpt lat="45.52517" lon="6.78367">
        <ele>1536.2699</ele>
        <time>2015-08-20T16:31:06Z</time>
      </trkpt>
      <trkpt lat="45.52512" lon="6.78371">
        <ele>1536.8351</ele>
        <time>2015-08-20T16:31:11Z</time>
      </trkpt>
      <trkpt lat="45.525" lon="6.7838">
        <ele>1537.4977</ele>
        <time>2015-08-20T16:31:21Z</time>
      </trkpt>
      <trkpt lat="45.52499" lon="6.7838">
        <ele>1537.4977</ele>
        <time>2015-08-20T16:31:26Z</time>
      </trkpt>
      <trkpt lat="45.52498" lon="6.7838">
        <ele>1537.4977</ele>
        <time>2015-08-20T16:31:36Z</time>
      </trkpt>
      <trkpt lat="45.52495" lon="6.78383">
        <ele>1537.4977</ele>
        <time>2015-08-20T16:31:41Z</time>
      </trkpt>
      <trkpt lat="45.52491" lon="6.78387">
        <ele>1538.3964</ele>
        <time>2015-08-20T16:31:56Z</time>
      </trkpt>
      <trkpt lat="45.52491" lon="6.78387">
        <ele>1538.3964</ele>
        <time>2015-08-20T16:32:01Z</time>
      </trkpt>
      <trkpt lat="45.52489" lon="6.78388">
        <ele>1538.3964</ele>
        <time>2015-08-20T16:32:11Z</time>
      </trkpt>
      <trkpt lat="45.52486" lon="6.78391">
        <ele>1538.3964</ele>
        <time>2015-08-20T16:32:16Z</time>
      </trkpt>
      <trkpt lat="45.52482" lon="6.78395">
        <ele>1539.7748</ele>
        <time>2015-08-20T16:32:26Z</time>
      </trkpt>
      <trkpt lat="45.52479" lon="6.78397">
        <ele>1539.7748</ele>
        <time>2015-08-20T16:32:31Z</time>
      </trkpt>
      <trkpt lat="45.52475" lon="6.78399">
        <ele>1539.7748</ele>
        <time>2015-08-20T16:32:41Z</time>
      </trkpt>
      <trkpt lat="45.52475" lon="6.78401">
        <ele>1539.7748</ele>
        <time>2015-08-20T16:32:46Z</time>
      </trkpt>
      <trkpt lat="45.52475" lon="6.7841">
        <ele>1541.5688</ele>
        <time>2015-08-20T16:32:56Z</time>
      </trkpt>
      <trkpt lat="45.52475" lon="6.78412">
        <ele>1541.5688</ele>
        <time>2015-08-20T16:33:01Z</time>
      </trkpt>
      <trkpt lat="45.52474" lon="6.78413">
        <ele>1541.5688</ele>
        <time>2015-08-20T16:33:51Z</time>
      </trkpt>
      <trkpt lat="45.52468" lon="6.78426">
        <ele>1543.4875</ele>
        <time>2015-08-20T16:34:01Z</time>
      </trkpt>
      <trkpt lat="45.52463" lon="6.78436">
        <ele>1543.4875</ele>
        <time>2015-08-20T16:34:06Z</time>
      </trkpt>
      <trkpt lat="45.5246" lon="6.78455">
        <ele>1545.3331</ele>
        <time>2015-08-20T16:34:16Z</time>
      </trkpt>
      <trkpt lat="45.52458" lon="6.7847">
        <ele>1547.1672</ele>
        <time>2015-08-20T16:34:21Z</time>
      </trkpt>
      <trkpt lat="45.52459" lon="6.7848">
        <ele>1547.1672</ele>
        <time>2015-08-20T16:34:31Z</time>
      </trkpt>
      <trkpt lat="45.52456" lon="6.78487">
        <ele>1549.1914</ele>
        <time>2015-08-20T16:34:36Z</time>
      </trkpt>
      <trkpt lat="45.52453" lon="6.78499">
        <ele>1549.1914</ele>
        <time>2015-08-20T16:34:46Z</time>
      </trkpt>
      <trkpt lat="45.52452" lon="6.78503">
        <ele>1551.0729</ele>
        <time>2015-08-20T16:34:51Z</time>
      </trkpt>
      <trkpt lat="45.52446" lon="6.78515">
        <ele>1552.9076</ele>
        <time>2015-08-20T16:35:01Z</time>
      </trkpt>
      <trkpt lat="45.52446" lon="6.7852">
        <ele>1552.9076</ele>
        <time>2015-08-20T16:35:06Z</time>
      </trkpt>
      <trkpt lat="45.52442" lon="6.78538">
        <ele>1554.8418</ele>
        <time>2015-08-20T16:35:21Z</time>
      </trkpt>
      <trkpt lat="45.5244" lon="6.78542">
        <ele>1554.8418</ele>
        <time>2015-08-20T16:35:26Z</time>
      </trkpt>
      <trkpt lat="45.52439" lon="6.78551">
        <ele>1556.6365</ele>
        <time>2015-08-20T16:35:36Z</time>
      </trkpt>
      <trkpt lat="45.52438" lon="6.78558">
        <ele>1556.6365</ele>
        <time>2015-08-20T16:35:41Z</time>
      </trkpt>
      <trkpt lat="45.52432" lon="6.78573">
        <ele>1557.7098</ele>
        <time>2015-08-20T16:35:51Z</time>
      </trkpt>
      <trkpt lat="45.52427" lon="6.78578">
        <ele>1557.7098</ele>
        <time>2015-08-20T16:35:56Z</time>
      </trkpt>
      <trkpt lat="45.52422" lon="6.78591">
        <ele>1558.174</ele>
        <time>2015-08-20T16:36:06Z</time>
      </trkpt>
      <trkpt lat="45.52418" lon="6.78598">
        <ele>1558.174</ele>
        <time>2015-08-20T16:36:11Z</time>
      </trkpt>
      <trkpt lat="45.52413" lon="6.78599">
        <ele>1558.2205</ele>
        <time>2015-08-20T16:36:21Z</time>
      </trkpt>
      <trkpt lat="45.5241" lon="6.78598">
        <ele>1558.2205</ele>
        <time>2015-08-20T16:36:26Z</time>
      </trkpt>
      <trkpt lat="45.52405" lon="6.78599">
        <ele>1558.2205</ele>
        <time>2015-08-20T16:36:36Z</time>
      </trkpt>
      <trkpt lat="45.52402" lon="6.78603">
        <ele>1557.9417</ele>
        <time>2015-08-20T16:36:41Z</time>
      </trkpt>
      <trkpt lat="45.52398" lon="6.78616">
        <ele>1557.4817</ele>
        <time>2015-08-20T16:36:51Z</time>
      </trkpt>
      <trkpt lat="45.52398" lon="6.78631">
        <ele>1557.018</ele>
        <time>2015-08-20T16:36:56Z</time>
      </trkpt>
      <trkpt lat="45.52401" lon="6.78646">
        <ele>1556.4696</ele>
        <time>2015-08-20T16:37:06Z</time>
      </trkpt>
      <trkpt lat="45.52403" lon="6.78651">
        <ele>1556.4696</ele>
        <time>2015-08-20T16:37:11Z</time>
      </trkpt>
      <trkpt lat="45.52405" lon="6.78656">
        <ele>1556.4696</ele>
        <time>2015-08-20T16:37:21Z</time>
      </trkpt>
      <trkpt lat="45.52404" lon="6.78654">
        <ele>1556.4696</ele>
        <time>2015-08-20T16:37:41Z</time>
      </trkpt>
      <trkpt lat="45.52404" lon="6.78652">
        <ele>1555.7477</ele>
        <time>2015-08-20T16:37:56Z</time>
      </trkpt>
      <trkpt lat="45.52406" lon="6.78655">
        <ele>1555.7477</ele>
        <time>2015-08-20T16:38:01Z</time>
      </trkpt>
      <trkpt lat="45.52407" lon="6.78666">
        <ele>1555.2312</ele>
        <time>2015-08-20T16:38:11Z</time>
      </trkpt>
      <trkpt lat="45.52407" lon="6.78666">
        <ele>1555.2312</ele>
        <time>2015-08-20T16:38:16Z</time>
      </trkpt>
      <trkpt lat="45.52408" lon="6.78668">
        <ele>1555.2312</ele>
        <time>2015-08-20T16:38:26Z</time>
      </trkpt>
      <trkpt lat="45.52414" lon="6.78673">
        <ele>1555.2312</ele>
        <time>2015-08-20T16:38:31Z</time>
      </trkpt>
      <trkpt lat="45.52419" lon="6.78687">
        <ele>1555.2131</ele>
        <time>2015-08-20T16:38:41Z</time>
      </trkpt>
      <trkpt lat="45.52421" lon="6.78697">
        <ele>1555.2131</ele>
        <time>2015-08-20T16:38:46Z</time>
      </trkpt>
      <trkpt lat="45.5242" lon="6.78704">
        <ele>1555.2861</ele>
        <time>2015-08-20T16:38:56Z</time>
      </trkpt>
      <trkpt lat="45.5242" lon="6.78709">
        <ele>1555.2861</ele>
        <time>2015-08-20T16:39:01Z</time>
      </trkpt>
      <trkpt lat="45.52423" lon="6.78734">
        <ele>1555.1589</ele>
        <time>2015-08-20T16:39:11Z</time>
      </trkpt>
      <trkpt lat="45.52426" lon="6.78741">
        <ele>1555.1589</ele>
        <time>2015-08-20T16:39:16Z</time>
      </trkpt>
      <trkpt lat="45.5243" lon="6.78761">
        <ele>1554.6484</ele>
        <time>2015-08-20T16:39:31Z</time>
      </trkpt>
      <trkpt lat="45.52431" lon="6.78768">
        <ele>1554.6484</ele>
        <time>2015-08-20T16:39:36Z</time>
      </trkpt>
      <trkpt lat="45.52434" lon="6.7878">
        <ele>1553.8168</ele>
        <time>2015-08-20T16:39:46Z</time>
      </trkpt>
      <trkpt lat="45.52435" lon="6.78787">
        <ele>1553.8168</ele>
        <time>2015-08-20T16:39:51Z</time>
      </trkpt>
      <trkpt lat="45.52438" lon="6.78797">
        <ele>1552.9094</ele>
        <time>2015-08-20T16:40:01Z</time>
      </trkpt>
      <trkpt lat="45.52437" lon="6.78806">
        <ele>1552.9094</ele>
        <time>2015-08-20T16:40:06Z</time>
      </trkpt>
      <trkpt lat="45.52435" lon="6.78824">
        <ele>1551.5344</ele>
        <time>2015-08-20T16:40:16Z</time>
      </trkpt>
      <trkpt lat="45.52436" lon="6.78831">
        <ele>1551.5344</ele>
        <time>2015-08-20T16:40:21Z</time>
      </trkpt>
      <trkpt lat="45.52439" lon="6.78849">
        <ele>1550.2375</ele>
        <time>2015-08-20T16:40:31Z</time>
      </trkpt>
      <trkpt lat="45.52442" lon="6.78857">
        <ele>1550.2375</ele>
        <time>2015-08-20T16:40:36Z</time>
      </trkpt>
      <trkpt lat="45.52443" lon="6.78873">
        <ele>1549.1785</ele>
        <time>2015-08-20T16:40:46Z</time>
      </trkpt>
      <trkpt lat="45.52444" lon="6.78878">
        <ele>1549.1785</ele>
        <time>2015-08-20T16:40:51Z</time>
      </trkpt>
      <trkpt lat="45.52448" lon="6.78893">
        <ele>1547.6826</ele>
        <time>2015-08-20T16:41:01Z</time>
      </trkpt>
      <trkpt lat="45.5245" lon="6.78898">
        <ele>1547.6826</ele>
        <time>2015-08-20T16:41:06Z</time>
      </trkpt>
      <trkpt lat="45.52455" lon="6.78911">
        <ele>1546.0919</ele>
        <time>2015-08-20T16:41:16Z</time>
      </trkpt>
      <trkpt lat="45.52456" lon="6.7892">
        <ele>1546.0919</ele>
        <time>2015-08-20T16:41:21Z</time>
      </trkpt>
      <trkpt lat="45.52458" lon="6.78932">
        <ele>1544.7085</ele>
        <time>2015-08-20T16:41:31Z</time>
      </trkpt>
      <trkpt lat="45.52459" lon="6.78938">
        <ele>1544.7085</ele>
        <time>2015-08-20T16:41:36Z</time>
      </trkpt>
      <trkpt lat="45.52461" lon="6.78958">
        <ele>1543.9558</ele>
        <time>2015-08-20T16:41:51Z</time>
      </trkpt>
      <trkpt lat="45.52462" lon="6.78968">
        <ele>1543.9558</ele>
        <time>2015-08-20T16:41:56Z</time>
      </trkpt>
      <trkpt lat="45.52466" lon="6.78982">
        <ele>1543.1003</ele>
        <time>2015-08-20T16:42:06Z</time>
      </trkpt>
      <trkpt lat="45.52468" lon="6.78989">
        <ele>1543.1003</ele>
        <time>2015-08-20T16:42:11Z</time>
      </trkpt>
      <trkpt lat="45.5247" lon="6.79002">
        <ele>1541.938</ele>
        <time>2015-08-20T16:42:21Z</time>
      </trkpt>
      <trkpt lat="45.5247" lon="6.79009">
        <ele>1541.938</ele>
        <time>2015-08-20T16:42:26Z</time>
      </trkpt>
      <trkpt lat="45.5247" lon="6.79009">
        <ele>1541.938</ele>
        <time>2015-08-20T16:42:36Z</time>
      </trkpt>
      <trkpt lat="45.52471" lon="6.79012">
        <ele>1541.938</ele>
        <time>2015-08-20T16:42:56Z</time>
      </trkpt>
      <trkpt lat="45.52471" lon="6.79034">
        <ele>1540.1361</ele>
        <time>2015-08-20T16:43:06Z</time>
      </trkpt>
      <trkpt lat="45.52472" lon="6.7904">
        <ele>1540.1361</ele>
        <time>2015-08-20T16:43:11Z</time>
      </trkpt>
      <trkpt lat="45.52472" lon="6.79052">
        <ele>1538.0657</ele>
        <time>2015-08-20T16:43:21Z</time>
      </trkpt>
      <trkpt lat="45.52471" lon="6.79056">
        <ele>1538.0657</ele>
        <time>2015-08-20T16:43:26Z</time>
      </trkpt>
      <trkpt lat="45.52463" lon="6.7906">
        <ele>1536.1141</ele>
        <time>2015-08-20T16:43:36Z</time>
      </trkpt>
      <trkpt lat="45.5246" lon="6.79063">
        <ele>1536.1141</ele>
        <time>2015-08-20T16:43:41Z</time>
      </trkpt>
      <trkpt lat="45.52458" lon="6.79069">
        <ele>1536.1141</ele>
        <time>2015-08-20T16:43:51Z</time>
      </trkpt>
      <trkpt lat="45.52459" lon="6.79073">
        <ele>1534.2938</ele>
        <time>2015-08-20T16:43:56Z</time>
      </trkpt>
      <trkpt lat="45.52461" lon="6.79075">
        <ele>1534.2938</ele>
        <time>2015-08-20T16:44:11Z</time>
      </trkpt>
      <trkpt lat="45.52467" lon="6.7908">
        <ele>1532.5872</ele>
        <time>2015-08-20T16:44:41Z</time>
      </trkpt>
      <trkpt lat="45.5247" lon="6.79086">
        <ele>1532.5872</ele>
        <time>2015-08-20T16:44:46Z</time>
      </trkpt>
      <trkpt lat="45.52477" lon="6.79099">
        <ele>1530.7466</ele>
        <time>2015-08-20T16:44:56Z</time>
      </trkpt>
      <trkpt lat="45.52481" lon="6.79105">
        <ele>1530.7466</ele>
        <time>2015-08-20T16:45:01Z</time>
      </trkpt>
      <trkpt lat="45.52487" lon="6.79113">
        <ele>1528.9607</ele>
        <time>2015-08-20T16:45:11Z</time>
      </trkpt>
      <trkpt lat="45.52487" lon="6.7912">
        <ele>1528.9607</ele>
        <time>2015-08-20T16:45:16Z</time>
      </trkpt>
      <trkpt lat="45.52484" lon="6.79131">
        <ele>1527.3031</ele>
        <time>2015-08-20T16:45:26Z</time>
      </trkpt>
      <trkpt lat="45.52483" lon="6.79142">
        <ele>1527.3031</ele>
        <time>2015-08-20T16:45:31Z</time>
      </trkpt>
      <trkpt lat="45.52484" lon="6.79156">
        <ele>1525.6831</ele>
        <time>2015-08-20T16:45:41Z</time>
      </trkpt>
      <trkpt lat="45.52483" lon="6.79163">
        <ele>1525.6831</ele>
        <time>2015-08-20T16:45:46Z</time>
      </trkpt>
      <trkpt lat="45.52482" lon="6.79174">
        <ele>1524.1888</ele>
        <time>2015-08-20T16:45:56Z</time>
      </trkpt>
      <trkpt lat="45.52478" lon="6.79181">
        <ele>1524.1888</ele>
        <time>2015-08-20T16:46:01Z</time>
      </trkpt>
      <trkpt lat="45.52473" lon="6.79198">
        <ele>1522.902</ele>
        <time>2015-08-20T16:46:11Z</time>
      </trkpt>
      <trkpt lat="45.5247" lon="6.79205">
        <ele>1522.902</ele>
        <time>2015-08-20T16:46:16Z</time>
      </trkpt>
      <trkpt lat="45.52464" lon="6.79219">
        <ele>1521.7816</ele>
        <time>2015-08-20T16:46:26Z</time>
      </trkpt>
      <trkpt lat="45.52463" lon="6.79226">
        <ele>1521.7816</ele>
        <time>2015-08-20T16:46:31Z</time>
      </trkpt>
      <trkpt lat="45.52456" lon="6.7924">
        <ele>1521.0055</ele>
        <time>2015-08-20T16:46:41Z</time>
      </trkpt>
      <trkpt lat="45.52455" lon="6.79247">
        <ele>1521.0055</ele>
        <time>2015-08-20T16:46:46Z</time>
      </trkpt>
      <trkpt lat="45.52442" lon="6.79265">
        <ele>1520.1321</ele>
        <time>2015-08-20T16:47:01Z</time>
      </trkpt>
      <trkpt lat="45.52439" lon="6.79271">
        <ele>1520.1321</ele>
        <time>2015-08-20T16:47:06Z</time>
      </trkpt>
      <trkpt lat="45.52431" lon="6.7928">
        <ele>1519.2855</ele>
        <time>2015-08-20T16:47:16Z</time>
      </trkpt>
      <trkpt lat="45.52428" lon="6.79283">
        <ele>1519.2855</ele>
        <time>2015-08-20T16:47:21Z</time>
      </trkpt>
      <trkpt lat="45.52421" lon="6.79296">
        <ele>1518.4938</ele>
        <time>2015-08-20T16:47:31Z</time>
      </trkpt>
      <trkpt lat="45.52417" lon="6.79302">
        <ele>1518.4938</ele>
        <time>2015-08-20T16:47:36Z</time>
      </trkpt>
      <trkpt lat="45.52413" lon="6.79314">
        <ele>1517.7108</ele>
        <time>2015-08-20T16:47:46Z</time>
      </trkpt>
      <trkpt lat="45.52411" lon="6.7932">
        <ele>1517.7108</ele>
        <time>2015-08-20T16:47:51Z</time>
      </trkpt>
      <trkpt lat="45.5241" lon="6.79335">
        <ele>1517.081</ele>
        <time>2015-08-20T16:48:01Z</time>
      </trkpt>
      <trkpt lat="45.52409" lon="6.79343">
        <ele>1517.081</ele>
        <time>2015-08-20T16:48:06Z</time>
      </trkpt>
      <trkpt lat="45.52413" lon="6.7935">
        <ele>1516.752</ele>
        <time>2015-08-20T16:48:16Z</time>
      </trkpt>
      <trkpt lat="45.52417" lon="6.79353">
        <ele>1516.752</ele>
        <time>2015-08-20T16:48:21Z</time>
      </trkpt>
      <trkpt lat="45.52426" lon="6.79362">
        <ele>1516.6863</ele>
        <time>2015-08-20T16:48:31Z</time>
      </trkpt>
      <trkpt lat="45.52427" lon="6.79369">
        <ele>1516.6863</ele>
        <time>2015-08-20T16:48:36Z</time>
      </trkpt>
      <trkpt lat="45.52428" lon="6.79383">
        <ele>1516.8345</ele>
        <time>2015-08-20T16:48:46Z</time>
      </trkpt>
      <trkpt lat="45.52428" lon="6.79388">
        <ele>1516.8345</ele>
        <time>2015-08-20T16:48:51Z</time>
      </trkpt>
      <trkpt lat="45.5243" lon="6.79404">
        <ele>1517.0776</ele>
        <time>2015-08-20T16:49:01Z</time>
      </trkpt>
      <trkpt lat="45.52431" lon="6.79411">
        <ele>1517.0776</ele>
        <time>2015-08-20T16:49:06Z</time>
      </trkpt>
      <trkpt lat="45.52431" lon="6.79426">
        <ele>1517.363</ele>
        <time>2015-08-20T16:49:16Z</time>
      </trkpt>
      <trkpt lat="45.52431" lon="6.79431">
        <ele>1517.363</ele>
        <time>2015-08-20T16:49:21Z</time>
      </trkpt>
      <trkpt lat="45.52422" lon="6.79446">
        <ele>1517.5117</ele>
        <time>2015-08-20T16:49:36Z</time>
      </trkpt>
      <trkpt lat="45.5242" lon="6.79451">
        <ele>1517.5117</ele>
        <time>2015-08-20T16:49:41Z</time>
      </trkpt>
      <trkpt lat="45.52411" lon="6.79462">
        <ele>1517.7908</ele>
        <time>2015-08-20T16:49:51Z</time>
      </trkpt>
      <trkpt lat="45.52406" lon="6.7947">
        <ele>1517.7908</ele>
        <time>2015-08-20T16:49:56Z</time>
      </trkpt>
      <trkpt lat="45.52398" lon="6.79483">
        <ele>1518.1588</ele>
        <time>2015-08-20T16:50:06Z</time>
      </trkpt>
      <trkpt lat="45.52394" lon="6.79487">
        <ele>1518.1588</ele>
        <time>2015-08-20T16:50:11Z</time>
      </trkpt>
      <trkpt lat="45.52386" lon="6.79497">
        <ele>1518.6782</ele>
        <time>2015-08-20T16:50:21Z</time>
      </trkpt>
      <trkpt lat="45.52384" lon="6.795">
        <ele>1518.6782</ele>
        <time>2015-08-20T16:50:26Z</time>
      </trkpt>
      <trkpt lat="45.52373" lon="6.7951">
        <ele>1519.3488</ele>
        <time>2015-08-20T16:50:36Z</time>
      </trkpt>
      <trkpt lat="45.5237" lon="6.79515">
        <ele>1519.3488</ele>
        <time>2015-08-20T16:50:41Z</time>
      </trkpt>
      <trkpt lat="45.52363" lon="6.79524">
        <ele>1520.083</ele>
        <time>2015-08-20T16:50:51Z</time>
      </trkpt>
      <trkpt lat="45.5236" lon="6.79531">
        <ele>1520.083</ele>
        <time>2015-08-20T16:50:56Z</time>
      </trkpt>
      <trkpt lat="45.52359" lon="6.79548">
        <ele>1520.7568</ele>
        <time>2015-08-20T16:51:06Z</time>
      </trkpt>
      <trkpt lat="45.52359" lon="6.79555">
        <ele>1520.7568</ele>
        <time>2015-08-20T16:51:11Z</time>
      </trkpt>
      <trkpt lat="45.5236" lon="6.7957">
        <ele>1521.4282</ele>
        <time>2015-08-20T16:51:21Z</time>
      </trkpt>
      <trkpt lat="45.5236" lon="6.79577">
        <ele>1521.4282</ele>
        <time>2015-08-20T16:51:26Z</time>
      </trkpt>
      <trkpt lat="45.52359" lon="6.79595">
        <ele>1522.0646</ele>
        <time>2015-08-20T16:51:36Z</time>
      </trkpt>
      <trkpt lat="45.52357" lon="6.79603">
        <ele>1522.0646</ele>
        <time>2015-08-20T16:51:41Z</time>
      </trkpt>
      <trkpt lat="45.52358" lon="6.79618">
        <ele>1522.6212</ele>
        <time>2015-08-20T16:51:51Z</time>
      </trkpt>
      <trkpt lat="45.52357" lon="6.79625">
        <ele>1522.6212</ele>
        <time>2015-08-20T16:51:56Z</time>
      </trkpt>
      <trkpt lat="45.52356" lon="6.79638">
        <ele>1523.1869</ele>
        <time>2015-08-20T16:52:06Z</time>
      </trkpt>
      <trkpt lat="45.52354" lon="6.79644">
        <ele>1523.1869</ele>
        <time>2015-08-20T16:52:11Z</time>
      </trkpt>
      <trkpt lat="45.5235" lon="6.79667">
        <ele>1523.8151</ele>
        <time>2015-08-20T16:52:26Z</time>
      </trkpt>
      <trkpt lat="45.52347" lon="6.79674">
        <ele>1523.8151</ele>
        <time>2015-08-20T16:52:31Z</time>
      </trkpt>
      <trkpt lat="45.52342" lon="6.79689">
        <ele>1524.4684</ele>
        <time>2015-08-20T16:52:41Z</time>
      </trkpt>
      <trkpt lat="45.5234" lon="6.79698">
        <ele>1524.4684</ele>
        <time>2015-08-20T16:52:46Z</time>
      </trkpt>
      <trkpt lat="45.52338" lon="6.79711">
        <ele>1525.0261</ele>
        <time>2015-08-20T16:52:56Z</time>
      </trkpt>
      <trkpt lat="45.52337" lon="6.79718">
        <ele>1525.0261</ele>
        <time>2015-08-20T16:53:01Z</time>
      </trkpt>
      <trkpt lat="45.52335" lon="6.79731">
        <ele>1525.5928</ele>
        <time>2015-08-20T16:53:11Z</time>
      </trkpt>
      <trkpt lat="45.52334" lon="6.79739">
        <ele>1525.5928</ele>
        <time>2015-08-20T16:53:16Z</time>
      </trkpt>
      <trkpt lat="45.52334" lon="6.79755">
        <ele>1526.1499</ele>
        <time>2015-08-20T16:53:26Z</time>
      </trkpt>
      <trkpt lat="45.52336" lon="6.79762">
        <ele>1526.1499</ele>
        <time>2015-08-20T16:53:31Z</time>
      </trkpt>
      <trkpt lat="45.52337" lon="6.79773">
        <ele>1526.7814</ele>
        <time>2015-08-20T16:53:41Z</time>
      </trkpt>
      <trkpt lat="45.52336" lon="6.79783">
        <ele>1526.7814</ele>
        <time>2015-08-20T16:53:46Z</time>
      </trkpt>
      <trkpt lat="45.52333" lon="6.79797">
        <ele>1527.6515</ele>
        <time>2015-08-20T16:53:56Z</time>
      </trkpt>
      <trkpt lat="45.52332" lon="6.79802">
        <ele>1527.6515</ele>
        <time>2015-08-20T16:54:01Z</time>
      </trkpt>
      <trkpt lat="45.52328" lon="6.79815">
        <ele>1528.5945</ele>
        <time>2015-08-20T16:54:11Z</time>
      </trkpt>
      <trkpt lat="45.52326" lon="6.79821">
        <ele>1528.5945</ele>
        <time>2015-08-20T16:54:16Z</time>
      </trkpt>
      <trkpt lat="45.52321" lon="6.79834">
        <ele>1529.5577</ele>
        <time>2015-08-20T16:54:26Z</time>
      </trkpt>
      <trkpt lat="45.5232" lon="6.79841">
        <ele>1529.5577</ele>
        <time>2015-08-20T16:54:31Z</time>
      </trkpt>
      <trkpt lat="45.52323" lon="6.79847">
        <ele>1530.6222</ele>
        <time>2015-08-20T16:54:46Z</time>
      </trkpt>
      <trkpt lat="45.5232" lon="6.79845">
        <ele>1530.6222</ele>
        <time>2015-08-20T16:54:51Z</time>
      </trkpt>
      <trkpt lat="45.52314" lon="6.79847">
        <ele>1531.7476</ele>
        <time>2015-08-20T16:55:01Z</time>
      </trkpt>
      <trkpt lat="45.5231" lon="6.79852">
        <ele>1531.7476</ele>
        <time>2015-08-20T16:55:06Z</time>
      </trkpt>
      <trkpt lat="45.52299" lon="6.79857">
        <ele>1532.752</ele>
        <time>2015-08-20T16:55:16Z</time>
      </trkpt>
      <trkpt lat="45.52293" lon="6.79856">
        <ele>1532.752</ele>
        <time>2015-08-20T16:55:21Z</time>
      </trkpt>
      <trkpt lat="45.52283" lon="6.79857">
        <ele>1533.828</ele>
        <time>2015-08-20T16:55:31Z</time>
      </trkpt>
      <trkpt lat="45.52277" lon="6.79859">
        <ele>1533.828</ele>
        <time>2015-08-20T16:55:36Z</time>
      </trkpt>
      <trkpt lat="45.52269" lon="6.79867">
        <ele>1534.981</ele>
        <time>2015-08-20T16:55:46Z</time>
      </trkpt>
      <trkpt lat="45.52265" lon="6.79868">
        <ele>1534.981</ele>
        <time>2015-08-20T16:55:51Z</time>
      </trkpt>
      <trkpt lat="45.52252" lon="6.7987">
        <ele>1536.0137</ele>
        <time>2015-08-20T16:56:01Z</time>
      </trkpt>
      <trkpt lat="45.52248" lon="6.79872">
        <ele>1536.0137</ele>
        <time>2015-08-20T16:56:06Z</time>
      </trkpt>
      <trkpt lat="45.52241" lon="6.79883">
        <ele>1537.0035</ele>
        <time>2015-08-20T16:56:16Z</time>
      </trkpt>
      <trkpt lat="45.52236" lon="6.79886">
        <ele>1537.0035</ele>
        <time>2015-08-20T16:56:21Z</time>
      </trkpt>
      <trkpt lat="45.52219" lon="6.79889">
        <ele>1537.9506</ele>
        <time>2015-08-20T16:56:36Z</time>
      </trkpt>
      <trkpt lat="45.52213" lon="6.79886">
        <ele>1537.9506</ele>
        <time>2015-08-20T16:56:41Z</time>
      </trkpt>
      <trkpt lat="45.52203" lon="6.79888">
        <ele>1538.9125</ele>
        <time>2015-08-20T16:56:51Z</time>
      </trkpt>
      <trkpt lat="45.52198" lon="6.7989">
        <ele>1538.9125</ele>
        <time>2015-08-20T16:56:56Z</time>
      </trkpt>
      <trkpt lat="45.5219" lon="6.79892">
        <ele>1539.8994</ele>
        <time>2015-08-20T16:57:06Z</time>
      </trkpt>
      <trkpt lat="45.52185" lon="6.79894">
        <ele>1539.8994</ele>
        <time>2015-08-20T16:57:11Z</time>
      </trkpt>
      <trkpt lat="45.52176" lon="6.79901">
        <ele>1540.806</ele>
        <time>2015-08-20T16:57:21Z</time>
      </trkpt>
      <trkpt lat="45.52172" lon="6.79905">
        <ele>1540.806</ele>
        <time>2015-08-20T16:57:26Z</time>
      </trkpt>
      <trkpt lat="45.52164" lon="6.79915">
        <ele>1541.5778</ele>
        <time>2015-08-20T16:57:36Z</time>
      </trkpt>
      <trkpt lat="45.5216" lon="6.7992">
        <ele>1541.5778</ele>
        <time>2015-08-20T16:57:41Z</time>
      </trkpt>
      <trkpt lat="45.52153" lon="6.79932">
        <ele>1542.2227</ele>
        <time>2015-08-20T16:57:51Z</time>
      </trkpt>
      <trkpt lat="45.5215" lon="6.79935">
        <ele>1542.2227</ele>
        <time>2015-08-20T16:57:56Z</time>
      </trkpt>
      <trkpt lat="45.52143" lon="6.79951">
        <ele>1542.7051</ele>
        <time>2015-08-20T16:58:06Z</time>
      </trkpt>
      <trkpt lat="45.52141" lon="6.79958">
        <ele>1542.7051</ele>
        <time>2015-08-20T16:58:11Z</time>
      </trkpt>
      <trkpt lat="45.52138" lon="6.79972">
        <ele>1543.1226</ele>
        <time>2015-08-20T16:58:21Z</time>
      </trkpt>
      <trkpt lat="45.52137" lon="6.79977">
        <ele>1543.1226</ele>
        <time>2015-08-20T16:58:26Z</time>
      </trkpt>
      <trkpt lat="45.52131" lon="6.79989">
        <ele>1543.4646</ele>
        <time>2015-08-20T16:58:36Z</time>
      </trkpt>
      <trkpt lat="45.52126" lon="6.79995">
        <ele>1543.4646</ele>
        <time>2015-08-20T16:58:41Z</time>
      </trkpt>
      <trkpt lat="45.52112" lon="6.80006">
        <ele>1543.765</ele>
        <time>2015-08-20T16:58:56Z</time>
      </trkpt>
      <trkpt lat="45.52107" lon="6.80009">
        <ele>1543.765</ele>
        <time>2015-08-20T16:59:01Z</time>
      </trkpt>
      <trkpt lat="45.52102" lon="6.80021">
        <ele>1544.0702</ele>
        <time>2015-08-20T16:59:11Z</time>
      </trkpt>
      <trkpt lat="45.52099" lon="6.80028">
        <ele>1544.0702</ele>
        <time>2015-08-20T16:59:16Z</time>
      </trkpt>
      <trkpt lat="45.52097" lon="6.80042">
        <ele>1544.2786</ele>
        <time>2015-08-20T16:59:26Z</time>
      </trkpt>
      <trkpt lat="45.52097" lon="6.80051">
        <ele>1544.2786</ele>
        <time>2015-08-20T16:59:31Z</time>
      </trkpt>
      <trkpt lat="45.521" lon="6.80053">
        <ele>1544.484</ele>
        <time>2015-08-20T16:59:41Z</time>
      </trkpt>
      <trkpt lat="45.52101" lon="6.80051">
        <ele>1544.484</ele>
        <time>2015-08-20T16:59:46Z</time>
      </trkpt>
      <trkpt lat="45.52096" lon="6.80056">
        <ele>1544.484</ele>
        <time>2015-08-20T16:59:56Z</time>
      </trkpt>
      <trkpt lat="45.52094" lon="6.80063">
        <ele>1544.6438</ele>
        <time>2015-08-20T17:00:01Z</time>
      </trkpt>
      <trkpt lat="45.52091" lon="6.80077">
        <ele>1544.8481</ele>
        <time>2015-08-20T17:00:11Z</time>
      </trkpt>
      <trkpt lat="45.52088" lon="6.80082">
        <ele>1544.8481</ele>
        <time>2015-08-20T17:00:16Z</time>
      </trkpt>
      <trkpt lat="45.52084" lon="6.80092">
        <ele>1545.0944</ele>
        <time>2015-08-20T17:00:26Z</time>
      </trkpt>
      <trkpt lat="45.52081" lon="6.80097">
        <ele>1545.0944</ele>
        <time>2015-08-20T17:00:31Z</time>
      </trkpt>
      <trkpt lat="45.52068" lon="6.80118">
        <ele>1545.423</ele>
        <time>2015-08-20T17:00:46Z</time>
      </trkpt>
      <trkpt lat="45.52066" lon="6.80126">
        <ele>1545.423</ele>
        <time>2015-08-20T17:00:51Z</time>
      </trkpt>
      <trkpt lat="45.52067" lon="6.80134">
        <ele>1545.7416</ele>
        <time>2015-08-20T17:01:01Z</time>
      </trkpt>
      <trkpt lat="45.52065" lon="6.80144">
        <ele>1545.7416</ele>
        <time>2015-08-20T17:01:06Z</time>
      </trkpt>
      <trkpt lat="45.52061" lon="6.80158">
        <ele>1546.0513</ele>
        <time>2015-08-20T17:01:16Z</time>
      </trkpt>
      <trkpt lat="45.5206" lon="6.80167">
        <ele>1546.0513</ele>
        <time>2015-08-20T17:01:21Z</time>
      </trkpt>
      <trkpt lat="45.52057" lon="6.80184">
        <ele>1546.3673</ele>
        <time>2015-08-20T17:01:31Z</time>
      </trkpt>
      <trkpt lat="45.52055" lon="6.80192">
        <ele>1546.3673</ele>
        <time>2015-08-20T17:01:36Z</time>
      </trkpt>
      <trkpt lat="45.5205" lon="6.80206">
        <ele>1546.5168</ele>
        <time>2015-08-20T17:01:46Z</time>
      </trkpt>
      <trkpt lat="45.52047" lon="6.80214">
        <ele>1546.5168</ele>
        <time>2015-08-20T17:01:51Z</time>
      </trkpt>
      <trkpt lat="45.52045" lon="6.80227">
        <ele>1546.5128</ele>
        <time>2015-08-20T17:02:01Z</time>
      </trkpt>
      <trkpt lat="45.52043" lon="6.80235">
        <ele>1546.5128</ele>
        <time>2015-08-20T17:02:06Z</time>
      </trkpt>
      <trkpt lat="45.52041" lon="6.80245">
        <ele>1546.3103</ele>
        <time>2015-08-20T17:02:16Z</time>
      </trkpt>
      <trkpt lat="45.52039" lon="6.80253">
        <ele>1546.3103</ele>
        <time>2015-08-20T17:02:21Z</time>
      </trkpt>
      <trkpt lat="45.52039" lon="6.80267">
        <ele>1545.9545</ele>
        <time>2015-08-20T17:02:31Z</time>
      </trkpt>
      <trkpt lat="45.52035" lon="6.80273">
        <ele>1545.9545</ele>
        <time>2015-08-20T17:02:36Z</time>
      </trkpt>
      <trkpt lat="45.5203" lon="6.80287">
        <ele>1545.7904</ele>
        <time>2015-08-20T17:02:46Z</time>
      </trkpt>
      <trkpt lat="45.52026" lon="6.80289">
        <ele>1545.7904</ele>
        <time>2015-08-20T17:02:51Z</time>
      </trkpt>
      <trkpt lat="45.52017" lon="6.80285">
        <ele>1545.8203</ele>
        <time>2015-08-20T17:03:06Z</time>
      </trkpt>
      <trkpt lat="45.52017" lon="6.80285">
        <ele>1545.8203</ele>
        <time>2015-08-20T17:03:11Z</time>
      </trkpt>
      <trkpt lat="45.52016" lon="6.80283">
        <ele>1545.8203</ele>
        <time>2015-08-20T17:03:21Z</time>
      </trkpt>
      <trkpt lat="45.52014" lon="6.80281">
        <ele>1545.8203</ele>
        <time>2015-08-20T17:03:26Z</time>
      </trkpt>
      <trkpt lat="45.52006" lon="6.80277">
        <ele>1546.1609</ele>
        <time>2015-08-20T17:03:36Z</time>
      </trkpt>
      <trkpt lat="45.52005" lon="6.80276">
        <ele>1546.1609</ele>
        <time>2015-08-20T17:03:41Z</time>
      </trkpt>
      <trkpt lat="45.52001" lon="6.80275">
        <ele>1546.1609</ele>
        <time>2015-08-20T17:03:51Z</time>
      </trkpt>
      <trkpt lat="45.51995" lon="6.80274">
        <ele>1546.7897</ele>
        <time>2015-08-20T17:03:56Z</time>
      </trkpt>
      <trkpt lat="45.51981" lon="6.80268">
        <ele>1547.4833</ele>
        <time>2015-08-20T17:04:06Z</time>
      </trkpt>
      <trkpt lat="45.51973" lon="6.80265">
        <ele>1547.4833</ele>
        <time>2015-08-20T17:04:11Z</time>
      </trkpt>
      <trkpt lat="45.51962" lon="6.80263">
        <ele>1548.2653</ele>
        <time>2015-08-20T17:04:21Z</time>
      </trkpt>
      <trkpt lat="45.51956" lon="6.80261">
        <ele>1548.2653</ele>
        <time>2015-08-20T17:04:26Z</time>
      </trkpt>
      <trkpt lat="45.51944" lon="6.80261">
        <ele>1548.9985</ele>
        <time>2015-08-20T17:04:36Z</time>
      </trkpt>
      <trkpt lat="45.51943" lon="6.80262">
        <ele>1548.9985</ele>
        <time>2015-08-20T17:04:41Z</time>
      </trkpt>
      <trkpt lat="45.51929" lon="6.80247">
        <ele>1549.758</ele>
        <time>2015-08-20T17:04:56Z</time>
      </trkpt>
      <trkpt lat="45.51925" lon="6.8024">
        <ele>1549.758</ele>
        <time>2015-08-20T17:05:01Z</time>
      </trkpt>
      <trkpt lat="45.51918" lon="6.80241">
        <ele>1550.5988</ele>
        <time>2015-08-20T17:05:11Z</time>
      </trkpt>
      <trkpt lat="45.51916" lon="6.80242">
        <ele>1550.5988</ele>
        <time>2015-08-20T17:05:16Z</time>
      </trkpt>
      <trkpt lat="45.51907" lon="6.80247">
        <ele>1551.3695</ele>
        <time>2015-08-20T17:05:26Z</time>
      </trkpt>
      <trkpt lat="45.51903" lon="6.80246">
        <ele>1551.3695</ele>
        <time>2015-08-20T17:05:31Z</time>
      </trkpt>
      <trkpt lat="45.51896" lon="6.80245">
        <ele>1551.9739</ele>
        <time>2015-08-20T17:05:41Z</time>
      </trkpt>
      <trkpt lat="45.51887" lon="6.80246">
        <ele>1551.9739</ele>
        <time>2015-08-20T17:05:46Z</time>
      </trkpt>
      <trkpt lat="45.51866" lon="6.80244">
        <ele>1552.3804</ele>
        <time>2015-08-20T17:05:56Z</time>
      </trkpt>
      <trkpt lat="45.51861" lon="6.80249">
        <ele>1552.3804</ele>
        <time>2015-08-20T17:06:01Z</time>
      </trkpt>
      <trkpt lat="45.51856" lon="6.80259">
        <ele>1552.5752</ele>
        <time>2015-08-20T17:06:11Z</time>
      </trkpt>
      <trkpt lat="45.51857" lon="6.80268">
        <ele>1552.5752</ele>
        <time>2015-08-20T17:06:16Z</time>
      </trkpt>
      <trkpt lat="45.5186" lon="6.80283">
        <ele>1552.7185</ele>
        <time>2015-08-20T17:06:26Z</time>
      </trkpt>
      <trkpt lat="45.5186" lon="6.80289">
        <ele>1552.7185</ele>
        <time>2015-08-20T17:06:31Z</time>
      </trkpt>
      <trkpt lat="45.5186" lon="6.80289">
        <ele>1552.7185</ele>
        <time>2015-08-20T17:06:41Z</time>
      </trkpt>
      <trkpt lat="45.5186" lon="6.80293">
        <ele>1552.7185</ele>
        <time>2015-08-20T17:06:56Z</time>
      </trkpt>
      <trkpt lat="45.51861" lon="6.80303">
        <ele>1552.8875</ele>
        <time>2015-08-20T17:07:01Z</time>
      </trkpt>
      <trkpt lat="45.51859" lon="6.80327">
        <ele>1553.2107</ele>
        <time>2015-08-20T17:07:16Z</time>
      </trkpt>
      <trkpt lat="45.51859" lon="6.80335">
        <ele>1553.2107</ele>
        <time>2015-08-20T17:07:21Z</time>
      </trkpt>
      <trkpt lat="45.51859" lon="6.80351">
        <ele>1553.6628</ele>
        <time>2015-08-20T17:07:31Z</time>
      </trkpt>
      <trkpt lat="45.51859" lon="6.80359">
        <ele>1553.6628</ele>
        <time>2015-08-20T17:07:36Z</time>
      </trkpt>
      <trkpt lat="45.51859" lon="6.80372">
        <ele>1554.1338</ele>
        <time>2015-08-20T17:07:46Z</time>
      </trkpt>
      <trkpt lat="45.51858" lon="6.80382">
        <ele>1554.1338</ele>
        <time>2015-08-20T17:07:51Z</time>
      </trkpt>
      <trkpt lat="45.51856" lon="6.804">
        <ele>1554.7087</ele>
        <time>2015-08-20T17:08:01Z</time>
      </trkpt>
      <trkpt lat="45.51857" lon="6.80407">
        <ele>1554.7087</ele>
        <time>2015-08-20T17:08:06Z</time>
      </trkpt>
      <trkpt lat="45.51859" lon="6.80415">
        <ele>1555.4086</ele>
        <time>2015-08-20T17:08:16Z</time>
      </trkpt>
      <trkpt lat="45.51859" lon="6.8042">
        <ele>1555.4086</ele>
        <time>2015-08-20T17:08:21Z</time>
      </trkpt>
      <trkpt lat="45.51859" lon="6.8042">
        <ele>1555.4086</ele>
        <time>2015-08-20T17:08:31Z</time>
      </trkpt>
      <trkpt lat="45.51858" lon="6.80418">
        <ele>1555.4086</ele>
        <time>2015-08-20T17:08:46Z</time>
      </trkpt>
      <trkpt lat="45.51857" lon="6.80423">
        <ele>1555.4086</ele>
        <time>2015-08-20T17:08:51Z</time>
      </trkpt>
      <trkpt lat="45.51859" lon="6.80438">
        <ele>1555.6184</ele>
        <time>2015-08-20T17:09:01Z</time>
      </trkpt>
      <trkpt lat="45.51861" lon="6.80448">
        <ele>1555.6184</ele>
        <time>2015-08-20T17:09:06Z</time>
      </trkpt>
      <trkpt lat="45.51863" lon="6.80459">
        <ele>1556.2539</ele>
        <time>2015-08-20T17:09:16Z</time>
      </trkpt>
      <trkpt lat="45.51863" lon="6.80464">
        <ele>1556.2539</ele>
        <time>2015-08-20T17:09:21Z</time>
      </trkpt>
      <trkpt lat="45.51863" lon="6.80469">
        <ele>1556.2539</ele>
        <time>2015-08-20T17:09:31Z</time>
      </trkpt>
      <trkpt lat="45.51861" lon="6.80481">
        <ele>1556.736</ele>
        <time>2015-08-20T17:09:51Z</time>
      </trkpt>
      <trkpt lat="45.51859" lon="6.80489">
        <ele>1556.736</ele>
        <time>2015-08-20T17:09:56Z</time>
      </trkpt>
      <trkpt lat="45.51852" lon="6.80485">
        <ele>1557.1046</ele>
        <time>2015-08-20T17:10:06Z</time>
      </trkpt>
      <trkpt lat="45.51849" lon="6.80483">
        <ele>1557.1046</ele>
        <time>2015-08-20T17:10:11Z</time>
      </trkpt>
      <trkpt lat="45.51838" lon="6.80477">
        <ele>1557.7433</ele>
        <time>2015-08-20T17:10:21Z</time>
      </trkpt>
      <trkpt lat="45.51834" lon="6.8048">
        <ele>1557.7433</ele>
        <time>2015-08-20T17:10:26Z</time>
      </trkpt>
      <trkpt lat="45.51833" lon="6.80484">
        <ele>1557.7433</ele>
        <time>2015-08-20T17:10:36Z</time>
      </trkpt>
      <trkpt lat="45.51833" lon="6.80484">
        <ele>1557.7433</ele>
        <time>2015-08-20T17:10:41Z</time>
      </trkpt>
      <trkpt lat="45.51833" lon="6.80485">
        <ele>1557.7433</ele>
        <time>2015-08-20T17:10:51Z</time>
      </trkpt>
      <trkpt lat="45.51833" lon="6.80485">
        <ele>1557.7433</ele>
        <time>2015-08-20T17:10:56Z</time>
      </trkpt>
      <trkpt lat="45.51833" lon="6.80485">
        <ele>1557.7433</ele>
        <time>2015-08-20T17:11:06Z</time>
      </trkpt>
      <trkpt lat="45.51832" lon="6.80487">
        <ele>1558.1995</ele>
        <time>2015-08-20T17:11:11Z</time>
      </trkpt>
      <trkpt lat="45.51832" lon="6.80498">
        <ele>1558.1995</ele>
        <time>2015-08-20T17:11:21Z</time>
      </trkpt>
      <trkpt lat="45.51832" lon="6.80498">
        <ele>1558.1995</ele>
        <time>2015-08-20T17:11:26Z</time>
      </trkpt>
    </trkseg>
  </trk>
</gpx>